<?xml version="1.0" encoding="UTF-8" standalone="no" ?>
<gpx xmlns="http://www.topografix.com/GPX/1/1" xmlns:xsi="http://www.w3.org/2001/XMLSchema-instance" xsi:schemaLocation="http://www.topografix.com/GPX/1/1 http://www.topografix.com/GPX/1/1/gpx.xsd" version="1.1" creator="VisuGPX - https://www.visugpx.com">
  <metadata>
    <name>2017-08-20 Bike ride-Amberieux-Rance O 35</name>
    <desc><![CDATA[2017-08-20 Bike ride-Amberieux-Rance O 35]]></desc>
  </metadata>
  <wpt lat="45.92465" lon="4.73701">
    <ele>174</ele>
    <name><![CDATA[2017-08-20 10:20 (Start)]]></name>
  </wpt>
  <wpt lat="45.92461" lon="4.73706">
    <ele>174</ele>
    <name><![CDATA[2017-08-20 10:20 (End)]]></name>
    <desc><![CDATA[Created by Google My Tracks on Android  Name: 2017-08-20 10:20 Activity type: biking Description: - Total distance: 34.90 km (21.7 mi) Total time: 1:47:35 Moving time: 1:40:41 Average speed: 19.46 km/h (12.1 mi/h) Average moving speed: 20.79 km/h (12.9 mi/h) Max speed: 46.78 km/h (29.1 mi/h) Average pace: 3:05 min/km (4:58 min/mi) Average moving pace: 2:53 min/km (4:39 min/mi) Fastest pace: 1:17 min/km (2:04 min/mi) Max elevation: 293 m (961 ft) Min elevation: 168 m (553 ft) Elevation gain: 588 m (1930 ft) Max grade: 24 % Min grade: -96 % Recorded: 20/08/2017 10:20]]></desc>
  </wpt>
  <trk>
    <name><![CDATA[2017-08-20 10:20]]></name>
    <trkseg>
      <trkpt lat="45.92465" lon="4.73701">
        <ele>174</ele>
        <time>2017-08-20T08:20:14.315Z</time>
      </trkpt>
      <trkpt lat="45.92468" lon="4.73691">
        <ele>174</ele>
        <time>2017-08-20T08:22:23Z</time>
      </trkpt>
      <trkpt lat="45.92469" lon="4.73688">
        <ele>174</ele>
        <time>2017-08-20T08:22:24Z</time>
      </trkpt>
      <trkpt lat="45.9247" lon="4.73679">
        <ele>174</ele>
        <time>2017-08-20T08:22:26Z</time>
      </trkpt>
      <trkpt lat="45.9247" lon="4.73675">
        <ele>174</ele>
        <time>2017-08-20T08:22:27Z</time>
      </trkpt>
      <trkpt lat="45.9247" lon="4.73665">
        <ele>174</ele>
        <time>2017-08-20T08:22:29Z</time>
      </trkpt>
      <trkpt lat="45.92472" lon="4.7366">
        <ele>174</ele>
        <time>2017-08-20T08:22:30Z</time>
      </trkpt>
      <trkpt lat="45.92472" lon="4.73653">
        <ele>174</ele>
        <time>2017-08-20T08:22:31Z</time>
      </trkpt>
      <trkpt lat="45.92473" lon="4.73647">
        <ele>174</ele>
        <time>2017-08-20T08:22:32Z</time>
      </trkpt>
      <trkpt lat="45.92477" lon="4.73637">
        <ele>174</ele>
        <time>2017-08-20T08:22:34Z</time>
      </trkpt>
      <trkpt lat="45.92479" lon="4.73633">
        <ele>174</ele>
        <time>2017-08-20T08:22:35Z</time>
      </trkpt>
      <trkpt lat="45.92485" lon="4.73629">
        <ele>174</ele>
        <time>2017-08-20T08:22:37Z</time>
      </trkpt>
      <trkpt lat="45.9249" lon="4.73629">
        <ele>174</ele>
        <time>2017-08-20T08:22:38Z</time>
      </trkpt>
      <trkpt lat="45.92494" lon="4.73629">
        <ele>174</ele>
        <time>2017-08-20T08:22:39Z</time>
      </trkpt>
      <trkpt lat="45.92499" lon="4.7363">
        <ele>174</ele>
        <time>2017-08-20T08:22:40Z</time>
      </trkpt>
      <trkpt lat="45.92507" lon="4.73629">
        <ele>173</ele>
        <time>2017-08-20T08:22:42Z</time>
      </trkpt>
      <trkpt lat="45.92512" lon="4.73628">
        <ele>173</ele>
        <time>2017-08-20T08:22:43Z</time>
      </trkpt>
      <trkpt lat="45.92517" lon="4.73629">
        <ele>173</ele>
        <time>2017-08-20T08:22:44Z</time>
      </trkpt>
      <trkpt lat="45.92522" lon="4.73629">
        <ele>173</ele>
        <time>2017-08-20T08:22:45Z</time>
      </trkpt>
      <trkpt lat="45.92527" lon="4.73629">
        <ele>173</ele>
        <time>2017-08-20T08:22:46Z</time>
      </trkpt>
      <trkpt lat="45.92532" lon="4.73629">
        <ele>173</ele>
        <time>2017-08-20T08:22:47Z</time>
      </trkpt>
      <trkpt lat="45.92537" lon="4.73628">
        <ele>173</ele>
        <time>2017-08-20T08:22:48Z</time>
      </trkpt>
      <trkpt lat="45.92543" lon="4.73628">
        <ele>173</ele>
        <time>2017-08-20T08:22:49Z</time>
      </trkpt>
      <trkpt lat="45.92548" lon="4.73626">
        <ele>173</ele>
        <time>2017-08-20T08:22:50Z</time>
      </trkpt>
      <trkpt lat="45.92553" lon="4.73624">
        <ele>173</ele>
        <time>2017-08-20T08:22:51Z</time>
      </trkpt>
      <trkpt lat="45.92559" lon="4.73623">
        <ele>173</ele>
        <time>2017-08-20T08:22:52Z</time>
      </trkpt>
      <trkpt lat="45.92563" lon="4.73621">
        <ele>173</ele>
        <time>2017-08-20T08:22:53Z</time>
      </trkpt>
      <trkpt lat="45.92571" lon="4.73617">
        <ele>173</ele>
        <time>2017-08-20T08:22:55Z</time>
      </trkpt>
      <trkpt lat="45.92575" lon="4.73616">
        <ele>173</ele>
        <time>2017-08-20T08:22:56Z</time>
      </trkpt>
      <trkpt lat="45.92583" lon="4.73614">
        <ele>173</ele>
        <time>2017-08-20T08:22:58Z</time>
      </trkpt>
      <trkpt lat="45.92588" lon="4.73613">
        <ele>173</ele>
        <time>2017-08-20T08:22:59Z</time>
      </trkpt>
      <trkpt lat="45.92593" lon="4.73612">
        <ele>173</ele>
        <time>2017-08-20T08:23:00Z</time>
      </trkpt>
      <trkpt lat="45.92598" lon="4.73612">
        <ele>173</ele>
        <time>2017-08-20T08:23:01Z</time>
      </trkpt>
      <trkpt lat="45.92604" lon="4.73612">
        <ele>173</ele>
        <time>2017-08-20T08:23:02Z</time>
      </trkpt>
      <trkpt lat="45.92609" lon="4.73613">
        <ele>173</ele>
        <time>2017-08-20T08:23:03Z</time>
      </trkpt>
      <trkpt lat="45.92615" lon="4.73614">
        <ele>173</ele>
        <time>2017-08-20T08:23:04Z</time>
      </trkpt>
      <trkpt lat="45.9262" lon="4.73618">
        <ele>173</ele>
        <time>2017-08-20T08:23:05Z</time>
      </trkpt>
      <trkpt lat="45.92623" lon="4.73626">
        <ele>173</ele>
        <time>2017-08-20T08:23:06Z</time>
      </trkpt>
      <trkpt lat="45.92626" lon="4.73632">
        <ele>173</ele>
        <time>2017-08-20T08:23:07Z</time>
      </trkpt>
      <trkpt lat="45.92629" lon="4.73639">
        <ele>173</ele>
        <time>2017-08-20T08:23:08Z</time>
      </trkpt>
      <trkpt lat="45.92631" lon="4.73646">
        <ele>173</ele>
        <time>2017-08-20T08:23:09Z</time>
      </trkpt>
      <trkpt lat="45.92634" lon="4.73653">
        <ele>173</ele>
        <time>2017-08-20T08:23:10Z</time>
      </trkpt>
      <trkpt lat="45.92637" lon="4.73659">
        <ele>173</ele>
        <time>2017-08-20T08:23:11Z</time>
      </trkpt>
      <trkpt lat="45.92639" lon="4.73665">
        <ele>173</ele>
        <time>2017-08-20T08:23:12Z</time>
      </trkpt>
      <trkpt lat="45.92642" lon="4.73671">
        <ele>173</ele>
        <time>2017-08-20T08:23:13Z</time>
      </trkpt>
      <trkpt lat="45.92645" lon="4.73676">
        <ele>173</ele>
        <time>2017-08-20T08:23:14Z</time>
      </trkpt>
      <trkpt lat="45.92649" lon="4.73681">
        <ele>173</ele>
        <time>2017-08-20T08:23:15Z</time>
      </trkpt>
      <trkpt lat="45.92653" lon="4.73686">
        <ele>173</ele>
        <time>2017-08-20T08:23:16Z</time>
      </trkpt>
      <trkpt lat="45.92657" lon="4.7369">
        <ele>173</ele>
        <time>2017-08-20T08:23:17Z</time>
      </trkpt>
      <trkpt lat="45.92662" lon="4.73694">
        <ele>173</ele>
        <time>2017-08-20T08:23:18Z</time>
      </trkpt>
      <trkpt lat="45.92667" lon="4.73698">
        <ele>174</ele>
        <time>2017-08-20T08:23:19Z</time>
      </trkpt>
      <trkpt lat="45.92672" lon="4.73701">
        <ele>174</ele>
        <time>2017-08-20T08:23:20Z</time>
      </trkpt>
      <trkpt lat="45.92678" lon="4.73703">
        <ele>173</ele>
        <time>2017-08-20T08:23:21Z</time>
      </trkpt>
      <trkpt lat="45.92684" lon="4.73705">
        <ele>173</ele>
        <time>2017-08-20T08:23:22Z</time>
      </trkpt>
      <trkpt lat="45.92689" lon="4.73707">
        <ele>173</ele>
        <time>2017-08-20T08:23:23Z</time>
      </trkpt>
      <trkpt lat="45.92695" lon="4.73709">
        <ele>173</ele>
        <time>2017-08-20T08:23:24Z</time>
      </trkpt>
      <trkpt lat="45.927" lon="4.7371">
        <ele>173</ele>
        <time>2017-08-20T08:23:25Z</time>
      </trkpt>
      <trkpt lat="45.92705" lon="4.73712">
        <ele>173</ele>
        <time>2017-08-20T08:23:26Z</time>
      </trkpt>
      <trkpt lat="45.9271" lon="4.73714">
        <ele>173</ele>
        <time>2017-08-20T08:23:27Z</time>
      </trkpt>
      <trkpt lat="45.92716" lon="4.73715">
        <ele>173</ele>
        <time>2017-08-20T08:23:28Z</time>
      </trkpt>
      <trkpt lat="45.9272" lon="4.73715">
        <ele>173</ele>
        <time>2017-08-20T08:23:29Z</time>
      </trkpt>
      <trkpt lat="45.92725" lon="4.73716">
        <ele>173</ele>
        <time>2017-08-20T08:23:30Z</time>
      </trkpt>
      <trkpt lat="45.9273" lon="4.73717">
        <ele>173</ele>
        <time>2017-08-20T08:23:31Z</time>
      </trkpt>
      <trkpt lat="45.92735" lon="4.73719">
        <ele>173</ele>
        <time>2017-08-20T08:23:32Z</time>
      </trkpt>
      <trkpt lat="45.9274" lon="4.7372">
        <ele>173</ele>
        <time>2017-08-20T08:23:33Z</time>
      </trkpt>
      <trkpt lat="45.92746" lon="4.73722">
        <ele>173</ele>
        <time>2017-08-20T08:23:34Z</time>
      </trkpt>
      <trkpt lat="45.92751" lon="4.73723">
        <ele>172</ele>
        <time>2017-08-20T08:23:35Z</time>
      </trkpt>
      <trkpt lat="45.92755" lon="4.73724">
        <ele>172</ele>
        <time>2017-08-20T08:23:36Z</time>
      </trkpt>
      <trkpt lat="45.9276" lon="4.73726">
        <ele>172</ele>
        <time>2017-08-20T08:23:37Z</time>
      </trkpt>
      <trkpt lat="45.92769" lon="4.73728">
        <ele>172</ele>
        <time>2017-08-20T08:23:39Z</time>
      </trkpt>
      <trkpt lat="45.92773" lon="4.7373">
        <ele>172</ele>
        <time>2017-08-20T08:23:40Z</time>
      </trkpt>
      <trkpt lat="45.92779" lon="4.73735">
        <ele>172</ele>
        <time>2017-08-20T08:23:42Z</time>
      </trkpt>
      <trkpt lat="45.92782" lon="4.73739">
        <ele>172</ele>
        <time>2017-08-20T08:23:43Z</time>
      </trkpt>
      <trkpt lat="45.92787" lon="4.73747">
        <ele>172</ele>
        <time>2017-08-20T08:23:45Z</time>
      </trkpt>
      <trkpt lat="45.92791" lon="4.73751">
        <ele>173</ele>
        <time>2017-08-20T08:23:46Z</time>
      </trkpt>
      <trkpt lat="45.92794" lon="4.73755">
        <ele>173</ele>
        <time>2017-08-20T08:23:47Z</time>
      </trkpt>
      <trkpt lat="45.92798" lon="4.73759">
        <ele>173</ele>
        <time>2017-08-20T08:23:48Z</time>
      </trkpt>
      <trkpt lat="45.92803" lon="4.73763">
        <ele>173</ele>
        <time>2017-08-20T08:23:49Z</time>
      </trkpt>
      <trkpt lat="45.92808" lon="4.73766">
        <ele>173</ele>
        <time>2017-08-20T08:23:50Z</time>
      </trkpt>
      <trkpt lat="45.92812" lon="4.73769">
        <ele>173</ele>
        <time>2017-08-20T08:23:51Z</time>
      </trkpt>
      <trkpt lat="45.92817" lon="4.73773">
        <ele>173</ele>
        <time>2017-08-20T08:23:52Z</time>
      </trkpt>
      <trkpt lat="45.92822" lon="4.73776">
        <ele>173</ele>
        <time>2017-08-20T08:23:53Z</time>
      </trkpt>
      <trkpt lat="45.92827" lon="4.7378">
        <ele>173</ele>
        <time>2017-08-20T08:23:54Z</time>
      </trkpt>
      <trkpt lat="45.92832" lon="4.73783">
        <ele>173</ele>
        <time>2017-08-20T08:23:55Z</time>
      </trkpt>
      <trkpt lat="45.92837" lon="4.73787">
        <ele>173</ele>
        <time>2017-08-20T08:23:56Z</time>
      </trkpt>
      <trkpt lat="45.92842" lon="4.73791">
        <ele>173</ele>
        <time>2017-08-20T08:23:57Z</time>
      </trkpt>
      <trkpt lat="45.92847" lon="4.73796">
        <ele>173</ele>
        <time>2017-08-20T08:23:58Z</time>
      </trkpt>
      <trkpt lat="45.92851" lon="4.73802">
        <ele>173</ele>
        <time>2017-08-20T08:23:59Z</time>
      </trkpt>
      <trkpt lat="45.92853" lon="4.7381">
        <ele>173</ele>
        <time>2017-08-20T08:24:00Z</time>
      </trkpt>
      <trkpt lat="45.92854" lon="4.73818">
        <ele>173</ele>
        <time>2017-08-20T08:24:01Z</time>
      </trkpt>
      <trkpt lat="45.92856" lon="4.73825">
        <ele>173</ele>
        <time>2017-08-20T08:24:02Z</time>
      </trkpt>
      <trkpt lat="45.92858" lon="4.73832">
        <ele>173</ele>
        <time>2017-08-20T08:24:03Z</time>
      </trkpt>
      <trkpt lat="45.9286" lon="4.73839">
        <ele>173</ele>
        <time>2017-08-20T08:24:04Z</time>
      </trkpt>
      <trkpt lat="45.92862" lon="4.73846">
        <ele>173</ele>
        <time>2017-08-20T08:24:05Z</time>
      </trkpt>
      <trkpt lat="45.92862" lon="4.73852">
        <ele>173</ele>
        <time>2017-08-20T08:24:06Z</time>
      </trkpt>
      <trkpt lat="45.92864" lon="4.73865">
        <ele>173</ele>
        <time>2017-08-20T08:24:08Z</time>
      </trkpt>
      <trkpt lat="45.92866" lon="4.73871">
        <ele>173</ele>
        <time>2017-08-20T08:24:09Z</time>
      </trkpt>
      <trkpt lat="45.92868" lon="4.73882">
        <ele>173</ele>
        <time>2017-08-20T08:24:10Z</time>
      </trkpt>
      <trkpt lat="45.9287" lon="4.7389">
        <ele>173</ele>
        <time>2017-08-20T08:24:11Z</time>
      </trkpt>
      <trkpt lat="45.92872" lon="4.73899">
        <ele>173</ele>
        <time>2017-08-20T08:24:12Z</time>
      </trkpt>
      <trkpt lat="45.92873" lon="4.73908">
        <ele>173</ele>
        <time>2017-08-20T08:24:13Z</time>
      </trkpt>
      <trkpt lat="45.92874" lon="4.73917">
        <ele>173</ele>
        <time>2017-08-20T08:24:14Z</time>
      </trkpt>
      <trkpt lat="45.92875" lon="4.73926">
        <ele>173</ele>
        <time>2017-08-20T08:24:15Z</time>
      </trkpt>
      <trkpt lat="45.92876" lon="4.73936">
        <ele>172</ele>
        <time>2017-08-20T08:24:16Z</time>
      </trkpt>
      <trkpt lat="45.92877" lon="4.73945">
        <ele>172</ele>
        <time>2017-08-20T08:24:17Z</time>
      </trkpt>
      <trkpt lat="45.92878" lon="4.73953">
        <ele>172</ele>
        <time>2017-08-20T08:24:18Z</time>
      </trkpt>
      <trkpt lat="45.92878" lon="4.73961">
        <ele>172</ele>
        <time>2017-08-20T08:24:19Z</time>
      </trkpt>
      <trkpt lat="45.92879" lon="4.73968">
        <ele>172</ele>
        <time>2017-08-20T08:24:20Z</time>
      </trkpt>
      <trkpt lat="45.92878" lon="4.73975">
        <ele>172</ele>
        <time>2017-08-20T08:24:21Z</time>
      </trkpt>
      <trkpt lat="45.92878" lon="4.73982">
        <ele>172</ele>
        <time>2017-08-20T08:24:22Z</time>
      </trkpt>
      <trkpt lat="45.92878" lon="4.73989">
        <ele>172</ele>
        <time>2017-08-20T08:24:23Z</time>
      </trkpt>
      <trkpt lat="45.92876" lon="4.73995">
        <ele>172</ele>
        <time>2017-08-20T08:24:24Z</time>
      </trkpt>
      <trkpt lat="45.92874" lon="4.74002">
        <ele>172</ele>
        <time>2017-08-20T08:24:25Z</time>
      </trkpt>
      <trkpt lat="45.92872" lon="4.7401">
        <ele>172</ele>
        <time>2017-08-20T08:24:26Z</time>
      </trkpt>
      <trkpt lat="45.92871" lon="4.74017">
        <ele>172</ele>
        <time>2017-08-20T08:24:27Z</time>
      </trkpt>
      <trkpt lat="45.92871" lon="4.74025">
        <ele>172</ele>
        <time>2017-08-20T08:24:28Z</time>
      </trkpt>
      <trkpt lat="45.9287" lon="4.74032">
        <ele>172</ele>
        <time>2017-08-20T08:24:29Z</time>
      </trkpt>
      <trkpt lat="45.92868" lon="4.7404">
        <ele>172</ele>
        <time>2017-08-20T08:24:30Z</time>
      </trkpt>
      <trkpt lat="45.92865" lon="4.74047">
        <ele>172</ele>
        <time>2017-08-20T08:24:31Z</time>
      </trkpt>
      <trkpt lat="45.92861" lon="4.74053">
        <ele>172</ele>
        <time>2017-08-20T08:24:32Z</time>
      </trkpt>
      <trkpt lat="45.92856" lon="4.74059">
        <ele>172</ele>
        <time>2017-08-20T08:24:33Z</time>
      </trkpt>
      <trkpt lat="45.92852" lon="4.74064">
        <ele>172</ele>
        <time>2017-08-20T08:24:34Z</time>
      </trkpt>
      <trkpt lat="45.92847" lon="4.74071">
        <ele>172</ele>
        <time>2017-08-20T08:24:35Z</time>
      </trkpt>
      <trkpt lat="45.92843" lon="4.74076">
        <ele>172</ele>
        <time>2017-08-20T08:24:36Z</time>
      </trkpt>
      <trkpt lat="45.92838" lon="4.74082">
        <ele>171</ele>
        <time>2017-08-20T08:24:37Z</time>
      </trkpt>
      <trkpt lat="45.92834" lon="4.74088">
        <ele>171</ele>
        <time>2017-08-20T08:24:38Z</time>
      </trkpt>
      <trkpt lat="45.9283" lon="4.74094">
        <ele>171</ele>
        <time>2017-08-20T08:24:39Z</time>
      </trkpt>
      <trkpt lat="45.92825" lon="4.741">
        <ele>171</ele>
        <time>2017-08-20T08:24:40Z</time>
      </trkpt>
      <trkpt lat="45.9282" lon="4.74105">
        <ele>171</ele>
        <time>2017-08-20T08:24:41Z</time>
      </trkpt>
      <trkpt lat="45.92815" lon="4.7411">
        <ele>172</ele>
        <time>2017-08-20T08:24:42Z</time>
      </trkpt>
      <trkpt lat="45.92811" lon="4.74116">
        <ele>172</ele>
        <time>2017-08-20T08:24:43Z</time>
      </trkpt>
      <trkpt lat="45.92806" lon="4.74122">
        <ele>172</ele>
        <time>2017-08-20T08:24:44Z</time>
      </trkpt>
      <trkpt lat="45.92801" lon="4.74127">
        <ele>172</ele>
        <time>2017-08-20T08:24:45Z</time>
      </trkpt>
      <trkpt lat="45.92796" lon="4.74132">
        <ele>172</ele>
        <time>2017-08-20T08:24:46Z</time>
      </trkpt>
      <trkpt lat="45.92791" lon="4.74137">
        <ele>172</ele>
        <time>2017-08-20T08:24:47Z</time>
      </trkpt>
      <trkpt lat="45.92786" lon="4.74142">
        <ele>172</ele>
        <time>2017-08-20T08:24:48Z</time>
      </trkpt>
      <trkpt lat="45.92782" lon="4.74145">
        <ele>172</ele>
        <time>2017-08-20T08:24:49Z</time>
      </trkpt>
      <trkpt lat="45.92778" lon="4.74149">
        <ele>172</ele>
        <time>2017-08-20T08:24:50Z</time>
      </trkpt>
      <trkpt lat="45.92773" lon="4.74153">
        <ele>172</ele>
        <time>2017-08-20T08:24:51Z</time>
      </trkpt>
      <trkpt lat="45.92769" lon="4.74158">
        <ele>172</ele>
        <time>2017-08-20T08:24:52Z</time>
      </trkpt>
      <trkpt lat="45.92764" lon="4.74163">
        <ele>172</ele>
        <time>2017-08-20T08:24:53Z</time>
      </trkpt>
      <trkpt lat="45.9276" lon="4.74168">
        <ele>172</ele>
        <time>2017-08-20T08:24:54Z</time>
      </trkpt>
      <trkpt lat="45.92755" lon="4.74174">
        <ele>172</ele>
        <time>2017-08-20T08:24:55Z</time>
      </trkpt>
      <trkpt lat="45.9275" lon="4.74179">
        <ele>172</ele>
        <time>2017-08-20T08:24:56Z</time>
      </trkpt>
      <trkpt lat="45.92745" lon="4.74186">
        <ele>172</ele>
        <time>2017-08-20T08:24:57Z</time>
      </trkpt>
      <trkpt lat="45.92741" lon="4.74192">
        <ele>171</ele>
        <time>2017-08-20T08:24:58Z</time>
      </trkpt>
      <trkpt lat="45.92736" lon="4.74198">
        <ele>171</ele>
        <time>2017-08-20T08:24:59Z</time>
      </trkpt>
      <trkpt lat="45.92731" lon="4.74204">
        <ele>171</ele>
        <time>2017-08-20T08:25:00Z</time>
      </trkpt>
      <trkpt lat="45.92727" lon="4.74211">
        <ele>171</ele>
        <time>2017-08-20T08:25:01Z</time>
      </trkpt>
      <trkpt lat="45.92723" lon="4.74217">
        <ele>171</ele>
        <time>2017-08-20T08:25:02Z</time>
      </trkpt>
      <trkpt lat="45.92719" lon="4.74223">
        <ele>171</ele>
        <time>2017-08-20T08:25:03Z</time>
      </trkpt>
      <trkpt lat="45.92715" lon="4.74229">
        <ele>171</ele>
        <time>2017-08-20T08:25:04Z</time>
      </trkpt>
      <trkpt lat="45.92711" lon="4.74235">
        <ele>171</ele>
        <time>2017-08-20T08:25:05Z</time>
      </trkpt>
      <trkpt lat="45.92707" lon="4.74241">
        <ele>171</ele>
        <time>2017-08-20T08:25:06Z</time>
      </trkpt>
      <trkpt lat="45.92703" lon="4.74248">
        <ele>171</ele>
        <time>2017-08-20T08:25:07Z</time>
      </trkpt>
      <trkpt lat="45.92699" lon="4.74254">
        <ele>171</ele>
        <time>2017-08-20T08:25:08Z</time>
      </trkpt>
      <trkpt lat="45.92695" lon="4.74261">
        <ele>171</ele>
        <time>2017-08-20T08:25:09Z</time>
      </trkpt>
      <trkpt lat="45.92691" lon="4.74268">
        <ele>171</ele>
        <time>2017-08-20T08:25:10Z</time>
      </trkpt>
      <trkpt lat="45.92687" lon="4.74275">
        <ele>171</ele>
        <time>2017-08-20T08:25:11Z</time>
      </trkpt>
      <trkpt lat="45.92682" lon="4.74282">
        <ele>171</ele>
        <time>2017-08-20T08:25:12Z</time>
      </trkpt>
      <trkpt lat="45.92678" lon="4.74289">
        <ele>171</ele>
        <time>2017-08-20T08:25:13Z</time>
      </trkpt>
      <trkpt lat="45.92674" lon="4.74296">
        <ele>171</ele>
        <time>2017-08-20T08:25:14Z</time>
      </trkpt>
      <trkpt lat="45.9267" lon="4.74303">
        <ele>171</ele>
        <time>2017-08-20T08:25:15Z</time>
      </trkpt>
      <trkpt lat="45.92667" lon="4.7431">
        <ele>171</ele>
        <time>2017-08-20T08:25:16Z</time>
      </trkpt>
      <trkpt lat="45.92663" lon="4.74316">
        <ele>171</ele>
        <time>2017-08-20T08:25:17Z</time>
      </trkpt>
      <trkpt lat="45.92659" lon="4.74323">
        <ele>171</ele>
        <time>2017-08-20T08:25:18Z</time>
      </trkpt>
      <trkpt lat="45.92655" lon="4.74329">
        <ele>171</ele>
        <time>2017-08-20T08:25:19Z</time>
      </trkpt>
      <trkpt lat="45.92652" lon="4.74336">
        <ele>171</ele>
        <time>2017-08-20T08:25:20Z</time>
      </trkpt>
      <trkpt lat="45.92648" lon="4.74342">
        <ele>171</ele>
        <time>2017-08-20T08:25:21Z</time>
      </trkpt>
      <trkpt lat="45.92645" lon="4.74348">
        <ele>171</ele>
        <time>2017-08-20T08:25:22Z</time>
      </trkpt>
      <trkpt lat="45.92641" lon="4.74354">
        <ele>171</ele>
        <time>2017-08-20T08:25:23Z</time>
      </trkpt>
      <trkpt lat="45.92638" lon="4.74361">
        <ele>171</ele>
        <time>2017-08-20T08:25:24Z</time>
      </trkpt>
      <trkpt lat="45.92634" lon="4.74367">
        <ele>171</ele>
        <time>2017-08-20T08:25:25Z</time>
      </trkpt>
      <trkpt lat="45.9263" lon="4.74374">
        <ele>171</ele>
        <time>2017-08-20T08:25:26Z</time>
      </trkpt>
      <trkpt lat="45.92626" lon="4.7438">
        <ele>170</ele>
        <time>2017-08-20T08:25:27Z</time>
      </trkpt>
      <trkpt lat="45.92622" lon="4.74387">
        <ele>170</ele>
        <time>2017-08-20T08:25:28Z</time>
      </trkpt>
      <trkpt lat="45.92618" lon="4.74394">
        <ele>170</ele>
        <time>2017-08-20T08:25:29Z</time>
      </trkpt>
      <trkpt lat="45.92614" lon="4.74402">
        <ele>170</ele>
        <time>2017-08-20T08:25:30Z</time>
      </trkpt>
      <trkpt lat="45.9261" lon="4.74409">
        <ele>170</ele>
        <time>2017-08-20T08:25:31Z</time>
      </trkpt>
      <trkpt lat="45.92606" lon="4.74416">
        <ele>170</ele>
        <time>2017-08-20T08:25:32Z</time>
      </trkpt>
      <trkpt lat="45.92602" lon="4.74424">
        <ele>170</ele>
        <time>2017-08-20T08:25:33Z</time>
      </trkpt>
      <trkpt lat="45.92598" lon="4.74431">
        <ele>170</ele>
        <time>2017-08-20T08:25:34Z</time>
      </trkpt>
      <trkpt lat="45.92594" lon="4.74438">
        <ele>170</ele>
        <time>2017-08-20T08:25:35Z</time>
      </trkpt>
      <trkpt lat="45.9259" lon="4.74444">
        <ele>170</ele>
        <time>2017-08-20T08:25:36Z</time>
      </trkpt>
      <trkpt lat="45.92587" lon="4.74451">
        <ele>170</ele>
        <time>2017-08-20T08:25:37Z</time>
      </trkpt>
      <trkpt lat="45.92583" lon="4.74457">
        <ele>170</ele>
        <time>2017-08-20T08:25:38Z</time>
      </trkpt>
      <trkpt lat="45.9258" lon="4.74464">
        <ele>170</ele>
        <time>2017-08-20T08:25:39Z</time>
      </trkpt>
      <trkpt lat="45.92577" lon="4.7447">
        <ele>170</ele>
        <time>2017-08-20T08:25:40Z</time>
      </trkpt>
      <trkpt lat="45.92573" lon="4.74477">
        <ele>170</ele>
        <time>2017-08-20T08:25:41Z</time>
      </trkpt>
      <trkpt lat="45.9257" lon="4.74484">
        <ele>170</ele>
        <time>2017-08-20T08:25:42Z</time>
      </trkpt>
      <trkpt lat="45.92566" lon="4.7449">
        <ele>170</ele>
        <time>2017-08-20T08:25:43Z</time>
      </trkpt>
      <trkpt lat="45.92562" lon="4.74497">
        <ele>170</ele>
        <time>2017-08-20T08:25:44Z</time>
      </trkpt>
      <trkpt lat="45.92559" lon="4.74504">
        <ele>170</ele>
        <time>2017-08-20T08:25:45Z</time>
      </trkpt>
      <trkpt lat="45.92555" lon="4.74512">
        <ele>170</ele>
        <time>2017-08-20T08:25:46Z</time>
      </trkpt>
      <trkpt lat="45.92551" lon="4.74519">
        <ele>170</ele>
        <time>2017-08-20T08:25:47Z</time>
      </trkpt>
      <trkpt lat="45.92547" lon="4.74527">
        <ele>170</ele>
        <time>2017-08-20T08:25:48Z</time>
      </trkpt>
      <trkpt lat="45.92543" lon="4.74535">
        <ele>170</ele>
        <time>2017-08-20T08:25:49Z</time>
      </trkpt>
      <trkpt lat="45.92538" lon="4.74542">
        <ele>171</ele>
        <time>2017-08-20T08:25:50Z</time>
      </trkpt>
      <trkpt lat="45.92533" lon="4.74549">
        <ele>171</ele>
        <time>2017-08-20T08:25:51Z</time>
      </trkpt>
      <trkpt lat="45.92528" lon="4.74556">
        <ele>171</ele>
        <time>2017-08-20T08:25:52Z</time>
      </trkpt>
      <trkpt lat="45.92523" lon="4.74563">
        <ele>171</ele>
        <time>2017-08-20T08:25:53Z</time>
      </trkpt>
      <trkpt lat="45.92519" lon="4.7457">
        <ele>171</ele>
        <time>2017-08-20T08:25:54Z</time>
      </trkpt>
      <trkpt lat="45.92513" lon="4.74576">
        <ele>171</ele>
        <time>2017-08-20T08:25:55Z</time>
      </trkpt>
      <trkpt lat="45.92508" lon="4.74582">
        <ele>171</ele>
        <time>2017-08-20T08:25:56Z</time>
      </trkpt>
      <trkpt lat="45.92503" lon="4.74588">
        <ele>171</ele>
        <time>2017-08-20T08:25:57Z</time>
      </trkpt>
      <trkpt lat="45.92497" lon="4.74595">
        <ele>171</ele>
        <time>2017-08-20T08:25:58Z</time>
      </trkpt>
      <trkpt lat="45.92492" lon="4.74601">
        <ele>171</ele>
        <time>2017-08-20T08:25:59Z</time>
      </trkpt>
      <trkpt lat="45.92487" lon="4.74608">
        <ele>171</ele>
        <time>2017-08-20T08:26:00Z</time>
      </trkpt>
      <trkpt lat="45.92482" lon="4.74615">
        <ele>171</ele>
        <time>2017-08-20T08:26:01Z</time>
      </trkpt>
      <trkpt lat="45.92477" lon="4.74622">
        <ele>171</ele>
        <time>2017-08-20T08:26:02Z</time>
      </trkpt>
      <trkpt lat="45.92473" lon="4.74629">
        <ele>171</ele>
        <time>2017-08-20T08:26:03Z</time>
      </trkpt>
      <trkpt lat="45.92469" lon="4.74637">
        <ele>171</ele>
        <time>2017-08-20T08:26:04Z</time>
      </trkpt>
      <trkpt lat="45.92464" lon="4.74644">
        <ele>171</ele>
        <time>2017-08-20T08:26:05Z</time>
      </trkpt>
      <trkpt lat="45.9246" lon="4.74651">
        <ele>171</ele>
        <time>2017-08-20T08:26:06Z</time>
      </trkpt>
      <trkpt lat="45.92456" lon="4.74658">
        <ele>171</ele>
        <time>2017-08-20T08:26:07Z</time>
      </trkpt>
      <trkpt lat="45.92452" lon="4.74663">
        <ele>171</ele>
        <time>2017-08-20T08:26:08Z</time>
      </trkpt>
      <trkpt lat="45.92448" lon="4.74671">
        <ele>171</ele>
        <time>2017-08-20T08:26:09Z</time>
      </trkpt>
      <trkpt lat="45.92446" lon="4.74678">
        <ele>171</ele>
        <time>2017-08-20T08:26:10Z</time>
      </trkpt>
      <trkpt lat="45.92442" lon="4.74684">
        <ele>171</ele>
        <time>2017-08-20T08:26:11Z</time>
      </trkpt>
      <trkpt lat="45.92439" lon="4.74691">
        <ele>171</ele>
        <time>2017-08-20T08:26:12Z</time>
      </trkpt>
      <trkpt lat="45.92436" lon="4.74697">
        <ele>171</ele>
        <time>2017-08-20T08:26:13Z</time>
      </trkpt>
      <trkpt lat="45.92433" lon="4.74704">
        <ele>171</ele>
        <time>2017-08-20T08:26:14Z</time>
      </trkpt>
      <trkpt lat="45.9243" lon="4.74711">
        <ele>171</ele>
        <time>2017-08-20T08:26:15Z</time>
      </trkpt>
      <trkpt lat="45.92427" lon="4.74718">
        <ele>171</ele>
        <time>2017-08-20T08:26:16Z</time>
      </trkpt>
      <trkpt lat="45.92425" lon="4.74726">
        <ele>171</ele>
        <time>2017-08-20T08:26:17Z</time>
      </trkpt>
      <trkpt lat="45.92422" lon="4.74734">
        <ele>171</ele>
        <time>2017-08-20T08:26:18Z</time>
      </trkpt>
      <trkpt lat="45.92419" lon="4.74742">
        <ele>172</ele>
        <time>2017-08-20T08:26:19Z</time>
      </trkpt>
      <trkpt lat="45.92417" lon="4.7475">
        <ele>172</ele>
        <time>2017-08-20T08:26:20Z</time>
      </trkpt>
      <trkpt lat="45.92415" lon="4.74758">
        <ele>172</ele>
        <time>2017-08-20T08:26:21Z</time>
      </trkpt>
      <trkpt lat="45.92413" lon="4.74766">
        <ele>172</ele>
        <time>2017-08-20T08:26:22Z</time>
      </trkpt>
      <trkpt lat="45.92411" lon="4.74774">
        <ele>171</ele>
        <time>2017-08-20T08:26:23Z</time>
      </trkpt>
      <trkpt lat="45.92409" lon="4.74782">
        <ele>171</ele>
        <time>2017-08-20T08:26:24Z</time>
      </trkpt>
      <trkpt lat="45.92407" lon="4.74789">
        <ele>171</ele>
        <time>2017-08-20T08:26:25Z</time>
      </trkpt>
      <trkpt lat="45.92405" lon="4.74797">
        <ele>171</ele>
        <time>2017-08-20T08:26:26Z</time>
      </trkpt>
      <trkpt lat="45.92404" lon="4.74804">
        <ele>171</ele>
        <time>2017-08-20T08:26:27Z</time>
      </trkpt>
      <trkpt lat="45.92402" lon="4.74812">
        <ele>171</ele>
        <time>2017-08-20T08:26:28Z</time>
      </trkpt>
      <trkpt lat="45.924" lon="4.74819">
        <ele>171</ele>
        <time>2017-08-20T08:26:29Z</time>
      </trkpt>
      <trkpt lat="45.92399" lon="4.74828">
        <ele>171</ele>
        <time>2017-08-20T08:26:30Z</time>
      </trkpt>
      <trkpt lat="45.92396" lon="4.74835">
        <ele>171</ele>
        <time>2017-08-20T08:26:31Z</time>
      </trkpt>
      <trkpt lat="45.92394" lon="4.74843">
        <ele>171</ele>
        <time>2017-08-20T08:26:32Z</time>
      </trkpt>
      <trkpt lat="45.92392" lon="4.74851">
        <ele>171</ele>
        <time>2017-08-20T08:26:33Z</time>
      </trkpt>
      <trkpt lat="45.92389" lon="4.74859">
        <ele>171</ele>
        <time>2017-08-20T08:26:34Z</time>
      </trkpt>
      <trkpt lat="45.92386" lon="4.74867">
        <ele>171</ele>
        <time>2017-08-20T08:26:35Z</time>
      </trkpt>
      <trkpt lat="45.92383" lon="4.74875">
        <ele>171</ele>
        <time>2017-08-20T08:26:36Z</time>
      </trkpt>
      <trkpt lat="45.9238" lon="4.74883">
        <ele>171</ele>
        <time>2017-08-20T08:26:37Z</time>
      </trkpt>
      <trkpt lat="45.92377" lon="4.74891">
        <ele>171</ele>
        <time>2017-08-20T08:26:38Z</time>
      </trkpt>
      <trkpt lat="45.92374" lon="4.74899">
        <ele>171</ele>
        <time>2017-08-20T08:26:39Z</time>
      </trkpt>
      <trkpt lat="45.92371" lon="4.74906">
        <ele>171</ele>
        <time>2017-08-20T08:26:40Z</time>
      </trkpt>
      <trkpt lat="45.92367" lon="4.74914">
        <ele>171</ele>
        <time>2017-08-20T08:26:41Z</time>
      </trkpt>
      <trkpt lat="45.92365" lon="4.74921">
        <ele>170</ele>
        <time>2017-08-20T08:26:42Z</time>
      </trkpt>
      <trkpt lat="45.92362" lon="4.74928">
        <ele>170</ele>
        <time>2017-08-20T08:26:43Z</time>
      </trkpt>
      <trkpt lat="45.92359" lon="4.74935">
        <ele>170</ele>
        <time>2017-08-20T08:26:44Z</time>
      </trkpt>
      <trkpt lat="45.92356" lon="4.74942">
        <ele>170</ele>
        <time>2017-08-20T08:26:45Z</time>
      </trkpt>
      <trkpt lat="45.92354" lon="4.7495">
        <ele>170</ele>
        <time>2017-08-20T08:26:46Z</time>
      </trkpt>
      <trkpt lat="45.92351" lon="4.74957">
        <ele>170</ele>
        <time>2017-08-20T08:26:47Z</time>
      </trkpt>
      <trkpt lat="45.92349" lon="4.74964">
        <ele>170</ele>
        <time>2017-08-20T08:26:48Z</time>
      </trkpt>
      <trkpt lat="45.92346" lon="4.74971">
        <ele>170</ele>
        <time>2017-08-20T08:26:49Z</time>
      </trkpt>
      <trkpt lat="45.92343" lon="4.74979">
        <ele>170</ele>
        <time>2017-08-20T08:26:50Z</time>
      </trkpt>
      <trkpt lat="45.9234" lon="4.74986">
        <ele>170</ele>
        <time>2017-08-20T08:26:51Z</time>
      </trkpt>
      <trkpt lat="45.92337" lon="4.74994">
        <ele>170</ele>
        <time>2017-08-20T08:26:52Z</time>
      </trkpt>
      <trkpt lat="45.92334" lon="4.75002">
        <ele>170</ele>
        <time>2017-08-20T08:26:53Z</time>
      </trkpt>
      <trkpt lat="45.92331" lon="4.7501">
        <ele>171</ele>
        <time>2017-08-20T08:26:54Z</time>
      </trkpt>
      <trkpt lat="45.92327" lon="4.75018">
        <ele>171</ele>
        <time>2017-08-20T08:26:55Z</time>
      </trkpt>
      <trkpt lat="45.92324" lon="4.75025">
        <ele>171</ele>
        <time>2017-08-20T08:26:56Z</time>
      </trkpt>
      <trkpt lat="45.92319" lon="4.75032">
        <ele>171</ele>
        <time>2017-08-20T08:26:57Z</time>
      </trkpt>
      <trkpt lat="45.92315" lon="4.75039">
        <ele>172</ele>
        <time>2017-08-20T08:26:58Z</time>
      </trkpt>
      <trkpt lat="45.92311" lon="4.75046">
        <ele>172</ele>
        <time>2017-08-20T08:26:59Z</time>
      </trkpt>
      <trkpt lat="45.92307" lon="4.75052">
        <ele>172</ele>
        <time>2017-08-20T08:27:00Z</time>
      </trkpt>
      <trkpt lat="45.92302" lon="4.75058">
        <ele>172</ele>
        <time>2017-08-20T08:27:01Z</time>
      </trkpt>
      <trkpt lat="45.92298" lon="4.75063">
        <ele>172</ele>
        <time>2017-08-20T08:27:02Z</time>
      </trkpt>
      <trkpt lat="45.92294" lon="4.75068">
        <ele>172</ele>
        <time>2017-08-20T08:27:03Z</time>
      </trkpt>
      <trkpt lat="45.9229" lon="4.75072">
        <ele>172</ele>
        <time>2017-08-20T08:27:04Z</time>
      </trkpt>
      <trkpt lat="45.92285" lon="4.75077">
        <ele>172</ele>
        <time>2017-08-20T08:27:05Z</time>
      </trkpt>
      <trkpt lat="45.92281" lon="4.75082">
        <ele>172</ele>
        <time>2017-08-20T08:27:06Z</time>
      </trkpt>
      <trkpt lat="45.92277" lon="4.75088">
        <ele>173</ele>
        <time>2017-08-20T08:27:07Z</time>
      </trkpt>
      <trkpt lat="45.92272" lon="4.75093">
        <ele>173</ele>
        <time>2017-08-20T08:27:08Z</time>
      </trkpt>
      <trkpt lat="45.92267" lon="4.75097">
        <ele>173</ele>
        <time>2017-08-20T08:27:09Z</time>
      </trkpt>
      <trkpt lat="45.92262" lon="4.75103">
        <ele>173</ele>
        <time>2017-08-20T08:27:10Z</time>
      </trkpt>
      <trkpt lat="45.92257" lon="4.75108">
        <ele>174</ele>
        <time>2017-08-20T08:27:11Z</time>
      </trkpt>
      <trkpt lat="45.92252" lon="4.75113">
        <ele>174</ele>
        <time>2017-08-20T08:27:12Z</time>
      </trkpt>
      <trkpt lat="45.92248" lon="4.75119">
        <ele>174</ele>
        <time>2017-08-20T08:27:13Z</time>
      </trkpt>
      <trkpt lat="45.92243" lon="4.75125">
        <ele>174</ele>
        <time>2017-08-20T08:27:14Z</time>
      </trkpt>
      <trkpt lat="45.92239" lon="4.75131">
        <ele>174</ele>
        <time>2017-08-20T08:27:15Z</time>
      </trkpt>
      <trkpt lat="45.92235" lon="4.75138">
        <ele>174</ele>
        <time>2017-08-20T08:27:16Z</time>
      </trkpt>
      <trkpt lat="45.92231" lon="4.75144">
        <ele>174</ele>
        <time>2017-08-20T08:27:17Z</time>
      </trkpt>
      <trkpt lat="45.92227" lon="4.75152">
        <ele>174</ele>
        <time>2017-08-20T08:27:18Z</time>
      </trkpt>
      <trkpt lat="45.92223" lon="4.75159">
        <ele>174</ele>
        <time>2017-08-20T08:27:19Z</time>
      </trkpt>
      <trkpt lat="45.9222" lon="4.75167">
        <ele>175</ele>
        <time>2017-08-20T08:27:20Z</time>
      </trkpt>
      <trkpt lat="45.92218" lon="4.75176">
        <ele>175</ele>
        <time>2017-08-20T08:27:21Z</time>
      </trkpt>
      <trkpt lat="45.92216" lon="4.75184">
        <ele>175</ele>
        <time>2017-08-20T08:27:22Z</time>
      </trkpt>
      <trkpt lat="45.92214" lon="4.75192">
        <ele>175</ele>
        <time>2017-08-20T08:27:23Z</time>
      </trkpt>
      <trkpt lat="45.92212" lon="4.75199">
        <ele>175</ele>
        <time>2017-08-20T08:27:24Z</time>
      </trkpt>
      <trkpt lat="45.92211" lon="4.75206">
        <ele>175</ele>
        <time>2017-08-20T08:27:25Z</time>
      </trkpt>
      <trkpt lat="45.92211" lon="4.75213">
        <ele>175</ele>
        <time>2017-08-20T08:27:26Z</time>
      </trkpt>
      <trkpt lat="45.9221" lon="4.75221">
        <ele>175</ele>
        <time>2017-08-20T08:27:27Z</time>
      </trkpt>
      <trkpt lat="45.9221" lon="4.75229">
        <ele>175</ele>
        <time>2017-08-20T08:27:28Z</time>
      </trkpt>
      <trkpt lat="45.9221" lon="4.75237">
        <ele>175</ele>
        <time>2017-08-20T08:27:29Z</time>
      </trkpt>
      <trkpt lat="45.9221" lon="4.75245">
        <ele>175</ele>
        <time>2017-08-20T08:27:30Z</time>
      </trkpt>
      <trkpt lat="45.9221" lon="4.75254">
        <ele>175</ele>
        <time>2017-08-20T08:27:31Z</time>
      </trkpt>
      <trkpt lat="45.9221" lon="4.75262">
        <ele>176</ele>
        <time>2017-08-20T08:27:32Z</time>
      </trkpt>
      <trkpt lat="45.92209" lon="4.75269">
        <ele>176</ele>
        <time>2017-08-20T08:27:33Z</time>
      </trkpt>
      <trkpt lat="45.92209" lon="4.75276">
        <ele>176</ele>
        <time>2017-08-20T08:27:34Z</time>
      </trkpt>
      <trkpt lat="45.92209" lon="4.75283">
        <ele>176</ele>
        <time>2017-08-20T08:27:35Z</time>
      </trkpt>
      <trkpt lat="45.92209" lon="4.7529">
        <ele>176</ele>
        <time>2017-08-20T08:27:36Z</time>
      </trkpt>
      <trkpt lat="45.92208" lon="4.75297">
        <ele>176</ele>
        <time>2017-08-20T08:27:37Z</time>
      </trkpt>
      <trkpt lat="45.92208" lon="4.75303">
        <ele>176</ele>
        <time>2017-08-20T08:27:38Z</time>
      </trkpt>
      <trkpt lat="45.92207" lon="4.75311">
        <ele>176</ele>
        <time>2017-08-20T08:27:39Z</time>
      </trkpt>
      <trkpt lat="45.92206" lon="4.75319">
        <ele>176</ele>
        <time>2017-08-20T08:27:40Z</time>
      </trkpt>
      <trkpt lat="45.92204" lon="4.75328">
        <ele>176</ele>
        <time>2017-08-20T08:27:41Z</time>
      </trkpt>
      <trkpt lat="45.92203" lon="4.75336">
        <ele>177</ele>
        <time>2017-08-20T08:27:42Z</time>
      </trkpt>
      <trkpt lat="45.92202" lon="4.75343">
        <ele>177</ele>
        <time>2017-08-20T08:27:43Z</time>
      </trkpt>
      <trkpt lat="45.922" lon="4.7535">
        <ele>177</ele>
        <time>2017-08-20T08:27:44Z</time>
      </trkpt>
      <trkpt lat="45.92198" lon="4.75356">
        <ele>177</ele>
        <time>2017-08-20T08:27:45Z</time>
      </trkpt>
      <trkpt lat="45.92196" lon="4.75362">
        <ele>177</ele>
        <time>2017-08-20T08:27:46Z</time>
      </trkpt>
      <trkpt lat="45.92194" lon="4.75368">
        <ele>177</ele>
        <time>2017-08-20T08:27:47Z</time>
      </trkpt>
      <trkpt lat="45.92192" lon="4.75374">
        <ele>177</ele>
        <time>2017-08-20T08:27:48Z</time>
      </trkpt>
      <trkpt lat="45.92189" lon="4.7538">
        <ele>177</ele>
        <time>2017-08-20T08:27:49Z</time>
      </trkpt>
      <trkpt lat="45.92187" lon="4.75387">
        <ele>177</ele>
        <time>2017-08-20T08:27:50Z</time>
      </trkpt>
      <trkpt lat="45.92184" lon="4.75394">
        <ele>177</ele>
        <time>2017-08-20T08:27:51Z</time>
      </trkpt>
      <trkpt lat="45.92181" lon="4.75401">
        <ele>177</ele>
        <time>2017-08-20T08:27:52Z</time>
      </trkpt>
      <trkpt lat="45.92179" lon="4.75408">
        <ele>177</ele>
        <time>2017-08-20T08:27:53Z</time>
      </trkpt>
      <trkpt lat="45.92176" lon="4.75414">
        <ele>178</ele>
        <time>2017-08-20T08:27:54Z</time>
      </trkpt>
      <trkpt lat="45.92173" lon="4.7542">
        <ele>177</ele>
        <time>2017-08-20T08:27:55Z</time>
      </trkpt>
      <trkpt lat="45.92171" lon="4.75427">
        <ele>177</ele>
        <time>2017-08-20T08:27:56Z</time>
      </trkpt>
      <trkpt lat="45.92168" lon="4.75433">
        <ele>177</ele>
        <time>2017-08-20T08:27:57Z</time>
      </trkpt>
      <trkpt lat="45.92166" lon="4.7544">
        <ele>177</ele>
        <time>2017-08-20T08:27:58Z</time>
      </trkpt>
      <trkpt lat="45.92164" lon="4.75446">
        <ele>177</ele>
        <time>2017-08-20T08:27:59Z</time>
      </trkpt>
      <trkpt lat="45.92161" lon="4.75453">
        <ele>176</ele>
        <time>2017-08-20T08:28:00Z</time>
      </trkpt>
      <trkpt lat="45.92158" lon="4.7546">
        <ele>176</ele>
        <time>2017-08-20T08:28:01Z</time>
      </trkpt>
      <trkpt lat="45.92155" lon="4.75468">
        <ele>176</ele>
        <time>2017-08-20T08:28:02Z</time>
      </trkpt>
      <trkpt lat="45.92152" lon="4.75475">
        <ele>176</ele>
        <time>2017-08-20T08:28:03Z</time>
      </trkpt>
      <trkpt lat="45.92148" lon="4.75482">
        <ele>176</ele>
        <time>2017-08-20T08:28:04Z</time>
      </trkpt>
      <trkpt lat="45.92145" lon="4.75489">
        <ele>176</ele>
        <time>2017-08-20T08:28:05Z</time>
      </trkpt>
      <trkpt lat="45.92142" lon="4.75496">
        <ele>175</ele>
        <time>2017-08-20T08:28:06Z</time>
      </trkpt>
      <trkpt lat="45.92138" lon="4.75503">
        <ele>174</ele>
        <time>2017-08-20T08:28:07Z</time>
      </trkpt>
      <trkpt lat="45.92134" lon="4.7551">
        <ele>174</ele>
        <time>2017-08-20T08:28:08Z</time>
      </trkpt>
      <trkpt lat="45.92131" lon="4.75517">
        <ele>174</ele>
        <time>2017-08-20T08:28:09Z</time>
      </trkpt>
      <trkpt lat="45.92127" lon="4.75524">
        <ele>174</ele>
        <time>2017-08-20T08:28:10Z</time>
      </trkpt>
      <trkpt lat="45.92124" lon="4.75531">
        <ele>174</ele>
        <time>2017-08-20T08:28:11Z</time>
      </trkpt>
      <trkpt lat="45.92122" lon="4.75538">
        <ele>174</ele>
        <time>2017-08-20T08:28:12Z</time>
      </trkpt>
      <trkpt lat="45.92118" lon="4.75544">
        <ele>174</ele>
        <time>2017-08-20T08:28:13Z</time>
      </trkpt>
      <trkpt lat="45.92115" lon="4.75551">
        <ele>174</ele>
        <time>2017-08-20T08:28:14Z</time>
      </trkpt>
      <trkpt lat="45.92112" lon="4.75557">
        <ele>174</ele>
        <time>2017-08-20T08:28:15Z</time>
      </trkpt>
      <trkpt lat="45.92109" lon="4.75564">
        <ele>174</ele>
        <time>2017-08-20T08:28:16Z</time>
      </trkpt>
      <trkpt lat="45.92108" lon="4.75571">
        <ele>174</ele>
        <time>2017-08-20T08:28:17Z</time>
      </trkpt>
      <trkpt lat="45.92108" lon="4.75578">
        <ele>174</ele>
        <time>2017-08-20T08:28:18Z</time>
      </trkpt>
      <trkpt lat="45.92112" lon="4.75584">
        <ele>174</ele>
        <time>2017-08-20T08:28:19Z</time>
      </trkpt>
      <trkpt lat="45.92116" lon="4.75589">
        <ele>174</ele>
        <time>2017-08-20T08:28:20Z</time>
      </trkpt>
      <trkpt lat="45.92121" lon="4.75593">
        <ele>174</ele>
        <time>2017-08-20T08:28:21Z</time>
      </trkpt>
      <trkpt lat="45.92125" lon="4.75598">
        <ele>174</ele>
        <time>2017-08-20T08:28:22Z</time>
      </trkpt>
      <trkpt lat="45.9213" lon="4.75603">
        <ele>174</ele>
        <time>2017-08-20T08:28:23Z</time>
      </trkpt>
      <trkpt lat="45.92134" lon="4.75608">
        <ele>174</ele>
        <time>2017-08-20T08:28:24Z</time>
      </trkpt>
      <trkpt lat="45.92139" lon="4.75614">
        <ele>174</ele>
        <time>2017-08-20T08:28:25Z</time>
      </trkpt>
      <trkpt lat="45.92145" lon="4.75619">
        <ele>174</ele>
        <time>2017-08-20T08:28:26Z</time>
      </trkpt>
      <trkpt lat="45.9215" lon="4.75624">
        <ele>174</ele>
        <time>2017-08-20T08:28:27Z</time>
      </trkpt>
      <trkpt lat="45.92156" lon="4.75629">
        <ele>174</ele>
        <time>2017-08-20T08:28:28Z</time>
      </trkpt>
      <trkpt lat="45.92161" lon="4.75635">
        <ele>174</ele>
        <time>2017-08-20T08:28:29Z</time>
      </trkpt>
      <trkpt lat="45.92167" lon="4.7564">
        <ele>174</ele>
        <time>2017-08-20T08:28:30Z</time>
      </trkpt>
      <trkpt lat="45.92172" lon="4.75645">
        <ele>174</ele>
        <time>2017-08-20T08:28:31Z</time>
      </trkpt>
      <trkpt lat="45.92177" lon="4.7565">
        <ele>174</ele>
        <time>2017-08-20T08:28:32Z</time>
      </trkpt>
      <trkpt lat="45.92183" lon="4.75656">
        <ele>174</ele>
        <time>2017-08-20T08:28:33Z</time>
      </trkpt>
      <trkpt lat="45.92188" lon="4.75661">
        <ele>174</ele>
        <time>2017-08-20T08:28:34Z</time>
      </trkpt>
      <trkpt lat="45.92194" lon="4.75667">
        <ele>174</ele>
        <time>2017-08-20T08:28:35Z</time>
      </trkpt>
      <trkpt lat="45.922" lon="4.75672">
        <ele>174</ele>
        <time>2017-08-20T08:28:36Z</time>
      </trkpt>
      <trkpt lat="45.92204" lon="4.75677">
        <ele>174</ele>
        <time>2017-08-20T08:28:37Z</time>
      </trkpt>
      <trkpt lat="45.9221" lon="4.75682">
        <ele>174</ele>
        <time>2017-08-20T08:28:38Z</time>
      </trkpt>
      <trkpt lat="45.92215" lon="4.75687">
        <ele>174</ele>
        <time>2017-08-20T08:28:39Z</time>
      </trkpt>
      <trkpt lat="45.9222" lon="4.75692">
        <ele>174</ele>
        <time>2017-08-20T08:28:40Z</time>
      </trkpt>
      <trkpt lat="45.92225" lon="4.75696">
        <ele>174</ele>
        <time>2017-08-20T08:28:41Z</time>
      </trkpt>
      <trkpt lat="45.92229" lon="4.75701">
        <ele>174</ele>
        <time>2017-08-20T08:28:42Z</time>
      </trkpt>
      <trkpt lat="45.92232" lon="4.75706">
        <ele>174</ele>
        <time>2017-08-20T08:28:43Z</time>
      </trkpt>
      <trkpt lat="45.92236" lon="4.75712">
        <ele>174</ele>
        <time>2017-08-20T08:28:44Z</time>
      </trkpt>
      <trkpt lat="45.9224" lon="4.75718">
        <ele>174</ele>
        <time>2017-08-20T08:28:45Z</time>
      </trkpt>
      <trkpt lat="45.92243" lon="4.75726">
        <ele>174</ele>
        <time>2017-08-20T08:28:46Z</time>
      </trkpt>
      <trkpt lat="45.92244" lon="4.75733">
        <ele>174</ele>
        <time>2017-08-20T08:28:47Z</time>
      </trkpt>
      <trkpt lat="45.92247" lon="4.75741">
        <ele>174</ele>
        <time>2017-08-20T08:28:48Z</time>
      </trkpt>
      <trkpt lat="45.92249" lon="4.75749">
        <ele>174</ele>
        <time>2017-08-20T08:28:49Z</time>
      </trkpt>
      <trkpt lat="45.9225" lon="4.75758">
        <ele>174</ele>
        <time>2017-08-20T08:28:50Z</time>
      </trkpt>
      <trkpt lat="45.92252" lon="4.75766">
        <ele>174</ele>
        <time>2017-08-20T08:28:51Z</time>
      </trkpt>
      <trkpt lat="45.92253" lon="4.75775">
        <ele>174</ele>
        <time>2017-08-20T08:28:52Z</time>
      </trkpt>
      <trkpt lat="45.92254" lon="4.75783">
        <ele>174</ele>
        <time>2017-08-20T08:28:53Z</time>
      </trkpt>
      <trkpt lat="45.92256" lon="4.75791">
        <ele>174</ele>
        <time>2017-08-20T08:28:54Z</time>
      </trkpt>
      <trkpt lat="45.92257" lon="4.75798">
        <ele>174</ele>
        <time>2017-08-20T08:28:55Z</time>
      </trkpt>
      <trkpt lat="45.92259" lon="4.75806">
        <ele>174</ele>
        <time>2017-08-20T08:28:56Z</time>
      </trkpt>
      <trkpt lat="45.92262" lon="4.75813">
        <ele>174</ele>
        <time>2017-08-20T08:28:57Z</time>
      </trkpt>
      <trkpt lat="45.92266" lon="4.75819">
        <ele>174</ele>
        <time>2017-08-20T08:28:58Z</time>
      </trkpt>
      <trkpt lat="45.9227" lon="4.75825">
        <ele>174</ele>
        <time>2017-08-20T08:28:59Z</time>
      </trkpt>
      <trkpt lat="45.92275" lon="4.75829">
        <ele>174</ele>
        <time>2017-08-20T08:29:00Z</time>
      </trkpt>
      <trkpt lat="45.9228" lon="4.75833">
        <ele>174</ele>
        <time>2017-08-20T08:29:01Z</time>
      </trkpt>
      <trkpt lat="45.92285" lon="4.75837">
        <ele>173</ele>
        <time>2017-08-20T08:29:02Z</time>
      </trkpt>
      <trkpt lat="45.9229" lon="4.7584">
        <ele>173</ele>
        <time>2017-08-20T08:29:03Z</time>
      </trkpt>
      <trkpt lat="45.92295" lon="4.75844">
        <ele>173</ele>
        <time>2017-08-20T08:29:04Z</time>
      </trkpt>
      <trkpt lat="45.923" lon="4.75846">
        <ele>173</ele>
        <time>2017-08-20T08:29:05Z</time>
      </trkpt>
      <trkpt lat="45.92305" lon="4.75849">
        <ele>173</ele>
        <time>2017-08-20T08:29:06Z</time>
      </trkpt>
      <trkpt lat="45.9231" lon="4.75853">
        <ele>173</ele>
        <time>2017-08-20T08:29:07Z</time>
      </trkpt>
      <trkpt lat="45.92315" lon="4.75856">
        <ele>173</ele>
        <time>2017-08-20T08:29:08Z</time>
      </trkpt>
      <trkpt lat="45.92321" lon="4.7586">
        <ele>173</ele>
        <time>2017-08-20T08:29:09Z</time>
      </trkpt>
      <trkpt lat="45.92326" lon="4.75863">
        <ele>173</ele>
        <time>2017-08-20T08:29:10Z</time>
      </trkpt>
      <trkpt lat="45.92332" lon="4.75867">
        <ele>173</ele>
        <time>2017-08-20T08:29:11Z</time>
      </trkpt>
      <trkpt lat="45.92337" lon="4.7587">
        <ele>173</ele>
        <time>2017-08-20T08:29:12Z</time>
      </trkpt>
      <trkpt lat="45.92343" lon="4.75874">
        <ele>173</ele>
        <time>2017-08-20T08:29:13Z</time>
      </trkpt>
      <trkpt lat="45.92348" lon="4.75878">
        <ele>173</ele>
        <time>2017-08-20T08:29:14Z</time>
      </trkpt>
      <trkpt lat="45.92354" lon="4.75882">
        <ele>173</ele>
        <time>2017-08-20T08:29:15Z</time>
      </trkpt>
      <trkpt lat="45.9236" lon="4.75886">
        <ele>173</ele>
        <time>2017-08-20T08:29:16Z</time>
      </trkpt>
      <trkpt lat="45.92365" lon="4.75889">
        <ele>173</ele>
        <time>2017-08-20T08:29:17Z</time>
      </trkpt>
      <trkpt lat="45.9237" lon="4.75893">
        <ele>173</ele>
        <time>2017-08-20T08:29:18Z</time>
      </trkpt>
      <trkpt lat="45.92376" lon="4.75897">
        <ele>173</ele>
        <time>2017-08-20T08:29:19Z</time>
      </trkpt>
      <trkpt lat="45.92381" lon="4.75901">
        <ele>173</ele>
        <time>2017-08-20T08:29:20Z</time>
      </trkpt>
      <trkpt lat="45.92387" lon="4.75905">
        <ele>173</ele>
        <time>2017-08-20T08:29:21Z</time>
      </trkpt>
      <trkpt lat="45.92392" lon="4.75909">
        <ele>173</ele>
        <time>2017-08-20T08:29:22Z</time>
      </trkpt>
      <trkpt lat="45.92398" lon="4.75913">
        <ele>173</ele>
        <time>2017-08-20T08:29:23Z</time>
      </trkpt>
      <trkpt lat="45.92403" lon="4.75917">
        <ele>172</ele>
        <time>2017-08-20T08:29:24Z</time>
      </trkpt>
      <trkpt lat="45.92408" lon="4.75921">
        <ele>172</ele>
        <time>2017-08-20T08:29:25Z</time>
      </trkpt>
      <trkpt lat="45.92414" lon="4.75924">
        <ele>172</ele>
        <time>2017-08-20T08:29:26Z</time>
      </trkpt>
      <trkpt lat="45.92419" lon="4.75928">
        <ele>172</ele>
        <time>2017-08-20T08:29:27Z</time>
      </trkpt>
      <trkpt lat="45.92424" lon="4.75932">
        <ele>172</ele>
        <time>2017-08-20T08:29:28Z</time>
      </trkpt>
      <trkpt lat="45.92429" lon="4.75936">
        <ele>172</ele>
        <time>2017-08-20T08:29:29Z</time>
      </trkpt>
      <trkpt lat="45.92434" lon="4.75939">
        <ele>172</ele>
        <time>2017-08-20T08:29:30Z</time>
      </trkpt>
      <trkpt lat="45.92439" lon="4.75943">
        <ele>172</ele>
        <time>2017-08-20T08:29:31Z</time>
      </trkpt>
      <trkpt lat="45.92444" lon="4.75946">
        <ele>172</ele>
        <time>2017-08-20T08:29:32Z</time>
      </trkpt>
      <trkpt lat="45.92448" lon="4.7595">
        <ele>172</ele>
        <time>2017-08-20T08:29:33Z</time>
      </trkpt>
      <trkpt lat="45.92452" lon="4.75954">
        <ele>172</ele>
        <time>2017-08-20T08:29:34Z</time>
      </trkpt>
      <trkpt lat="45.92457" lon="4.75957">
        <ele>172</ele>
        <time>2017-08-20T08:29:35Z</time>
      </trkpt>
      <trkpt lat="45.92461" lon="4.75961">
        <ele>172</ele>
        <time>2017-08-20T08:29:36Z</time>
      </trkpt>
      <trkpt lat="45.92466" lon="4.75964">
        <ele>172</ele>
        <time>2017-08-20T08:29:37Z</time>
      </trkpt>
      <trkpt lat="45.92471" lon="4.75967">
        <ele>172</ele>
        <time>2017-08-20T08:29:38Z</time>
      </trkpt>
      <trkpt lat="45.92476" lon="4.75971">
        <ele>172</ele>
        <time>2017-08-20T08:29:39Z</time>
      </trkpt>
      <trkpt lat="45.9248" lon="4.75975">
        <ele>172</ele>
        <time>2017-08-20T08:29:40Z</time>
      </trkpt>
      <trkpt lat="45.92485" lon="4.75979">
        <ele>172</ele>
        <time>2017-08-20T08:29:41Z</time>
      </trkpt>
      <trkpt lat="45.9249" lon="4.75983">
        <ele>172</ele>
        <time>2017-08-20T08:29:42Z</time>
      </trkpt>
      <trkpt lat="45.92495" lon="4.75987">
        <ele>172</ele>
        <time>2017-08-20T08:29:43Z</time>
      </trkpt>
      <trkpt lat="45.92499" lon="4.7599">
        <ele>172</ele>
        <time>2017-08-20T08:29:44Z</time>
      </trkpt>
      <trkpt lat="45.92504" lon="4.75993">
        <ele>172</ele>
        <time>2017-08-20T08:29:45Z</time>
      </trkpt>
      <trkpt lat="45.92509" lon="4.75996">
        <ele>172</ele>
        <time>2017-08-20T08:29:46Z</time>
      </trkpt>
      <trkpt lat="45.92513" lon="4.75999">
        <ele>172</ele>
        <time>2017-08-20T08:29:47Z</time>
      </trkpt>
      <trkpt lat="45.92518" lon="4.76003">
        <ele>172</ele>
        <time>2017-08-20T08:29:48Z</time>
      </trkpt>
      <trkpt lat="45.92522" lon="4.76006">
        <ele>172</ele>
        <time>2017-08-20T08:29:49Z</time>
      </trkpt>
      <trkpt lat="45.9253" lon="4.76012">
        <ele>172</ele>
        <time>2017-08-20T08:29:51Z</time>
      </trkpt>
      <trkpt lat="45.92534" lon="4.76015">
        <ele>172</ele>
        <time>2017-08-20T08:29:52Z</time>
      </trkpt>
      <trkpt lat="45.92538" lon="4.76018">
        <ele>172</ele>
        <time>2017-08-20T08:29:53Z</time>
      </trkpt>
      <trkpt lat="45.92542" lon="4.76021">
        <ele>172</ele>
        <time>2017-08-20T08:29:54Z</time>
      </trkpt>
      <trkpt lat="45.92546" lon="4.76024">
        <ele>172</ele>
        <time>2017-08-20T08:29:55Z</time>
      </trkpt>
      <trkpt lat="45.9255" lon="4.76027">
        <ele>172</ele>
        <time>2017-08-20T08:29:56Z</time>
      </trkpt>
      <trkpt lat="45.92554" lon="4.7603">
        <ele>172</ele>
        <time>2017-08-20T08:29:57Z</time>
      </trkpt>
      <trkpt lat="45.92558" lon="4.76033">
        <ele>172</ele>
        <time>2017-08-20T08:29:58Z</time>
      </trkpt>
      <trkpt lat="45.92563" lon="4.76036">
        <ele>172</ele>
        <time>2017-08-20T08:29:59Z</time>
      </trkpt>
      <trkpt lat="45.92567" lon="4.76039">
        <ele>172</ele>
        <time>2017-08-20T08:30:00Z</time>
      </trkpt>
      <trkpt lat="45.92571" lon="4.76042">
        <ele>171</ele>
        <time>2017-08-20T08:30:01Z</time>
      </trkpt>
      <trkpt lat="45.92576" lon="4.76046">
        <ele>171</ele>
        <time>2017-08-20T08:30:02Z</time>
      </trkpt>
      <trkpt lat="45.92581" lon="4.7605">
        <ele>171</ele>
        <time>2017-08-20T08:30:03Z</time>
      </trkpt>
      <trkpt lat="45.92586" lon="4.76053">
        <ele>171</ele>
        <time>2017-08-20T08:30:04Z</time>
      </trkpt>
      <trkpt lat="45.92591" lon="4.76056">
        <ele>171</ele>
        <time>2017-08-20T08:30:05Z</time>
      </trkpt>
      <trkpt lat="45.92596" lon="4.76059">
        <ele>171</ele>
        <time>2017-08-20T08:30:06Z</time>
      </trkpt>
      <trkpt lat="45.926" lon="4.76063">
        <ele>171</ele>
        <time>2017-08-20T08:30:07Z</time>
      </trkpt>
      <trkpt lat="45.92605" lon="4.76066">
        <ele>171</ele>
        <time>2017-08-20T08:30:08Z</time>
      </trkpt>
      <trkpt lat="45.9261" lon="4.7607">
        <ele>171</ele>
        <time>2017-08-20T08:30:09Z</time>
      </trkpt>
      <trkpt lat="45.92615" lon="4.76073">
        <ele>171</ele>
        <time>2017-08-20T08:30:10Z</time>
      </trkpt>
      <trkpt lat="45.9262" lon="4.76077">
        <ele>171</ele>
        <time>2017-08-20T08:30:11Z</time>
      </trkpt>
      <trkpt lat="45.92625" lon="4.7608">
        <ele>170</ele>
        <time>2017-08-20T08:30:12Z</time>
      </trkpt>
      <trkpt lat="45.92632" lon="4.76084">
        <ele>170</ele>
        <time>2017-08-20T08:30:13Z</time>
      </trkpt>
      <trkpt lat="45.92638" lon="4.76088">
        <ele>170</ele>
        <time>2017-08-20T08:30:14Z</time>
      </trkpt>
      <trkpt lat="45.92644" lon="4.76092">
        <ele>170</ele>
        <time>2017-08-20T08:30:15Z</time>
      </trkpt>
      <trkpt lat="45.9265" lon="4.76096">
        <ele>170</ele>
        <time>2017-08-20T08:30:16Z</time>
      </trkpt>
      <trkpt lat="45.92656" lon="4.76099">
        <ele>170</ele>
        <time>2017-08-20T08:30:17Z</time>
      </trkpt>
      <trkpt lat="45.92661" lon="4.76103">
        <ele>170</ele>
        <time>2017-08-20T08:30:18Z</time>
      </trkpt>
      <trkpt lat="45.92667" lon="4.76107">
        <ele>169</ele>
        <time>2017-08-20T08:30:19Z</time>
      </trkpt>
      <trkpt lat="45.92673" lon="4.76111">
        <ele>169</ele>
        <time>2017-08-20T08:30:20Z</time>
      </trkpt>
      <trkpt lat="45.92679" lon="4.76115">
        <ele>169</ele>
        <time>2017-08-20T08:30:21Z</time>
      </trkpt>
      <trkpt lat="45.92685" lon="4.76119">
        <ele>169</ele>
        <time>2017-08-20T08:30:22Z</time>
      </trkpt>
      <trkpt lat="45.92691" lon="4.76123">
        <ele>169</ele>
        <time>2017-08-20T08:30:23Z</time>
      </trkpt>
      <trkpt lat="45.92697" lon="4.76127">
        <ele>169</ele>
        <time>2017-08-20T08:30:24Z</time>
      </trkpt>
      <trkpt lat="45.92703" lon="4.76131">
        <ele>169</ele>
        <time>2017-08-20T08:30:25Z</time>
      </trkpt>
      <trkpt lat="45.92709" lon="4.76135">
        <ele>168</ele>
        <time>2017-08-20T08:30:26Z</time>
      </trkpt>
      <trkpt lat="45.92715" lon="4.7614">
        <ele>168</ele>
        <time>2017-08-20T08:30:27Z</time>
      </trkpt>
      <trkpt lat="45.92721" lon="4.76145">
        <ele>168</ele>
        <time>2017-08-20T08:30:28Z</time>
      </trkpt>
      <trkpt lat="45.92726" lon="4.76149">
        <ele>168</ele>
        <time>2017-08-20T08:30:29Z</time>
      </trkpt>
      <trkpt lat="45.92732" lon="4.76153">
        <ele>168</ele>
        <time>2017-08-20T08:30:30Z</time>
      </trkpt>
      <trkpt lat="45.92738" lon="4.76158">
        <ele>168</ele>
        <time>2017-08-20T08:30:31Z</time>
      </trkpt>
      <trkpt lat="45.92743" lon="4.76162">
        <ele>167</ele>
        <time>2017-08-20T08:30:32Z</time>
      </trkpt>
      <trkpt lat="45.92749" lon="4.76166">
        <ele>167</ele>
        <time>2017-08-20T08:30:33Z</time>
      </trkpt>
      <trkpt lat="45.92754" lon="4.7617">
        <ele>167</ele>
        <time>2017-08-20T08:30:34Z</time>
      </trkpt>
      <trkpt lat="45.92759" lon="4.76173">
        <ele>167</ele>
        <time>2017-08-20T08:30:35Z</time>
      </trkpt>
      <trkpt lat="45.92764" lon="4.76177">
        <ele>167</ele>
        <time>2017-08-20T08:30:36Z</time>
      </trkpt>
      <trkpt lat="45.92769" lon="4.76182">
        <ele>167</ele>
        <time>2017-08-20T08:30:37Z</time>
      </trkpt>
      <trkpt lat="45.92774" lon="4.76187">
        <ele>168</ele>
        <time>2017-08-20T08:30:38Z</time>
      </trkpt>
      <trkpt lat="45.92779" lon="4.76191">
        <ele>168</ele>
        <time>2017-08-20T08:30:39Z</time>
      </trkpt>
      <trkpt lat="45.92785" lon="4.76196">
        <ele>168</ele>
        <time>2017-08-20T08:30:40Z</time>
      </trkpt>
      <trkpt lat="45.9279" lon="4.76201">
        <ele>168</ele>
        <time>2017-08-20T08:30:41Z</time>
      </trkpt>
      <trkpt lat="45.92795" lon="4.76206">
        <ele>168</ele>
        <time>2017-08-20T08:30:42Z</time>
      </trkpt>
      <trkpt lat="45.92801" lon="4.76211">
        <ele>168</ele>
        <time>2017-08-20T08:30:43Z</time>
      </trkpt>
      <trkpt lat="45.92806" lon="4.76216">
        <ele>168</ele>
        <time>2017-08-20T08:30:44Z</time>
      </trkpt>
      <trkpt lat="45.92812" lon="4.7622">
        <ele>168</ele>
        <time>2017-08-20T08:30:45Z</time>
      </trkpt>
      <trkpt lat="45.92818" lon="4.76225">
        <ele>168</ele>
        <time>2017-08-20T08:30:46Z</time>
      </trkpt>
      <trkpt lat="45.92823" lon="4.76231">
        <ele>168</ele>
        <time>2017-08-20T08:30:47Z</time>
      </trkpt>
      <trkpt lat="45.92828" lon="4.76237">
        <ele>168</ele>
        <time>2017-08-20T08:30:48Z</time>
      </trkpt>
      <trkpt lat="45.92833" lon="4.76244">
        <ele>169</ele>
        <time>2017-08-20T08:30:49Z</time>
      </trkpt>
      <trkpt lat="45.92838" lon="4.76249">
        <ele>169</ele>
        <time>2017-08-20T08:30:50Z</time>
      </trkpt>
      <trkpt lat="45.92842" lon="4.76253">
        <ele>169</ele>
        <time>2017-08-20T08:30:51Z</time>
      </trkpt>
      <trkpt lat="45.92845" lon="4.76258">
        <ele>169</ele>
        <time>2017-08-20T08:30:52Z</time>
      </trkpt>
      <trkpt lat="45.92848" lon="4.76263">
        <ele>169</ele>
        <time>2017-08-20T08:30:53Z</time>
      </trkpt>
      <trkpt lat="45.92853" lon="4.76268">
        <ele>169</ele>
        <time>2017-08-20T08:30:54Z</time>
      </trkpt>
      <trkpt lat="45.92858" lon="4.76272">
        <ele>169</ele>
        <time>2017-08-20T08:30:55Z</time>
      </trkpt>
      <trkpt lat="45.92863" lon="4.76277">
        <ele>169</ele>
        <time>2017-08-20T08:30:56Z</time>
      </trkpt>
      <trkpt lat="45.92868" lon="4.76282">
        <ele>169</ele>
        <time>2017-08-20T08:30:57Z</time>
      </trkpt>
      <trkpt lat="45.92873" lon="4.76287">
        <ele>169</ele>
        <time>2017-08-20T08:30:58Z</time>
      </trkpt>
      <trkpt lat="45.92878" lon="4.76292">
        <ele>169</ele>
        <time>2017-08-20T08:30:59Z</time>
      </trkpt>
      <trkpt lat="45.92883" lon="4.76298">
        <ele>169</ele>
        <time>2017-08-20T08:31:00Z</time>
      </trkpt>
      <trkpt lat="45.92888" lon="4.76303">
        <ele>169</ele>
        <time>2017-08-20T08:31:01Z</time>
      </trkpt>
      <trkpt lat="45.92893" lon="4.76309">
        <ele>169</ele>
        <time>2017-08-20T08:31:02Z</time>
      </trkpt>
      <trkpt lat="45.92898" lon="4.76314">
        <ele>169</ele>
        <time>2017-08-20T08:31:03Z</time>
      </trkpt>
      <trkpt lat="45.92902" lon="4.76319">
        <ele>169</ele>
        <time>2017-08-20T08:31:04Z</time>
      </trkpt>
      <trkpt lat="45.92906" lon="4.76323">
        <ele>169</ele>
        <time>2017-08-20T08:31:05Z</time>
      </trkpt>
      <trkpt lat="45.9291" lon="4.76328">
        <ele>169</ele>
        <time>2017-08-20T08:31:06Z</time>
      </trkpt>
      <trkpt lat="45.92915" lon="4.76332">
        <ele>169</ele>
        <time>2017-08-20T08:31:07Z</time>
      </trkpt>
      <trkpt lat="45.92919" lon="4.76337">
        <ele>169</ele>
        <time>2017-08-20T08:31:08Z</time>
      </trkpt>
      <trkpt lat="45.92925" lon="4.76342">
        <ele>169</ele>
        <time>2017-08-20T08:31:09Z</time>
      </trkpt>
      <trkpt lat="45.9293" lon="4.76347">
        <ele>169</ele>
        <time>2017-08-20T08:31:10Z</time>
      </trkpt>
      <trkpt lat="45.92935" lon="4.76352">
        <ele>169</ele>
        <time>2017-08-20T08:31:11Z</time>
      </trkpt>
      <trkpt lat="45.9294" lon="4.76357">
        <ele>169</ele>
        <time>2017-08-20T08:31:12Z</time>
      </trkpt>
      <trkpt lat="45.92945" lon="4.76362">
        <ele>169</ele>
        <time>2017-08-20T08:31:13Z</time>
      </trkpt>
      <trkpt lat="45.92951" lon="4.76367">
        <ele>169</ele>
        <time>2017-08-20T08:31:14Z</time>
      </trkpt>
      <trkpt lat="45.92956" lon="4.76371">
        <ele>169</ele>
        <time>2017-08-20T08:31:15Z</time>
      </trkpt>
      <trkpt lat="45.92961" lon="4.76375">
        <ele>169</ele>
        <time>2017-08-20T08:31:16Z</time>
      </trkpt>
      <trkpt lat="45.92965" lon="4.76379">
        <ele>169</ele>
        <time>2017-08-20T08:31:17Z</time>
      </trkpt>
      <trkpt lat="45.92969" lon="4.76384">
        <ele>169</ele>
        <time>2017-08-20T08:31:18Z</time>
      </trkpt>
      <trkpt lat="45.92974" lon="4.76388">
        <ele>169</ele>
        <time>2017-08-20T08:31:19Z</time>
      </trkpt>
      <trkpt lat="45.92978" lon="4.76392">
        <ele>169</ele>
        <time>2017-08-20T08:31:20Z</time>
      </trkpt>
      <trkpt lat="45.92982" lon="4.76396">
        <ele>169</ele>
        <time>2017-08-20T08:31:21Z</time>
      </trkpt>
      <trkpt lat="45.92986" lon="4.76401">
        <ele>169</ele>
        <time>2017-08-20T08:31:22Z</time>
      </trkpt>
      <trkpt lat="45.92991" lon="4.76406">
        <ele>169</ele>
        <time>2017-08-20T08:31:23Z</time>
      </trkpt>
      <trkpt lat="45.92995" lon="4.76411">
        <ele>169</ele>
        <time>2017-08-20T08:31:24Z</time>
      </trkpt>
      <trkpt lat="45.93" lon="4.76416">
        <ele>169</ele>
        <time>2017-08-20T08:31:25Z</time>
      </trkpt>
      <trkpt lat="45.93005" lon="4.76421">
        <ele>169</ele>
        <time>2017-08-20T08:31:26Z</time>
      </trkpt>
      <trkpt lat="45.9301" lon="4.76426">
        <ele>169</ele>
        <time>2017-08-20T08:31:27Z</time>
      </trkpt>
      <trkpt lat="45.93015" lon="4.76431">
        <ele>169</ele>
        <time>2017-08-20T08:31:28Z</time>
      </trkpt>
      <trkpt lat="45.93019" lon="4.76435">
        <ele>169</ele>
        <time>2017-08-20T08:31:29Z</time>
      </trkpt>
      <trkpt lat="45.93023" lon="4.7644">
        <ele>169</ele>
        <time>2017-08-20T08:31:30Z</time>
      </trkpt>
      <trkpt lat="45.93028" lon="4.76446">
        <ele>169</ele>
        <time>2017-08-20T08:31:31Z</time>
      </trkpt>
      <trkpt lat="45.93033" lon="4.76451">
        <ele>169</ele>
        <time>2017-08-20T08:31:32Z</time>
      </trkpt>
      <trkpt lat="45.93037" lon="4.76455">
        <ele>169</ele>
        <time>2017-08-20T08:31:33Z</time>
      </trkpt>
      <trkpt lat="45.93042" lon="4.7646">
        <ele>169</ele>
        <time>2017-08-20T08:31:34Z</time>
      </trkpt>
      <trkpt lat="45.93046" lon="4.76465">
        <ele>169</ele>
        <time>2017-08-20T08:31:35Z</time>
      </trkpt>
      <trkpt lat="45.93051" lon="4.76471">
        <ele>169</ele>
        <time>2017-08-20T08:31:36Z</time>
      </trkpt>
      <trkpt lat="45.93055" lon="4.76476">
        <ele>169</ele>
        <time>2017-08-20T08:31:37Z</time>
      </trkpt>
      <trkpt lat="45.93061" lon="4.76481">
        <ele>169</ele>
        <time>2017-08-20T08:31:38Z</time>
      </trkpt>
      <trkpt lat="45.93067" lon="4.76486">
        <ele>169</ele>
        <time>2017-08-20T08:31:39Z</time>
      </trkpt>
      <trkpt lat="45.93073" lon="4.76491">
        <ele>170</ele>
        <time>2017-08-20T08:31:40Z</time>
      </trkpt>
      <trkpt lat="45.93078" lon="4.76497">
        <ele>170</ele>
        <time>2017-08-20T08:31:41Z</time>
      </trkpt>
      <trkpt lat="45.93084" lon="4.76502">
        <ele>170</ele>
        <time>2017-08-20T08:31:42Z</time>
      </trkpt>
      <trkpt lat="45.93089" lon="4.76507">
        <ele>170</ele>
        <time>2017-08-20T08:31:43Z</time>
      </trkpt>
      <trkpt lat="45.93094" lon="4.76512">
        <ele>170</ele>
        <time>2017-08-20T08:31:44Z</time>
      </trkpt>
      <trkpt lat="45.93099" lon="4.76517">
        <ele>170</ele>
        <time>2017-08-20T08:31:45Z</time>
      </trkpt>
      <trkpt lat="45.93104" lon="4.76521">
        <ele>170</ele>
        <time>2017-08-20T08:31:46Z</time>
      </trkpt>
      <trkpt lat="45.93109" lon="4.76525">
        <ele>170</ele>
        <time>2017-08-20T08:31:47Z</time>
      </trkpt>
      <trkpt lat="45.93113" lon="4.76529">
        <ele>170</ele>
        <time>2017-08-20T08:31:48Z</time>
      </trkpt>
      <trkpt lat="45.93117" lon="4.76533">
        <ele>170</ele>
        <time>2017-08-20T08:31:49Z</time>
      </trkpt>
      <trkpt lat="45.93121" lon="4.76537">
        <ele>170</ele>
        <time>2017-08-20T08:31:50Z</time>
      </trkpt>
      <trkpt lat="45.93125" lon="4.76541">
        <ele>170</ele>
        <time>2017-08-20T08:31:51Z</time>
      </trkpt>
      <trkpt lat="45.93129" lon="4.76544">
        <ele>170</ele>
        <time>2017-08-20T08:31:52Z</time>
      </trkpt>
      <trkpt lat="45.93134" lon="4.76548">
        <ele>170</ele>
        <time>2017-08-20T08:31:53Z</time>
      </trkpt>
      <trkpt lat="45.93139" lon="4.76552">
        <ele>170</ele>
        <time>2017-08-20T08:31:54Z</time>
      </trkpt>
      <trkpt lat="45.93143" lon="4.76556">
        <ele>170</ele>
        <time>2017-08-20T08:31:55Z</time>
      </trkpt>
      <trkpt lat="45.93147" lon="4.7656">
        <ele>170</ele>
        <time>2017-08-20T08:31:56Z</time>
      </trkpt>
      <trkpt lat="45.93151" lon="4.76563">
        <ele>170</ele>
        <time>2017-08-20T08:31:57Z</time>
      </trkpt>
      <trkpt lat="45.93155" lon="4.76568">
        <ele>170</ele>
        <time>2017-08-20T08:31:58Z</time>
      </trkpt>
      <trkpt lat="45.93159" lon="4.76572">
        <ele>170</ele>
        <time>2017-08-20T08:31:59Z</time>
      </trkpt>
      <trkpt lat="45.93163" lon="4.76576">
        <ele>171</ele>
        <time>2017-08-20T08:32:00Z</time>
      </trkpt>
      <trkpt lat="45.93167" lon="4.76581">
        <ele>171</ele>
        <time>2017-08-20T08:32:01Z</time>
      </trkpt>
      <trkpt lat="45.93172" lon="4.76586">
        <ele>171</ele>
        <time>2017-08-20T08:32:02Z</time>
      </trkpt>
      <trkpt lat="45.93178" lon="4.76592">
        <ele>171</ele>
        <time>2017-08-20T08:32:03Z</time>
      </trkpt>
      <trkpt lat="45.93183" lon="4.76597">
        <ele>171</ele>
        <time>2017-08-20T08:32:04Z</time>
      </trkpt>
      <trkpt lat="45.93189" lon="4.76602">
        <ele>171</ele>
        <time>2017-08-20T08:32:05Z</time>
      </trkpt>
      <trkpt lat="45.93194" lon="4.76608">
        <ele>170</ele>
        <time>2017-08-20T08:32:06Z</time>
      </trkpt>
      <trkpt lat="45.93199" lon="4.76614">
        <ele>170</ele>
        <time>2017-08-20T08:32:07Z</time>
      </trkpt>
      <trkpt lat="45.93204" lon="4.76619">
        <ele>170</ele>
        <time>2017-08-20T08:32:08Z</time>
      </trkpt>
      <trkpt lat="45.93209" lon="4.76624">
        <ele>170</ele>
        <time>2017-08-20T08:32:09Z</time>
      </trkpt>
      <trkpt lat="45.93213" lon="4.7663">
        <ele>171</ele>
        <time>2017-08-20T08:32:10Z</time>
      </trkpt>
      <trkpt lat="45.93219" lon="4.76635">
        <ele>171</ele>
        <time>2017-08-20T08:32:11Z</time>
      </trkpt>
      <trkpt lat="45.93225" lon="4.76641">
        <ele>171</ele>
        <time>2017-08-20T08:32:12Z</time>
      </trkpt>
      <trkpt lat="45.93229" lon="4.76647">
        <ele>171</ele>
        <time>2017-08-20T08:32:13Z</time>
      </trkpt>
      <trkpt lat="45.93234" lon="4.76652">
        <ele>171</ele>
        <time>2017-08-20T08:32:14Z</time>
      </trkpt>
      <trkpt lat="45.93238" lon="4.76657">
        <ele>171</ele>
        <time>2017-08-20T08:32:15Z</time>
      </trkpt>
      <trkpt lat="45.93243" lon="4.76663">
        <ele>172</ele>
        <time>2017-08-20T08:32:16Z</time>
      </trkpt>
      <trkpt lat="45.93248" lon="4.76668">
        <ele>172</ele>
        <time>2017-08-20T08:32:17Z</time>
      </trkpt>
      <trkpt lat="45.93253" lon="4.76673">
        <ele>172</ele>
        <time>2017-08-20T08:32:18Z</time>
      </trkpt>
      <trkpt lat="45.93257" lon="4.76677">
        <ele>172</ele>
        <time>2017-08-20T08:32:19Z</time>
      </trkpt>
      <trkpt lat="45.93262" lon="4.76681">
        <ele>172</ele>
        <time>2017-08-20T08:32:20Z</time>
      </trkpt>
      <trkpt lat="45.93266" lon="4.76685">
        <ele>172</ele>
        <time>2017-08-20T08:32:21Z</time>
      </trkpt>
      <trkpt lat="45.93272" lon="4.7669">
        <ele>172</ele>
        <time>2017-08-20T08:32:22Z</time>
      </trkpt>
      <trkpt lat="45.93277" lon="4.76695">
        <ele>172</ele>
        <time>2017-08-20T08:32:23Z</time>
      </trkpt>
      <trkpt lat="45.93283" lon="4.76699">
        <ele>172</ele>
        <time>2017-08-20T08:32:24Z</time>
      </trkpt>
      <trkpt lat="45.93288" lon="4.76704">
        <ele>172</ele>
        <time>2017-08-20T08:32:25Z</time>
      </trkpt>
      <trkpt lat="45.93293" lon="4.76709">
        <ele>172</ele>
        <time>2017-08-20T08:32:26Z</time>
      </trkpt>
      <trkpt lat="45.93298" lon="4.76714">
        <ele>172</ele>
        <time>2017-08-20T08:32:27Z</time>
      </trkpt>
      <trkpt lat="45.93302" lon="4.76718">
        <ele>172</ele>
        <time>2017-08-20T08:32:28Z</time>
      </trkpt>
      <trkpt lat="45.93306" lon="4.76723">
        <ele>172</ele>
        <time>2017-08-20T08:32:29Z</time>
      </trkpt>
      <trkpt lat="45.9331" lon="4.76728">
        <ele>172</ele>
        <time>2017-08-20T08:32:30Z</time>
      </trkpt>
      <trkpt lat="45.93315" lon="4.76732">
        <ele>172</ele>
        <time>2017-08-20T08:32:31Z</time>
      </trkpt>
      <trkpt lat="45.93319" lon="4.76736">
        <ele>172</ele>
        <time>2017-08-20T08:32:32Z</time>
      </trkpt>
      <trkpt lat="45.93323" lon="4.7674">
        <ele>172</ele>
        <time>2017-08-20T08:32:33Z</time>
      </trkpt>
      <trkpt lat="45.93327" lon="4.76745">
        <ele>173</ele>
        <time>2017-08-20T08:32:34Z</time>
      </trkpt>
      <trkpt lat="45.93331" lon="4.76749">
        <ele>173</ele>
        <time>2017-08-20T08:32:35Z</time>
      </trkpt>
      <trkpt lat="45.93336" lon="4.76753">
        <ele>173</ele>
        <time>2017-08-20T08:32:36Z</time>
      </trkpt>
      <trkpt lat="45.93341" lon="4.76758">
        <ele>173</ele>
        <time>2017-08-20T08:32:37Z</time>
      </trkpt>
      <trkpt lat="45.93346" lon="4.76763">
        <ele>172</ele>
        <time>2017-08-20T08:32:38Z</time>
      </trkpt>
      <trkpt lat="45.93351" lon="4.76768">
        <ele>172</ele>
        <time>2017-08-20T08:32:39Z</time>
      </trkpt>
      <trkpt lat="45.93356" lon="4.76772">
        <ele>172</ele>
        <time>2017-08-20T08:32:40Z</time>
      </trkpt>
      <trkpt lat="45.93361" lon="4.76777">
        <ele>172</ele>
        <time>2017-08-20T08:32:41Z</time>
      </trkpt>
      <trkpt lat="45.93365" lon="4.76781">
        <ele>172</ele>
        <time>2017-08-20T08:32:42Z</time>
      </trkpt>
      <trkpt lat="45.93369" lon="4.76785">
        <ele>172</ele>
        <time>2017-08-20T08:32:43Z</time>
      </trkpt>
      <trkpt lat="45.93373" lon="4.76789">
        <ele>172</ele>
        <time>2017-08-20T08:32:44Z</time>
      </trkpt>
      <trkpt lat="45.93378" lon="4.76794">
        <ele>172</ele>
        <time>2017-08-20T08:32:45Z</time>
      </trkpt>
      <trkpt lat="45.93383" lon="4.76799">
        <ele>172</ele>
        <time>2017-08-20T08:32:46Z</time>
      </trkpt>
      <trkpt lat="45.93388" lon="4.76803">
        <ele>172</ele>
        <time>2017-08-20T08:32:47Z</time>
      </trkpt>
      <trkpt lat="45.93393" lon="4.76808">
        <ele>172</ele>
        <time>2017-08-20T08:32:48Z</time>
      </trkpt>
      <trkpt lat="45.93398" lon="4.76814">
        <ele>172</ele>
        <time>2017-08-20T08:32:49Z</time>
      </trkpt>
      <trkpt lat="45.93402" lon="4.7682">
        <ele>172</ele>
        <time>2017-08-20T08:32:50Z</time>
      </trkpt>
      <trkpt lat="45.93406" lon="4.76826">
        <ele>172</ele>
        <time>2017-08-20T08:32:51Z</time>
      </trkpt>
      <trkpt lat="45.93411" lon="4.76833">
        <ele>172</ele>
        <time>2017-08-20T08:32:52Z</time>
      </trkpt>
      <trkpt lat="45.93415" lon="4.7684">
        <ele>172</ele>
        <time>2017-08-20T08:32:53Z</time>
      </trkpt>
      <trkpt lat="45.93418" lon="4.76847">
        <ele>171</ele>
        <time>2017-08-20T08:32:54Z</time>
      </trkpt>
      <trkpt lat="45.93422" lon="4.76854">
        <ele>171</ele>
        <time>2017-08-20T08:32:55Z</time>
      </trkpt>
      <trkpt lat="45.93425" lon="4.76862">
        <ele>171</ele>
        <time>2017-08-20T08:32:56Z</time>
      </trkpt>
      <trkpt lat="45.93429" lon="4.7687">
        <ele>171</ele>
        <time>2017-08-20T08:32:57Z</time>
      </trkpt>
      <trkpt lat="45.93432" lon="4.76877">
        <ele>171</ele>
        <time>2017-08-20T08:32:58Z</time>
      </trkpt>
      <trkpt lat="45.93434" lon="4.76884">
        <ele>171</ele>
        <time>2017-08-20T08:32:59Z</time>
      </trkpt>
      <trkpt lat="45.93436" lon="4.76891">
        <ele>171</ele>
        <time>2017-08-20T08:33:00Z</time>
      </trkpt>
      <trkpt lat="45.93438" lon="4.76898">
        <ele>170</ele>
        <time>2017-08-20T08:33:01Z</time>
      </trkpt>
      <trkpt lat="45.9344" lon="4.76906">
        <ele>170</ele>
        <time>2017-08-20T08:33:02Z</time>
      </trkpt>
      <trkpt lat="45.93442" lon="4.76913">
        <ele>170</ele>
        <time>2017-08-20T08:33:03Z</time>
      </trkpt>
      <trkpt lat="45.93444" lon="4.76921">
        <ele>170</ele>
        <time>2017-08-20T08:33:04Z</time>
      </trkpt>
      <trkpt lat="45.93446" lon="4.76929">
        <ele>170</ele>
        <time>2017-08-20T08:33:05Z</time>
      </trkpt>
      <trkpt lat="45.93447" lon="4.76938">
        <ele>170</ele>
        <time>2017-08-20T08:33:06Z</time>
      </trkpt>
      <trkpt lat="45.93449" lon="4.76946">
        <ele>170</ele>
        <time>2017-08-20T08:33:07Z</time>
      </trkpt>
      <trkpt lat="45.9345" lon="4.76954">
        <ele>170</ele>
        <time>2017-08-20T08:33:08Z</time>
      </trkpt>
      <trkpt lat="45.93452" lon="4.76962">
        <ele>170</ele>
        <time>2017-08-20T08:33:09Z</time>
      </trkpt>
      <trkpt lat="45.93453" lon="4.76971">
        <ele>170</ele>
        <time>2017-08-20T08:33:10Z</time>
      </trkpt>
      <trkpt lat="45.93454" lon="4.76979">
        <ele>170</ele>
        <time>2017-08-20T08:33:11Z</time>
      </trkpt>
      <trkpt lat="45.93455" lon="4.76988">
        <ele>170</ele>
        <time>2017-08-20T08:33:12Z</time>
      </trkpt>
      <trkpt lat="45.93456" lon="4.76997">
        <ele>170</ele>
        <time>2017-08-20T08:33:13Z</time>
      </trkpt>
      <trkpt lat="45.93457" lon="4.77006">
        <ele>170</ele>
        <time>2017-08-20T08:33:14Z</time>
      </trkpt>
      <trkpt lat="45.93459" lon="4.77015">
        <ele>170</ele>
        <time>2017-08-20T08:33:15Z</time>
      </trkpt>
      <trkpt lat="45.9346" lon="4.77024">
        <ele>170</ele>
        <time>2017-08-20T08:33:16Z</time>
      </trkpt>
      <trkpt lat="45.93462" lon="4.77033">
        <ele>170</ele>
        <time>2017-08-20T08:33:17Z</time>
      </trkpt>
      <trkpt lat="45.93464" lon="4.77042">
        <ele>170</ele>
        <time>2017-08-20T08:33:18Z</time>
      </trkpt>
      <trkpt lat="45.93465" lon="4.77051">
        <ele>170</ele>
        <time>2017-08-20T08:33:19Z</time>
      </trkpt>
      <trkpt lat="45.93466" lon="4.77061">
        <ele>170</ele>
        <time>2017-08-20T08:33:20Z</time>
      </trkpt>
      <trkpt lat="45.93466" lon="4.7707">
        <ele>170</ele>
        <time>2017-08-20T08:33:21Z</time>
      </trkpt>
      <trkpt lat="45.93468" lon="4.77078">
        <ele>170</ele>
        <time>2017-08-20T08:33:22Z</time>
      </trkpt>
      <trkpt lat="45.9347" lon="4.77087">
        <ele>170</ele>
        <time>2017-08-20T08:33:23Z</time>
      </trkpt>
      <trkpt lat="45.93472" lon="4.77096">
        <ele>169</ele>
        <time>2017-08-20T08:33:24Z</time>
      </trkpt>
      <trkpt lat="45.93473" lon="4.77104">
        <ele>169</ele>
        <time>2017-08-20T08:33:25Z</time>
      </trkpt>
      <trkpt lat="45.93475" lon="4.77112">
        <ele>169</ele>
        <time>2017-08-20T08:33:26Z</time>
      </trkpt>
      <trkpt lat="45.93476" lon="4.7712">
        <ele>169</ele>
        <time>2017-08-20T08:33:27Z</time>
      </trkpt>
      <trkpt lat="45.93478" lon="4.77127">
        <ele>169</ele>
        <time>2017-08-20T08:33:28Z</time>
      </trkpt>
      <trkpt lat="45.93479" lon="4.77134">
        <ele>169</ele>
        <time>2017-08-20T08:33:29Z</time>
      </trkpt>
      <trkpt lat="45.93481" lon="4.77142">
        <ele>169</ele>
        <time>2017-08-20T08:33:30Z</time>
      </trkpt>
      <trkpt lat="45.93482" lon="4.77149">
        <ele>169</ele>
        <time>2017-08-20T08:33:31Z</time>
      </trkpt>
      <trkpt lat="45.93484" lon="4.77157">
        <ele>169</ele>
        <time>2017-08-20T08:33:32Z</time>
      </trkpt>
      <trkpt lat="45.93486" lon="4.77164">
        <ele>169</ele>
        <time>2017-08-20T08:33:33Z</time>
      </trkpt>
      <trkpt lat="45.93488" lon="4.77172">
        <ele>169</ele>
        <time>2017-08-20T08:33:34Z</time>
      </trkpt>
      <trkpt lat="45.9349" lon="4.7718">
        <ele>169</ele>
        <time>2017-08-20T08:33:35Z</time>
      </trkpt>
      <trkpt lat="45.93492" lon="4.77188">
        <ele>169</ele>
        <time>2017-08-20T08:33:36Z</time>
      </trkpt>
      <trkpt lat="45.93494" lon="4.77196">
        <ele>169</ele>
        <time>2017-08-20T08:33:37Z</time>
      </trkpt>
      <trkpt lat="45.93495" lon="4.77205">
        <ele>169</ele>
        <time>2017-08-20T08:33:38Z</time>
      </trkpt>
      <trkpt lat="45.93497" lon="4.77213">
        <ele>169</ele>
        <time>2017-08-20T08:33:39Z</time>
      </trkpt>
      <trkpt lat="45.93499" lon="4.77222">
        <ele>169</ele>
        <time>2017-08-20T08:33:40Z</time>
      </trkpt>
      <trkpt lat="45.93501" lon="4.7723">
        <ele>169</ele>
        <time>2017-08-20T08:33:41Z</time>
      </trkpt>
      <trkpt lat="45.93503" lon="4.77237">
        <ele>169</ele>
        <time>2017-08-20T08:33:42Z</time>
      </trkpt>
      <trkpt lat="45.93505" lon="4.77245">
        <ele>170</ele>
        <time>2017-08-20T08:33:43Z</time>
      </trkpt>
      <trkpt lat="45.93507" lon="4.77253">
        <ele>170</ele>
        <time>2017-08-20T08:33:44Z</time>
      </trkpt>
      <trkpt lat="45.93509" lon="4.7726">
        <ele>170</ele>
        <time>2017-08-20T08:33:45Z</time>
      </trkpt>
      <trkpt lat="45.9351" lon="4.77267">
        <ele>170</ele>
        <time>2017-08-20T08:33:46Z</time>
      </trkpt>
      <trkpt lat="45.93511" lon="4.77274">
        <ele>170</ele>
        <time>2017-08-20T08:33:47Z</time>
      </trkpt>
      <trkpt lat="45.93513" lon="4.77281">
        <ele>170</ele>
        <time>2017-08-20T08:33:48Z</time>
      </trkpt>
      <trkpt lat="45.93515" lon="4.77288">
        <ele>170</ele>
        <time>2017-08-20T08:33:49Z</time>
      </trkpt>
      <trkpt lat="45.93516" lon="4.77296">
        <ele>170</ele>
        <time>2017-08-20T08:33:50Z</time>
      </trkpt>
      <trkpt lat="45.93518" lon="4.77303">
        <ele>170</ele>
        <time>2017-08-20T08:33:51Z</time>
      </trkpt>
      <trkpt lat="45.93519" lon="4.7731">
        <ele>170</ele>
        <time>2017-08-20T08:33:52Z</time>
      </trkpt>
      <trkpt lat="45.93521" lon="4.77318">
        <ele>170</ele>
        <time>2017-08-20T08:33:53Z</time>
      </trkpt>
      <trkpt lat="45.93523" lon="4.77326">
        <ele>170</ele>
        <time>2017-08-20T08:33:54Z</time>
      </trkpt>
      <trkpt lat="45.93524" lon="4.77333">
        <ele>170</ele>
        <time>2017-08-20T08:33:55Z</time>
      </trkpt>
      <trkpt lat="45.93526" lon="4.77342">
        <ele>170</ele>
        <time>2017-08-20T08:33:56Z</time>
      </trkpt>
      <trkpt lat="45.93528" lon="4.7735">
        <ele>170</ele>
        <time>2017-08-20T08:33:57Z</time>
      </trkpt>
      <trkpt lat="45.93529" lon="4.77358">
        <ele>170</ele>
        <time>2017-08-20T08:33:58Z</time>
      </trkpt>
      <trkpt lat="45.93531" lon="4.77367">
        <ele>170</ele>
        <time>2017-08-20T08:33:59Z</time>
      </trkpt>
      <trkpt lat="45.93533" lon="4.77375">
        <ele>170</ele>
        <time>2017-08-20T08:34:00Z</time>
      </trkpt>
      <trkpt lat="45.93534" lon="4.77383">
        <ele>170</ele>
        <time>2017-08-20T08:34:01Z</time>
      </trkpt>
      <trkpt lat="45.93536" lon="4.77391">
        <ele>170</ele>
        <time>2017-08-20T08:34:02Z</time>
      </trkpt>
      <trkpt lat="45.93538" lon="4.77398">
        <ele>170</ele>
        <time>2017-08-20T08:34:03Z</time>
      </trkpt>
      <trkpt lat="45.93539" lon="4.77406">
        <ele>170</ele>
        <time>2017-08-20T08:34:04Z</time>
      </trkpt>
      <trkpt lat="45.93541" lon="4.77413">
        <ele>170</ele>
        <time>2017-08-20T08:34:05Z</time>
      </trkpt>
      <trkpt lat="45.93543" lon="4.7742">
        <ele>170</ele>
        <time>2017-08-20T08:34:06Z</time>
      </trkpt>
      <trkpt lat="45.93544" lon="4.77427">
        <ele>169</ele>
        <time>2017-08-20T08:34:07Z</time>
      </trkpt>
      <trkpt lat="45.93546" lon="4.77435">
        <ele>169</ele>
        <time>2017-08-20T08:34:08Z</time>
      </trkpt>
      <trkpt lat="45.93547" lon="4.77443">
        <ele>169</ele>
        <time>2017-08-20T08:34:09Z</time>
      </trkpt>
      <trkpt lat="45.93549" lon="4.77452">
        <ele>169</ele>
        <time>2017-08-20T08:34:10Z</time>
      </trkpt>
      <trkpt lat="45.93551" lon="4.77461">
        <ele>169</ele>
        <time>2017-08-20T08:34:11Z</time>
      </trkpt>
      <trkpt lat="45.93553" lon="4.7747">
        <ele>169</ele>
        <time>2017-08-20T08:34:12Z</time>
      </trkpt>
      <trkpt lat="45.93555" lon="4.77478">
        <ele>169</ele>
        <time>2017-08-20T08:34:13Z</time>
      </trkpt>
      <trkpt lat="45.93557" lon="4.77486">
        <ele>169</ele>
        <time>2017-08-20T08:34:14Z</time>
      </trkpt>
      <trkpt lat="45.93559" lon="4.77494">
        <ele>169</ele>
        <time>2017-08-20T08:34:15Z</time>
      </trkpt>
      <trkpt lat="45.93561" lon="4.77501">
        <ele>169</ele>
        <time>2017-08-20T08:34:16Z</time>
      </trkpt>
      <trkpt lat="45.93562" lon="4.77509">
        <ele>169</ele>
        <time>2017-08-20T08:34:17Z</time>
      </trkpt>
      <trkpt lat="45.93564" lon="4.77516">
        <ele>169</ele>
        <time>2017-08-20T08:34:18Z</time>
      </trkpt>
      <trkpt lat="45.93566" lon="4.77523">
        <ele>169</ele>
        <time>2017-08-20T08:34:19Z</time>
      </trkpt>
      <trkpt lat="45.93568" lon="4.77531">
        <ele>169</ele>
        <time>2017-08-20T08:34:20Z</time>
      </trkpt>
      <trkpt lat="45.9357" lon="4.77539">
        <ele>169</ele>
        <time>2017-08-20T08:34:21Z</time>
      </trkpt>
      <trkpt lat="45.93572" lon="4.77547">
        <ele>169</ele>
        <time>2017-08-20T08:34:22Z</time>
      </trkpt>
      <trkpt lat="45.93575" lon="4.77555">
        <ele>169</ele>
        <time>2017-08-20T08:34:23Z</time>
      </trkpt>
      <trkpt lat="45.93577" lon="4.77563">
        <ele>169</ele>
        <time>2017-08-20T08:34:24Z</time>
      </trkpt>
      <trkpt lat="45.9358" lon="4.77572">
        <ele>170</ele>
        <time>2017-08-20T08:34:25Z</time>
      </trkpt>
      <trkpt lat="45.93583" lon="4.7758">
        <ele>170</ele>
        <time>2017-08-20T08:34:26Z</time>
      </trkpt>
      <trkpt lat="45.93585" lon="4.77588">
        <ele>170</ele>
        <time>2017-08-20T08:34:27Z</time>
      </trkpt>
      <trkpt lat="45.93588" lon="4.77596">
        <ele>170</ele>
        <time>2017-08-20T08:34:28Z</time>
      </trkpt>
      <trkpt lat="45.93591" lon="4.77603">
        <ele>170</ele>
        <time>2017-08-20T08:34:29Z</time>
      </trkpt>
      <trkpt lat="45.93593" lon="4.7761">
        <ele>170</ele>
        <time>2017-08-20T08:34:30Z</time>
      </trkpt>
      <trkpt lat="45.93596" lon="4.77618">
        <ele>170</ele>
        <time>2017-08-20T08:34:31Z</time>
      </trkpt>
      <trkpt lat="45.93598" lon="4.77625">
        <ele>170</ele>
        <time>2017-08-20T08:34:32Z</time>
      </trkpt>
      <trkpt lat="45.936" lon="4.77631">
        <ele>169</ele>
        <time>2017-08-20T08:34:33Z</time>
      </trkpt>
      <trkpt lat="45.93603" lon="4.77638">
        <ele>169</ele>
        <time>2017-08-20T08:34:34Z</time>
      </trkpt>
      <trkpt lat="45.93606" lon="4.77645">
        <ele>169</ele>
        <time>2017-08-20T08:34:35Z</time>
      </trkpt>
      <trkpt lat="45.93609" lon="4.77651">
        <ele>169</ele>
        <time>2017-08-20T08:34:36Z</time>
      </trkpt>
      <trkpt lat="45.93612" lon="4.77658">
        <ele>169</ele>
        <time>2017-08-20T08:34:37Z</time>
      </trkpt>
      <trkpt lat="45.93615" lon="4.77665">
        <ele>169</ele>
        <time>2017-08-20T08:34:38Z</time>
      </trkpt>
      <trkpt lat="45.93619" lon="4.77672">
        <ele>169</ele>
        <time>2017-08-20T08:34:39Z</time>
      </trkpt>
      <trkpt lat="45.93622" lon="4.77678">
        <ele>169</ele>
        <time>2017-08-20T08:34:40Z</time>
      </trkpt>
      <trkpt lat="45.93625" lon="4.77685">
        <ele>169</ele>
        <time>2017-08-20T08:34:41Z</time>
      </trkpt>
      <trkpt lat="45.93629" lon="4.77691">
        <ele>169</ele>
        <time>2017-08-20T08:34:42Z</time>
      </trkpt>
      <trkpt lat="45.93632" lon="4.77697">
        <ele>169</ele>
        <time>2017-08-20T08:34:43Z</time>
      </trkpt>
      <trkpt lat="45.93635" lon="4.77703">
        <ele>170</ele>
        <time>2017-08-20T08:34:44Z</time>
      </trkpt>
      <trkpt lat="45.93638" lon="4.77709">
        <ele>170</ele>
        <time>2017-08-20T08:34:45Z</time>
      </trkpt>
      <trkpt lat="45.93641" lon="4.77715">
        <ele>170</ele>
        <time>2017-08-20T08:34:46Z</time>
      </trkpt>
      <trkpt lat="45.93644" lon="4.7772">
        <ele>170</ele>
        <time>2017-08-20T08:34:47Z</time>
      </trkpt>
      <trkpt lat="45.93648" lon="4.77726">
        <ele>170</ele>
        <time>2017-08-20T08:34:48Z</time>
      </trkpt>
      <trkpt lat="45.9365" lon="4.77732">
        <ele>170</ele>
        <time>2017-08-20T08:34:49Z</time>
      </trkpt>
      <trkpt lat="45.93653" lon="4.77737">
        <ele>170</ele>
        <time>2017-08-20T08:34:50Z</time>
      </trkpt>
      <trkpt lat="45.93656" lon="4.77742">
        <ele>170</ele>
        <time>2017-08-20T08:34:51Z</time>
      </trkpt>
      <trkpt lat="45.9366" lon="4.77747">
        <ele>171</ele>
        <time>2017-08-20T08:34:52Z</time>
      </trkpt>
      <trkpt lat="45.93663" lon="4.77752">
        <ele>171</ele>
        <time>2017-08-20T08:34:53Z</time>
      </trkpt>
      <trkpt lat="45.93666" lon="4.77757">
        <ele>171</ele>
        <time>2017-08-20T08:34:54Z</time>
      </trkpt>
      <trkpt lat="45.93669" lon="4.77762">
        <ele>170</ele>
        <time>2017-08-20T08:34:55Z</time>
      </trkpt>
      <trkpt lat="45.93672" lon="4.77767">
        <ele>170</ele>
        <time>2017-08-20T08:34:56Z</time>
      </trkpt>
      <trkpt lat="45.93675" lon="4.77772">
        <ele>170</ele>
        <time>2017-08-20T08:34:57Z</time>
      </trkpt>
      <trkpt lat="45.93678" lon="4.77778">
        <ele>170</ele>
        <time>2017-08-20T08:34:58Z</time>
      </trkpt>
      <trkpt lat="45.93682" lon="4.77782">
        <ele>170</ele>
        <time>2017-08-20T08:34:59Z</time>
      </trkpt>
      <trkpt lat="45.93686" lon="4.77787">
        <ele>170</ele>
        <time>2017-08-20T08:35:00Z</time>
      </trkpt>
      <trkpt lat="45.93689" lon="4.77792">
        <ele>170</ele>
        <time>2017-08-20T08:35:01Z</time>
      </trkpt>
      <trkpt lat="45.93693" lon="4.77797">
        <ele>169</ele>
        <time>2017-08-20T08:35:02Z</time>
      </trkpt>
      <trkpt lat="45.93696" lon="4.77802">
        <ele>169</ele>
        <time>2017-08-20T08:35:03Z</time>
      </trkpt>
      <trkpt lat="45.937" lon="4.77808">
        <ele>169</ele>
        <time>2017-08-20T08:35:04Z</time>
      </trkpt>
      <trkpt lat="45.93704" lon="4.77813">
        <ele>169</ele>
        <time>2017-08-20T08:35:05Z</time>
      </trkpt>
      <trkpt lat="45.93707" lon="4.77817">
        <ele>169</ele>
        <time>2017-08-20T08:35:06Z</time>
      </trkpt>
      <trkpt lat="45.93711" lon="4.77822">
        <ele>169</ele>
        <time>2017-08-20T08:35:07Z</time>
      </trkpt>
      <trkpt lat="45.93714" lon="4.77827">
        <ele>169</ele>
        <time>2017-08-20T08:35:08Z</time>
      </trkpt>
      <trkpt lat="45.93718" lon="4.77832">
        <ele>168</ele>
        <time>2017-08-20T08:35:09Z</time>
      </trkpt>
      <trkpt lat="45.93721" lon="4.77836">
        <ele>167</ele>
        <time>2017-08-20T08:35:10Z</time>
      </trkpt>
      <trkpt lat="45.93725" lon="4.77841">
        <ele>167</ele>
        <time>2017-08-20T08:35:11Z</time>
      </trkpt>
      <trkpt lat="45.93728" lon="4.77845">
        <ele>167</ele>
        <time>2017-08-20T08:35:12Z</time>
      </trkpt>
      <trkpt lat="45.93732" lon="4.77849">
        <ele>167</ele>
        <time>2017-08-20T08:35:13Z</time>
      </trkpt>
      <trkpt lat="45.93735" lon="4.77854">
        <ele>167</ele>
        <time>2017-08-20T08:35:14Z</time>
      </trkpt>
      <trkpt lat="45.93738" lon="4.77858">
        <ele>167</ele>
        <time>2017-08-20T08:35:15Z</time>
      </trkpt>
      <trkpt lat="45.93742" lon="4.77862">
        <ele>167</ele>
        <time>2017-08-20T08:35:16Z</time>
      </trkpt>
      <trkpt lat="45.93745" lon="4.77867">
        <ele>167</ele>
        <time>2017-08-20T08:35:17Z</time>
      </trkpt>
      <trkpt lat="45.93749" lon="4.77872">
        <ele>167</ele>
        <time>2017-08-20T08:35:18Z</time>
      </trkpt>
      <trkpt lat="45.93752" lon="4.77877">
        <ele>166</ele>
        <time>2017-08-20T08:35:19Z</time>
      </trkpt>
      <trkpt lat="45.93755" lon="4.77881">
        <ele>166</ele>
        <time>2017-08-20T08:35:20Z</time>
      </trkpt>
      <trkpt lat="45.93759" lon="4.77886">
        <ele>166</ele>
        <time>2017-08-20T08:35:21Z</time>
      </trkpt>
      <trkpt lat="45.93762" lon="4.7789">
        <ele>166</ele>
        <time>2017-08-20T08:35:22Z</time>
      </trkpt>
      <trkpt lat="45.93769" lon="4.77898">
        <ele>166</ele>
        <time>2017-08-20T08:35:24Z</time>
      </trkpt>
      <trkpt lat="45.93772" lon="4.77902">
        <ele>166</ele>
        <time>2017-08-20T08:35:25Z</time>
      </trkpt>
      <trkpt lat="45.93779" lon="4.7791">
        <ele>166</ele>
        <time>2017-08-20T08:35:27Z</time>
      </trkpt>
      <trkpt lat="45.93782" lon="4.77914">
        <ele>166</ele>
        <time>2017-08-20T08:35:28Z</time>
      </trkpt>
      <trkpt lat="45.93785" lon="4.77919">
        <ele>168</ele>
        <time>2017-08-20T08:35:29Z</time>
      </trkpt>
      <trkpt lat="45.93789" lon="4.77923">
        <ele>168</ele>
        <time>2017-08-20T08:35:30Z</time>
      </trkpt>
      <trkpt lat="45.93795" lon="4.77932">
        <ele>168</ele>
        <time>2017-08-20T08:35:32Z</time>
      </trkpt>
      <trkpt lat="45.93798" lon="4.77937">
        <ele>169</ele>
        <time>2017-08-20T08:35:33Z</time>
      </trkpt>
      <trkpt lat="45.93801" lon="4.77941">
        <ele>169</ele>
        <time>2017-08-20T08:35:34Z</time>
      </trkpt>
      <trkpt lat="45.93805" lon="4.77946">
        <ele>169</ele>
        <time>2017-08-20T08:35:35Z</time>
      </trkpt>
      <trkpt lat="45.93811" lon="4.77954">
        <ele>170</ele>
        <time>2017-08-20T08:35:37Z</time>
      </trkpt>
      <trkpt lat="45.93815" lon="4.77958">
        <ele>170</ele>
        <time>2017-08-20T08:35:38Z</time>
      </trkpt>
      <trkpt lat="45.93819" lon="4.77963">
        <ele>171</ele>
        <time>2017-08-20T08:35:39Z</time>
      </trkpt>
      <trkpt lat="45.93823" lon="4.77968">
        <ele>171</ele>
        <time>2017-08-20T08:35:40Z</time>
      </trkpt>
      <trkpt lat="45.93826" lon="4.77973">
        <ele>172</ele>
        <time>2017-08-20T08:35:41Z</time>
      </trkpt>
      <trkpt lat="45.9383" lon="4.77978">
        <ele>173</ele>
        <time>2017-08-20T08:35:42Z</time>
      </trkpt>
      <trkpt lat="45.93834" lon="4.77984">
        <ele>178</ele>
        <time>2017-08-20T08:35:43Z</time>
      </trkpt>
      <trkpt lat="45.93837" lon="4.77989">
        <ele>179</ele>
        <time>2017-08-20T08:35:44Z</time>
      </trkpt>
      <trkpt lat="45.9384" lon="4.77995">
        <ele>179</ele>
        <time>2017-08-20T08:35:45Z</time>
      </trkpt>
      <trkpt lat="45.93841" lon="4.78003">
        <ele>180</ele>
        <time>2017-08-20T08:35:46Z</time>
      </trkpt>
      <trkpt lat="45.93842" lon="4.78011">
        <ele>181</ele>
        <time>2017-08-20T08:35:47Z</time>
      </trkpt>
      <trkpt lat="45.93843" lon="4.78019">
        <ele>182</ele>
        <time>2017-08-20T08:35:48Z</time>
      </trkpt>
      <trkpt lat="45.93845" lon="4.78026">
        <ele>182</ele>
        <time>2017-08-20T08:35:49Z</time>
      </trkpt>
      <trkpt lat="45.93847" lon="4.78033">
        <ele>182</ele>
        <time>2017-08-20T08:35:50Z</time>
      </trkpt>
      <trkpt lat="45.93848" lon="4.78045">
        <ele>183</ele>
        <time>2017-08-20T08:35:52Z</time>
      </trkpt>
      <trkpt lat="45.93847" lon="4.7805">
        <ele>182</ele>
        <time>2017-08-20T08:35:53Z</time>
      </trkpt>
      <trkpt lat="45.93845" lon="4.78062">
        <ele>182</ele>
        <time>2017-08-20T08:35:55Z</time>
      </trkpt>
      <trkpt lat="45.93844" lon="4.78068">
        <ele>182</ele>
        <time>2017-08-20T08:35:56Z</time>
      </trkpt>
      <trkpt lat="45.93843" lon="4.78075">
        <ele>182</ele>
        <time>2017-08-20T08:35:57Z</time>
      </trkpt>
      <trkpt lat="45.93842" lon="4.78081">
        <ele>181</ele>
        <time>2017-08-20T08:35:58Z</time>
      </trkpt>
      <trkpt lat="45.93841" lon="4.78088">
        <ele>182</ele>
        <time>2017-08-20T08:35:59Z</time>
      </trkpt>
      <trkpt lat="45.93839" lon="4.78095">
        <ele>182</ele>
        <time>2017-08-20T08:36:00Z</time>
      </trkpt>
      <trkpt lat="45.93837" lon="4.78102">
        <ele>183</ele>
        <time>2017-08-20T08:36:01Z</time>
      </trkpt>
      <trkpt lat="45.93835" lon="4.78109">
        <ele>184</ele>
        <time>2017-08-20T08:36:02Z</time>
      </trkpt>
      <trkpt lat="45.93833" lon="4.78116">
        <ele>179</ele>
        <time>2017-08-20T08:36:03Z</time>
      </trkpt>
      <trkpt lat="45.93831" lon="4.78123">
        <ele>180</ele>
        <time>2017-08-20T08:36:04Z</time>
      </trkpt>
      <trkpt lat="45.93829" lon="4.78129">
        <ele>180</ele>
        <time>2017-08-20T08:36:05Z</time>
      </trkpt>
      <trkpt lat="45.93827" lon="4.78135">
        <ele>180</ele>
        <time>2017-08-20T08:36:06Z</time>
      </trkpt>
      <trkpt lat="45.93825" lon="4.78141">
        <ele>180</ele>
        <time>2017-08-20T08:36:07Z</time>
      </trkpt>
      <trkpt lat="45.93824" lon="4.78147">
        <ele>180</ele>
        <time>2017-08-20T08:36:08Z</time>
      </trkpt>
      <trkpt lat="45.93821" lon="4.78154">
        <ele>180</ele>
        <time>2017-08-20T08:36:09Z</time>
      </trkpt>
      <trkpt lat="45.93819" lon="4.7816">
        <ele>181</ele>
        <time>2017-08-20T08:36:10Z</time>
      </trkpt>
      <trkpt lat="45.93818" lon="4.78167">
        <ele>182</ele>
        <time>2017-08-20T08:36:11Z</time>
      </trkpt>
      <trkpt lat="45.93816" lon="4.78174">
        <ele>182</ele>
        <time>2017-08-20T08:36:12Z</time>
      </trkpt>
      <trkpt lat="45.93813" lon="4.7818">
        <ele>182</ele>
        <time>2017-08-20T08:36:13Z</time>
      </trkpt>
      <trkpt lat="45.93812" lon="4.78185">
        <ele>182</ele>
        <time>2017-08-20T08:36:14Z</time>
      </trkpt>
      <trkpt lat="45.93809" lon="4.78197">
        <ele>182</ele>
        <time>2017-08-20T08:36:16Z</time>
      </trkpt>
      <trkpt lat="45.93808" lon="4.78202">
        <ele>182</ele>
        <time>2017-08-20T08:36:17Z</time>
      </trkpt>
      <trkpt lat="45.93804" lon="4.78213">
        <ele>182</ele>
        <time>2017-08-20T08:36:19Z</time>
      </trkpt>
      <trkpt lat="45.93802" lon="4.78218">
        <ele>182</ele>
        <time>2017-08-20T08:36:20Z</time>
      </trkpt>
      <trkpt lat="45.93797" lon="4.78228">
        <ele>182</ele>
        <time>2017-08-20T08:36:22Z</time>
      </trkpt>
      <trkpt lat="45.93794" lon="4.78232">
        <ele>182</ele>
        <time>2017-08-20T08:36:23Z</time>
      </trkpt>
      <trkpt lat="45.9379" lon="4.78242">
        <ele>182</ele>
        <time>2017-08-20T08:36:25Z</time>
      </trkpt>
      <trkpt lat="45.93788" lon="4.78248">
        <ele>182</ele>
        <time>2017-08-20T08:36:26Z</time>
      </trkpt>
      <trkpt lat="45.93788" lon="4.78259">
        <ele>183</ele>
        <time>2017-08-20T08:36:28Z</time>
      </trkpt>
      <trkpt lat="45.93787" lon="4.78265">
        <ele>183</ele>
        <time>2017-08-20T08:36:29Z</time>
      </trkpt>
      <trkpt lat="45.93785" lon="4.78271">
        <ele>183</ele>
        <time>2017-08-20T08:36:30Z</time>
      </trkpt>
      <trkpt lat="45.93783" lon="4.78277">
        <ele>183</ele>
        <time>2017-08-20T08:36:31Z</time>
      </trkpt>
      <trkpt lat="45.93778" lon="4.78288">
        <ele>183</ele>
        <time>2017-08-20T08:36:33Z</time>
      </trkpt>
      <trkpt lat="45.93776" lon="4.78294">
        <ele>183</ele>
        <time>2017-08-20T08:36:34Z</time>
      </trkpt>
      <trkpt lat="45.93772" lon="4.78305">
        <ele>183</ele>
        <time>2017-08-20T08:36:36Z</time>
      </trkpt>
      <trkpt lat="45.93771" lon="4.78311">
        <ele>183</ele>
        <time>2017-08-20T08:36:37Z</time>
      </trkpt>
      <trkpt lat="45.93769" lon="4.78317">
        <ele>183</ele>
        <time>2017-08-20T08:36:38Z</time>
      </trkpt>
      <trkpt lat="45.93766" lon="4.78323">
        <ele>183</ele>
        <time>2017-08-20T08:36:39Z</time>
      </trkpt>
      <trkpt lat="45.93764" lon="4.7833">
        <ele>183</ele>
        <time>2017-08-20T08:36:40Z</time>
      </trkpt>
      <trkpt lat="45.93763" lon="4.78338">
        <ele>183</ele>
        <time>2017-08-20T08:36:41Z</time>
      </trkpt>
      <trkpt lat="45.93761" lon="4.78345">
        <ele>183</ele>
        <time>2017-08-20T08:36:42Z</time>
      </trkpt>
      <trkpt lat="45.93759" lon="4.78353">
        <ele>183</ele>
        <time>2017-08-20T08:36:43Z</time>
      </trkpt>
      <trkpt lat="45.93757" lon="4.78362">
        <ele>183</ele>
        <time>2017-08-20T08:36:44Z</time>
      </trkpt>
      <trkpt lat="45.93755" lon="4.78369">
        <ele>183</ele>
        <time>2017-08-20T08:36:45Z</time>
      </trkpt>
      <trkpt lat="45.93754" lon="4.78376">
        <ele>183</ele>
        <time>2017-08-20T08:36:46Z</time>
      </trkpt>
      <trkpt lat="45.93752" lon="4.78383">
        <ele>183</ele>
        <time>2017-08-20T08:36:47Z</time>
      </trkpt>
      <trkpt lat="45.93751" lon="4.78391">
        <ele>183</ele>
        <time>2017-08-20T08:36:48Z</time>
      </trkpt>
      <trkpt lat="45.9375" lon="4.78398">
        <ele>181</ele>
        <time>2017-08-20T08:36:49Z</time>
      </trkpt>
      <trkpt lat="45.93748" lon="4.78404">
        <ele>181</ele>
        <time>2017-08-20T08:36:50Z</time>
      </trkpt>
      <trkpt lat="45.93746" lon="4.78411">
        <ele>181</ele>
        <time>2017-08-20T08:36:51Z</time>
      </trkpt>
      <trkpt lat="45.93745" lon="4.78417">
        <ele>181</ele>
        <time>2017-08-20T08:36:52Z</time>
      </trkpt>
      <trkpt lat="45.93743" lon="4.78424">
        <ele>180</ele>
        <time>2017-08-20T08:36:53Z</time>
      </trkpt>
      <trkpt lat="45.93741" lon="4.78431">
        <ele>180</ele>
        <time>2017-08-20T08:36:54Z</time>
      </trkpt>
      <trkpt lat="45.93739" lon="4.78439">
        <ele>180</ele>
        <time>2017-08-20T08:36:55Z</time>
      </trkpt>
      <trkpt lat="45.93737" lon="4.78446">
        <ele>180</ele>
        <time>2017-08-20T08:36:56Z</time>
      </trkpt>
      <trkpt lat="45.93735" lon="4.78454">
        <ele>180</ele>
        <time>2017-08-20T08:36:57Z</time>
      </trkpt>
      <trkpt lat="45.93732" lon="4.78461">
        <ele>180</ele>
        <time>2017-08-20T08:36:58Z</time>
      </trkpt>
      <trkpt lat="45.9373" lon="4.78468">
        <ele>180</ele>
        <time>2017-08-20T08:36:59Z</time>
      </trkpt>
      <trkpt lat="45.93727" lon="4.78476">
        <ele>180</ele>
        <time>2017-08-20T08:37:00Z</time>
      </trkpt>
      <trkpt lat="45.93725" lon="4.78483">
        <ele>180</ele>
        <time>2017-08-20T08:37:01Z</time>
      </trkpt>
      <trkpt lat="45.93723" lon="4.78492">
        <ele>180</ele>
        <time>2017-08-20T08:37:02Z</time>
      </trkpt>
      <trkpt lat="45.9372" lon="4.785">
        <ele>179</ele>
        <time>2017-08-20T08:37:03Z</time>
      </trkpt>
      <trkpt lat="45.93718" lon="4.78508">
        <ele>179</ele>
        <time>2017-08-20T08:37:04Z</time>
      </trkpt>
      <trkpt lat="45.93715" lon="4.78516">
        <ele>178</ele>
        <time>2017-08-20T08:37:05Z</time>
      </trkpt>
      <trkpt lat="45.93713" lon="4.78525">
        <ele>178</ele>
        <time>2017-08-20T08:37:06Z</time>
      </trkpt>
      <trkpt lat="45.93711" lon="4.78534">
        <ele>178</ele>
        <time>2017-08-20T08:37:07Z</time>
      </trkpt>
      <trkpt lat="45.93709" lon="4.78543">
        <ele>178</ele>
        <time>2017-08-20T08:37:08Z</time>
      </trkpt>
      <trkpt lat="45.93708" lon="4.78551">
        <ele>178</ele>
        <time>2017-08-20T08:37:09Z</time>
      </trkpt>
      <trkpt lat="45.93706" lon="4.7856">
        <ele>177</ele>
        <time>2017-08-20T08:37:10Z</time>
      </trkpt>
      <trkpt lat="45.93704" lon="4.78568">
        <ele>177</ele>
        <time>2017-08-20T08:37:11Z</time>
      </trkpt>
      <trkpt lat="45.93702" lon="4.78577">
        <ele>177</ele>
        <time>2017-08-20T08:37:12Z</time>
      </trkpt>
      <trkpt lat="45.937" lon="4.78585">
        <ele>176</ele>
        <time>2017-08-20T08:37:13Z</time>
      </trkpt>
      <trkpt lat="45.93697" lon="4.78592">
        <ele>176</ele>
        <time>2017-08-20T08:37:14Z</time>
      </trkpt>
      <trkpt lat="45.93695" lon="4.78598">
        <ele>176</ele>
        <time>2017-08-20T08:37:15Z</time>
      </trkpt>
      <trkpt lat="45.93693" lon="4.78605">
        <ele>176</ele>
        <time>2017-08-20T08:37:16Z</time>
      </trkpt>
      <trkpt lat="45.93693" lon="4.78613">
        <ele>176</ele>
        <time>2017-08-20T08:37:17Z</time>
      </trkpt>
      <trkpt lat="45.93695" lon="4.78621">
        <ele>176</ele>
        <time>2017-08-20T08:37:18Z</time>
      </trkpt>
      <trkpt lat="45.93697" lon="4.78626">
        <ele>176</ele>
        <time>2017-08-20T08:37:19Z</time>
      </trkpt>
      <trkpt lat="45.93701" lon="4.78631">
        <ele>176</ele>
        <time>2017-08-20T08:37:20Z</time>
      </trkpt>
      <trkpt lat="45.93706" lon="4.78631">
        <ele>176</ele>
        <time>2017-08-20T08:37:21Z</time>
      </trkpt>
      <trkpt lat="45.93714" lon="4.78627">
        <ele>176</ele>
        <time>2017-08-20T08:37:23Z</time>
      </trkpt>
      <trkpt lat="45.93717" lon="4.78625">
        <ele>176</ele>
        <time>2017-08-20T08:37:24Z</time>
      </trkpt>
      <trkpt lat="45.93721" lon="4.78623">
        <ele>177</ele>
        <time>2017-08-20T08:37:25Z</time>
      </trkpt>
      <trkpt lat="45.93726" lon="4.78624">
        <ele>177</ele>
        <time>2017-08-20T08:37:26Z</time>
      </trkpt>
      <trkpt lat="45.93731" lon="4.78624">
        <ele>177</ele>
        <time>2017-08-20T08:37:27Z</time>
      </trkpt>
      <trkpt lat="45.93736" lon="4.78623">
        <ele>177</ele>
        <time>2017-08-20T08:37:28Z</time>
      </trkpt>
      <trkpt lat="45.93744" lon="4.78621">
        <ele>177</ele>
        <time>2017-08-20T08:37:30Z</time>
      </trkpt>
      <trkpt lat="45.93748" lon="4.7862">
        <ele>177</ele>
        <time>2017-08-20T08:37:31Z</time>
      </trkpt>
      <trkpt lat="45.93756" lon="4.78617">
        <ele>181</ele>
        <time>2017-08-20T08:37:33Z</time>
      </trkpt>
      <trkpt lat="45.9376" lon="4.78617">
        <ele>181</ele>
        <time>2017-08-20T08:37:34Z</time>
      </trkpt>
      <trkpt lat="45.93767" lon="4.78615">
        <ele>181</ele>
        <time>2017-08-20T08:37:36Z</time>
      </trkpt>
      <trkpt lat="45.93771" lon="4.78615">
        <ele>181</ele>
        <time>2017-08-20T08:37:37Z</time>
      </trkpt>
      <trkpt lat="45.9378" lon="4.78614">
        <ele>181</ele>
        <time>2017-08-20T08:37:39Z</time>
      </trkpt>
      <trkpt lat="45.93784" lon="4.78614">
        <ele>182</ele>
        <time>2017-08-20T08:37:40Z</time>
      </trkpt>
      <trkpt lat="45.93792" lon="4.78613">
        <ele>182</ele>
        <time>2017-08-20T08:37:42Z</time>
      </trkpt>
      <trkpt lat="45.93795" lon="4.78612">
        <ele>182</ele>
        <time>2017-08-20T08:37:43Z</time>
      </trkpt>
      <trkpt lat="45.93803" lon="4.78612">
        <ele>183</ele>
        <time>2017-08-20T08:37:45Z</time>
      </trkpt>
      <trkpt lat="45.93808" lon="4.78611">
        <ele>183</ele>
        <time>2017-08-20T08:37:46Z</time>
      </trkpt>
      <trkpt lat="45.93816" lon="4.7861">
        <ele>183</ele>
        <time>2017-08-20T08:37:48Z</time>
      </trkpt>
      <trkpt lat="45.9382" lon="4.78609">
        <ele>183</ele>
        <time>2017-08-20T08:37:49Z</time>
      </trkpt>
      <trkpt lat="45.93828" lon="4.78608">
        <ele>184</ele>
        <time>2017-08-20T08:37:51Z</time>
      </trkpt>
      <trkpt lat="45.93831" lon="4.78607">
        <ele>184</ele>
        <time>2017-08-20T08:37:52Z</time>
      </trkpt>
      <trkpt lat="45.93838" lon="4.78605">
        <ele>187</ele>
        <time>2017-08-20T08:37:54Z</time>
      </trkpt>
      <trkpt lat="45.93841" lon="4.78605">
        <ele>188</ele>
        <time>2017-08-20T08:37:55Z</time>
      </trkpt>
      <trkpt lat="45.93847" lon="4.78605">
        <ele>188</ele>
        <time>2017-08-20T08:37:57Z</time>
      </trkpt>
      <trkpt lat="45.9385" lon="4.78605">
        <ele>188</ele>
        <time>2017-08-20T08:37:58Z</time>
      </trkpt>
      <trkpt lat="45.93856" lon="4.78601">
        <ele>188</ele>
        <time>2017-08-20T08:38:00Z</time>
      </trkpt>
      <trkpt lat="45.93859" lon="4.78601">
        <ele>188</ele>
        <time>2017-08-20T08:38:01Z</time>
      </trkpt>
      <trkpt lat="45.93867" lon="4.78601">
        <ele>188</ele>
        <time>2017-08-20T08:38:04Z</time>
      </trkpt>
      <trkpt lat="45.93869" lon="4.78601">
        <ele>188</ele>
        <time>2017-08-20T08:38:05Z</time>
      </trkpt>
      <trkpt lat="45.93876" lon="4.78599">
        <ele>189</ele>
        <time>2017-08-20T08:38:08Z</time>
      </trkpt>
      <trkpt lat="45.93878" lon="4.786">
        <ele>189</ele>
        <time>2017-08-20T08:38:09Z</time>
      </trkpt>
      <trkpt lat="45.93886" lon="4.78599">
        <ele>189</ele>
        <time>2017-08-20T08:38:12Z</time>
      </trkpt>
      <trkpt lat="45.93889" lon="4.78599">
        <ele>189</ele>
        <time>2017-08-20T08:38:13Z</time>
      </trkpt>
      <trkpt lat="45.93897" lon="4.78598">
        <ele>190</ele>
        <time>2017-08-20T08:38:17Z</time>
      </trkpt>
      <trkpt lat="45.93899" lon="4.78597">
        <ele>190</ele>
        <time>2017-08-20T08:38:18Z</time>
      </trkpt>
      <trkpt lat="45.93907" lon="4.78593">
        <ele>191</ele>
        <time>2017-08-20T08:38:21Z</time>
      </trkpt>
      <trkpt lat="45.9391" lon="4.78591">
        <ele>191</ele>
        <time>2017-08-20T08:38:22Z</time>
      </trkpt>
      <trkpt lat="45.93917" lon="4.78584">
        <ele>193</ele>
        <time>2017-08-20T08:38:24Z</time>
      </trkpt>
      <trkpt lat="45.93919" lon="4.78581">
        <ele>194</ele>
        <time>2017-08-20T08:38:25Z</time>
      </trkpt>
      <trkpt lat="45.93927" lon="4.78578">
        <ele>195</ele>
        <time>2017-08-20T08:38:28Z</time>
      </trkpt>
      <trkpt lat="45.93928" lon="4.78578">
        <ele>195</ele>
        <time>2017-08-20T08:38:29Z</time>
      </trkpt>
      <trkpt lat="45.93931" lon="4.78589">
        <ele>195</ele>
        <time>2017-08-20T08:38:35Z</time>
      </trkpt>
      <trkpt lat="45.93931" lon="4.78595">
        <ele>195</ele>
        <time>2017-08-20T08:38:36Z</time>
      </trkpt>
      <trkpt lat="45.93931" lon="4.78605">
        <ele>195</ele>
        <time>2017-08-20T08:38:39Z</time>
      </trkpt>
      <trkpt lat="45.93931" lon="4.78609">
        <ele>195</ele>
        <time>2017-08-20T08:38:40Z</time>
      </trkpt>
      <trkpt lat="45.93932" lon="4.78621">
        <ele>195</ele>
        <time>2017-08-20T08:38:43Z</time>
      </trkpt>
      <trkpt lat="45.93931" lon="4.78627">
        <ele>195</ele>
        <time>2017-08-20T08:38:44Z</time>
      </trkpt>
      <trkpt lat="45.9393" lon="4.78636">
        <ele>195</ele>
        <time>2017-08-20T08:38:46Z</time>
      </trkpt>
      <trkpt lat="45.9393" lon="4.7864">
        <ele>195</ele>
        <time>2017-08-20T08:38:47Z</time>
      </trkpt>
      <trkpt lat="45.93932" lon="4.78651">
        <ele>194</ele>
        <time>2017-08-20T08:38:49Z</time>
      </trkpt>
      <trkpt lat="45.93934" lon="4.78657">
        <ele>194</ele>
        <time>2017-08-20T08:38:50Z</time>
      </trkpt>
      <trkpt lat="45.93934" lon="4.78669">
        <ele>193</ele>
        <time>2017-08-20T08:38:52Z</time>
      </trkpt>
      <trkpt lat="45.93933" lon="4.78676">
        <ele>193</ele>
        <time>2017-08-20T08:38:53Z</time>
      </trkpt>
      <trkpt lat="45.93934" lon="4.78686">
        <ele>193</ele>
        <time>2017-08-20T08:38:55Z</time>
      </trkpt>
      <trkpt lat="45.93934" lon="4.78691">
        <ele>194</ele>
        <time>2017-08-20T08:38:56Z</time>
      </trkpt>
      <trkpt lat="45.93933" lon="4.78701">
        <ele>194</ele>
        <time>2017-08-20T08:38:58Z</time>
      </trkpt>
      <trkpt lat="45.93935" lon="4.78706">
        <ele>194</ele>
        <time>2017-08-20T08:38:59Z</time>
      </trkpt>
      <trkpt lat="45.93937" lon="4.78717">
        <ele>194</ele>
        <time>2017-08-20T08:39:01Z</time>
      </trkpt>
      <trkpt lat="45.93938" lon="4.78722">
        <ele>194</ele>
        <time>2017-08-20T08:39:02Z</time>
      </trkpt>
      <trkpt lat="45.93939" lon="4.78728">
        <ele>194</ele>
        <time>2017-08-20T08:39:03Z</time>
      </trkpt>
      <trkpt lat="45.93939" lon="4.78735">
        <ele>194</ele>
        <time>2017-08-20T08:39:04Z</time>
      </trkpt>
      <trkpt lat="45.93939" lon="4.78742">
        <ele>193</ele>
        <time>2017-08-20T08:39:05Z</time>
      </trkpt>
      <trkpt lat="45.93939" lon="4.78748">
        <ele>193</ele>
        <time>2017-08-20T08:39:06Z</time>
      </trkpt>
      <trkpt lat="45.93939" lon="4.7876">
        <ele>193</ele>
        <time>2017-08-20T08:39:08Z</time>
      </trkpt>
      <trkpt lat="45.93939" lon="4.78768">
        <ele>194</ele>
        <time>2017-08-20T08:39:09Z</time>
      </trkpt>
      <trkpt lat="45.93939" lon="4.78775">
        <ele>194</ele>
        <time>2017-08-20T08:39:10Z</time>
      </trkpt>
      <trkpt lat="45.93938" lon="4.78782">
        <ele>194</ele>
        <time>2017-08-20T08:39:11Z</time>
      </trkpt>
      <trkpt lat="45.93938" lon="4.78794">
        <ele>194</ele>
        <time>2017-08-20T08:39:13Z</time>
      </trkpt>
      <trkpt lat="45.93939" lon="4.78801">
        <ele>194</ele>
        <time>2017-08-20T08:39:14Z</time>
      </trkpt>
      <trkpt lat="45.93939" lon="4.78809">
        <ele>194</ele>
        <time>2017-08-20T08:39:15Z</time>
      </trkpt>
      <trkpt lat="45.93939" lon="4.78818">
        <ele>194</ele>
        <time>2017-08-20T08:39:16Z</time>
      </trkpt>
      <trkpt lat="45.93938" lon="4.78826">
        <ele>193</ele>
        <time>2017-08-20T08:39:17Z</time>
      </trkpt>
      <trkpt lat="45.93938" lon="4.78834">
        <ele>193</ele>
        <time>2017-08-20T08:39:18Z</time>
      </trkpt>
      <trkpt lat="45.93937" lon="4.78841">
        <ele>193</ele>
        <time>2017-08-20T08:39:19Z</time>
      </trkpt>
      <trkpt lat="45.93937" lon="4.78848">
        <ele>193</ele>
        <time>2017-08-20T08:39:20Z</time>
      </trkpt>
      <trkpt lat="45.93939" lon="4.78858">
        <ele>194</ele>
        <time>2017-08-20T08:39:22Z</time>
      </trkpt>
      <trkpt lat="45.9394" lon="4.78862">
        <ele>194</ele>
        <time>2017-08-20T08:39:23Z</time>
      </trkpt>
      <trkpt lat="45.93941" lon="4.78873">
        <ele>194</ele>
        <time>2017-08-20T08:39:25Z</time>
      </trkpt>
      <trkpt lat="45.93942" lon="4.78878">
        <ele>194</ele>
        <time>2017-08-20T08:39:26Z</time>
      </trkpt>
      <trkpt lat="45.93942" lon="4.78886">
        <ele>194</ele>
        <time>2017-08-20T08:39:27Z</time>
      </trkpt>
      <trkpt lat="45.93942" lon="4.78892">
        <ele>193</ele>
        <time>2017-08-20T08:39:28Z</time>
      </trkpt>
      <trkpt lat="45.93942" lon="4.78899">
        <ele>193</ele>
        <time>2017-08-20T08:39:29Z</time>
      </trkpt>
      <trkpt lat="45.93942" lon="4.78905">
        <ele>193</ele>
        <time>2017-08-20T08:39:30Z</time>
      </trkpt>
      <trkpt lat="45.93943" lon="4.78916">
        <ele>193</ele>
        <time>2017-08-20T08:39:32Z</time>
      </trkpt>
      <trkpt lat="45.93942" lon="4.78924">
        <ele>193</ele>
        <time>2017-08-20T08:39:33Z</time>
      </trkpt>
      <trkpt lat="45.93941" lon="4.78936">
        <ele>193</ele>
        <time>2017-08-20T08:39:35Z</time>
      </trkpt>
      <trkpt lat="45.93941" lon="4.7894">
        <ele>194</ele>
        <time>2017-08-20T08:39:36Z</time>
      </trkpt>
      <trkpt lat="45.93943" lon="4.78952">
        <ele>194</ele>
        <time>2017-08-20T08:39:38Z</time>
      </trkpt>
      <trkpt lat="45.93944" lon="4.78958">
        <ele>194</ele>
        <time>2017-08-20T08:39:39Z</time>
      </trkpt>
      <trkpt lat="45.93945" lon="4.78964">
        <ele>194</ele>
        <time>2017-08-20T08:39:40Z</time>
      </trkpt>
      <trkpt lat="45.93946" lon="4.78971">
        <ele>194</ele>
        <time>2017-08-20T08:39:41Z</time>
      </trkpt>
      <trkpt lat="45.93946" lon="4.78977">
        <ele>194</ele>
        <time>2017-08-20T08:39:42Z</time>
      </trkpt>
      <trkpt lat="45.93947" lon="4.78984">
        <ele>194</ele>
        <time>2017-08-20T08:39:43Z</time>
      </trkpt>
      <trkpt lat="45.93949" lon="4.78996">
        <ele>194</ele>
        <time>2017-08-20T08:39:45Z</time>
      </trkpt>
      <trkpt lat="45.93949" lon="4.79003">
        <ele>195</ele>
        <time>2017-08-20T08:39:46Z</time>
      </trkpt>
      <trkpt lat="45.93949" lon="4.7901">
        <ele>195</ele>
        <time>2017-08-20T08:39:47Z</time>
      </trkpt>
      <trkpt lat="45.93949" lon="4.79016">
        <ele>195</ele>
        <time>2017-08-20T08:39:48Z</time>
      </trkpt>
      <trkpt lat="45.93949" lon="4.79029">
        <ele>195</ele>
        <time>2017-08-20T08:39:50Z</time>
      </trkpt>
      <trkpt lat="45.93948" lon="4.79034">
        <ele>196</ele>
        <time>2017-08-20T08:39:51Z</time>
      </trkpt>
      <trkpt lat="45.93949" lon="4.79046">
        <ele>196</ele>
        <time>2017-08-20T08:39:53Z</time>
      </trkpt>
      <trkpt lat="45.9395" lon="4.79051">
        <ele>196</ele>
        <time>2017-08-20T08:39:54Z</time>
      </trkpt>
      <trkpt lat="45.93951" lon="4.79061">
        <ele>196</ele>
        <time>2017-08-20T08:39:56Z</time>
      </trkpt>
      <trkpt lat="45.93952" lon="4.79066">
        <ele>196</ele>
        <time>2017-08-20T08:39:57Z</time>
      </trkpt>
      <trkpt lat="45.93952" lon="4.79073">
        <ele>196</ele>
        <time>2017-08-20T08:39:58Z</time>
      </trkpt>
      <trkpt lat="45.93952" lon="4.79079">
        <ele>196</ele>
        <time>2017-08-20T08:39:59Z</time>
      </trkpt>
      <trkpt lat="45.93951" lon="4.79086">
        <ele>196</ele>
        <time>2017-08-20T08:40:00Z</time>
      </trkpt>
      <trkpt lat="45.93954" lon="4.79095">
        <ele>197</ele>
        <time>2017-08-20T08:40:01Z</time>
      </trkpt>
      <trkpt lat="45.93956" lon="4.79101">
        <ele>197</ele>
        <time>2017-08-20T08:40:02Z</time>
      </trkpt>
      <trkpt lat="45.93956" lon="4.79107">
        <ele>197</ele>
        <time>2017-08-20T08:40:03Z</time>
      </trkpt>
      <trkpt lat="45.93955" lon="4.79116">
        <ele>197</ele>
        <time>2017-08-20T08:40:04Z</time>
      </trkpt>
      <trkpt lat="45.93952" lon="4.79124">
        <ele>197</ele>
        <time>2017-08-20T08:40:05Z</time>
      </trkpt>
      <trkpt lat="45.93951" lon="4.79131">
        <ele>197</ele>
        <time>2017-08-20T08:40:06Z</time>
      </trkpt>
      <trkpt lat="45.93951" lon="4.79138">
        <ele>197</ele>
        <time>2017-08-20T08:40:07Z</time>
      </trkpt>
      <trkpt lat="45.9395" lon="4.79146">
        <ele>197</ele>
        <time>2017-08-20T08:40:08Z</time>
      </trkpt>
      <trkpt lat="45.93951" lon="4.79152">
        <ele>197</ele>
        <time>2017-08-20T08:40:09Z</time>
      </trkpt>
      <trkpt lat="45.93952" lon="4.79163">
        <ele>197</ele>
        <time>2017-08-20T08:40:11Z</time>
      </trkpt>
      <trkpt lat="45.93952" lon="4.79167">
        <ele>197</ele>
        <time>2017-08-20T08:40:12Z</time>
      </trkpt>
      <trkpt lat="45.93953" lon="4.79179">
        <ele>197</ele>
        <time>2017-08-20T08:40:14Z</time>
      </trkpt>
      <trkpt lat="45.93952" lon="4.79186">
        <ele>197</ele>
        <time>2017-08-20T08:40:15Z</time>
      </trkpt>
      <trkpt lat="45.93952" lon="4.79193">
        <ele>197</ele>
        <time>2017-08-20T08:40:16Z</time>
      </trkpt>
      <trkpt lat="45.93951" lon="4.792">
        <ele>197</ele>
        <time>2017-08-20T08:40:17Z</time>
      </trkpt>
      <trkpt lat="45.93952" lon="4.79207">
        <ele>197</ele>
        <time>2017-08-20T08:40:18Z</time>
      </trkpt>
      <trkpt lat="45.93951" lon="4.79214">
        <ele>197</ele>
        <time>2017-08-20T08:40:19Z</time>
      </trkpt>
      <trkpt lat="45.93951" lon="4.79221">
        <ele>197</ele>
        <time>2017-08-20T08:40:20Z</time>
      </trkpt>
      <trkpt lat="45.93951" lon="4.79228">
        <ele>197</ele>
        <time>2017-08-20T08:40:21Z</time>
      </trkpt>
      <trkpt lat="45.93952" lon="4.79241">
        <ele>197</ele>
        <time>2017-08-20T08:40:23Z</time>
      </trkpt>
      <trkpt lat="45.93953" lon="4.79248">
        <ele>197</ele>
        <time>2017-08-20T08:40:24Z</time>
      </trkpt>
      <trkpt lat="45.93954" lon="4.7926">
        <ele>198</ele>
        <time>2017-08-20T08:40:26Z</time>
      </trkpt>
      <trkpt lat="45.93955" lon="4.79266">
        <ele>198</ele>
        <time>2017-08-20T08:40:27Z</time>
      </trkpt>
      <trkpt lat="45.93955" lon="4.79278">
        <ele>198</ele>
        <time>2017-08-20T08:40:29Z</time>
      </trkpt>
      <trkpt lat="45.93955" lon="4.79284">
        <ele>198</ele>
        <time>2017-08-20T08:40:30Z</time>
      </trkpt>
      <trkpt lat="45.93955" lon="4.79296">
        <ele>199</ele>
        <time>2017-08-20T08:40:32Z</time>
      </trkpt>
      <trkpt lat="45.93952" lon="4.79303">
        <ele>198</ele>
        <time>2017-08-20T08:40:33Z</time>
      </trkpt>
      <trkpt lat="45.93952" lon="4.79313">
        <ele>199</ele>
        <time>2017-08-20T08:40:35Z</time>
      </trkpt>
      <trkpt lat="45.93953" lon="4.79318">
        <ele>199</ele>
        <time>2017-08-20T08:40:36Z</time>
      </trkpt>
      <trkpt lat="45.93953" lon="4.79325">
        <ele>199</ele>
        <time>2017-08-20T08:40:37Z</time>
      </trkpt>
      <trkpt lat="45.93953" lon="4.79331">
        <ele>199</ele>
        <time>2017-08-20T08:40:38Z</time>
      </trkpt>
      <trkpt lat="45.93953" lon="4.79343">
        <ele>200</ele>
        <time>2017-08-20T08:40:40Z</time>
      </trkpt>
      <trkpt lat="45.93954" lon="4.79349">
        <ele>200</ele>
        <time>2017-08-20T08:40:41Z</time>
      </trkpt>
      <trkpt lat="45.93954" lon="4.79356">
        <ele>201</ele>
        <time>2017-08-20T08:40:42Z</time>
      </trkpt>
      <trkpt lat="45.93954" lon="4.79362">
        <ele>201</ele>
        <time>2017-08-20T08:40:43Z</time>
      </trkpt>
      <trkpt lat="45.93953" lon="4.79373">
        <ele>201</ele>
        <time>2017-08-20T08:40:45Z</time>
      </trkpt>
      <trkpt lat="45.93953" lon="4.79379">
        <ele>201</ele>
        <time>2017-08-20T08:40:46Z</time>
      </trkpt>
      <trkpt lat="45.93953" lon="4.7939">
        <ele>201</ele>
        <time>2017-08-20T08:40:48Z</time>
      </trkpt>
      <trkpt lat="45.93953" lon="4.79396">
        <ele>201</ele>
        <time>2017-08-20T08:40:49Z</time>
      </trkpt>
      <trkpt lat="45.93953" lon="4.79407">
        <ele>201</ele>
        <time>2017-08-20T08:40:51Z</time>
      </trkpt>
      <trkpt lat="45.93953" lon="4.79411">
        <ele>201</ele>
        <time>2017-08-20T08:40:52Z</time>
      </trkpt>
      <trkpt lat="45.93952" lon="4.7942">
        <ele>202</ele>
        <time>2017-08-20T08:40:54Z</time>
      </trkpt>
      <trkpt lat="45.93952" lon="4.79425">
        <ele>202</ele>
        <time>2017-08-20T08:40:55Z</time>
      </trkpt>
      <trkpt lat="45.93952" lon="4.79436">
        <ele>202</ele>
        <time>2017-08-20T08:40:57Z</time>
      </trkpt>
      <trkpt lat="45.93951" lon="4.79442">
        <ele>202</ele>
        <time>2017-08-20T08:40:58Z</time>
      </trkpt>
      <trkpt lat="45.9395" lon="4.79449">
        <ele>202</ele>
        <time>2017-08-20T08:40:59Z</time>
      </trkpt>
      <trkpt lat="45.9395" lon="4.79457">
        <ele>202</ele>
        <time>2017-08-20T08:41:00Z</time>
      </trkpt>
      <trkpt lat="45.9395" lon="4.79464">
        <ele>202</ele>
        <time>2017-08-20T08:41:01Z</time>
      </trkpt>
      <trkpt lat="45.93949" lon="4.7947">
        <ele>202</ele>
        <time>2017-08-20T08:41:02Z</time>
      </trkpt>
      <trkpt lat="45.93949" lon="4.79479">
        <ele>202</ele>
        <time>2017-08-20T08:41:03Z</time>
      </trkpt>
      <trkpt lat="45.93949" lon="4.79486">
        <ele>202</ele>
        <time>2017-08-20T08:41:04Z</time>
      </trkpt>
      <trkpt lat="45.93949" lon="4.79498">
        <ele>202</ele>
        <time>2017-08-20T08:41:06Z</time>
      </trkpt>
      <trkpt lat="45.93949" lon="4.79505">
        <ele>203</ele>
        <time>2017-08-20T08:41:07Z</time>
      </trkpt>
      <trkpt lat="45.93951" lon="4.79516">
        <ele>204</ele>
        <time>2017-08-20T08:41:09Z</time>
      </trkpt>
      <trkpt lat="45.93951" lon="4.79522">
        <ele>204</ele>
        <time>2017-08-20T08:41:10Z</time>
      </trkpt>
      <trkpt lat="45.93951" lon="4.79529">
        <ele>204</ele>
        <time>2017-08-20T08:41:11Z</time>
      </trkpt>
      <trkpt lat="45.93951" lon="4.79535">
        <ele>204</ele>
        <time>2017-08-20T08:41:12Z</time>
      </trkpt>
      <trkpt lat="45.93952" lon="4.79547">
        <ele>205</ele>
        <time>2017-08-20T08:41:14Z</time>
      </trkpt>
      <trkpt lat="45.93953" lon="4.79554">
        <ele>205</ele>
        <time>2017-08-20T08:41:15Z</time>
      </trkpt>
      <trkpt lat="45.93954" lon="4.79565">
        <ele>205</ele>
        <time>2017-08-20T08:41:17Z</time>
      </trkpt>
      <trkpt lat="45.93954" lon="4.7957">
        <ele>205</ele>
        <time>2017-08-20T08:41:18Z</time>
      </trkpt>
      <trkpt lat="45.93955" lon="4.79582">
        <ele>205</ele>
        <time>2017-08-20T08:41:20Z</time>
      </trkpt>
      <trkpt lat="45.93956" lon="4.79587">
        <ele>206</ele>
        <time>2017-08-20T08:41:21Z</time>
      </trkpt>
      <trkpt lat="45.93958" lon="4.79596">
        <ele>207</ele>
        <time>2017-08-20T08:41:23Z</time>
      </trkpt>
      <trkpt lat="45.93958" lon="4.79601">
        <ele>207</ele>
        <time>2017-08-20T08:41:24Z</time>
      </trkpt>
      <trkpt lat="45.93959" lon="4.79611">
        <ele>207</ele>
        <time>2017-08-20T08:41:26Z</time>
      </trkpt>
      <trkpt lat="45.93959" lon="4.79615">
        <ele>207</ele>
        <time>2017-08-20T08:41:27Z</time>
      </trkpt>
      <trkpt lat="45.93959" lon="4.79627">
        <ele>207</ele>
        <time>2017-08-20T08:41:30Z</time>
      </trkpt>
      <trkpt lat="45.93959" lon="4.79631">
        <ele>207</ele>
        <time>2017-08-20T08:41:31Z</time>
      </trkpt>
      <trkpt lat="45.93961" lon="4.79644">
        <ele>207</ele>
        <time>2017-08-20T08:41:34Z</time>
      </trkpt>
      <trkpt lat="45.93961" lon="4.79649">
        <ele>207</ele>
        <time>2017-08-20T08:41:35Z</time>
      </trkpt>
      <trkpt lat="45.93962" lon="4.79657">
        <ele>207</ele>
        <time>2017-08-20T08:41:36Z</time>
      </trkpt>
      <trkpt lat="45.93963" lon="4.79664">
        <ele>207</ele>
        <time>2017-08-20T08:41:37Z</time>
      </trkpt>
      <trkpt lat="45.93963" lon="4.79671">
        <ele>207</ele>
        <time>2017-08-20T08:41:38Z</time>
      </trkpt>
      <trkpt lat="45.93963" lon="4.79677">
        <ele>207</ele>
        <time>2017-08-20T08:41:39Z</time>
      </trkpt>
      <trkpt lat="45.93964" lon="4.79684">
        <ele>207</ele>
        <time>2017-08-20T08:41:40Z</time>
      </trkpt>
      <trkpt lat="45.93964" lon="4.7969">
        <ele>207</ele>
        <time>2017-08-20T08:41:41Z</time>
      </trkpt>
      <trkpt lat="45.93965" lon="4.79697">
        <ele>207</ele>
        <time>2017-08-20T08:41:42Z</time>
      </trkpt>
      <trkpt lat="45.93965" lon="4.79704">
        <ele>207</ele>
        <time>2017-08-20T08:41:43Z</time>
      </trkpt>
      <trkpt lat="45.93967" lon="4.79716">
        <ele>207</ele>
        <time>2017-08-20T08:41:45Z</time>
      </trkpt>
      <trkpt lat="45.93967" lon="4.79721">
        <ele>207</ele>
        <time>2017-08-20T08:41:46Z</time>
      </trkpt>
      <trkpt lat="45.93968" lon="4.7973">
        <ele>206</ele>
        <time>2017-08-20T08:41:48Z</time>
      </trkpt>
      <trkpt lat="45.93968" lon="4.79736">
        <ele>206</ele>
        <time>2017-08-20T08:41:49Z</time>
      </trkpt>
      <trkpt lat="45.93969" lon="4.79748">
        <ele>206</ele>
        <time>2017-08-20T08:41:51Z</time>
      </trkpt>
      <trkpt lat="45.9397" lon="4.79754">
        <ele>206</ele>
        <time>2017-08-20T08:41:52Z</time>
      </trkpt>
      <trkpt lat="45.93972" lon="4.79765">
        <ele>206</ele>
        <time>2017-08-20T08:41:54Z</time>
      </trkpt>
      <trkpt lat="45.93972" lon="4.79771">
        <ele>206</ele>
        <time>2017-08-20T08:41:55Z</time>
      </trkpt>
      <trkpt lat="45.93972" lon="4.79783">
        <ele>206</ele>
        <time>2017-08-20T08:41:57Z</time>
      </trkpt>
      <trkpt lat="45.93971" lon="4.79788">
        <ele>206</ele>
        <time>2017-08-20T08:41:58Z</time>
      </trkpt>
      <trkpt lat="45.93971" lon="4.79799">
        <ele>206</ele>
        <time>2017-08-20T08:42:00Z</time>
      </trkpt>
      <trkpt lat="45.9397" lon="4.79804">
        <ele>206</ele>
        <time>2017-08-20T08:42:01Z</time>
      </trkpt>
      <trkpt lat="45.9397" lon="4.7981">
        <ele>207</ele>
        <time>2017-08-20T08:42:02Z</time>
      </trkpt>
      <trkpt lat="45.93969" lon="4.79817">
        <ele>207</ele>
        <time>2017-08-20T08:42:03Z</time>
      </trkpt>
      <trkpt lat="45.93968" lon="4.79824">
        <ele>207</ele>
        <time>2017-08-20T08:42:04Z</time>
      </trkpt>
      <trkpt lat="45.93967" lon="4.7983">
        <ele>207</ele>
        <time>2017-08-20T08:42:05Z</time>
      </trkpt>
      <trkpt lat="45.93966" lon="4.79837">
        <ele>206</ele>
        <time>2017-08-20T08:42:06Z</time>
      </trkpt>
      <trkpt lat="45.93965" lon="4.79843">
        <ele>206</ele>
        <time>2017-08-20T08:42:07Z</time>
      </trkpt>
      <trkpt lat="45.93964" lon="4.7985">
        <ele>206</ele>
        <time>2017-08-20T08:42:08Z</time>
      </trkpt>
      <trkpt lat="45.93963" lon="4.79856">
        <ele>206</ele>
        <time>2017-08-20T08:42:09Z</time>
      </trkpt>
      <trkpt lat="45.9396" lon="4.79868">
        <ele>206</ele>
        <time>2017-08-20T08:42:11Z</time>
      </trkpt>
      <trkpt lat="45.93958" lon="4.79874">
        <ele>206</ele>
        <time>2017-08-20T08:42:12Z</time>
      </trkpt>
      <trkpt lat="45.93956" lon="4.79885">
        <ele>206</ele>
        <time>2017-08-20T08:42:14Z</time>
      </trkpt>
      <trkpt lat="45.93955" lon="4.79891">
        <ele>205</ele>
        <time>2017-08-20T08:42:15Z</time>
      </trkpt>
      <trkpt lat="45.93952" lon="4.79901">
        <ele>205</ele>
        <time>2017-08-20T08:42:17Z</time>
      </trkpt>
      <trkpt lat="45.9395" lon="4.79907">
        <ele>205</ele>
        <time>2017-08-20T08:42:18Z</time>
      </trkpt>
      <trkpt lat="45.93948" lon="4.79913">
        <ele>205</ele>
        <time>2017-08-20T08:42:19Z</time>
      </trkpt>
      <trkpt lat="45.93947" lon="4.7992">
        <ele>205</ele>
        <time>2017-08-20T08:42:20Z</time>
      </trkpt>
      <trkpt lat="45.93946" lon="4.79928">
        <ele>205</ele>
        <time>2017-08-20T08:42:21Z</time>
      </trkpt>
      <trkpt lat="45.93945" lon="4.79937">
        <ele>205</ele>
        <time>2017-08-20T08:42:22Z</time>
      </trkpt>
      <trkpt lat="45.93944" lon="4.79944">
        <ele>205</ele>
        <time>2017-08-20T08:42:23Z</time>
      </trkpt>
      <trkpt lat="45.93944" lon="4.79951">
        <ele>205</ele>
        <time>2017-08-20T08:42:24Z</time>
      </trkpt>
      <trkpt lat="45.93943" lon="4.79958">
        <ele>205</ele>
        <time>2017-08-20T08:42:25Z</time>
      </trkpt>
      <trkpt lat="45.93942" lon="4.79965">
        <ele>205</ele>
        <time>2017-08-20T08:42:26Z</time>
      </trkpt>
      <trkpt lat="45.9394" lon="4.79976">
        <ele>204</ele>
        <time>2017-08-20T08:42:28Z</time>
      </trkpt>
      <trkpt lat="45.93939" lon="4.79982">
        <ele>204</ele>
        <time>2017-08-20T08:42:29Z</time>
      </trkpt>
      <trkpt lat="45.93937" lon="4.79995">
        <ele>204</ele>
        <time>2017-08-20T08:42:31Z</time>
      </trkpt>
      <trkpt lat="45.93936" lon="4.80002">
        <ele>205</ele>
        <time>2017-08-20T08:42:32Z</time>
      </trkpt>
      <trkpt lat="45.93935" lon="4.80009">
        <ele>205</ele>
        <time>2017-08-20T08:42:33Z</time>
      </trkpt>
      <trkpt lat="45.93934" lon="4.80016">
        <ele>205</ele>
        <time>2017-08-20T08:42:34Z</time>
      </trkpt>
      <trkpt lat="45.93932" lon="4.80028">
        <ele>206</ele>
        <time>2017-08-20T08:42:36Z</time>
      </trkpt>
      <trkpt lat="45.93932" lon="4.80035">
        <ele>206</ele>
        <time>2017-08-20T08:42:37Z</time>
      </trkpt>
      <trkpt lat="45.93932" lon="4.80042">
        <ele>207</ele>
        <time>2017-08-20T08:42:38Z</time>
      </trkpt>
      <trkpt lat="45.93933" lon="4.80049">
        <ele>207</ele>
        <time>2017-08-20T08:42:39Z</time>
      </trkpt>
      <trkpt lat="45.93933" lon="4.80056">
        <ele>207</ele>
        <time>2017-08-20T08:42:40Z</time>
      </trkpt>
      <trkpt lat="45.93933" lon="4.80063">
        <ele>207</ele>
        <time>2017-08-20T08:42:41Z</time>
      </trkpt>
      <trkpt lat="45.93933" lon="4.80069">
        <ele>207</ele>
        <time>2017-08-20T08:42:42Z</time>
      </trkpt>
      <trkpt lat="45.93934" lon="4.80076">
        <ele>207</ele>
        <time>2017-08-20T08:42:43Z</time>
      </trkpt>
      <trkpt lat="45.93934" lon="4.80083">
        <ele>207</ele>
        <time>2017-08-20T08:42:44Z</time>
      </trkpt>
      <trkpt lat="45.93935" lon="4.80091">
        <ele>208</ele>
        <time>2017-08-20T08:42:45Z</time>
      </trkpt>
      <trkpt lat="45.93936" lon="4.80099">
        <ele>208</ele>
        <time>2017-08-20T08:42:46Z</time>
      </trkpt>
      <trkpt lat="45.93937" lon="4.80106">
        <ele>208</ele>
        <time>2017-08-20T08:42:47Z</time>
      </trkpt>
      <trkpt lat="45.93938" lon="4.80113">
        <ele>208</ele>
        <time>2017-08-20T08:42:48Z</time>
      </trkpt>
      <trkpt lat="45.93939" lon="4.80119">
        <ele>208</ele>
        <time>2017-08-20T08:42:49Z</time>
      </trkpt>
      <trkpt lat="45.9394" lon="4.80126">
        <ele>208</ele>
        <time>2017-08-20T08:42:50Z</time>
      </trkpt>
      <trkpt lat="45.93941" lon="4.80133">
        <ele>208</ele>
        <time>2017-08-20T08:42:51Z</time>
      </trkpt>
      <trkpt lat="45.93942" lon="4.80145">
        <ele>208</ele>
        <time>2017-08-20T08:42:53Z</time>
      </trkpt>
      <trkpt lat="45.93943" lon="4.80152">
        <ele>208</ele>
        <time>2017-08-20T08:42:54Z</time>
      </trkpt>
      <trkpt lat="45.93945" lon="4.80164">
        <ele>208</ele>
        <time>2017-08-20T08:42:56Z</time>
      </trkpt>
      <trkpt lat="45.93946" lon="4.80171">
        <ele>206</ele>
        <time>2017-08-20T08:42:57Z</time>
      </trkpt>
      <trkpt lat="45.93948" lon="4.80178">
        <ele>206</ele>
        <time>2017-08-20T08:42:58Z</time>
      </trkpt>
      <trkpt lat="45.9395" lon="4.80186">
        <ele>206</ele>
        <time>2017-08-20T08:42:59Z</time>
      </trkpt>
      <trkpt lat="45.93951" lon="4.80193">
        <ele>205</ele>
        <time>2017-08-20T08:43:00Z</time>
      </trkpt>
      <trkpt lat="45.93953" lon="4.802">
        <ele>205</ele>
        <time>2017-08-20T08:43:01Z</time>
      </trkpt>
      <trkpt lat="45.93955" lon="4.80207">
        <ele>205</ele>
        <time>2017-08-20T08:43:02Z</time>
      </trkpt>
      <trkpt lat="45.93956" lon="4.80214">
        <ele>205</ele>
        <time>2017-08-20T08:43:03Z</time>
      </trkpt>
      <trkpt lat="45.93957" lon="4.8022">
        <ele>205</ele>
        <time>2017-08-20T08:43:04Z</time>
      </trkpt>
      <trkpt lat="45.93959" lon="4.80226">
        <ele>205</ele>
        <time>2017-08-20T08:43:05Z</time>
      </trkpt>
      <trkpt lat="45.93962" lon="4.80237">
        <ele>204</ele>
        <time>2017-08-20T08:43:07Z</time>
      </trkpt>
      <trkpt lat="45.93963" lon="4.80244">
        <ele>204</ele>
        <time>2017-08-20T08:43:08Z</time>
      </trkpt>
      <trkpt lat="45.93965" lon="4.80256">
        <ele>202</ele>
        <time>2017-08-20T08:43:10Z</time>
      </trkpt>
      <trkpt lat="45.93966" lon="4.80263">
        <ele>202</ele>
        <time>2017-08-20T08:43:11Z</time>
      </trkpt>
      <trkpt lat="45.93968" lon="4.80269">
        <ele>202</ele>
        <time>2017-08-20T08:43:12Z</time>
      </trkpt>
      <trkpt lat="45.9397" lon="4.80275">
        <ele>202</ele>
        <time>2017-08-20T08:43:13Z</time>
      </trkpt>
      <trkpt lat="45.93972" lon="4.80281">
        <ele>202</ele>
        <time>2017-08-20T08:43:14Z</time>
      </trkpt>
      <trkpt lat="45.93974" lon="4.80287">
        <ele>203</ele>
        <time>2017-08-20T08:43:15Z</time>
      </trkpt>
      <trkpt lat="45.93976" lon="4.80293">
        <ele>203</ele>
        <time>2017-08-20T08:43:16Z</time>
      </trkpt>
      <trkpt lat="45.93978" lon="4.80299">
        <ele>203</ele>
        <time>2017-08-20T08:43:17Z</time>
      </trkpt>
      <trkpt lat="45.93981" lon="4.8031">
        <ele>203</ele>
        <time>2017-08-20T08:43:19Z</time>
      </trkpt>
      <trkpt lat="45.93983" lon="4.80316">
        <ele>203</ele>
        <time>2017-08-20T08:43:20Z</time>
      </trkpt>
      <trkpt lat="45.93985" lon="4.80327">
        <ele>204</ele>
        <time>2017-08-20T08:43:22Z</time>
      </trkpt>
      <trkpt lat="45.93987" lon="4.80333">
        <ele>204</ele>
        <time>2017-08-20T08:43:23Z</time>
      </trkpt>
      <trkpt lat="45.9399" lon="4.80343">
        <ele>206</ele>
        <time>2017-08-20T08:43:25Z</time>
      </trkpt>
      <trkpt lat="45.93992" lon="4.80348">
        <ele>206</ele>
        <time>2017-08-20T08:43:26Z</time>
      </trkpt>
      <trkpt lat="45.93995" lon="4.80357">
        <ele>206</ele>
        <time>2017-08-20T08:43:28Z</time>
      </trkpt>
      <trkpt lat="45.93997" lon="4.80362">
        <ele>207</ele>
        <time>2017-08-20T08:43:29Z</time>
      </trkpt>
      <trkpt lat="45.94" lon="4.80372">
        <ele>207</ele>
        <time>2017-08-20T08:43:31Z</time>
      </trkpt>
      <trkpt lat="45.94001" lon="4.80376">
        <ele>216</ele>
        <time>2017-08-20T08:43:32Z</time>
      </trkpt>
      <trkpt lat="45.94004" lon="4.80385">
        <ele>217</ele>
        <time>2017-08-20T08:43:34Z</time>
      </trkpt>
      <trkpt lat="45.94005" lon="4.80389">
        <ele>217</ele>
        <time>2017-08-20T08:43:35Z</time>
      </trkpt>
      <trkpt lat="45.94007" lon="4.80398">
        <ele>217</ele>
        <time>2017-08-20T08:43:37Z</time>
      </trkpt>
      <trkpt lat="45.94009" lon="4.80403">
        <ele>217</ele>
        <time>2017-08-20T08:43:38Z</time>
      </trkpt>
      <trkpt lat="45.94012" lon="4.80412">
        <ele>217</ele>
        <time>2017-08-20T08:43:40Z</time>
      </trkpt>
      <trkpt lat="45.94014" lon="4.80416">
        <ele>217</ele>
        <time>2017-08-20T08:43:41Z</time>
      </trkpt>
      <trkpt lat="45.94016" lon="4.80426">
        <ele>221</ele>
        <time>2017-08-20T08:43:44Z</time>
      </trkpt>
      <trkpt lat="45.94017" lon="4.8043">
        <ele>221</ele>
        <time>2017-08-20T08:43:45Z</time>
      </trkpt>
      <trkpt lat="45.94016" lon="4.80441">
        <ele>222</ele>
        <time>2017-08-20T08:43:48Z</time>
      </trkpt>
      <trkpt lat="45.94015" lon="4.80446">
        <ele>222</ele>
        <time>2017-08-20T08:43:49Z</time>
      </trkpt>
      <trkpt lat="45.94014" lon="4.80458">
        <ele>223</ele>
        <time>2017-08-20T08:43:52Z</time>
      </trkpt>
      <trkpt lat="45.94014" lon="4.80463">
        <ele>223</ele>
        <time>2017-08-20T08:43:53Z</time>
      </trkpt>
      <trkpt lat="45.94013" lon="4.80473">
        <ele>223</ele>
        <time>2017-08-20T08:43:56Z</time>
      </trkpt>
      <trkpt lat="45.94012" lon="4.80476">
        <ele>222</ele>
        <time>2017-08-20T08:43:57Z</time>
      </trkpt>
      <trkpt lat="45.94012" lon="4.80488">
        <ele>222</ele>
        <time>2017-08-20T08:44:01Z</time>
      </trkpt>
      <trkpt lat="45.94012" lon="4.80492">
        <ele>221</ele>
        <time>2017-08-20T08:44:02Z</time>
      </trkpt>
      <trkpt lat="45.94012" lon="4.80504">
        <ele>222</ele>
        <time>2017-08-20T08:44:06Z</time>
      </trkpt>
      <trkpt lat="45.94012" lon="4.80509">
        <ele>222</ele>
        <time>2017-08-20T08:44:07Z</time>
      </trkpt>
      <trkpt lat="45.94015" lon="4.80518">
        <ele>223</ele>
        <time>2017-08-20T08:44:09Z</time>
      </trkpt>
      <trkpt lat="45.94016" lon="4.80526">
        <ele>224</ele>
        <time>2017-08-20T08:44:10Z</time>
      </trkpt>
      <trkpt lat="45.94014" lon="4.80538">
        <ele>224</ele>
        <time>2017-08-20T08:44:12Z</time>
      </trkpt>
      <trkpt lat="45.94014" lon="4.80542">
        <ele>224</ele>
        <time>2017-08-20T08:44:13Z</time>
      </trkpt>
      <trkpt lat="45.94012" lon="4.80551">
        <ele>224</ele>
        <time>2017-08-20T08:44:16Z</time>
      </trkpt>
      <trkpt lat="45.94011" lon="4.80555">
        <ele>224</ele>
        <time>2017-08-20T08:44:17Z</time>
      </trkpt>
      <trkpt lat="45.94011" lon="4.80566">
        <ele>223</ele>
        <time>2017-08-20T08:44:20Z</time>
      </trkpt>
      <trkpt lat="45.94011" lon="4.80569">
        <ele>222</ele>
        <time>2017-08-20T08:44:21Z</time>
      </trkpt>
      <trkpt lat="45.94014" lon="4.80577">
        <ele>222</ele>
        <time>2017-08-20T08:44:23Z</time>
      </trkpt>
      <trkpt lat="45.94015" lon="4.80582">
        <ele>222</ele>
        <time>2017-08-20T08:44:24Z</time>
      </trkpt>
      <trkpt lat="45.94019" lon="4.80592">
        <ele>223</ele>
        <time>2017-08-20T08:44:26Z</time>
      </trkpt>
      <trkpt lat="45.9402" lon="4.80595">
        <ele>223</ele>
        <time>2017-08-20T08:44:27Z</time>
      </trkpt>
      <trkpt lat="45.94023" lon="4.80606">
        <ele>224</ele>
        <time>2017-08-20T08:44:30Z</time>
      </trkpt>
      <trkpt lat="45.94025" lon="4.8061">
        <ele>225</ele>
        <time>2017-08-20T08:44:31Z</time>
      </trkpt>
      <trkpt lat="45.94026" lon="4.8062">
        <ele>225</ele>
        <time>2017-08-20T08:44:33Z</time>
      </trkpt>
      <trkpt lat="45.94027" lon="4.80624">
        <ele>225</ele>
        <time>2017-08-20T08:44:34Z</time>
      </trkpt>
      <trkpt lat="45.94028" lon="4.80633">
        <ele>225</ele>
        <time>2017-08-20T08:44:36Z</time>
      </trkpt>
      <trkpt lat="45.94028" lon="4.80639">
        <ele>225</ele>
        <time>2017-08-20T08:44:37Z</time>
      </trkpt>
      <trkpt lat="45.9403" lon="4.80647">
        <ele>225</ele>
        <time>2017-08-20T08:44:39Z</time>
      </trkpt>
      <trkpt lat="45.94031" lon="4.80652">
        <ele>225</ele>
        <time>2017-08-20T08:44:40Z</time>
      </trkpt>
      <trkpt lat="45.9403" lon="4.80659">
        <ele>224</ele>
        <time>2017-08-20T08:44:41Z</time>
      </trkpt>
      <trkpt lat="45.94029" lon="4.80665">
        <ele>224</ele>
        <time>2017-08-20T08:44:42Z</time>
      </trkpt>
      <trkpt lat="45.9403" lon="4.80674">
        <ele>224</ele>
        <time>2017-08-20T08:44:44Z</time>
      </trkpt>
      <trkpt lat="45.94029" lon="4.80679">
        <ele>224</ele>
        <time>2017-08-20T08:44:45Z</time>
      </trkpt>
      <trkpt lat="45.94031" lon="4.80688">
        <ele>225</ele>
        <time>2017-08-20T08:44:47Z</time>
      </trkpt>
      <trkpt lat="45.94031" lon="4.80693">
        <ele>225</ele>
        <time>2017-08-20T08:44:48Z</time>
      </trkpt>
      <trkpt lat="45.94034" lon="4.80704">
        <ele>226</ele>
        <time>2017-08-20T08:44:51Z</time>
      </trkpt>
      <trkpt lat="45.94034" lon="4.80708">
        <ele>226</ele>
        <time>2017-08-20T08:44:52Z</time>
      </trkpt>
      <trkpt lat="45.94035" lon="4.80718">
        <ele>226</ele>
        <time>2017-08-20T08:44:55Z</time>
      </trkpt>
      <trkpt lat="45.94035" lon="4.80721">
        <ele>226</ele>
        <time>2017-08-20T08:44:56Z</time>
      </trkpt>
      <trkpt lat="45.94038" lon="4.80731">
        <ele>226</ele>
        <time>2017-08-20T08:44:59Z</time>
      </trkpt>
      <trkpt lat="45.9404" lon="4.80736">
        <ele>227</ele>
        <time>2017-08-20T08:45:00Z</time>
      </trkpt>
      <trkpt lat="45.94042" lon="4.80745">
        <ele>227</ele>
        <time>2017-08-20T08:45:02Z</time>
      </trkpt>
      <trkpt lat="45.94043" lon="4.8075">
        <ele>227</ele>
        <time>2017-08-20T08:45:03Z</time>
      </trkpt>
      <trkpt lat="45.94043" lon="4.8076">
        <ele>228</ele>
        <time>2017-08-20T08:45:05Z</time>
      </trkpt>
      <trkpt lat="45.94043" lon="4.80765">
        <ele>228</ele>
        <time>2017-08-20T08:45:06Z</time>
      </trkpt>
      <trkpt lat="45.94044" lon="4.80775">
        <ele>228</ele>
        <time>2017-08-20T08:45:08Z</time>
      </trkpt>
      <trkpt lat="45.94044" lon="4.80779">
        <ele>228</ele>
        <time>2017-08-20T08:45:09Z</time>
      </trkpt>
      <trkpt lat="45.94045" lon="4.80789">
        <ele>228</ele>
        <time>2017-08-20T08:45:11Z</time>
      </trkpt>
      <trkpt lat="45.94044" lon="4.80797">
        <ele>228</ele>
        <time>2017-08-20T08:45:12Z</time>
      </trkpt>
      <trkpt lat="45.94044" lon="4.80807">
        <ele>228</ele>
        <time>2017-08-20T08:45:14Z</time>
      </trkpt>
      <trkpt lat="45.94045" lon="4.80811">
        <ele>229</ele>
        <time>2017-08-20T08:45:15Z</time>
      </trkpt>
      <trkpt lat="45.94046" lon="4.80823">
        <ele>229</ele>
        <time>2017-08-20T08:45:18Z</time>
      </trkpt>
      <trkpt lat="45.94046" lon="4.80828">
        <ele>229</ele>
        <time>2017-08-20T08:45:19Z</time>
      </trkpt>
      <trkpt lat="45.94048" lon="4.80839">
        <ele>230</ele>
        <time>2017-08-20T08:45:22Z</time>
      </trkpt>
      <trkpt lat="45.94048" lon="4.80843">
        <ele>230</ele>
        <time>2017-08-20T08:45:23Z</time>
      </trkpt>
      <trkpt lat="45.94048" lon="4.80855">
        <ele>230</ele>
        <time>2017-08-20T08:45:26Z</time>
      </trkpt>
      <trkpt lat="45.94049" lon="4.80858">
        <ele>230</ele>
        <time>2017-08-20T08:45:27Z</time>
      </trkpt>
      <trkpt lat="45.9405" lon="4.80869">
        <ele>230</ele>
        <time>2017-08-20T08:45:30Z</time>
      </trkpt>
      <trkpt lat="45.9405" lon="4.80873">
        <ele>230</ele>
        <time>2017-08-20T08:45:31Z</time>
      </trkpt>
      <trkpt lat="45.94053" lon="4.80885">
        <ele>230</ele>
        <time>2017-08-20T08:45:34Z</time>
      </trkpt>
      <trkpt lat="45.94053" lon="4.80889">
        <ele>230</ele>
        <time>2017-08-20T08:45:35Z</time>
      </trkpt>
      <trkpt lat="45.94054" lon="4.809">
        <ele>231</ele>
        <time>2017-08-20T08:45:38Z</time>
      </trkpt>
      <trkpt lat="45.94055" lon="4.80904">
        <ele>231</ele>
        <time>2017-08-20T08:45:39Z</time>
      </trkpt>
      <trkpt lat="45.94056" lon="4.80915">
        <ele>231</ele>
        <time>2017-08-20T08:45:42Z</time>
      </trkpt>
      <trkpt lat="45.94056" lon="4.8092">
        <ele>232</ele>
        <time>2017-08-20T08:45:43Z</time>
      </trkpt>
      <trkpt lat="45.94057" lon="4.80931">
        <ele>232</ele>
        <time>2017-08-20T08:45:46Z</time>
      </trkpt>
      <trkpt lat="45.94058" lon="4.80935">
        <ele>232</ele>
        <time>2017-08-20T08:45:47Z</time>
      </trkpt>
      <trkpt lat="45.94061" lon="4.80945">
        <ele>232</ele>
        <time>2017-08-20T08:45:50Z</time>
      </trkpt>
      <trkpt lat="45.94062" lon="4.80949">
        <ele>232</ele>
        <time>2017-08-20T08:45:51Z</time>
      </trkpt>
      <trkpt lat="45.94064" lon="4.80961">
        <ele>232</ele>
        <time>2017-08-20T08:45:54Z</time>
      </trkpt>
      <trkpt lat="45.94064" lon="4.80964">
        <ele>232</ele>
        <time>2017-08-20T08:45:55Z</time>
      </trkpt>
      <trkpt lat="45.94065" lon="4.80975">
        <ele>233</ele>
        <time>2017-08-20T08:45:58Z</time>
      </trkpt>
      <trkpt lat="45.94066" lon="4.80979">
        <ele>233</ele>
        <time>2017-08-20T08:45:59Z</time>
      </trkpt>
      <trkpt lat="45.94068" lon="4.80988">
        <ele>234</ele>
        <time>2017-08-20T08:46:02Z</time>
      </trkpt>
      <trkpt lat="45.94069" lon="4.80992">
        <ele>235</ele>
        <time>2017-08-20T08:46:03Z</time>
      </trkpt>
      <trkpt lat="45.9407" lon="4.81005">
        <ele>236</ele>
        <time>2017-08-20T08:46:06Z</time>
      </trkpt>
      <trkpt lat="45.94071" lon="4.81008">
        <ele>236</ele>
        <time>2017-08-20T08:46:07Z</time>
      </trkpt>
      <trkpt lat="45.94074" lon="4.8102">
        <ele>235</ele>
        <time>2017-08-20T08:46:10Z</time>
      </trkpt>
      <trkpt lat="45.94075" lon="4.81024">
        <ele>234</ele>
        <time>2017-08-20T08:46:11Z</time>
      </trkpt>
      <trkpt lat="45.94077" lon="4.81032">
        <ele>234</ele>
        <time>2017-08-20T08:46:13Z</time>
      </trkpt>
      <trkpt lat="45.94077" lon="4.81036">
        <ele>233</ele>
        <time>2017-08-20T08:46:14Z</time>
      </trkpt>
      <trkpt lat="45.9408" lon="4.81045">
        <ele>233</ele>
        <time>2017-08-20T08:46:16Z</time>
      </trkpt>
      <trkpt lat="45.94081" lon="4.81049">
        <ele>233</ele>
        <time>2017-08-20T08:46:17Z</time>
      </trkpt>
      <trkpt lat="45.94085" lon="4.8106">
        <ele>242</ele>
        <time>2017-08-20T08:46:20Z</time>
      </trkpt>
      <trkpt lat="45.94087" lon="4.81063">
        <ele>242</ele>
        <time>2017-08-20T08:46:21Z</time>
      </trkpt>
      <trkpt lat="45.94091" lon="4.81072">
        <ele>241</ele>
        <time>2017-08-20T08:46:24Z</time>
      </trkpt>
      <trkpt lat="45.94092" lon="4.81075">
        <ele>241</ele>
        <time>2017-08-20T08:46:25Z</time>
      </trkpt>
      <trkpt lat="45.94097" lon="4.81086">
        <ele>240</ele>
        <time>2017-08-20T08:46:28Z</time>
      </trkpt>
      <trkpt lat="45.94099" lon="4.81089">
        <ele>240</ele>
        <time>2017-08-20T08:46:29Z</time>
      </trkpt>
      <trkpt lat="45.94103" lon="4.81095">
        <ele>241</ele>
        <time>2017-08-20T08:46:31Z</time>
      </trkpt>
      <trkpt lat="45.94105" lon="4.81098">
        <ele>241</ele>
        <time>2017-08-20T08:46:32Z</time>
      </trkpt>
      <trkpt lat="45.9411" lon="4.81106">
        <ele>242</ele>
        <time>2017-08-20T08:46:35Z</time>
      </trkpt>
      <trkpt lat="45.94112" lon="4.81109">
        <ele>242</ele>
        <time>2017-08-20T08:46:36Z</time>
      </trkpt>
      <trkpt lat="45.94117" lon="4.81118">
        <ele>243</ele>
        <time>2017-08-20T08:46:39Z</time>
      </trkpt>
      <trkpt lat="45.94119" lon="4.81122">
        <ele>243</ele>
        <time>2017-08-20T08:46:40Z</time>
      </trkpt>
      <trkpt lat="45.94122" lon="4.81131">
        <ele>243</ele>
        <time>2017-08-20T08:46:43Z</time>
      </trkpt>
      <trkpt lat="45.94124" lon="4.81134">
        <ele>243</ele>
        <time>2017-08-20T08:46:44Z</time>
      </trkpt>
      <trkpt lat="45.94128" lon="4.81142">
        <ele>243</ele>
        <time>2017-08-20T08:46:46Z</time>
      </trkpt>
      <trkpt lat="45.94129" lon="4.81146">
        <ele>243</ele>
        <time>2017-08-20T08:46:47Z</time>
      </trkpt>
      <trkpt lat="45.94133" lon="4.81155">
        <ele>244</ele>
        <time>2017-08-20T08:46:50Z</time>
      </trkpt>
      <trkpt lat="45.94135" lon="4.81159">
        <ele>244</ele>
        <time>2017-08-20T08:46:51Z</time>
      </trkpt>
      <trkpt lat="45.94136" lon="4.81167">
        <ele>244</ele>
        <time>2017-08-20T08:46:53Z</time>
      </trkpt>
      <trkpt lat="45.94138" lon="4.81171">
        <ele>244</ele>
        <time>2017-08-20T08:46:54Z</time>
      </trkpt>
      <trkpt lat="45.94143" lon="4.8118">
        <ele>244</ele>
        <time>2017-08-20T08:46:57Z</time>
      </trkpt>
      <trkpt lat="45.94145" lon="4.81183">
        <ele>244</ele>
        <time>2017-08-20T08:46:58Z</time>
      </trkpt>
      <trkpt lat="45.94148" lon="4.81191">
        <ele>244</ele>
        <time>2017-08-20T08:47:00Z</time>
      </trkpt>
      <trkpt lat="45.94149" lon="4.81195">
        <ele>244</ele>
        <time>2017-08-20T08:47:01Z</time>
      </trkpt>
      <trkpt lat="45.94151" lon="4.81203">
        <ele>244</ele>
        <time>2017-08-20T08:47:03Z</time>
      </trkpt>
      <trkpt lat="45.94152" lon="4.81208">
        <ele>244</ele>
        <time>2017-08-20T08:47:04Z</time>
      </trkpt>
      <trkpt lat="45.94153" lon="4.8122">
        <ele>245</ele>
        <time>2017-08-20T08:47:08Z</time>
      </trkpt>
      <trkpt lat="45.94154" lon="4.81224">
        <ele>245</ele>
        <time>2017-08-20T08:47:09Z</time>
      </trkpt>
      <trkpt lat="45.94157" lon="4.81235">
        <ele>246</ele>
        <time>2017-08-20T08:47:12Z</time>
      </trkpt>
      <trkpt lat="45.94157" lon="4.81239">
        <ele>247</ele>
        <time>2017-08-20T08:47:13Z</time>
      </trkpt>
      <trkpt lat="45.9416" lon="4.8125">
        <ele>248</ele>
        <time>2017-08-20T08:47:16Z</time>
      </trkpt>
      <trkpt lat="45.94161" lon="4.81254">
        <ele>249</ele>
        <time>2017-08-20T08:47:17Z</time>
      </trkpt>
      <trkpt lat="45.94162" lon="4.81266">
        <ele>248</ele>
        <time>2017-08-20T08:47:20Z</time>
      </trkpt>
      <trkpt lat="45.94163" lon="4.8127">
        <ele>248</ele>
        <time>2017-08-20T08:47:21Z</time>
      </trkpt>
      <trkpt lat="45.94165" lon="4.81279">
        <ele>247</ele>
        <time>2017-08-20T08:47:23Z</time>
      </trkpt>
      <trkpt lat="45.94165" lon="4.81284">
        <ele>247</ele>
        <time>2017-08-20T08:47:24Z</time>
      </trkpt>
      <trkpt lat="45.94166" lon="4.81296">
        <ele>247</ele>
        <time>2017-08-20T08:47:27Z</time>
      </trkpt>
      <trkpt lat="45.94166" lon="4.81301">
        <ele>248</ele>
        <time>2017-08-20T08:47:28Z</time>
      </trkpt>
      <trkpt lat="45.94167" lon="4.81313">
        <ele>248</ele>
        <time>2017-08-20T08:47:32Z</time>
      </trkpt>
      <trkpt lat="45.94167" lon="4.81316">
        <ele>255</ele>
        <time>2017-08-20T08:47:33Z</time>
      </trkpt>
      <trkpt lat="45.94165" lon="4.81326">
        <ele>250</ele>
        <time>2017-08-20T08:47:36Z</time>
      </trkpt>
      <trkpt lat="45.94165" lon="4.8133">
        <ele>251</ele>
        <time>2017-08-20T08:47:37Z</time>
      </trkpt>
      <trkpt lat="45.94164" lon="4.81342">
        <ele>251</ele>
        <time>2017-08-20T08:47:41Z</time>
      </trkpt>
      <trkpt lat="45.94164" lon="4.81345">
        <ele>251</ele>
        <time>2017-08-20T08:47:42Z</time>
      </trkpt>
      <trkpt lat="45.94161" lon="4.81357">
        <ele>251</ele>
        <time>2017-08-20T08:47:46Z</time>
      </trkpt>
      <trkpt lat="45.94159" lon="4.8136">
        <ele>250</ele>
        <time>2017-08-20T08:47:47Z</time>
      </trkpt>
      <trkpt lat="45.94159" lon="4.8137">
        <ele>251</ele>
        <time>2017-08-20T08:47:49Z</time>
      </trkpt>
      <trkpt lat="45.94158" lon="4.81375">
        <ele>251</ele>
        <time>2017-08-20T08:47:50Z</time>
      </trkpt>
      <trkpt lat="45.94156" lon="4.81384">
        <ele>251</ele>
        <time>2017-08-20T08:47:53Z</time>
      </trkpt>
      <trkpt lat="45.94156" lon="4.8139">
        <ele>251</ele>
        <time>2017-08-20T08:47:54Z</time>
      </trkpt>
      <trkpt lat="45.94156" lon="4.814">
        <ele>252</ele>
        <time>2017-08-20T08:47:56Z</time>
      </trkpt>
      <trkpt lat="45.94156" lon="4.81404">
        <ele>253</ele>
        <time>2017-08-20T08:47:57Z</time>
      </trkpt>
      <trkpt lat="45.94154" lon="4.81413">
        <ele>253</ele>
        <time>2017-08-20T08:47:59Z</time>
      </trkpt>
      <trkpt lat="45.94155" lon="4.81418">
        <ele>256</ele>
        <time>2017-08-20T08:48:00Z</time>
      </trkpt>
      <trkpt lat="45.94155" lon="4.81427">
        <ele>256</ele>
        <time>2017-08-20T08:48:02Z</time>
      </trkpt>
      <trkpt lat="45.94153" lon="4.81432">
        <ele>256</ele>
        <time>2017-08-20T08:48:03Z</time>
      </trkpt>
      <trkpt lat="45.94152" lon="4.81442">
        <ele>256</ele>
        <time>2017-08-20T08:48:05Z</time>
      </trkpt>
      <trkpt lat="45.94151" lon="4.81447">
        <ele>256</ele>
        <time>2017-08-20T08:48:06Z</time>
      </trkpt>
      <trkpt lat="45.94149" lon="4.81459">
        <ele>257</ele>
        <time>2017-08-20T08:48:09Z</time>
      </trkpt>
      <trkpt lat="45.94149" lon="4.81463">
        <ele>257</ele>
        <time>2017-08-20T08:48:10Z</time>
      </trkpt>
      <trkpt lat="45.94147" lon="4.81475">
        <ele>258</ele>
        <time>2017-08-20T08:48:13Z</time>
      </trkpt>
      <trkpt lat="45.94147" lon="4.8148">
        <ele>258</ele>
        <time>2017-08-20T08:48:14Z</time>
      </trkpt>
      <trkpt lat="45.94147" lon="4.81489">
        <ele>259</ele>
        <time>2017-08-20T08:48:16Z</time>
      </trkpt>
      <trkpt lat="45.94147" lon="4.81494">
        <ele>259</ele>
        <time>2017-08-20T08:48:17Z</time>
      </trkpt>
      <trkpt lat="45.94147" lon="4.81501">
        <ele>263</ele>
        <time>2017-08-20T08:48:18Z</time>
      </trkpt>
      <trkpt lat="45.94146" lon="4.81508">
        <ele>263</ele>
        <time>2017-08-20T08:48:19Z</time>
      </trkpt>
      <trkpt lat="45.94146" lon="4.81518">
        <ele>263</ele>
        <time>2017-08-20T08:48:21Z</time>
      </trkpt>
      <trkpt lat="45.94147" lon="4.81523">
        <ele>263</ele>
        <time>2017-08-20T08:48:22Z</time>
      </trkpt>
      <trkpt lat="45.94149" lon="4.81535">
        <ele>264</ele>
        <time>2017-08-20T08:48:25Z</time>
      </trkpt>
      <trkpt lat="45.94148" lon="4.81538">
        <ele>264</ele>
        <time>2017-08-20T08:48:26Z</time>
      </trkpt>
      <trkpt lat="45.9415" lon="4.81547">
        <ele>264</ele>
        <time>2017-08-20T08:48:28Z</time>
      </trkpt>
      <trkpt lat="45.9415" lon="4.81551">
        <ele>264</ele>
        <time>2017-08-20T08:48:29Z</time>
      </trkpt>
      <trkpt lat="45.94152" lon="4.81561">
        <ele>265</ele>
        <time>2017-08-20T08:48:31Z</time>
      </trkpt>
      <trkpt lat="45.94153" lon="4.81565">
        <ele>265</ele>
        <time>2017-08-20T08:48:32Z</time>
      </trkpt>
      <trkpt lat="45.94156" lon="4.81575">
        <ele>266</ele>
        <time>2017-08-20T08:48:34Z</time>
      </trkpt>
      <trkpt lat="45.94157" lon="4.81578">
        <ele>266</ele>
        <time>2017-08-20T08:48:35Z</time>
      </trkpt>
      <trkpt lat="45.9416" lon="4.81588">
        <ele>267</ele>
        <time>2017-08-20T08:48:37Z</time>
      </trkpt>
      <trkpt lat="45.94161" lon="4.81592">
        <ele>267</ele>
        <time>2017-08-20T08:48:38Z</time>
      </trkpt>
      <trkpt lat="45.94162" lon="4.816">
        <ele>267</ele>
        <time>2017-08-20T08:48:40Z</time>
      </trkpt>
      <trkpt lat="45.94163" lon="4.81605">
        <ele>267</ele>
        <time>2017-08-20T08:48:41Z</time>
      </trkpt>
      <trkpt lat="45.94165" lon="4.81614">
        <ele>268</ele>
        <time>2017-08-20T08:48:43Z</time>
      </trkpt>
      <trkpt lat="45.94165" lon="4.8162">
        <ele>268</ele>
        <time>2017-08-20T08:48:44Z</time>
      </trkpt>
      <trkpt lat="45.94168" lon="4.81629">
        <ele>267</ele>
        <time>2017-08-20T08:48:46Z</time>
      </trkpt>
      <trkpt lat="45.94169" lon="4.81633">
        <ele>268</ele>
        <time>2017-08-20T08:48:47Z</time>
      </trkpt>
      <trkpt lat="45.94171" lon="4.81642">
        <ele>268</ele>
        <time>2017-08-20T08:48:49Z</time>
      </trkpt>
      <trkpt lat="45.94171" lon="4.81646">
        <ele>268</ele>
        <time>2017-08-20T08:48:50Z</time>
      </trkpt>
      <trkpt lat="45.94172" lon="4.81657">
        <ele>268</ele>
        <time>2017-08-20T08:48:52Z</time>
      </trkpt>
      <trkpt lat="45.94173" lon="4.81662">
        <ele>268</ele>
        <time>2017-08-20T08:48:53Z</time>
      </trkpt>
      <trkpt lat="45.94176" lon="4.8167">
        <ele>268</ele>
        <time>2017-08-20T08:48:55Z</time>
      </trkpt>
      <trkpt lat="45.94176" lon="4.81675">
        <ele>268</ele>
        <time>2017-08-20T08:48:56Z</time>
      </trkpt>
      <trkpt lat="45.94179" lon="4.81687">
        <ele>267</ele>
        <time>2017-08-20T08:48:59Z</time>
      </trkpt>
      <trkpt lat="45.94179" lon="4.81692">
        <ele>267</ele>
        <time>2017-08-20T08:49:00Z</time>
      </trkpt>
      <trkpt lat="45.9418" lon="4.81702">
        <ele>267</ele>
        <time>2017-08-20T08:49:02Z</time>
      </trkpt>
      <trkpt lat="45.9418" lon="4.81708">
        <ele>267</ele>
        <time>2017-08-20T08:49:03Z</time>
      </trkpt>
      <trkpt lat="45.94181" lon="4.81717">
        <ele>267</ele>
        <time>2017-08-20T08:49:05Z</time>
      </trkpt>
      <trkpt lat="45.9418" lon="4.81721">
        <ele>267</ele>
        <time>2017-08-20T08:49:06Z</time>
      </trkpt>
      <trkpt lat="45.94181" lon="4.81731">
        <ele>267</ele>
        <time>2017-08-20T08:49:08Z</time>
      </trkpt>
      <trkpt lat="45.94181" lon="4.81737">
        <ele>267</ele>
        <time>2017-08-20T08:49:09Z</time>
      </trkpt>
      <trkpt lat="45.94182" lon="4.81748">
        <ele>267</ele>
        <time>2017-08-20T08:49:11Z</time>
      </trkpt>
      <trkpt lat="45.94183" lon="4.81752">
        <ele>267</ele>
        <time>2017-08-20T08:49:12Z</time>
      </trkpt>
      <trkpt lat="45.94187" lon="4.81761">
        <ele>266</ele>
        <time>2017-08-20T08:49:14Z</time>
      </trkpt>
      <trkpt lat="45.94189" lon="4.81766">
        <ele>266</ele>
        <time>2017-08-20T08:49:15Z</time>
      </trkpt>
      <trkpt lat="45.94192" lon="4.81776">
        <ele>266</ele>
        <time>2017-08-20T08:49:17Z</time>
      </trkpt>
      <trkpt lat="45.94193" lon="4.81782">
        <ele>266</ele>
        <time>2017-08-20T08:49:18Z</time>
      </trkpt>
      <trkpt lat="45.94194" lon="4.81794">
        <ele>266</ele>
        <time>2017-08-20T08:49:20Z</time>
      </trkpt>
      <trkpt lat="45.94195" lon="4.81797">
        <ele>266</ele>
        <time>2017-08-20T08:49:21Z</time>
      </trkpt>
      <trkpt lat="45.94195" lon="4.81808">
        <ele>266</ele>
        <time>2017-08-20T08:49:23Z</time>
      </trkpt>
      <trkpt lat="45.94196" lon="4.81814">
        <ele>266</ele>
        <time>2017-08-20T08:49:24Z</time>
      </trkpt>
      <trkpt lat="45.94198" lon="4.81826">
        <ele>266</ele>
        <time>2017-08-20T08:49:26Z</time>
      </trkpt>
      <trkpt lat="45.94199" lon="4.81831">
        <ele>266</ele>
        <time>2017-08-20T08:49:27Z</time>
      </trkpt>
      <trkpt lat="45.94202" lon="4.8184">
        <ele>266</ele>
        <time>2017-08-20T08:49:29Z</time>
      </trkpt>
      <trkpt lat="45.94203" lon="4.81845">
        <ele>266</ele>
        <time>2017-08-20T08:49:30Z</time>
      </trkpt>
      <trkpt lat="45.94205" lon="4.81856">
        <ele>266</ele>
        <time>2017-08-20T08:49:32Z</time>
      </trkpt>
      <trkpt lat="45.94206" lon="4.81862">
        <ele>265</ele>
        <time>2017-08-20T08:49:33Z</time>
      </trkpt>
      <trkpt lat="45.94208" lon="4.81874">
        <ele>265</ele>
        <time>2017-08-20T08:49:35Z</time>
      </trkpt>
      <trkpt lat="45.94209" lon="4.81879">
        <ele>265</ele>
        <time>2017-08-20T08:49:36Z</time>
      </trkpt>
      <trkpt lat="45.9421" lon="4.8189">
        <ele>265</ele>
        <time>2017-08-20T08:49:38Z</time>
      </trkpt>
      <trkpt lat="45.94211" lon="4.81896">
        <ele>265</ele>
        <time>2017-08-20T08:49:39Z</time>
      </trkpt>
      <trkpt lat="45.94214" lon="4.81907">
        <ele>265</ele>
        <time>2017-08-20T08:49:41Z</time>
      </trkpt>
      <trkpt lat="45.94215" lon="4.81912">
        <ele>265</ele>
        <time>2017-08-20T08:49:42Z</time>
      </trkpt>
      <trkpt lat="45.94217" lon="4.81923">
        <ele>264</ele>
        <time>2017-08-20T08:49:44Z</time>
      </trkpt>
      <trkpt lat="45.94219" lon="4.81928">
        <ele>264</ele>
        <time>2017-08-20T08:49:45Z</time>
      </trkpt>
      <trkpt lat="45.94221" lon="4.8194">
        <ele>264</ele>
        <time>2017-08-20T08:49:47Z</time>
      </trkpt>
      <trkpt lat="45.94222" lon="4.81946">
        <ele>264</ele>
        <time>2017-08-20T08:49:48Z</time>
      </trkpt>
      <trkpt lat="45.94224" lon="4.81953">
        <ele>264</ele>
        <time>2017-08-20T08:49:49Z</time>
      </trkpt>
      <trkpt lat="45.94225" lon="4.81959">
        <ele>264</ele>
        <time>2017-08-20T08:49:50Z</time>
      </trkpt>
      <trkpt lat="45.94229" lon="4.81971">
        <ele>264</ele>
        <time>2017-08-20T08:49:52Z</time>
      </trkpt>
      <trkpt lat="45.9423" lon="4.81978">
        <ele>264</ele>
        <time>2017-08-20T08:49:53Z</time>
      </trkpt>
      <trkpt lat="45.94231" lon="4.81984">
        <ele>263</ele>
        <time>2017-08-20T08:49:54Z</time>
      </trkpt>
      <trkpt lat="45.94233" lon="4.81991">
        <ele>263</ele>
        <time>2017-08-20T08:49:55Z</time>
      </trkpt>
      <trkpt lat="45.94235" lon="4.82002">
        <ele>263</ele>
        <time>2017-08-20T08:49:57Z</time>
      </trkpt>
      <trkpt lat="45.94236" lon="4.82008">
        <ele>263</ele>
        <time>2017-08-20T08:49:58Z</time>
      </trkpt>
      <trkpt lat="45.94238" lon="4.82019">
        <ele>263</ele>
        <time>2017-08-20T08:50:00Z</time>
      </trkpt>
      <trkpt lat="45.9424" lon="4.82025">
        <ele>263</ele>
        <time>2017-08-20T08:50:01Z</time>
      </trkpt>
      <trkpt lat="45.94241" lon="4.82031">
        <ele>263</ele>
        <time>2017-08-20T08:50:02Z</time>
      </trkpt>
      <trkpt lat="45.94242" lon="4.82038">
        <ele>263</ele>
        <time>2017-08-20T08:50:03Z</time>
      </trkpt>
      <trkpt lat="45.94243" lon="4.82045">
        <ele>263</ele>
        <time>2017-08-20T08:50:04Z</time>
      </trkpt>
      <trkpt lat="45.94245" lon="4.82052">
        <ele>263</ele>
        <time>2017-08-20T08:50:05Z</time>
      </trkpt>
      <trkpt lat="45.94246" lon="4.82059">
        <ele>263</ele>
        <time>2017-08-20T08:50:06Z</time>
      </trkpt>
      <trkpt lat="45.94247" lon="4.82066">
        <ele>263</ele>
        <time>2017-08-20T08:50:07Z</time>
      </trkpt>
      <trkpt lat="45.94249" lon="4.82073">
        <ele>263</ele>
        <time>2017-08-20T08:50:08Z</time>
      </trkpt>
      <trkpt lat="45.9425" lon="4.8208">
        <ele>262</ele>
        <time>2017-08-20T08:50:09Z</time>
      </trkpt>
      <trkpt lat="45.94252" lon="4.82087">
        <ele>262</ele>
        <time>2017-08-20T08:50:10Z</time>
      </trkpt>
      <trkpt lat="45.94253" lon="4.82093">
        <ele>262</ele>
        <time>2017-08-20T08:50:11Z</time>
      </trkpt>
      <trkpt lat="45.94256" lon="4.82105">
        <ele>262</ele>
        <time>2017-08-20T08:50:13Z</time>
      </trkpt>
      <trkpt lat="45.94258" lon="4.82111">
        <ele>263</ele>
        <time>2017-08-20T08:50:14Z</time>
      </trkpt>
      <trkpt lat="45.94259" lon="4.82117">
        <ele>263</ele>
        <time>2017-08-20T08:50:15Z</time>
      </trkpt>
      <trkpt lat="45.94261" lon="4.82123">
        <ele>263</ele>
        <time>2017-08-20T08:50:16Z</time>
      </trkpt>
      <trkpt lat="45.94263" lon="4.82135">
        <ele>263</ele>
        <time>2017-08-20T08:50:18Z</time>
      </trkpt>
      <trkpt lat="45.94264" lon="4.82141">
        <ele>263</ele>
        <time>2017-08-20T08:50:19Z</time>
      </trkpt>
      <trkpt lat="45.94266" lon="4.82148">
        <ele>263</ele>
        <time>2017-08-20T08:50:20Z</time>
      </trkpt>
      <trkpt lat="45.94267" lon="4.82156">
        <ele>263</ele>
        <time>2017-08-20T08:50:21Z</time>
      </trkpt>
      <trkpt lat="45.9427" lon="4.82164">
        <ele>263</ele>
        <time>2017-08-20T08:50:22Z</time>
      </trkpt>
      <trkpt lat="45.94271" lon="4.82171">
        <ele>264</ele>
        <time>2017-08-20T08:50:23Z</time>
      </trkpt>
      <trkpt lat="45.94273" lon="4.82178">
        <ele>264</ele>
        <time>2017-08-20T08:50:24Z</time>
      </trkpt>
      <trkpt lat="45.94274" lon="4.82185">
        <ele>264</ele>
        <time>2017-08-20T08:50:25Z</time>
      </trkpt>
      <trkpt lat="45.94275" lon="4.82192">
        <ele>264</ele>
        <time>2017-08-20T08:50:26Z</time>
      </trkpt>
      <trkpt lat="45.94276" lon="4.82199">
        <ele>264</ele>
        <time>2017-08-20T08:50:27Z</time>
      </trkpt>
      <trkpt lat="45.94277" lon="4.82205">
        <ele>264</ele>
        <time>2017-08-20T08:50:28Z</time>
      </trkpt>
      <trkpt lat="45.94278" lon="4.82212">
        <ele>264</ele>
        <time>2017-08-20T08:50:29Z</time>
      </trkpt>
      <trkpt lat="45.94278" lon="4.82224">
        <ele>264</ele>
        <time>2017-08-20T08:50:31Z</time>
      </trkpt>
      <trkpt lat="45.94278" lon="4.8223">
        <ele>264</ele>
        <time>2017-08-20T08:50:32Z</time>
      </trkpt>
      <trkpt lat="45.94278" lon="4.82237">
        <ele>264</ele>
        <time>2017-08-20T08:50:33Z</time>
      </trkpt>
      <trkpt lat="45.94279" lon="4.82243">
        <ele>264</ele>
        <time>2017-08-20T08:50:34Z</time>
      </trkpt>
      <trkpt lat="45.94279" lon="4.82251">
        <ele>265</ele>
        <time>2017-08-20T08:50:35Z</time>
      </trkpt>
      <trkpt lat="45.94279" lon="4.82259">
        <ele>265</ele>
        <time>2017-08-20T08:50:36Z</time>
      </trkpt>
      <trkpt lat="45.9428" lon="4.82267">
        <ele>265</ele>
        <time>2017-08-20T08:50:37Z</time>
      </trkpt>
      <trkpt lat="45.9428" lon="4.82275">
        <ele>265</ele>
        <time>2017-08-20T08:50:38Z</time>
      </trkpt>
      <trkpt lat="45.9428" lon="4.82282">
        <ele>265</ele>
        <time>2017-08-20T08:50:39Z</time>
      </trkpt>
      <trkpt lat="45.9428" lon="4.8229">
        <ele>265</ele>
        <time>2017-08-20T08:50:40Z</time>
      </trkpt>
      <trkpt lat="45.9428" lon="4.82297">
        <ele>265</ele>
        <time>2017-08-20T08:50:41Z</time>
      </trkpt>
      <trkpt lat="45.94281" lon="4.82304">
        <ele>265</ele>
        <time>2017-08-20T08:50:42Z</time>
      </trkpt>
      <trkpt lat="45.94283" lon="4.82317">
        <ele>265</ele>
        <time>2017-08-20T08:50:44Z</time>
      </trkpt>
      <trkpt lat="45.94283" lon="4.82322">
        <ele>265</ele>
        <time>2017-08-20T08:50:45Z</time>
      </trkpt>
      <trkpt lat="45.94283" lon="4.82335">
        <ele>264</ele>
        <time>2017-08-20T08:50:47Z</time>
      </trkpt>
      <trkpt lat="45.94284" lon="4.82342">
        <ele>264</ele>
        <time>2017-08-20T08:50:48Z</time>
      </trkpt>
      <trkpt lat="45.94284" lon="4.82349">
        <ele>264</ele>
        <time>2017-08-20T08:50:49Z</time>
      </trkpt>
      <trkpt lat="45.94284" lon="4.82357">
        <ele>264</ele>
        <time>2017-08-20T08:50:50Z</time>
      </trkpt>
      <trkpt lat="45.94285" lon="4.82365">
        <ele>264</ele>
        <time>2017-08-20T08:50:51Z</time>
      </trkpt>
      <trkpt lat="45.94285" lon="4.82373">
        <ele>264</ele>
        <time>2017-08-20T08:50:52Z</time>
      </trkpt>
      <trkpt lat="45.94288" lon="4.8238">
        <ele>264</ele>
        <time>2017-08-20T08:50:53Z</time>
      </trkpt>
      <trkpt lat="45.94289" lon="4.82388">
        <ele>264</ele>
        <time>2017-08-20T08:50:54Z</time>
      </trkpt>
      <trkpt lat="45.9429" lon="4.82394">
        <ele>264</ele>
        <time>2017-08-20T08:50:55Z</time>
      </trkpt>
      <trkpt lat="45.9429" lon="4.82401">
        <ele>264</ele>
        <time>2017-08-20T08:50:56Z</time>
      </trkpt>
      <trkpt lat="45.9429" lon="4.82413">
        <ele>264</ele>
        <time>2017-08-20T08:50:58Z</time>
      </trkpt>
      <trkpt lat="45.9429" lon="4.82419">
        <ele>264</ele>
        <time>2017-08-20T08:50:59Z</time>
      </trkpt>
      <trkpt lat="45.9429" lon="4.82431">
        <ele>264</ele>
        <time>2017-08-20T08:51:01Z</time>
      </trkpt>
      <trkpt lat="45.9429" lon="4.82438">
        <ele>264</ele>
        <time>2017-08-20T08:51:02Z</time>
      </trkpt>
      <trkpt lat="45.9429" lon="4.82445">
        <ele>264</ele>
        <time>2017-08-20T08:51:03Z</time>
      </trkpt>
      <trkpt lat="45.94291" lon="4.82452">
        <ele>264</ele>
        <time>2017-08-20T08:51:04Z</time>
      </trkpt>
      <trkpt lat="45.94291" lon="4.82459">
        <ele>264</ele>
        <time>2017-08-20T08:51:05Z</time>
      </trkpt>
      <trkpt lat="45.94291" lon="4.82466">
        <ele>264</ele>
        <time>2017-08-20T08:51:06Z</time>
      </trkpt>
      <trkpt lat="45.94291" lon="4.82479">
        <ele>264</ele>
        <time>2017-08-20T08:51:08Z</time>
      </trkpt>
      <trkpt lat="45.94291" lon="4.82485">
        <ele>264</ele>
        <time>2017-08-20T08:51:09Z</time>
      </trkpt>
      <trkpt lat="45.94291" lon="4.82497">
        <ele>264</ele>
        <time>2017-08-20T08:51:11Z</time>
      </trkpt>
      <trkpt lat="45.94291" lon="4.82503">
        <ele>264</ele>
        <time>2017-08-20T08:51:12Z</time>
      </trkpt>
      <trkpt lat="45.94291" lon="4.8251">
        <ele>264</ele>
        <time>2017-08-20T08:51:13Z</time>
      </trkpt>
      <trkpt lat="45.94291" lon="4.82516">
        <ele>264</ele>
        <time>2017-08-20T08:51:14Z</time>
      </trkpt>
      <trkpt lat="45.94291" lon="4.82524">
        <ele>264</ele>
        <time>2017-08-20T08:51:15Z</time>
      </trkpt>
      <trkpt lat="45.94291" lon="4.82531">
        <ele>264</ele>
        <time>2017-08-20T08:51:16Z</time>
      </trkpt>
      <trkpt lat="45.9429" lon="4.82539">
        <ele>264</ele>
        <time>2017-08-20T08:51:17Z</time>
      </trkpt>
      <trkpt lat="45.9429" lon="4.82546">
        <ele>264</ele>
        <time>2017-08-20T08:51:18Z</time>
      </trkpt>
      <trkpt lat="45.94291" lon="4.82554">
        <ele>264</ele>
        <time>2017-08-20T08:51:19Z</time>
      </trkpt>
      <trkpt lat="45.94291" lon="4.82561">
        <ele>264</ele>
        <time>2017-08-20T08:51:20Z</time>
      </trkpt>
      <trkpt lat="45.9429" lon="4.82568">
        <ele>264</ele>
        <time>2017-08-20T08:51:21Z</time>
      </trkpt>
      <trkpt lat="45.9429" lon="4.82575">
        <ele>265</ele>
        <time>2017-08-20T08:51:22Z</time>
      </trkpt>
      <trkpt lat="45.9429" lon="4.82588">
        <ele>265</ele>
        <time>2017-08-20T08:51:24Z</time>
      </trkpt>
      <trkpt lat="45.9429" lon="4.82594">
        <ele>265</ele>
        <time>2017-08-20T08:51:25Z</time>
      </trkpt>
      <trkpt lat="45.9429" lon="4.82606">
        <ele>265</ele>
        <time>2017-08-20T08:51:27Z</time>
      </trkpt>
      <trkpt lat="45.9429" lon="4.82612">
        <ele>265</ele>
        <time>2017-08-20T08:51:28Z</time>
      </trkpt>
      <trkpt lat="45.9429" lon="4.82619">
        <ele>265</ele>
        <time>2017-08-20T08:51:29Z</time>
      </trkpt>
      <trkpt lat="45.94291" lon="4.82626">
        <ele>265</ele>
        <time>2017-08-20T08:51:30Z</time>
      </trkpt>
      <trkpt lat="45.94291" lon="4.82634">
        <ele>265</ele>
        <time>2017-08-20T08:51:31Z</time>
      </trkpt>
      <trkpt lat="45.94291" lon="4.82641">
        <ele>265</ele>
        <time>2017-08-20T08:51:32Z</time>
      </trkpt>
      <trkpt lat="45.94291" lon="4.82649">
        <ele>265</ele>
        <time>2017-08-20T08:51:33Z</time>
      </trkpt>
      <trkpt lat="45.94291" lon="4.82656">
        <ele>265</ele>
        <time>2017-08-20T08:51:34Z</time>
      </trkpt>
      <trkpt lat="45.94291" lon="4.82664">
        <ele>265</ele>
        <time>2017-08-20T08:51:35Z</time>
      </trkpt>
      <trkpt lat="45.94291" lon="4.8267">
        <ele>265</ele>
        <time>2017-08-20T08:51:36Z</time>
      </trkpt>
      <trkpt lat="45.94291" lon="4.82683">
        <ele>265</ele>
        <time>2017-08-20T08:51:38Z</time>
      </trkpt>
      <trkpt lat="45.94291" lon="4.82689">
        <ele>265</ele>
        <time>2017-08-20T08:51:39Z</time>
      </trkpt>
      <trkpt lat="45.94291" lon="4.82701">
        <ele>265</ele>
        <time>2017-08-20T08:51:41Z</time>
      </trkpt>
      <trkpt lat="45.94291" lon="4.82708">
        <ele>265</ele>
        <time>2017-08-20T08:51:42Z</time>
      </trkpt>
      <trkpt lat="45.9429" lon="4.82715">
        <ele>265</ele>
        <time>2017-08-20T08:51:43Z</time>
      </trkpt>
      <trkpt lat="45.9429" lon="4.82722">
        <ele>265</ele>
        <time>2017-08-20T08:51:44Z</time>
      </trkpt>
      <trkpt lat="45.9429" lon="4.8273">
        <ele>265</ele>
        <time>2017-08-20T08:51:45Z</time>
      </trkpt>
      <trkpt lat="45.9429" lon="4.82737">
        <ele>265</ele>
        <time>2017-08-20T08:51:46Z</time>
      </trkpt>
      <trkpt lat="45.9429" lon="4.82744">
        <ele>265</ele>
        <time>2017-08-20T08:51:47Z</time>
      </trkpt>
      <trkpt lat="45.94289" lon="4.82751">
        <ele>265</ele>
        <time>2017-08-20T08:51:48Z</time>
      </trkpt>
      <trkpt lat="45.94289" lon="4.82764">
        <ele>265</ele>
        <time>2017-08-20T08:51:50Z</time>
      </trkpt>
      <trkpt lat="45.94289" lon="4.8277">
        <ele>265</ele>
        <time>2017-08-20T08:51:51Z</time>
      </trkpt>
      <trkpt lat="45.94289" lon="4.82777">
        <ele>265</ele>
        <time>2017-08-20T08:51:52Z</time>
      </trkpt>
      <trkpt lat="45.94289" lon="4.82784">
        <ele>265</ele>
        <time>2017-08-20T08:51:53Z</time>
      </trkpt>
      <trkpt lat="45.94289" lon="4.82791">
        <ele>265</ele>
        <time>2017-08-20T08:51:54Z</time>
      </trkpt>
      <trkpt lat="45.94289" lon="4.82798">
        <ele>265</ele>
        <time>2017-08-20T08:51:55Z</time>
      </trkpt>
      <trkpt lat="45.94288" lon="4.82807">
        <ele>265</ele>
        <time>2017-08-20T08:51:56Z</time>
      </trkpt>
      <trkpt lat="45.94288" lon="4.82815">
        <ele>265</ele>
        <time>2017-08-20T08:51:57Z</time>
      </trkpt>
      <trkpt lat="45.94287" lon="4.82823">
        <ele>265</ele>
        <time>2017-08-20T08:51:58Z</time>
      </trkpt>
      <trkpt lat="45.94287" lon="4.82832">
        <ele>265</ele>
        <time>2017-08-20T08:51:59Z</time>
      </trkpt>
      <trkpt lat="45.94287" lon="4.82841">
        <ele>265</ele>
        <time>2017-08-20T08:52:00Z</time>
      </trkpt>
      <trkpt lat="45.94287" lon="4.8285">
        <ele>265</ele>
        <time>2017-08-20T08:52:01Z</time>
      </trkpt>
      <trkpt lat="45.94287" lon="4.82859">
        <ele>265</ele>
        <time>2017-08-20T08:52:02Z</time>
      </trkpt>
      <trkpt lat="45.94287" lon="4.82867">
        <ele>265</ele>
        <time>2017-08-20T08:52:03Z</time>
      </trkpt>
      <trkpt lat="45.94286" lon="4.82875">
        <ele>265</ele>
        <time>2017-08-20T08:52:04Z</time>
      </trkpt>
      <trkpt lat="45.94286" lon="4.82882">
        <ele>265</ele>
        <time>2017-08-20T08:52:05Z</time>
      </trkpt>
      <trkpt lat="45.94286" lon="4.8289">
        <ele>265</ele>
        <time>2017-08-20T08:52:06Z</time>
      </trkpt>
      <trkpt lat="45.94286" lon="4.82897">
        <ele>265</ele>
        <time>2017-08-20T08:52:07Z</time>
      </trkpt>
      <trkpt lat="45.94286" lon="4.82904">
        <ele>265</ele>
        <time>2017-08-20T08:52:08Z</time>
      </trkpt>
      <trkpt lat="45.94285" lon="4.82912">
        <ele>265</ele>
        <time>2017-08-20T08:52:09Z</time>
      </trkpt>
      <trkpt lat="45.94284" lon="4.82919">
        <ele>265</ele>
        <time>2017-08-20T08:52:10Z</time>
      </trkpt>
      <trkpt lat="45.94283" lon="4.82927">
        <ele>265</ele>
        <time>2017-08-20T08:52:11Z</time>
      </trkpt>
      <trkpt lat="45.94282" lon="4.82935">
        <ele>265</ele>
        <time>2017-08-20T08:52:12Z</time>
      </trkpt>
      <trkpt lat="45.9428" lon="4.82943">
        <ele>265</ele>
        <time>2017-08-20T08:52:13Z</time>
      </trkpt>
      <trkpt lat="45.9428" lon="4.82951">
        <ele>265</ele>
        <time>2017-08-20T08:52:14Z</time>
      </trkpt>
      <trkpt lat="45.9428" lon="4.8296">
        <ele>265</ele>
        <time>2017-08-20T08:52:15Z</time>
      </trkpt>
      <trkpt lat="45.94282" lon="4.82967">
        <ele>265</ele>
        <time>2017-08-20T08:52:16Z</time>
      </trkpt>
      <trkpt lat="45.94284" lon="4.82974">
        <ele>265</ele>
        <time>2017-08-20T08:52:17Z</time>
      </trkpt>
      <trkpt lat="45.94287" lon="4.82981">
        <ele>265</ele>
        <time>2017-08-20T08:52:18Z</time>
      </trkpt>
      <trkpt lat="45.94289" lon="4.82988">
        <ele>265</ele>
        <time>2017-08-20T08:52:19Z</time>
      </trkpt>
      <trkpt lat="45.94292" lon="4.82995">
        <ele>265</ele>
        <time>2017-08-20T08:52:20Z</time>
      </trkpt>
      <trkpt lat="45.94294" lon="4.83002">
        <ele>266</ele>
        <time>2017-08-20T08:52:21Z</time>
      </trkpt>
      <trkpt lat="45.94296" lon="4.83009">
        <ele>266</ele>
        <time>2017-08-20T08:52:22Z</time>
      </trkpt>
      <trkpt lat="45.94297" lon="4.83015">
        <ele>266</ele>
        <time>2017-08-20T08:52:23Z</time>
      </trkpt>
      <trkpt lat="45.94299" lon="4.83022">
        <ele>266</ele>
        <time>2017-08-20T08:52:24Z</time>
      </trkpt>
      <trkpt lat="45.943" lon="4.83029">
        <ele>266</ele>
        <time>2017-08-20T08:52:25Z</time>
      </trkpt>
      <trkpt lat="45.94301" lon="4.83035">
        <ele>266</ele>
        <time>2017-08-20T08:52:26Z</time>
      </trkpt>
      <trkpt lat="45.94302" lon="4.83042">
        <ele>266</ele>
        <time>2017-08-20T08:52:27Z</time>
      </trkpt>
      <trkpt lat="45.94303" lon="4.83049">
        <ele>266</ele>
        <time>2017-08-20T08:52:28Z</time>
      </trkpt>
      <trkpt lat="45.94304" lon="4.83056">
        <ele>266</ele>
        <time>2017-08-20T08:52:29Z</time>
      </trkpt>
      <trkpt lat="45.94306" lon="4.83064">
        <ele>266</ele>
        <time>2017-08-20T08:52:30Z</time>
      </trkpt>
      <trkpt lat="45.94308" lon="4.83072">
        <ele>266</ele>
        <time>2017-08-20T08:52:31Z</time>
      </trkpt>
      <trkpt lat="45.9431" lon="4.8308">
        <ele>266</ele>
        <time>2017-08-20T08:52:32Z</time>
      </trkpt>
      <trkpt lat="45.94312" lon="4.83088">
        <ele>266</ele>
        <time>2017-08-20T08:52:33Z</time>
      </trkpt>
      <trkpt lat="45.94315" lon="4.83096">
        <ele>266</ele>
        <time>2017-08-20T08:52:34Z</time>
      </trkpt>
      <trkpt lat="45.94317" lon="4.83103">
        <ele>266</ele>
        <time>2017-08-20T08:52:35Z</time>
      </trkpt>
      <trkpt lat="45.94319" lon="4.83111">
        <ele>266</ele>
        <time>2017-08-20T08:52:36Z</time>
      </trkpt>
      <trkpt lat="45.94321" lon="4.83117">
        <ele>266</ele>
        <time>2017-08-20T08:52:37Z</time>
      </trkpt>
      <trkpt lat="45.94324" lon="4.83123">
        <ele>266</ele>
        <time>2017-08-20T08:52:38Z</time>
      </trkpt>
      <trkpt lat="45.94326" lon="4.83129">
        <ele>266</ele>
        <time>2017-08-20T08:52:39Z</time>
      </trkpt>
      <trkpt lat="45.9433" lon="4.8314">
        <ele>266</ele>
        <time>2017-08-20T08:52:41Z</time>
      </trkpt>
      <trkpt lat="45.94332" lon="4.83146">
        <ele>266</ele>
        <time>2017-08-20T08:52:42Z</time>
      </trkpt>
      <trkpt lat="45.94334" lon="4.83152">
        <ele>266</ele>
        <time>2017-08-20T08:52:43Z</time>
      </trkpt>
      <trkpt lat="45.94336" lon="4.83158">
        <ele>266</ele>
        <time>2017-08-20T08:52:44Z</time>
      </trkpt>
      <trkpt lat="45.94338" lon="4.83164">
        <ele>266</ele>
        <time>2017-08-20T08:52:45Z</time>
      </trkpt>
      <trkpt lat="45.94341" lon="4.83171">
        <ele>266</ele>
        <time>2017-08-20T08:52:46Z</time>
      </trkpt>
      <trkpt lat="45.94343" lon="4.83179">
        <ele>266</ele>
        <time>2017-08-20T08:52:47Z</time>
      </trkpt>
      <trkpt lat="45.94345" lon="4.83186">
        <ele>266</ele>
        <time>2017-08-20T08:52:48Z</time>
      </trkpt>
      <trkpt lat="45.94348" lon="4.83194">
        <ele>266</ele>
        <time>2017-08-20T08:52:49Z</time>
      </trkpt>
      <trkpt lat="45.94351" lon="4.83201">
        <ele>266</ele>
        <time>2017-08-20T08:52:50Z</time>
      </trkpt>
      <trkpt lat="45.94353" lon="4.83209">
        <ele>266</ele>
        <time>2017-08-20T08:52:51Z</time>
      </trkpt>
      <trkpt lat="45.94356" lon="4.83216">
        <ele>266</ele>
        <time>2017-08-20T08:52:52Z</time>
      </trkpt>
      <trkpt lat="45.94358" lon="4.83223">
        <ele>266</ele>
        <time>2017-08-20T08:52:53Z</time>
      </trkpt>
      <trkpt lat="45.9436" lon="4.83229">
        <ele>266</ele>
        <time>2017-08-20T08:52:54Z</time>
      </trkpt>
      <trkpt lat="45.94363" lon="4.83236">
        <ele>265</ele>
        <time>2017-08-20T08:52:55Z</time>
      </trkpt>
      <trkpt lat="45.94365" lon="4.83243">
        <ele>265</ele>
        <time>2017-08-20T08:52:56Z</time>
      </trkpt>
      <trkpt lat="45.94367" lon="4.8325">
        <ele>265</ele>
        <time>2017-08-20T08:52:57Z</time>
      </trkpt>
      <trkpt lat="45.9437" lon="4.83257">
        <ele>265</ele>
        <time>2017-08-20T08:52:58Z</time>
      </trkpt>
      <trkpt lat="45.94372" lon="4.83264">
        <ele>264</ele>
        <time>2017-08-20T08:52:59Z</time>
      </trkpt>
      <trkpt lat="45.94374" lon="4.83271">
        <ele>264</ele>
        <time>2017-08-20T08:53:00Z</time>
      </trkpt>
      <trkpt lat="45.94377" lon="4.83277">
        <ele>264</ele>
        <time>2017-08-20T08:53:01Z</time>
      </trkpt>
      <trkpt lat="45.94379" lon="4.83284">
        <ele>264</ele>
        <time>2017-08-20T08:53:02Z</time>
      </trkpt>
      <trkpt lat="45.94381" lon="4.83291">
        <ele>264</ele>
        <time>2017-08-20T08:53:03Z</time>
      </trkpt>
      <trkpt lat="45.94383" lon="4.83297">
        <ele>264</ele>
        <time>2017-08-20T08:53:04Z</time>
      </trkpt>
      <trkpt lat="45.94386" lon="4.83304">
        <ele>264</ele>
        <time>2017-08-20T08:53:05Z</time>
      </trkpt>
      <trkpt lat="45.94388" lon="4.8331">
        <ele>264</ele>
        <time>2017-08-20T08:53:06Z</time>
      </trkpt>
      <trkpt lat="45.94391" lon="4.83317">
        <ele>264</ele>
        <time>2017-08-20T08:53:07Z</time>
      </trkpt>
      <trkpt lat="45.94394" lon="4.83324">
        <ele>264</ele>
        <time>2017-08-20T08:53:08Z</time>
      </trkpt>
      <trkpt lat="45.94396" lon="4.83331">
        <ele>264</ele>
        <time>2017-08-20T08:53:09Z</time>
      </trkpt>
      <trkpt lat="45.94399" lon="4.83338">
        <ele>263</ele>
        <time>2017-08-20T08:53:10Z</time>
      </trkpt>
      <trkpt lat="45.94402" lon="4.83346">
        <ele>263</ele>
        <time>2017-08-20T08:53:11Z</time>
      </trkpt>
      <trkpt lat="45.94405" lon="4.83353">
        <ele>263</ele>
        <time>2017-08-20T08:53:12Z</time>
      </trkpt>
      <trkpt lat="45.94409" lon="4.8336">
        <ele>264</ele>
        <time>2017-08-20T08:53:13Z</time>
      </trkpt>
      <trkpt lat="45.94412" lon="4.83367">
        <ele>264</ele>
        <time>2017-08-20T08:53:14Z</time>
      </trkpt>
      <trkpt lat="45.94414" lon="4.83374">
        <ele>264</ele>
        <time>2017-08-20T08:53:15Z</time>
      </trkpt>
      <trkpt lat="45.94417" lon="4.8338">
        <ele>264</ele>
        <time>2017-08-20T08:53:16Z</time>
      </trkpt>
      <trkpt lat="45.94419" lon="4.83386">
        <ele>264</ele>
        <time>2017-08-20T08:53:17Z</time>
      </trkpt>
      <trkpt lat="45.94422" lon="4.83392">
        <ele>264</ele>
        <time>2017-08-20T08:53:18Z</time>
      </trkpt>
      <trkpt lat="45.94425" lon="4.83398">
        <ele>264</ele>
        <time>2017-08-20T08:53:19Z</time>
      </trkpt>
      <trkpt lat="45.94428" lon="4.83404">
        <ele>264</ele>
        <time>2017-08-20T08:53:20Z</time>
      </trkpt>
      <trkpt lat="45.94432" lon="4.83411">
        <ele>264</ele>
        <time>2017-08-20T08:53:21Z</time>
      </trkpt>
      <trkpt lat="45.94435" lon="4.83417">
        <ele>264</ele>
        <time>2017-08-20T08:53:22Z</time>
      </trkpt>
      <trkpt lat="45.94438" lon="4.83423">
        <ele>264</ele>
        <time>2017-08-20T08:53:23Z</time>
      </trkpt>
      <trkpt lat="45.94441" lon="4.83429">
        <ele>264</ele>
        <time>2017-08-20T08:53:24Z</time>
      </trkpt>
      <trkpt lat="45.94445" lon="4.83436">
        <ele>263</ele>
        <time>2017-08-20T08:53:25Z</time>
      </trkpt>
      <trkpt lat="45.94448" lon="4.83443">
        <ele>263</ele>
        <time>2017-08-20T08:53:26Z</time>
      </trkpt>
      <trkpt lat="45.94452" lon="4.83449">
        <ele>263</ele>
        <time>2017-08-20T08:53:27Z</time>
      </trkpt>
      <trkpt lat="45.94456" lon="4.83456">
        <ele>263</ele>
        <time>2017-08-20T08:53:28Z</time>
      </trkpt>
      <trkpt lat="45.94459" lon="4.83463">
        <ele>263</ele>
        <time>2017-08-20T08:53:29Z</time>
      </trkpt>
      <trkpt lat="45.94463" lon="4.83469">
        <ele>263</ele>
        <time>2017-08-20T08:53:30Z</time>
      </trkpt>
      <trkpt lat="45.94466" lon="4.83475">
        <ele>263</ele>
        <time>2017-08-20T08:53:31Z</time>
      </trkpt>
      <trkpt lat="45.9447" lon="4.83481">
        <ele>263</ele>
        <time>2017-08-20T08:53:32Z</time>
      </trkpt>
      <trkpt lat="45.94473" lon="4.83487">
        <ele>263</ele>
        <time>2017-08-20T08:53:33Z</time>
      </trkpt>
      <trkpt lat="45.94476" lon="4.83493">
        <ele>263</ele>
        <time>2017-08-20T08:53:34Z</time>
      </trkpt>
      <trkpt lat="45.94479" lon="4.83498">
        <ele>263</ele>
        <time>2017-08-20T08:53:35Z</time>
      </trkpt>
      <trkpt lat="45.94483" lon="4.83503">
        <ele>262</ele>
        <time>2017-08-20T08:53:36Z</time>
      </trkpt>
      <trkpt lat="45.94488" lon="4.83512">
        <ele>262</ele>
        <time>2017-08-20T08:53:38Z</time>
      </trkpt>
      <trkpt lat="45.94491" lon="4.83517">
        <ele>262</ele>
        <time>2017-08-20T08:53:39Z</time>
      </trkpt>
      <trkpt lat="45.94497" lon="4.83526">
        <ele>262</ele>
        <time>2017-08-20T08:53:41Z</time>
      </trkpt>
      <trkpt lat="45.945" lon="4.83531">
        <ele>262</ele>
        <time>2017-08-20T08:53:42Z</time>
      </trkpt>
      <trkpt lat="45.94503" lon="4.83537">
        <ele>262</ele>
        <time>2017-08-20T08:53:43Z</time>
      </trkpt>
      <trkpt lat="45.94506" lon="4.83542">
        <ele>262</ele>
        <time>2017-08-20T08:53:44Z</time>
      </trkpt>
      <trkpt lat="45.9451" lon="4.83549">
        <ele>261</ele>
        <time>2017-08-20T08:53:45Z</time>
      </trkpt>
      <trkpt lat="45.94513" lon="4.83555">
        <ele>261</ele>
        <time>2017-08-20T08:53:46Z</time>
      </trkpt>
      <trkpt lat="45.94516" lon="4.83562">
        <ele>261</ele>
        <time>2017-08-20T08:53:47Z</time>
      </trkpt>
      <trkpt lat="45.9452" lon="4.83569">
        <ele>261</ele>
        <time>2017-08-20T08:53:48Z</time>
      </trkpt>
      <trkpt lat="45.94522" lon="4.83575">
        <ele>261</ele>
        <time>2017-08-20T08:53:49Z</time>
      </trkpt>
      <trkpt lat="45.94524" lon="4.83582">
        <ele>261</ele>
        <time>2017-08-20T08:53:50Z</time>
      </trkpt>
      <trkpt lat="45.94526" lon="4.83589">
        <ele>261</ele>
        <time>2017-08-20T08:53:51Z</time>
      </trkpt>
      <trkpt lat="45.94527" lon="4.83596">
        <ele>261</ele>
        <time>2017-08-20T08:53:52Z</time>
      </trkpt>
      <trkpt lat="45.94529" lon="4.83603">
        <ele>261</ele>
        <time>2017-08-20T08:53:53Z</time>
      </trkpt>
      <trkpt lat="45.9453" lon="4.83609">
        <ele>261</ele>
        <time>2017-08-20T08:53:54Z</time>
      </trkpt>
      <trkpt lat="45.94532" lon="4.83616">
        <ele>261</ele>
        <time>2017-08-20T08:53:55Z</time>
      </trkpt>
      <trkpt lat="45.94533" lon="4.83622">
        <ele>261</ele>
        <time>2017-08-20T08:53:56Z</time>
      </trkpt>
      <trkpt lat="45.94534" lon="4.83628">
        <ele>261</ele>
        <time>2017-08-20T08:53:57Z</time>
      </trkpt>
      <trkpt lat="45.94535" lon="4.83634">
        <ele>261</ele>
        <time>2017-08-20T08:53:58Z</time>
      </trkpt>
      <trkpt lat="45.94536" lon="4.83642">
        <ele>261</ele>
        <time>2017-08-20T08:53:59Z</time>
      </trkpt>
      <trkpt lat="45.94537" lon="4.8365">
        <ele>261</ele>
        <time>2017-08-20T08:54:00Z</time>
      </trkpt>
      <trkpt lat="45.94538" lon="4.83658">
        <ele>261</ele>
        <time>2017-08-20T08:54:01Z</time>
      </trkpt>
      <trkpt lat="45.9454" lon="4.83666">
        <ele>261</ele>
        <time>2017-08-20T08:54:02Z</time>
      </trkpt>
      <trkpt lat="45.94541" lon="4.83675">
        <ele>262</ele>
        <time>2017-08-20T08:54:03Z</time>
      </trkpt>
      <trkpt lat="45.94543" lon="4.83683">
        <ele>262</ele>
        <time>2017-08-20T08:54:04Z</time>
      </trkpt>
      <trkpt lat="45.94544" lon="4.83692">
        <ele>262</ele>
        <time>2017-08-20T08:54:05Z</time>
      </trkpt>
      <trkpt lat="45.94546" lon="4.83701">
        <ele>262</ele>
        <time>2017-08-20T08:54:06Z</time>
      </trkpt>
      <trkpt lat="45.94547" lon="4.8371">
        <ele>262</ele>
        <time>2017-08-20T08:54:07Z</time>
      </trkpt>
      <trkpt lat="45.94548" lon="4.83719">
        <ele>262</ele>
        <time>2017-08-20T08:54:08Z</time>
      </trkpt>
      <trkpt lat="45.94549" lon="4.83728">
        <ele>262</ele>
        <time>2017-08-20T08:54:09Z</time>
      </trkpt>
      <trkpt lat="45.9455" lon="4.83737">
        <ele>262</ele>
        <time>2017-08-20T08:54:10Z</time>
      </trkpt>
      <trkpt lat="45.94551" lon="4.83746">
        <ele>262</ele>
        <time>2017-08-20T08:54:11Z</time>
      </trkpt>
      <trkpt lat="45.94552" lon="4.83755">
        <ele>263</ele>
        <time>2017-08-20T08:54:12Z</time>
      </trkpt>
      <trkpt lat="45.94553" lon="4.83764">
        <ele>263</ele>
        <time>2017-08-20T08:54:13Z</time>
      </trkpt>
      <trkpt lat="45.94555" lon="4.83772">
        <ele>264</ele>
        <time>2017-08-20T08:54:14Z</time>
      </trkpt>
      <trkpt lat="45.94556" lon="4.83781">
        <ele>264</ele>
        <time>2017-08-20T08:54:15Z</time>
      </trkpt>
      <trkpt lat="45.94557" lon="4.8379">
        <ele>264</ele>
        <time>2017-08-20T08:54:16Z</time>
      </trkpt>
      <trkpt lat="45.94558" lon="4.83798">
        <ele>264</ele>
        <time>2017-08-20T08:54:17Z</time>
      </trkpt>
      <trkpt lat="45.9456" lon="4.83807">
        <ele>264</ele>
        <time>2017-08-20T08:54:18Z</time>
      </trkpt>
      <trkpt lat="45.94561" lon="4.83815">
        <ele>264</ele>
        <time>2017-08-20T08:54:19Z</time>
      </trkpt>
      <trkpt lat="45.94563" lon="4.83823">
        <ele>264</ele>
        <time>2017-08-20T08:54:20Z</time>
      </trkpt>
      <trkpt lat="45.94564" lon="4.83831">
        <ele>265</ele>
        <time>2017-08-20T08:54:21Z</time>
      </trkpt>
      <trkpt lat="45.94565" lon="4.83838">
        <ele>266</ele>
        <time>2017-08-20T08:54:22Z</time>
      </trkpt>
      <trkpt lat="45.94566" lon="4.83846">
        <ele>266</ele>
        <time>2017-08-20T08:54:23Z</time>
      </trkpt>
      <trkpt lat="45.94567" lon="4.83853">
        <ele>266</ele>
        <time>2017-08-20T08:54:24Z</time>
      </trkpt>
      <trkpt lat="45.94568" lon="4.83861">
        <ele>267</ele>
        <time>2017-08-20T08:54:25Z</time>
      </trkpt>
      <trkpt lat="45.94568" lon="4.83868">
        <ele>267</ele>
        <time>2017-08-20T08:54:26Z</time>
      </trkpt>
      <trkpt lat="45.94569" lon="4.83875">
        <ele>267</ele>
        <time>2017-08-20T08:54:27Z</time>
      </trkpt>
      <trkpt lat="45.94571" lon="4.83882">
        <ele>267</ele>
        <time>2017-08-20T08:54:28Z</time>
      </trkpt>
      <trkpt lat="45.94572" lon="4.8389">
        <ele>267</ele>
        <time>2017-08-20T08:54:29Z</time>
      </trkpt>
      <trkpt lat="45.94574" lon="4.83898">
        <ele>268</ele>
        <time>2017-08-20T08:54:30Z</time>
      </trkpt>
      <trkpt lat="45.94574" lon="4.83906">
        <ele>268</ele>
        <time>2017-08-20T08:54:31Z</time>
      </trkpt>
      <trkpt lat="45.94575" lon="4.83913">
        <ele>268</ele>
        <time>2017-08-20T08:54:32Z</time>
      </trkpt>
      <trkpt lat="45.94577" lon="4.83921">
        <ele>268</ele>
        <time>2017-08-20T08:54:33Z</time>
      </trkpt>
      <trkpt lat="45.94578" lon="4.83928">
        <ele>268</ele>
        <time>2017-08-20T08:54:34Z</time>
      </trkpt>
      <trkpt lat="45.94579" lon="4.83935">
        <ele>269</ele>
        <time>2017-08-20T08:54:35Z</time>
      </trkpt>
      <trkpt lat="45.9458" lon="4.83943">
        <ele>269</ele>
        <time>2017-08-20T08:54:36Z</time>
      </trkpt>
      <trkpt lat="45.94581" lon="4.8395">
        <ele>269</ele>
        <time>2017-08-20T08:54:37Z</time>
      </trkpt>
      <trkpt lat="45.94583" lon="4.83957">
        <ele>269</ele>
        <time>2017-08-20T08:54:38Z</time>
      </trkpt>
      <trkpt lat="45.94585" lon="4.83965">
        <ele>268</ele>
        <time>2017-08-20T08:54:39Z</time>
      </trkpt>
      <trkpt lat="45.94586" lon="4.83972">
        <ele>268</ele>
        <time>2017-08-20T08:54:40Z</time>
      </trkpt>
      <trkpt lat="45.94588" lon="4.8398">
        <ele>268</ele>
        <time>2017-08-20T08:54:41Z</time>
      </trkpt>
      <trkpt lat="45.94589" lon="4.83987">
        <ele>269</ele>
        <time>2017-08-20T08:54:42Z</time>
      </trkpt>
      <trkpt lat="45.9459" lon="4.83993">
        <ele>269</ele>
        <time>2017-08-20T08:54:43Z</time>
      </trkpt>
      <trkpt lat="45.94592" lon="4.84">
        <ele>269</ele>
        <time>2017-08-20T08:54:44Z</time>
      </trkpt>
      <trkpt lat="45.94592" lon="4.84007">
        <ele>269</ele>
        <time>2017-08-20T08:54:45Z</time>
      </trkpt>
      <trkpt lat="45.94594" lon="4.84013">
        <ele>269</ele>
        <time>2017-08-20T08:54:46Z</time>
      </trkpt>
      <trkpt lat="45.94595" lon="4.8402">
        <ele>269</ele>
        <time>2017-08-20T08:54:47Z</time>
      </trkpt>
      <trkpt lat="45.94596" lon="4.84026">
        <ele>269</ele>
        <time>2017-08-20T08:54:48Z</time>
      </trkpt>
      <trkpt lat="45.94598" lon="4.84038">
        <ele>269</ele>
        <time>2017-08-20T08:54:50Z</time>
      </trkpt>
      <trkpt lat="45.94599" lon="4.84044">
        <ele>269</ele>
        <time>2017-08-20T08:54:51Z</time>
      </trkpt>
      <trkpt lat="45.94601" lon="4.84055">
        <ele>269</ele>
        <time>2017-08-20T08:54:53Z</time>
      </trkpt>
      <trkpt lat="45.94602" lon="4.84061">
        <ele>269</ele>
        <time>2017-08-20T08:54:54Z</time>
      </trkpt>
      <trkpt lat="45.94604" lon="4.84071">
        <ele>269</ele>
        <time>2017-08-20T08:54:56Z</time>
      </trkpt>
      <trkpt lat="45.94605" lon="4.84077">
        <ele>269</ele>
        <time>2017-08-20T08:54:57Z</time>
      </trkpt>
      <trkpt lat="45.94606" lon="4.84084">
        <ele>269</ele>
        <time>2017-08-20T08:54:58Z</time>
      </trkpt>
      <trkpt lat="45.94606" lon="4.8409">
        <ele>269</ele>
        <time>2017-08-20T08:54:59Z</time>
      </trkpt>
      <trkpt lat="45.94607" lon="4.84097">
        <ele>269</ele>
        <time>2017-08-20T08:55:00Z</time>
      </trkpt>
      <trkpt lat="45.94609" lon="4.84105">
        <ele>269</ele>
        <time>2017-08-20T08:55:01Z</time>
      </trkpt>
      <trkpt lat="45.9461" lon="4.84112">
        <ele>269</ele>
        <time>2017-08-20T08:55:02Z</time>
      </trkpt>
      <trkpt lat="45.94611" lon="4.8412">
        <ele>269</ele>
        <time>2017-08-20T08:55:03Z</time>
      </trkpt>
      <trkpt lat="45.94611" lon="4.84127">
        <ele>269</ele>
        <time>2017-08-20T08:55:04Z</time>
      </trkpt>
      <trkpt lat="45.94612" lon="4.84133">
        <ele>269</ele>
        <time>2017-08-20T08:55:05Z</time>
      </trkpt>
      <trkpt lat="45.94613" lon="4.8414">
        <ele>269</ele>
        <time>2017-08-20T08:55:06Z</time>
      </trkpt>
      <trkpt lat="45.94614" lon="4.84146">
        <ele>269</ele>
        <time>2017-08-20T08:55:07Z</time>
      </trkpt>
      <trkpt lat="45.94616" lon="4.84158">
        <ele>269</ele>
        <time>2017-08-20T08:55:09Z</time>
      </trkpt>
      <trkpt lat="45.94617" lon="4.84165">
        <ele>269</ele>
        <time>2017-08-20T08:55:10Z</time>
      </trkpt>
      <trkpt lat="45.94618" lon="4.84171">
        <ele>269</ele>
        <time>2017-08-20T08:55:11Z</time>
      </trkpt>
      <trkpt lat="45.94619" lon="4.84178">
        <ele>269</ele>
        <time>2017-08-20T08:55:12Z</time>
      </trkpt>
      <trkpt lat="45.94621" lon="4.84185">
        <ele>269</ele>
        <time>2017-08-20T08:55:13Z</time>
      </trkpt>
      <trkpt lat="45.94622" lon="4.84192">
        <ele>269</ele>
        <time>2017-08-20T08:55:14Z</time>
      </trkpt>
      <trkpt lat="45.94623" lon="4.842">
        <ele>269</ele>
        <time>2017-08-20T08:55:15Z</time>
      </trkpt>
      <trkpt lat="45.94624" lon="4.84208">
        <ele>269</ele>
        <time>2017-08-20T08:55:16Z</time>
      </trkpt>
      <trkpt lat="45.94625" lon="4.84216">
        <ele>269</ele>
        <time>2017-08-20T08:55:17Z</time>
      </trkpt>
      <trkpt lat="45.94626" lon="4.84224">
        <ele>269</ele>
        <time>2017-08-20T08:55:18Z</time>
      </trkpt>
      <trkpt lat="45.94627" lon="4.84232">
        <ele>269</ele>
        <time>2017-08-20T08:55:19Z</time>
      </trkpt>
      <trkpt lat="45.94628" lon="4.84239">
        <ele>269</ele>
        <time>2017-08-20T08:55:20Z</time>
      </trkpt>
      <trkpt lat="45.94629" lon="4.84247">
        <ele>269</ele>
        <time>2017-08-20T08:55:21Z</time>
      </trkpt>
      <trkpt lat="45.9463" lon="4.84254">
        <ele>269</ele>
        <time>2017-08-20T08:55:22Z</time>
      </trkpt>
      <trkpt lat="45.94631" lon="4.84261">
        <ele>269</ele>
        <time>2017-08-20T08:55:23Z</time>
      </trkpt>
      <trkpt lat="45.94632" lon="4.84268">
        <ele>269</ele>
        <time>2017-08-20T08:55:24Z</time>
      </trkpt>
      <trkpt lat="45.94633" lon="4.84274">
        <ele>269</ele>
        <time>2017-08-20T08:55:25Z</time>
      </trkpt>
      <trkpt lat="45.94634" lon="4.8428">
        <ele>269</ele>
        <time>2017-08-20T08:55:26Z</time>
      </trkpt>
      <trkpt lat="45.94636" lon="4.84292">
        <ele>269</ele>
        <time>2017-08-20T08:55:28Z</time>
      </trkpt>
      <trkpt lat="45.94637" lon="4.84298">
        <ele>269</ele>
        <time>2017-08-20T08:55:29Z</time>
      </trkpt>
      <trkpt lat="45.94638" lon="4.84304">
        <ele>269</ele>
        <time>2017-08-20T08:55:30Z</time>
      </trkpt>
      <trkpt lat="45.94638" lon="4.84311">
        <ele>269</ele>
        <time>2017-08-20T08:55:31Z</time>
      </trkpt>
      <trkpt lat="45.9464" lon="4.84317">
        <ele>269</ele>
        <time>2017-08-20T08:55:32Z</time>
      </trkpt>
      <trkpt lat="45.9464" lon="4.84324">
        <ele>269</ele>
        <time>2017-08-20T08:55:33Z</time>
      </trkpt>
      <trkpt lat="45.94641" lon="4.84331">
        <ele>268</ele>
        <time>2017-08-20T08:55:34Z</time>
      </trkpt>
      <trkpt lat="45.94642" lon="4.84339">
        <ele>268</ele>
        <time>2017-08-20T08:55:35Z</time>
      </trkpt>
      <trkpt lat="45.94643" lon="4.84346">
        <ele>268</ele>
        <time>2017-08-20T08:55:36Z</time>
      </trkpt>
      <trkpt lat="45.94644" lon="4.84354">
        <ele>268</ele>
        <time>2017-08-20T08:55:37Z</time>
      </trkpt>
      <trkpt lat="45.94645" lon="4.84361">
        <ele>268</ele>
        <time>2017-08-20T08:55:38Z</time>
      </trkpt>
      <trkpt lat="45.94645" lon="4.84369">
        <ele>268</ele>
        <time>2017-08-20T08:55:39Z</time>
      </trkpt>
      <trkpt lat="45.94646" lon="4.84375">
        <ele>268</ele>
        <time>2017-08-20T08:55:40Z</time>
      </trkpt>
      <trkpt lat="45.94647" lon="4.84382">
        <ele>268</ele>
        <time>2017-08-20T08:55:41Z</time>
      </trkpt>
      <trkpt lat="45.94648" lon="4.84389">
        <ele>268</ele>
        <time>2017-08-20T08:55:42Z</time>
      </trkpt>
      <trkpt lat="45.94649" lon="4.84395">
        <ele>268</ele>
        <time>2017-08-20T08:55:43Z</time>
      </trkpt>
      <trkpt lat="45.94651" lon="4.84407">
        <ele>268</ele>
        <time>2017-08-20T08:55:45Z</time>
      </trkpt>
      <trkpt lat="45.94652" lon="4.84413">
        <ele>268</ele>
        <time>2017-08-20T08:55:46Z</time>
      </trkpt>
      <trkpt lat="45.94652" lon="4.84419">
        <ele>268</ele>
        <time>2017-08-20T08:55:47Z</time>
      </trkpt>
      <trkpt lat="45.94653" lon="4.84426">
        <ele>268</ele>
        <time>2017-08-20T08:55:48Z</time>
      </trkpt>
      <trkpt lat="45.94653" lon="4.84433">
        <ele>268</ele>
        <time>2017-08-20T08:55:49Z</time>
      </trkpt>
      <trkpt lat="45.94654" lon="4.8444">
        <ele>268</ele>
        <time>2017-08-20T08:55:50Z</time>
      </trkpt>
      <trkpt lat="45.94655" lon="4.84452">
        <ele>268</ele>
        <time>2017-08-20T08:55:52Z</time>
      </trkpt>
      <trkpt lat="45.94656" lon="4.84459">
        <ele>268</ele>
        <time>2017-08-20T08:55:53Z</time>
      </trkpt>
      <trkpt lat="45.94657" lon="4.84471">
        <ele>268</ele>
        <time>2017-08-20T08:55:55Z</time>
      </trkpt>
      <trkpt lat="45.94658" lon="4.84476">
        <ele>268</ele>
        <time>2017-08-20T08:55:56Z</time>
      </trkpt>
      <trkpt lat="45.94658" lon="4.84487">
        <ele>268</ele>
        <time>2017-08-20T08:55:58Z</time>
      </trkpt>
      <trkpt lat="45.94658" lon="4.84492">
        <ele>268</ele>
        <time>2017-08-20T08:55:59Z</time>
      </trkpt>
      <trkpt lat="45.94659" lon="4.84503">
        <ele>268</ele>
        <time>2017-08-20T08:56:01Z</time>
      </trkpt>
      <trkpt lat="45.94659" lon="4.84509">
        <ele>268</ele>
        <time>2017-08-20T08:56:02Z</time>
      </trkpt>
      <trkpt lat="45.94661" lon="4.84515">
        <ele>268</ele>
        <time>2017-08-20T08:56:03Z</time>
      </trkpt>
      <trkpt lat="45.94662" lon="4.84522">
        <ele>268</ele>
        <time>2017-08-20T08:56:04Z</time>
      </trkpt>
      <trkpt lat="45.94663" lon="4.8453">
        <ele>268</ele>
        <time>2017-08-20T08:56:05Z</time>
      </trkpt>
      <trkpt lat="45.94663" lon="4.84537">
        <ele>268</ele>
        <time>2017-08-20T08:56:06Z</time>
      </trkpt>
      <trkpt lat="45.94663" lon="4.84544">
        <ele>268</ele>
        <time>2017-08-20T08:56:07Z</time>
      </trkpt>
      <trkpt lat="45.94663" lon="4.8455">
        <ele>268</ele>
        <time>2017-08-20T08:56:08Z</time>
      </trkpt>
      <trkpt lat="45.94664" lon="4.84563">
        <ele>268</ele>
        <time>2017-08-20T08:56:10Z</time>
      </trkpt>
      <trkpt lat="45.94665" lon="4.84569">
        <ele>268</ele>
        <time>2017-08-20T08:56:11Z</time>
      </trkpt>
      <trkpt lat="45.94665" lon="4.84575">
        <ele>268</ele>
        <time>2017-08-20T08:56:12Z</time>
      </trkpt>
      <trkpt lat="45.94666" lon="4.84582">
        <ele>268</ele>
        <time>2017-08-20T08:56:13Z</time>
      </trkpt>
      <trkpt lat="45.94666" lon="4.84589">
        <ele>268</ele>
        <time>2017-08-20T08:56:14Z</time>
      </trkpt>
      <trkpt lat="45.94667" lon="4.84597">
        <ele>268</ele>
        <time>2017-08-20T08:56:15Z</time>
      </trkpt>
      <trkpt lat="45.94668" lon="4.84605">
        <ele>268</ele>
        <time>2017-08-20T08:56:16Z</time>
      </trkpt>
      <trkpt lat="45.94668" lon="4.84613">
        <ele>268</ele>
        <time>2017-08-20T08:56:17Z</time>
      </trkpt>
      <trkpt lat="45.94668" lon="4.84621">
        <ele>268</ele>
        <time>2017-08-20T08:56:18Z</time>
      </trkpt>
      <trkpt lat="45.94668" lon="4.84629">
        <ele>268</ele>
        <time>2017-08-20T08:56:19Z</time>
      </trkpt>
      <trkpt lat="45.94669" lon="4.84636">
        <ele>268</ele>
        <time>2017-08-20T08:56:20Z</time>
      </trkpt>
      <trkpt lat="45.94669" lon="4.84643">
        <ele>268</ele>
        <time>2017-08-20T08:56:21Z</time>
      </trkpt>
      <trkpt lat="45.94669" lon="4.84649">
        <ele>268</ele>
        <time>2017-08-20T08:56:22Z</time>
      </trkpt>
      <trkpt lat="45.94669" lon="4.84656">
        <ele>268</ele>
        <time>2017-08-20T08:56:23Z</time>
      </trkpt>
      <trkpt lat="45.94669" lon="4.84669">
        <ele>269</ele>
        <time>2017-08-20T08:56:25Z</time>
      </trkpt>
      <trkpt lat="45.9467" lon="4.84675">
        <ele>269</ele>
        <time>2017-08-20T08:56:26Z</time>
      </trkpt>
      <trkpt lat="45.9467" lon="4.84687">
        <ele>269</ele>
        <time>2017-08-20T08:56:28Z</time>
      </trkpt>
      <trkpt lat="45.9467" lon="4.84693">
        <ele>269</ele>
        <time>2017-08-20T08:56:29Z</time>
      </trkpt>
      <trkpt lat="45.9467" lon="4.847">
        <ele>269</ele>
        <time>2017-08-20T08:56:30Z</time>
      </trkpt>
      <trkpt lat="45.94671" lon="4.84707">
        <ele>269</ele>
        <time>2017-08-20T08:56:31Z</time>
      </trkpt>
      <trkpt lat="45.94671" lon="4.84714">
        <ele>269</ele>
        <time>2017-08-20T08:56:32Z</time>
      </trkpt>
      <trkpt lat="45.94672" lon="4.84721">
        <ele>269</ele>
        <time>2017-08-20T08:56:33Z</time>
      </trkpt>
      <trkpt lat="45.94672" lon="4.84729">
        <ele>269</ele>
        <time>2017-08-20T08:56:34Z</time>
      </trkpt>
      <trkpt lat="45.94673" lon="4.84737">
        <ele>269</ele>
        <time>2017-08-20T08:56:35Z</time>
      </trkpt>
      <trkpt lat="45.94673" lon="4.84744">
        <ele>269</ele>
        <time>2017-08-20T08:56:36Z</time>
      </trkpt>
      <trkpt lat="45.94674" lon="4.84752">
        <ele>269</ele>
        <time>2017-08-20T08:56:37Z</time>
      </trkpt>
      <trkpt lat="45.94674" lon="4.8476">
        <ele>269</ele>
        <time>2017-08-20T08:56:38Z</time>
      </trkpt>
      <trkpt lat="45.94674" lon="4.84768">
        <ele>269</ele>
        <time>2017-08-20T08:56:39Z</time>
      </trkpt>
      <trkpt lat="45.94675" lon="4.84776">
        <ele>269</ele>
        <time>2017-08-20T08:56:40Z</time>
      </trkpt>
      <trkpt lat="45.94675" lon="4.84784">
        <ele>269</ele>
        <time>2017-08-20T08:56:41Z</time>
      </trkpt>
      <trkpt lat="45.94676" lon="4.84791">
        <ele>269</ele>
        <time>2017-08-20T08:56:42Z</time>
      </trkpt>
      <trkpt lat="45.94677" lon="4.84799">
        <ele>268</ele>
        <time>2017-08-20T08:56:43Z</time>
      </trkpt>
      <trkpt lat="45.94678" lon="4.84807">
        <ele>268</ele>
        <time>2017-08-20T08:56:44Z</time>
      </trkpt>
      <trkpt lat="45.94678" lon="4.84814">
        <ele>268</ele>
        <time>2017-08-20T08:56:45Z</time>
      </trkpt>
      <trkpt lat="45.94679" lon="4.84822">
        <ele>268</ele>
        <time>2017-08-20T08:56:46Z</time>
      </trkpt>
      <trkpt lat="45.94679" lon="4.8483">
        <ele>268</ele>
        <time>2017-08-20T08:56:47Z</time>
      </trkpt>
      <trkpt lat="45.9468" lon="4.84838">
        <ele>268</ele>
        <time>2017-08-20T08:56:48Z</time>
      </trkpt>
      <trkpt lat="45.94681" lon="4.84845">
        <ele>268</ele>
        <time>2017-08-20T08:56:49Z</time>
      </trkpt>
      <trkpt lat="45.94681" lon="4.84853">
        <ele>268</ele>
        <time>2017-08-20T08:56:50Z</time>
      </trkpt>
      <trkpt lat="45.94682" lon="4.8486">
        <ele>268</ele>
        <time>2017-08-20T08:56:51Z</time>
      </trkpt>
      <trkpt lat="45.94683" lon="4.84866">
        <ele>268</ele>
        <time>2017-08-20T08:56:52Z</time>
      </trkpt>
      <trkpt lat="45.94683" lon="4.84873">
        <ele>268</ele>
        <time>2017-08-20T08:56:53Z</time>
      </trkpt>
      <trkpt lat="45.94684" lon="4.84885">
        <ele>268</ele>
        <time>2017-08-20T08:56:55Z</time>
      </trkpt>
      <trkpt lat="45.94685" lon="4.84891">
        <ele>268</ele>
        <time>2017-08-20T08:56:56Z</time>
      </trkpt>
      <trkpt lat="45.94685" lon="4.84898">
        <ele>268</ele>
        <time>2017-08-20T08:56:57Z</time>
      </trkpt>
      <trkpt lat="45.94686" lon="4.84905">
        <ele>269</ele>
        <time>2017-08-20T08:56:58Z</time>
      </trkpt>
      <trkpt lat="45.94687" lon="4.84912">
        <ele>269</ele>
        <time>2017-08-20T08:56:59Z</time>
      </trkpt>
      <trkpt lat="45.94688" lon="4.8492">
        <ele>269</ele>
        <time>2017-08-20T08:57:00Z</time>
      </trkpt>
      <trkpt lat="45.94689" lon="4.84928">
        <ele>269</ele>
        <time>2017-08-20T08:57:01Z</time>
      </trkpt>
      <trkpt lat="45.9469" lon="4.84935">
        <ele>269</ele>
        <time>2017-08-20T08:57:02Z</time>
      </trkpt>
      <trkpt lat="45.94691" lon="4.84943">
        <ele>269</ele>
        <time>2017-08-20T08:57:03Z</time>
      </trkpt>
      <trkpt lat="45.94692" lon="4.8495">
        <ele>269</ele>
        <time>2017-08-20T08:57:04Z</time>
      </trkpt>
      <trkpt lat="45.94693" lon="4.84958">
        <ele>269</ele>
        <time>2017-08-20T08:57:05Z</time>
      </trkpt>
      <trkpt lat="45.94694" lon="4.84965">
        <ele>269</ele>
        <time>2017-08-20T08:57:06Z</time>
      </trkpt>
      <trkpt lat="45.94695" lon="4.84972">
        <ele>269</ele>
        <time>2017-08-20T08:57:07Z</time>
      </trkpt>
      <trkpt lat="45.94696" lon="4.84978">
        <ele>269</ele>
        <time>2017-08-20T08:57:08Z</time>
      </trkpt>
      <trkpt lat="45.94698" lon="4.84991">
        <ele>269</ele>
        <time>2017-08-20T08:57:10Z</time>
      </trkpt>
      <trkpt lat="45.94698" lon="4.84997">
        <ele>269</ele>
        <time>2017-08-20T08:57:11Z</time>
      </trkpt>
      <trkpt lat="45.94699" lon="4.85003">
        <ele>269</ele>
        <time>2017-08-20T08:57:12Z</time>
      </trkpt>
      <trkpt lat="45.94699" lon="4.8501">
        <ele>269</ele>
        <time>2017-08-20T08:57:13Z</time>
      </trkpt>
      <trkpt lat="45.947" lon="4.85017">
        <ele>269</ele>
        <time>2017-08-20T08:57:14Z</time>
      </trkpt>
      <trkpt lat="45.94701" lon="4.85025">
        <ele>269</ele>
        <time>2017-08-20T08:57:15Z</time>
      </trkpt>
      <trkpt lat="45.94701" lon="4.85032">
        <ele>269</ele>
        <time>2017-08-20T08:57:16Z</time>
      </trkpt>
      <trkpt lat="45.94702" lon="4.8504">
        <ele>269</ele>
        <time>2017-08-20T08:57:17Z</time>
      </trkpt>
      <trkpt lat="45.94703" lon="4.85047">
        <ele>269</ele>
        <time>2017-08-20T08:57:18Z</time>
      </trkpt>
      <trkpt lat="45.94703" lon="4.85054">
        <ele>269</ele>
        <time>2017-08-20T08:57:19Z</time>
      </trkpt>
      <trkpt lat="45.94703" lon="4.8506">
        <ele>269</ele>
        <time>2017-08-20T08:57:20Z</time>
      </trkpt>
      <trkpt lat="45.94704" lon="4.85066">
        <ele>269</ele>
        <time>2017-08-20T08:57:21Z</time>
      </trkpt>
      <trkpt lat="45.94705" lon="4.85078">
        <ele>269</ele>
        <time>2017-08-20T08:57:23Z</time>
      </trkpt>
      <trkpt lat="45.94706" lon="4.85085">
        <ele>269</ele>
        <time>2017-08-20T08:57:24Z</time>
      </trkpt>
      <trkpt lat="45.94707" lon="4.85092">
        <ele>269</ele>
        <time>2017-08-20T08:57:25Z</time>
      </trkpt>
      <trkpt lat="45.94708" lon="4.85099">
        <ele>269</ele>
        <time>2017-08-20T08:57:26Z</time>
      </trkpt>
      <trkpt lat="45.94709" lon="4.85106">
        <ele>269</ele>
        <time>2017-08-20T08:57:27Z</time>
      </trkpt>
      <trkpt lat="45.9471" lon="4.85114">
        <ele>269</ele>
        <time>2017-08-20T08:57:28Z</time>
      </trkpt>
      <trkpt lat="45.94711" lon="4.85121">
        <ele>269</ele>
        <time>2017-08-20T08:57:29Z</time>
      </trkpt>
      <trkpt lat="45.94711" lon="4.85129">
        <ele>269</ele>
        <time>2017-08-20T08:57:30Z</time>
      </trkpt>
      <trkpt lat="45.94712" lon="4.85137">
        <ele>269</ele>
        <time>2017-08-20T08:57:31Z</time>
      </trkpt>
      <trkpt lat="45.94713" lon="4.85146">
        <ele>269</ele>
        <time>2017-08-20T08:57:32Z</time>
      </trkpt>
      <trkpt lat="45.94714" lon="4.85154">
        <ele>269</ele>
        <time>2017-08-20T08:57:33Z</time>
      </trkpt>
      <trkpt lat="45.94715" lon="4.85163">
        <ele>269</ele>
        <time>2017-08-20T08:57:34Z</time>
      </trkpt>
      <trkpt lat="45.94716" lon="4.85171">
        <ele>269</ele>
        <time>2017-08-20T08:57:35Z</time>
      </trkpt>
      <trkpt lat="45.94717" lon="4.85179">
        <ele>269</ele>
        <time>2017-08-20T08:57:36Z</time>
      </trkpt>
      <trkpt lat="45.94718" lon="4.85187">
        <ele>269</ele>
        <time>2017-08-20T08:57:37Z</time>
      </trkpt>
      <trkpt lat="45.94719" lon="4.85194">
        <ele>269</ele>
        <time>2017-08-20T08:57:38Z</time>
      </trkpt>
      <trkpt lat="45.9472" lon="4.85201">
        <ele>269</ele>
        <time>2017-08-20T08:57:39Z</time>
      </trkpt>
      <trkpt lat="45.9472" lon="4.85208">
        <ele>269</ele>
        <time>2017-08-20T08:57:40Z</time>
      </trkpt>
      <trkpt lat="45.94721" lon="4.85215">
        <ele>269</ele>
        <time>2017-08-20T08:57:41Z</time>
      </trkpt>
      <trkpt lat="45.94721" lon="4.85221">
        <ele>269</ele>
        <time>2017-08-20T08:57:42Z</time>
      </trkpt>
      <trkpt lat="45.94722" lon="4.85233">
        <ele>269</ele>
        <time>2017-08-20T08:57:44Z</time>
      </trkpt>
      <trkpt lat="45.94723" lon="4.85239">
        <ele>269</ele>
        <time>2017-08-20T08:57:45Z</time>
      </trkpt>
      <trkpt lat="45.94723" lon="4.85245">
        <ele>269</ele>
        <time>2017-08-20T08:57:46Z</time>
      </trkpt>
      <trkpt lat="45.94724" lon="4.85252">
        <ele>269</ele>
        <time>2017-08-20T08:57:47Z</time>
      </trkpt>
      <trkpt lat="45.94725" lon="4.85259">
        <ele>269</ele>
        <time>2017-08-20T08:57:48Z</time>
      </trkpt>
      <trkpt lat="45.94726" lon="4.85266">
        <ele>269</ele>
        <time>2017-08-20T08:57:49Z</time>
      </trkpt>
      <trkpt lat="45.94727" lon="4.85273">
        <ele>269</ele>
        <time>2017-08-20T08:57:50Z</time>
      </trkpt>
      <trkpt lat="45.94728" lon="4.8528">
        <ele>269</ele>
        <time>2017-08-20T08:57:51Z</time>
      </trkpt>
      <trkpt lat="45.94728" lon="4.85289">
        <ele>269</ele>
        <time>2017-08-20T08:57:52Z</time>
      </trkpt>
      <trkpt lat="45.94729" lon="4.85297">
        <ele>270</ele>
        <time>2017-08-20T08:57:53Z</time>
      </trkpt>
      <trkpt lat="45.9473" lon="4.85305">
        <ele>270</ele>
        <time>2017-08-20T08:57:54Z</time>
      </trkpt>
      <trkpt lat="45.94731" lon="4.85313">
        <ele>270</ele>
        <time>2017-08-20T08:57:55Z</time>
      </trkpt>
      <trkpt lat="45.94731" lon="4.85322">
        <ele>270</ele>
        <time>2017-08-20T08:57:56Z</time>
      </trkpt>
      <trkpt lat="45.94732" lon="4.8533">
        <ele>270</ele>
        <time>2017-08-20T08:57:57Z</time>
      </trkpt>
      <trkpt lat="45.94733" lon="4.85337">
        <ele>271</ele>
        <time>2017-08-20T08:57:58Z</time>
      </trkpt>
      <trkpt lat="45.94734" lon="4.85344">
        <ele>271</ele>
        <time>2017-08-20T08:57:59Z</time>
      </trkpt>
      <trkpt lat="45.94735" lon="4.85351">
        <ele>271</ele>
        <time>2017-08-20T08:58:00Z</time>
      </trkpt>
      <trkpt lat="45.94735" lon="4.85358">
        <ele>271</ele>
        <time>2017-08-20T08:58:01Z</time>
      </trkpt>
      <trkpt lat="45.94737" lon="4.85365">
        <ele>271</ele>
        <time>2017-08-20T08:58:02Z</time>
      </trkpt>
      <trkpt lat="45.94738" lon="4.85371">
        <ele>271</ele>
        <time>2017-08-20T08:58:03Z</time>
      </trkpt>
      <trkpt lat="45.94738" lon="4.85378">
        <ele>271</ele>
        <time>2017-08-20T08:58:04Z</time>
      </trkpt>
      <trkpt lat="45.94739" lon="4.85386">
        <ele>272</ele>
        <time>2017-08-20T08:58:05Z</time>
      </trkpt>
      <trkpt lat="45.9474" lon="4.85393">
        <ele>272</ele>
        <time>2017-08-20T08:58:06Z</time>
      </trkpt>
      <trkpt lat="45.94741" lon="4.85401">
        <ele>272</ele>
        <time>2017-08-20T08:58:07Z</time>
      </trkpt>
      <trkpt lat="45.94741" lon="4.85409">
        <ele>272</ele>
        <time>2017-08-20T08:58:08Z</time>
      </trkpt>
      <trkpt lat="45.94742" lon="4.85416">
        <ele>273</ele>
        <time>2017-08-20T08:58:09Z</time>
      </trkpt>
      <trkpt lat="45.94743" lon="4.85424">
        <ele>273</ele>
        <time>2017-08-20T08:58:10Z</time>
      </trkpt>
      <trkpt lat="45.94744" lon="4.85431">
        <ele>273</ele>
        <time>2017-08-20T08:58:11Z</time>
      </trkpt>
      <trkpt lat="45.94744" lon="4.85439">
        <ele>274</ele>
        <time>2017-08-20T08:58:12Z</time>
      </trkpt>
      <trkpt lat="45.94745" lon="4.85447">
        <ele>274</ele>
        <time>2017-08-20T08:58:13Z</time>
      </trkpt>
      <trkpt lat="45.94745" lon="4.85454">
        <ele>274</ele>
        <time>2017-08-20T08:58:14Z</time>
      </trkpt>
      <trkpt lat="45.94746" lon="4.85461">
        <ele>274</ele>
        <time>2017-08-20T08:58:15Z</time>
      </trkpt>
      <trkpt lat="45.94747" lon="4.85468">
        <ele>274</ele>
        <time>2017-08-20T08:58:16Z</time>
      </trkpt>
      <trkpt lat="45.94748" lon="4.85474">
        <ele>275</ele>
        <time>2017-08-20T08:58:17Z</time>
      </trkpt>
      <trkpt lat="45.94748" lon="4.85482">
        <ele>275</ele>
        <time>2017-08-20T08:58:18Z</time>
      </trkpt>
      <trkpt lat="45.94749" lon="4.85488">
        <ele>275</ele>
        <time>2017-08-20T08:58:19Z</time>
      </trkpt>
      <trkpt lat="45.9475" lon="4.85495">
        <ele>276</ele>
        <time>2017-08-20T08:58:20Z</time>
      </trkpt>
      <trkpt lat="45.94751" lon="4.85502">
        <ele>276</ele>
        <time>2017-08-20T08:58:21Z</time>
      </trkpt>
      <trkpt lat="45.94752" lon="4.85508">
        <ele>277</ele>
        <time>2017-08-20T08:58:22Z</time>
      </trkpt>
      <trkpt lat="45.94752" lon="4.85515">
        <ele>277</ele>
        <time>2017-08-20T08:58:23Z</time>
      </trkpt>
      <trkpt lat="45.94754" lon="4.85522">
        <ele>277</ele>
        <time>2017-08-20T08:58:24Z</time>
      </trkpt>
      <trkpt lat="45.94755" lon="4.85529">
        <ele>278</ele>
        <time>2017-08-20T08:58:25Z</time>
      </trkpt>
      <trkpt lat="45.94755" lon="4.85535">
        <ele>278</ele>
        <time>2017-08-20T08:58:26Z</time>
      </trkpt>
      <trkpt lat="45.94756" lon="4.85542">
        <ele>278</ele>
        <time>2017-08-20T08:58:27Z</time>
      </trkpt>
      <trkpt lat="45.94757" lon="4.85548">
        <ele>278</ele>
        <time>2017-08-20T08:58:28Z</time>
      </trkpt>
      <trkpt lat="45.94759" lon="4.85554">
        <ele>278</ele>
        <time>2017-08-20T08:58:29Z</time>
      </trkpt>
      <trkpt lat="45.9476" lon="4.85561">
        <ele>278</ele>
        <time>2017-08-20T08:58:30Z</time>
      </trkpt>
      <trkpt lat="45.94761" lon="4.85567">
        <ele>279</ele>
        <time>2017-08-20T08:58:31Z</time>
      </trkpt>
      <trkpt lat="45.94763" lon="4.85574">
        <ele>279</ele>
        <time>2017-08-20T08:58:32Z</time>
      </trkpt>
      <trkpt lat="45.94764" lon="4.8558">
        <ele>279</ele>
        <time>2017-08-20T08:58:33Z</time>
      </trkpt>
      <trkpt lat="45.94765" lon="4.85586">
        <ele>280</ele>
        <time>2017-08-20T08:58:34Z</time>
      </trkpt>
      <trkpt lat="45.94766" lon="4.85593">
        <ele>280</ele>
        <time>2017-08-20T08:58:35Z</time>
      </trkpt>
      <trkpt lat="45.94767" lon="4.85599">
        <ele>280</ele>
        <time>2017-08-20T08:58:36Z</time>
      </trkpt>
      <trkpt lat="45.94769" lon="4.85606">
        <ele>280</ele>
        <time>2017-08-20T08:58:37Z</time>
      </trkpt>
      <trkpt lat="45.9477" lon="4.85612">
        <ele>280</ele>
        <time>2017-08-20T08:58:38Z</time>
      </trkpt>
      <trkpt lat="45.94772" lon="4.85618">
        <ele>280</ele>
        <time>2017-08-20T08:58:39Z</time>
      </trkpt>
      <trkpt lat="45.94774" lon="4.85624">
        <ele>280</ele>
        <time>2017-08-20T08:58:40Z</time>
      </trkpt>
      <trkpt lat="45.94775" lon="4.8563">
        <ele>280</ele>
        <time>2017-08-20T08:58:41Z</time>
      </trkpt>
      <trkpt lat="45.94778" lon="4.85641">
        <ele>281</ele>
        <time>2017-08-20T08:58:43Z</time>
      </trkpt>
      <trkpt lat="45.94779" lon="4.85646">
        <ele>281</ele>
        <time>2017-08-20T08:58:44Z</time>
      </trkpt>
      <trkpt lat="45.94782" lon="4.85657">
        <ele>281</ele>
        <time>2017-08-20T08:58:46Z</time>
      </trkpt>
      <trkpt lat="45.94783" lon="4.85662">
        <ele>281</ele>
        <time>2017-08-20T08:58:47Z</time>
      </trkpt>
      <trkpt lat="45.94786" lon="4.85672">
        <ele>280</ele>
        <time>2017-08-20T08:58:49Z</time>
      </trkpt>
      <trkpt lat="45.94787" lon="4.85677">
        <ele>280</ele>
        <time>2017-08-20T08:58:50Z</time>
      </trkpt>
      <trkpt lat="45.94789" lon="4.85686">
        <ele>280</ele>
        <time>2017-08-20T08:58:52Z</time>
      </trkpt>
      <trkpt lat="45.9479" lon="4.85691">
        <ele>280</ele>
        <time>2017-08-20T08:58:53Z</time>
      </trkpt>
      <trkpt lat="45.94792" lon="4.85702">
        <ele>280</ele>
        <time>2017-08-20T08:58:55Z</time>
      </trkpt>
      <trkpt lat="45.94793" lon="4.85707">
        <ele>280</ele>
        <time>2017-08-20T08:58:56Z</time>
      </trkpt>
      <trkpt lat="45.94796" lon="4.85718">
        <ele>280</ele>
        <time>2017-08-20T08:58:58Z</time>
      </trkpt>
      <trkpt lat="45.94797" lon="4.85723">
        <ele>280</ele>
        <time>2017-08-20T08:58:59Z</time>
      </trkpt>
      <trkpt lat="45.948" lon="4.85734">
        <ele>280</ele>
        <time>2017-08-20T08:59:01Z</time>
      </trkpt>
      <trkpt lat="45.94801" lon="4.8574">
        <ele>280</ele>
        <time>2017-08-20T08:59:02Z</time>
      </trkpt>
      <trkpt lat="45.94805" lon="4.85751">
        <ele>278</ele>
        <time>2017-08-20T08:59:04Z</time>
      </trkpt>
      <trkpt lat="45.94806" lon="4.85757">
        <ele>278</ele>
        <time>2017-08-20T08:59:05Z</time>
      </trkpt>
      <trkpt lat="45.94808" lon="4.85763">
        <ele>278</ele>
        <time>2017-08-20T08:59:06Z</time>
      </trkpt>
      <trkpt lat="45.94809" lon="4.85769">
        <ele>278</ele>
        <time>2017-08-20T08:59:07Z</time>
      </trkpt>
      <trkpt lat="45.94811" lon="4.85775">
        <ele>278</ele>
        <time>2017-08-20T08:59:08Z</time>
      </trkpt>
      <trkpt lat="45.94813" lon="4.85782">
        <ele>278</ele>
        <time>2017-08-20T08:59:09Z</time>
      </trkpt>
      <trkpt lat="45.94815" lon="4.8579">
        <ele>278</ele>
        <time>2017-08-20T08:59:10Z</time>
      </trkpt>
      <trkpt lat="45.94817" lon="4.85796">
        <ele>278</ele>
        <time>2017-08-20T08:59:11Z</time>
      </trkpt>
      <trkpt lat="45.94819" lon="4.85803">
        <ele>278</ele>
        <time>2017-08-20T08:59:12Z</time>
      </trkpt>
      <trkpt lat="45.94821" lon="4.85809">
        <ele>278</ele>
        <time>2017-08-20T08:59:13Z</time>
      </trkpt>
      <trkpt lat="45.94822" lon="4.85816">
        <ele>278</ele>
        <time>2017-08-20T08:59:14Z</time>
      </trkpt>
      <trkpt lat="45.94824" lon="4.85822">
        <ele>278</ele>
        <time>2017-08-20T08:59:15Z</time>
      </trkpt>
      <trkpt lat="45.94825" lon="4.85828">
        <ele>277</ele>
        <time>2017-08-20T08:59:16Z</time>
      </trkpt>
      <trkpt lat="45.94827" lon="4.85834">
        <ele>277</ele>
        <time>2017-08-20T08:59:17Z</time>
      </trkpt>
      <trkpt lat="45.94828" lon="4.85841">
        <ele>277</ele>
        <time>2017-08-20T08:59:18Z</time>
      </trkpt>
      <trkpt lat="45.9483" lon="4.85847">
        <ele>277</ele>
        <time>2017-08-20T08:59:19Z</time>
      </trkpt>
      <trkpt lat="45.94832" lon="4.85853">
        <ele>277</ele>
        <time>2017-08-20T08:59:20Z</time>
      </trkpt>
      <trkpt lat="45.94834" lon="4.85859">
        <ele>276</ele>
        <time>2017-08-20T08:59:21Z</time>
      </trkpt>
      <trkpt lat="45.94837" lon="4.85871">
        <ele>276</ele>
        <time>2017-08-20T08:59:23Z</time>
      </trkpt>
      <trkpt lat="45.94838" lon="4.85877">
        <ele>276</ele>
        <time>2017-08-20T08:59:24Z</time>
      </trkpt>
      <trkpt lat="45.9484" lon="4.85883">
        <ele>276</ele>
        <time>2017-08-20T08:59:25Z</time>
      </trkpt>
      <trkpt lat="45.94841" lon="4.85889">
        <ele>276</ele>
        <time>2017-08-20T08:59:26Z</time>
      </trkpt>
      <trkpt lat="45.94843" lon="4.85896">
        <ele>276</ele>
        <time>2017-08-20T08:59:27Z</time>
      </trkpt>
      <trkpt lat="45.94845" lon="4.85903">
        <ele>276</ele>
        <time>2017-08-20T08:59:28Z</time>
      </trkpt>
      <trkpt lat="45.94847" lon="4.8591">
        <ele>275</ele>
        <time>2017-08-20T08:59:29Z</time>
      </trkpt>
      <trkpt lat="45.9485" lon="4.85917">
        <ele>275</ele>
        <time>2017-08-20T08:59:30Z</time>
      </trkpt>
      <trkpt lat="45.94851" lon="4.85924">
        <ele>275</ele>
        <time>2017-08-20T08:59:31Z</time>
      </trkpt>
      <trkpt lat="45.94853" lon="4.85931">
        <ele>275</ele>
        <time>2017-08-20T08:59:32Z</time>
      </trkpt>
      <trkpt lat="45.94855" lon="4.85938">
        <ele>275</ele>
        <time>2017-08-20T08:59:33Z</time>
      </trkpt>
      <trkpt lat="45.94856" lon="4.85944">
        <ele>275</ele>
        <time>2017-08-20T08:59:34Z</time>
      </trkpt>
      <trkpt lat="45.94858" lon="4.85951">
        <ele>275</ele>
        <time>2017-08-20T08:59:35Z</time>
      </trkpt>
      <trkpt lat="45.9486" lon="4.85957">
        <ele>275</ele>
        <time>2017-08-20T08:59:36Z</time>
      </trkpt>
      <trkpt lat="45.94861" lon="4.85964">
        <ele>275</ele>
        <time>2017-08-20T08:59:37Z</time>
      </trkpt>
      <trkpt lat="45.94862" lon="4.8597">
        <ele>275</ele>
        <time>2017-08-20T08:59:38Z</time>
      </trkpt>
      <trkpt lat="45.94865" lon="4.85982">
        <ele>275</ele>
        <time>2017-08-20T08:59:40Z</time>
      </trkpt>
      <trkpt lat="45.94867" lon="4.85988">
        <ele>275</ele>
        <time>2017-08-20T08:59:41Z</time>
      </trkpt>
      <trkpt lat="45.94869" lon="4.85995">
        <ele>275</ele>
        <time>2017-08-20T08:59:42Z</time>
      </trkpt>
      <trkpt lat="45.94871" lon="4.86002">
        <ele>274</ele>
        <time>2017-08-20T08:59:43Z</time>
      </trkpt>
      <trkpt lat="45.94873" lon="4.8601">
        <ele>274</ele>
        <time>2017-08-20T08:59:44Z</time>
      </trkpt>
      <trkpt lat="45.94875" lon="4.86017">
        <ele>274</ele>
        <time>2017-08-20T08:59:45Z</time>
      </trkpt>
      <trkpt lat="45.94877" lon="4.86025">
        <ele>274</ele>
        <time>2017-08-20T08:59:46Z</time>
      </trkpt>
      <trkpt lat="45.94879" lon="4.86032">
        <ele>274</ele>
        <time>2017-08-20T08:59:47Z</time>
      </trkpt>
      <trkpt lat="45.94881" lon="4.86039">
        <ele>274</ele>
        <time>2017-08-20T08:59:48Z</time>
      </trkpt>
      <trkpt lat="45.94882" lon="4.86046">
        <ele>274</ele>
        <time>2017-08-20T08:59:49Z</time>
      </trkpt>
      <trkpt lat="45.94884" lon="4.86052">
        <ele>274</ele>
        <time>2017-08-20T08:59:50Z</time>
      </trkpt>
      <trkpt lat="45.94886" lon="4.86058">
        <ele>274</ele>
        <time>2017-08-20T08:59:51Z</time>
      </trkpt>
      <trkpt lat="45.94888" lon="4.86064">
        <ele>274</ele>
        <time>2017-08-20T08:59:52Z</time>
      </trkpt>
      <trkpt lat="45.9489" lon="4.8607">
        <ele>274</ele>
        <time>2017-08-20T08:59:53Z</time>
      </trkpt>
      <trkpt lat="45.94892" lon="4.86076">
        <ele>274</ele>
        <time>2017-08-20T08:59:54Z</time>
      </trkpt>
      <trkpt lat="45.94895" lon="4.86083">
        <ele>274</ele>
        <time>2017-08-20T08:59:55Z</time>
      </trkpt>
      <trkpt lat="45.94898" lon="4.8609">
        <ele>274</ele>
        <time>2017-08-20T08:59:56Z</time>
      </trkpt>
      <trkpt lat="45.949" lon="4.86097">
        <ele>274</ele>
        <time>2017-08-20T08:59:57Z</time>
      </trkpt>
      <trkpt lat="45.94902" lon="4.86103">
        <ele>274</ele>
        <time>2017-08-20T08:59:58Z</time>
      </trkpt>
      <trkpt lat="45.94904" lon="4.8611">
        <ele>274</ele>
        <time>2017-08-20T08:59:59Z</time>
      </trkpt>
      <trkpt lat="45.94907" lon="4.86116">
        <ele>274</ele>
        <time>2017-08-20T09:00:00Z</time>
      </trkpt>
      <trkpt lat="45.9491" lon="4.86122">
        <ele>274</ele>
        <time>2017-08-20T09:00:01Z</time>
      </trkpt>
      <trkpt lat="45.94913" lon="4.86127">
        <ele>274</ele>
        <time>2017-08-20T09:00:02Z</time>
      </trkpt>
      <trkpt lat="45.94916" lon="4.86133">
        <ele>274</ele>
        <time>2017-08-20T09:00:03Z</time>
      </trkpt>
      <trkpt lat="45.9492" lon="4.86138">
        <ele>273</ele>
        <time>2017-08-20T09:00:04Z</time>
      </trkpt>
      <trkpt lat="45.94923" lon="4.86142">
        <ele>273</ele>
        <time>2017-08-20T09:00:05Z</time>
      </trkpt>
      <trkpt lat="45.94927" lon="4.86147">
        <ele>273</ele>
        <time>2017-08-20T09:00:06Z</time>
      </trkpt>
      <trkpt lat="45.9493" lon="4.86152">
        <ele>273</ele>
        <time>2017-08-20T09:00:07Z</time>
      </trkpt>
      <trkpt lat="45.94934" lon="4.86156">
        <ele>273</ele>
        <time>2017-08-20T09:00:08Z</time>
      </trkpt>
      <trkpt lat="45.94938" lon="4.86162">
        <ele>273</ele>
        <time>2017-08-20T09:00:09Z</time>
      </trkpt>
      <trkpt lat="45.94942" lon="4.86167">
        <ele>273</ele>
        <time>2017-08-20T09:00:10Z</time>
      </trkpt>
      <trkpt lat="45.94946" lon="4.86173">
        <ele>273</ele>
        <time>2017-08-20T09:00:11Z</time>
      </trkpt>
      <trkpt lat="45.9495" lon="4.86178">
        <ele>273</ele>
        <time>2017-08-20T09:00:12Z</time>
      </trkpt>
      <trkpt lat="45.94954" lon="4.86183">
        <ele>273</ele>
        <time>2017-08-20T09:00:13Z</time>
      </trkpt>
      <trkpt lat="45.94957" lon="4.86188">
        <ele>273</ele>
        <time>2017-08-20T09:00:14Z</time>
      </trkpt>
      <trkpt lat="45.94961" lon="4.86193">
        <ele>272</ele>
        <time>2017-08-20T09:00:15Z</time>
      </trkpt>
      <trkpt lat="45.94965" lon="4.86198">
        <ele>272</ele>
        <time>2017-08-20T09:00:16Z</time>
      </trkpt>
      <trkpt lat="45.94969" lon="4.86202">
        <ele>272</ele>
        <time>2017-08-20T09:00:17Z</time>
      </trkpt>
      <trkpt lat="45.94973" lon="4.86207">
        <ele>272</ele>
        <time>2017-08-20T09:00:18Z</time>
      </trkpt>
      <trkpt lat="45.94977" lon="4.86211">
        <ele>272</ele>
        <time>2017-08-20T09:00:19Z</time>
      </trkpt>
      <trkpt lat="45.94981" lon="4.86216">
        <ele>272</ele>
        <time>2017-08-20T09:00:20Z</time>
      </trkpt>
      <trkpt lat="45.94985" lon="4.8622">
        <ele>272</ele>
        <time>2017-08-20T09:00:21Z</time>
      </trkpt>
      <trkpt lat="45.94989" lon="4.86225">
        <ele>272</ele>
        <time>2017-08-20T09:00:22Z</time>
      </trkpt>
      <trkpt lat="45.94993" lon="4.8623">
        <ele>272</ele>
        <time>2017-08-20T09:00:23Z</time>
      </trkpt>
      <trkpt lat="45.94997" lon="4.86236">
        <ele>272</ele>
        <time>2017-08-20T09:00:24Z</time>
      </trkpt>
      <trkpt lat="45.95002" lon="4.86243">
        <ele>272</ele>
        <time>2017-08-20T09:00:25Z</time>
      </trkpt>
      <trkpt lat="45.95007" lon="4.86249">
        <ele>272</ele>
        <time>2017-08-20T09:00:26Z</time>
      </trkpt>
      <trkpt lat="45.95012" lon="4.86256">
        <ele>272</ele>
        <time>2017-08-20T09:00:27Z</time>
      </trkpt>
      <trkpt lat="45.95017" lon="4.86262">
        <ele>271</ele>
        <time>2017-08-20T09:00:28Z</time>
      </trkpt>
      <trkpt lat="45.95022" lon="4.86268">
        <ele>271</ele>
        <time>2017-08-20T09:00:29Z</time>
      </trkpt>
      <trkpt lat="45.95027" lon="4.86274">
        <ele>271</ele>
        <time>2017-08-20T09:00:30Z</time>
      </trkpt>
      <trkpt lat="45.95032" lon="4.8628">
        <ele>271</ele>
        <time>2017-08-20T09:00:31Z</time>
      </trkpt>
      <trkpt lat="45.95037" lon="4.86286">
        <ele>271</ele>
        <time>2017-08-20T09:00:32Z</time>
      </trkpt>
      <trkpt lat="45.95042" lon="4.86293">
        <ele>271</ele>
        <time>2017-08-20T09:00:33Z</time>
      </trkpt>
      <trkpt lat="45.95046" lon="4.86299">
        <ele>271</ele>
        <time>2017-08-20T09:00:34Z</time>
      </trkpt>
      <trkpt lat="45.95051" lon="4.86305">
        <ele>271</ele>
        <time>2017-08-20T09:00:35Z</time>
      </trkpt>
      <trkpt lat="45.95056" lon="4.86311">
        <ele>271</ele>
        <time>2017-08-20T09:00:36Z</time>
      </trkpt>
      <trkpt lat="45.9506" lon="4.86316">
        <ele>270</ele>
        <time>2017-08-20T09:00:37Z</time>
      </trkpt>
      <trkpt lat="45.95064" lon="4.86322">
        <ele>270</ele>
        <time>2017-08-20T09:00:38Z</time>
      </trkpt>
      <trkpt lat="45.95069" lon="4.86327">
        <ele>270</ele>
        <time>2017-08-20T09:00:39Z</time>
      </trkpt>
      <trkpt lat="45.95073" lon="4.86332">
        <ele>270</ele>
        <time>2017-08-20T09:00:40Z</time>
      </trkpt>
      <trkpt lat="45.95078" lon="4.86337">
        <ele>270</ele>
        <time>2017-08-20T09:00:41Z</time>
      </trkpt>
      <trkpt lat="45.95082" lon="4.86343">
        <ele>270</ele>
        <time>2017-08-20T09:00:42Z</time>
      </trkpt>
      <trkpt lat="45.95086" lon="4.86347">
        <ele>269</ele>
        <time>2017-08-20T09:00:43Z</time>
      </trkpt>
      <trkpt lat="45.9509" lon="4.86352">
        <ele>269</ele>
        <time>2017-08-20T09:00:44Z</time>
      </trkpt>
      <trkpt lat="45.95094" lon="4.86356">
        <ele>269</ele>
        <time>2017-08-20T09:00:45Z</time>
      </trkpt>
      <trkpt lat="45.95098" lon="4.86362">
        <ele>269</ele>
        <time>2017-08-20T09:00:46Z</time>
      </trkpt>
      <trkpt lat="45.95103" lon="4.86367">
        <ele>269</ele>
        <time>2017-08-20T09:00:47Z</time>
      </trkpt>
      <trkpt lat="45.95107" lon="4.86372">
        <ele>269</ele>
        <time>2017-08-20T09:00:48Z</time>
      </trkpt>
      <trkpt lat="45.95112" lon="4.86378">
        <ele>269</ele>
        <time>2017-08-20T09:00:49Z</time>
      </trkpt>
      <trkpt lat="45.95116" lon="4.86383">
        <ele>269</ele>
        <time>2017-08-20T09:00:50Z</time>
      </trkpt>
      <trkpt lat="45.95121" lon="4.86389">
        <ele>269</ele>
        <time>2017-08-20T09:00:51Z</time>
      </trkpt>
      <trkpt lat="45.95125" lon="4.86394">
        <ele>268</ele>
        <time>2017-08-20T09:00:52Z</time>
      </trkpt>
      <trkpt lat="45.95129" lon="4.86399">
        <ele>268</ele>
        <time>2017-08-20T09:00:53Z</time>
      </trkpt>
      <trkpt lat="45.95133" lon="4.86404">
        <ele>268</ele>
        <time>2017-08-20T09:00:54Z</time>
      </trkpt>
      <trkpt lat="45.95137" lon="4.86409">
        <ele>268</ele>
        <time>2017-08-20T09:00:55Z</time>
      </trkpt>
      <trkpt lat="45.95141" lon="4.86413">
        <ele>268</ele>
        <time>2017-08-20T09:00:56Z</time>
      </trkpt>
      <trkpt lat="45.95145" lon="4.86417">
        <ele>268</ele>
        <time>2017-08-20T09:00:57Z</time>
      </trkpt>
      <trkpt lat="45.95151" lon="4.86425">
        <ele>268</ele>
        <time>2017-08-20T09:00:59Z</time>
      </trkpt>
      <trkpt lat="45.95155" lon="4.8643">
        <ele>268</ele>
        <time>2017-08-20T09:01:00Z</time>
      </trkpt>
      <trkpt lat="45.95158" lon="4.86435">
        <ele>268</ele>
        <time>2017-08-20T09:01:01Z</time>
      </trkpt>
      <trkpt lat="45.95162" lon="4.8644">
        <ele>268</ele>
        <time>2017-08-20T09:01:02Z</time>
      </trkpt>
      <trkpt lat="45.95167" lon="4.86445">
        <ele>268</ele>
        <time>2017-08-20T09:01:03Z</time>
      </trkpt>
      <trkpt lat="45.95171" lon="4.8645">
        <ele>268</ele>
        <time>2017-08-20T09:01:04Z</time>
      </trkpt>
      <trkpt lat="45.95175" lon="4.86455">
        <ele>268</ele>
        <time>2017-08-20T09:01:05Z</time>
      </trkpt>
      <trkpt lat="45.95179" lon="4.8646">
        <ele>268</ele>
        <time>2017-08-20T09:01:06Z</time>
      </trkpt>
      <trkpt lat="45.95184" lon="4.86465">
        <ele>268</ele>
        <time>2017-08-20T09:01:07Z</time>
      </trkpt>
      <trkpt lat="45.95188" lon="4.8647">
        <ele>268</ele>
        <time>2017-08-20T09:01:08Z</time>
      </trkpt>
      <trkpt lat="45.95193" lon="4.86475">
        <ele>268</ele>
        <time>2017-08-20T09:01:09Z</time>
      </trkpt>
      <trkpt lat="45.95197" lon="4.86481">
        <ele>268</ele>
        <time>2017-08-20T09:01:10Z</time>
      </trkpt>
      <trkpt lat="45.95201" lon="4.86486">
        <ele>268</ele>
        <time>2017-08-20T09:01:11Z</time>
      </trkpt>
      <trkpt lat="45.95206" lon="4.86491">
        <ele>268</ele>
        <time>2017-08-20T09:01:12Z</time>
      </trkpt>
      <trkpt lat="45.95211" lon="4.86498">
        <ele>268</ele>
        <time>2017-08-20T09:01:13Z</time>
      </trkpt>
      <trkpt lat="45.95215" lon="4.86504">
        <ele>268</ele>
        <time>2017-08-20T09:01:14Z</time>
      </trkpt>
      <trkpt lat="45.9522" lon="4.86509">
        <ele>268</ele>
        <time>2017-08-20T09:01:15Z</time>
      </trkpt>
      <trkpt lat="45.95224" lon="4.86515">
        <ele>268</ele>
        <time>2017-08-20T09:01:16Z</time>
      </trkpt>
      <trkpt lat="45.95229" lon="4.86521">
        <ele>268</ele>
        <time>2017-08-20T09:01:17Z</time>
      </trkpt>
      <trkpt lat="45.95233" lon="4.86526">
        <ele>268</ele>
        <time>2017-08-20T09:01:18Z</time>
      </trkpt>
      <trkpt lat="45.95238" lon="4.86531">
        <ele>268</ele>
        <time>2017-08-20T09:01:19Z</time>
      </trkpt>
      <trkpt lat="45.95243" lon="4.86537">
        <ele>268</ele>
        <time>2017-08-20T09:01:20Z</time>
      </trkpt>
      <trkpt lat="45.95247" lon="4.86543">
        <ele>268</ele>
        <time>2017-08-20T09:01:21Z</time>
      </trkpt>
      <trkpt lat="45.95251" lon="4.86548">
        <ele>267</ele>
        <time>2017-08-20T09:01:22Z</time>
      </trkpt>
      <trkpt lat="45.95254" lon="4.86554">
        <ele>267</ele>
        <time>2017-08-20T09:01:23Z</time>
      </trkpt>
      <trkpt lat="45.95257" lon="4.8656">
        <ele>267</ele>
        <time>2017-08-20T09:01:24Z</time>
      </trkpt>
      <trkpt lat="45.9526" lon="4.86571">
        <ele>267</ele>
        <time>2017-08-20T09:01:26Z</time>
      </trkpt>
      <trkpt lat="45.95259" lon="4.86577">
        <ele>268</ele>
        <time>2017-08-20T09:01:27Z</time>
      </trkpt>
      <trkpt lat="45.95252" lon="4.86585">
        <ele>268</ele>
        <time>2017-08-20T09:01:29Z</time>
      </trkpt>
      <trkpt lat="45.95248" lon="4.86586">
        <ele>268</ele>
        <time>2017-08-20T09:01:30Z</time>
      </trkpt>
      <trkpt lat="45.9524" lon="4.86584">
        <ele>268</ele>
        <time>2017-08-20T09:01:32Z</time>
      </trkpt>
      <trkpt lat="45.95235" lon="4.86583">
        <ele>268</ele>
        <time>2017-08-20T09:01:33Z</time>
      </trkpt>
      <trkpt lat="45.95231" lon="4.86582">
        <ele>268</ele>
        <time>2017-08-20T09:01:34Z</time>
      </trkpt>
      <trkpt lat="45.95225" lon="4.8658">
        <ele>268</ele>
        <time>2017-08-20T09:01:35Z</time>
      </trkpt>
      <trkpt lat="45.95221" lon="4.86579">
        <ele>268</ele>
        <time>2017-08-20T09:01:36Z</time>
      </trkpt>
      <trkpt lat="45.95216" lon="4.86578">
        <ele>268</ele>
        <time>2017-08-20T09:01:37Z</time>
      </trkpt>
      <trkpt lat="45.95211" lon="4.86578">
        <ele>268</ele>
        <time>2017-08-20T09:01:38Z</time>
      </trkpt>
      <trkpt lat="45.95207" lon="4.86578">
        <ele>268</ele>
        <time>2017-08-20T09:01:39Z</time>
      </trkpt>
      <trkpt lat="45.95202" lon="4.86578">
        <ele>268</ele>
        <time>2017-08-20T09:01:40Z</time>
      </trkpt>
      <trkpt lat="45.95197" lon="4.86578">
        <ele>268</ele>
        <time>2017-08-20T09:01:41Z</time>
      </trkpt>
      <trkpt lat="45.95192" lon="4.86578">
        <ele>269</ele>
        <time>2017-08-20T09:01:42Z</time>
      </trkpt>
      <trkpt lat="45.95187" lon="4.86579">
        <ele>269</ele>
        <time>2017-08-20T09:01:43Z</time>
      </trkpt>
      <trkpt lat="45.95182" lon="4.8658">
        <ele>269</ele>
        <time>2017-08-20T09:01:44Z</time>
      </trkpt>
      <trkpt lat="45.95177" lon="4.8658">
        <ele>269</ele>
        <time>2017-08-20T09:01:45Z</time>
      </trkpt>
      <trkpt lat="45.95168" lon="4.8658">
        <ele>269</ele>
        <time>2017-08-20T09:01:47Z</time>
      </trkpt>
      <trkpt lat="45.95163" lon="4.8658">
        <ele>269</ele>
        <time>2017-08-20T09:01:48Z</time>
      </trkpt>
      <trkpt lat="45.95158" lon="4.86581">
        <ele>269</ele>
        <time>2017-08-20T09:01:49Z</time>
      </trkpt>
      <trkpt lat="45.95153" lon="4.86581">
        <ele>269</ele>
        <time>2017-08-20T09:01:50Z</time>
      </trkpt>
      <trkpt lat="45.95147" lon="4.86582">
        <ele>270</ele>
        <time>2017-08-20T09:01:51Z</time>
      </trkpt>
      <trkpt lat="45.95141" lon="4.86582">
        <ele>270</ele>
        <time>2017-08-20T09:01:52Z</time>
      </trkpt>
      <trkpt lat="45.95136" lon="4.86583">
        <ele>270</ele>
        <time>2017-08-20T09:01:53Z</time>
      </trkpt>
      <trkpt lat="45.9513" lon="4.86584">
        <ele>270</ele>
        <time>2017-08-20T09:01:54Z</time>
      </trkpt>
      <trkpt lat="45.95125" lon="4.86585">
        <ele>270</ele>
        <time>2017-08-20T09:01:55Z</time>
      </trkpt>
      <trkpt lat="45.95121" lon="4.86585">
        <ele>270</ele>
        <time>2017-08-20T09:01:56Z</time>
      </trkpt>
      <trkpt lat="45.95112" lon="4.86586">
        <ele>271</ele>
        <time>2017-08-20T09:01:58Z</time>
      </trkpt>
      <trkpt lat="45.95107" lon="4.86587">
        <ele>271</ele>
        <time>2017-08-20T09:01:59Z</time>
      </trkpt>
      <trkpt lat="45.95102" lon="4.86588">
        <ele>271</ele>
        <time>2017-08-20T09:02:00Z</time>
      </trkpt>
      <trkpt lat="45.95097" lon="4.86589">
        <ele>271</ele>
        <time>2017-08-20T09:02:01Z</time>
      </trkpt>
      <trkpt lat="45.95092" lon="4.86591">
        <ele>271</ele>
        <time>2017-08-20T09:02:02Z</time>
      </trkpt>
      <trkpt lat="45.95087" lon="4.86592">
        <ele>271</ele>
        <time>2017-08-20T09:02:03Z</time>
      </trkpt>
      <trkpt lat="45.95082" lon="4.86593">
        <ele>271</ele>
        <time>2017-08-20T09:02:04Z</time>
      </trkpt>
      <trkpt lat="45.95077" lon="4.86594">
        <ele>272</ele>
        <time>2017-08-20T09:02:05Z</time>
      </trkpt>
      <trkpt lat="45.95072" lon="4.86596">
        <ele>272</ele>
        <time>2017-08-20T09:02:06Z</time>
      </trkpt>
      <trkpt lat="45.95067" lon="4.86598">
        <ele>272</ele>
        <time>2017-08-20T09:02:07Z</time>
      </trkpt>
      <trkpt lat="45.95061" lon="4.866">
        <ele>272</ele>
        <time>2017-08-20T09:02:08Z</time>
      </trkpt>
      <trkpt lat="45.95056" lon="4.86602">
        <ele>272</ele>
        <time>2017-08-20T09:02:09Z</time>
      </trkpt>
      <trkpt lat="45.95051" lon="4.86604">
        <ele>272</ele>
        <time>2017-08-20T09:02:10Z</time>
      </trkpt>
      <trkpt lat="45.95046" lon="4.86605">
        <ele>272</ele>
        <time>2017-08-20T09:02:11Z</time>
      </trkpt>
      <trkpt lat="45.95037" lon="4.86607">
        <ele>273</ele>
        <time>2017-08-20T09:02:13Z</time>
      </trkpt>
      <trkpt lat="45.95033" lon="4.86607">
        <ele>273</ele>
        <time>2017-08-20T09:02:14Z</time>
      </trkpt>
      <trkpt lat="45.95025" lon="4.8661">
        <ele>273</ele>
        <time>2017-08-20T09:02:16Z</time>
      </trkpt>
      <trkpt lat="45.9502" lon="4.8661">
        <ele>273</ele>
        <time>2017-08-20T09:02:17Z</time>
      </trkpt>
      <trkpt lat="45.95016" lon="4.86611">
        <ele>273</ele>
        <time>2017-08-20T09:02:18Z</time>
      </trkpt>
      <trkpt lat="45.95011" lon="4.86612">
        <ele>273</ele>
        <time>2017-08-20T09:02:19Z</time>
      </trkpt>
      <trkpt lat="45.95006" lon="4.86613">
        <ele>273</ele>
        <time>2017-08-20T09:02:20Z</time>
      </trkpt>
      <trkpt lat="45.95002" lon="4.86614">
        <ele>273</ele>
        <time>2017-08-20T09:02:21Z</time>
      </trkpt>
      <trkpt lat="45.94997" lon="4.86614">
        <ele>275</ele>
        <time>2017-08-20T09:02:22Z</time>
      </trkpt>
      <trkpt lat="45.94992" lon="4.86615">
        <ele>275</ele>
        <time>2017-08-20T09:02:23Z</time>
      </trkpt>
      <trkpt lat="45.94983" lon="4.86616">
        <ele>275</ele>
        <time>2017-08-20T09:02:25Z</time>
      </trkpt>
      <trkpt lat="45.94979" lon="4.86617">
        <ele>275</ele>
        <time>2017-08-20T09:02:26Z</time>
      </trkpt>
      <trkpt lat="45.94972" lon="4.86619">
        <ele>275</ele>
        <time>2017-08-20T09:02:28Z</time>
      </trkpt>
      <trkpt lat="45.94968" lon="4.86621">
        <ele>275</ele>
        <time>2017-08-20T09:02:29Z</time>
      </trkpt>
      <trkpt lat="45.94961" lon="4.86627">
        <ele>275</ele>
        <time>2017-08-20T09:02:31Z</time>
      </trkpt>
      <trkpt lat="45.94957" lon="4.86631">
        <ele>276</ele>
        <time>2017-08-20T09:02:32Z</time>
      </trkpt>
      <trkpt lat="45.94954" lon="4.86635">
        <ele>276</ele>
        <time>2017-08-20T09:02:33Z</time>
      </trkpt>
      <trkpt lat="45.9495" lon="4.8664">
        <ele>276</ele>
        <time>2017-08-20T09:02:34Z</time>
      </trkpt>
      <trkpt lat="45.94947" lon="4.86645">
        <ele>276</ele>
        <time>2017-08-20T09:02:35Z</time>
      </trkpt>
      <trkpt lat="45.94945" lon="4.86651">
        <ele>276</ele>
        <time>2017-08-20T09:02:36Z</time>
      </trkpt>
      <trkpt lat="45.94943" lon="4.86657">
        <ele>276</ele>
        <time>2017-08-20T09:02:37Z</time>
      </trkpt>
      <trkpt lat="45.94942" lon="4.86664">
        <ele>276</ele>
        <time>2017-08-20T09:02:38Z</time>
      </trkpt>
      <trkpt lat="45.94941" lon="4.86671">
        <ele>276</ele>
        <time>2017-08-20T09:02:39Z</time>
      </trkpt>
      <trkpt lat="45.94942" lon="4.86678">
        <ele>276</ele>
        <time>2017-08-20T09:02:40Z</time>
      </trkpt>
      <trkpt lat="45.94943" lon="4.86685">
        <ele>276</ele>
        <time>2017-08-20T09:02:41Z</time>
      </trkpt>
      <trkpt lat="45.94944" lon="4.86692">
        <ele>276</ele>
        <time>2017-08-20T09:02:42Z</time>
      </trkpt>
      <trkpt lat="45.94945" lon="4.86698">
        <ele>276</ele>
        <time>2017-08-20T09:02:43Z</time>
      </trkpt>
      <trkpt lat="45.94946" lon="4.86705">
        <ele>275</ele>
        <time>2017-08-20T09:02:44Z</time>
      </trkpt>
      <trkpt lat="45.94949" lon="4.86717">
        <ele>275</ele>
        <time>2017-08-20T09:02:46Z</time>
      </trkpt>
      <trkpt lat="45.9495" lon="4.86723">
        <ele>275</ele>
        <time>2017-08-20T09:02:47Z</time>
      </trkpt>
      <trkpt lat="45.94955" lon="4.86733">
        <ele>275</ele>
        <time>2017-08-20T09:02:49Z</time>
      </trkpt>
      <trkpt lat="45.94957" lon="4.86738">
        <ele>275</ele>
        <time>2017-08-20T09:02:50Z</time>
      </trkpt>
      <trkpt lat="45.94962" lon="4.86748">
        <ele>275</ele>
        <time>2017-08-20T09:02:52Z</time>
      </trkpt>
      <trkpt lat="45.94964" lon="4.86754">
        <ele>275</ele>
        <time>2017-08-20T09:02:53Z</time>
      </trkpt>
      <trkpt lat="45.94967" lon="4.86759">
        <ele>275</ele>
        <time>2017-08-20T09:02:54Z</time>
      </trkpt>
      <trkpt lat="45.9497" lon="4.86764">
        <ele>275</ele>
        <time>2017-08-20T09:02:55Z</time>
      </trkpt>
      <trkpt lat="45.94973" lon="4.86769">
        <ele>275</ele>
        <time>2017-08-20T09:02:56Z</time>
      </trkpt>
      <trkpt lat="45.94976" lon="4.86775">
        <ele>275</ele>
        <time>2017-08-20T09:02:57Z</time>
      </trkpt>
      <trkpt lat="45.94979" lon="4.8678">
        <ele>275</ele>
        <time>2017-08-20T09:02:58Z</time>
      </trkpt>
      <trkpt lat="45.94982" lon="4.86785">
        <ele>275</ele>
        <time>2017-08-20T09:02:59Z</time>
      </trkpt>
      <trkpt lat="45.94985" lon="4.86791">
        <ele>276</ele>
        <time>2017-08-20T09:03:00Z</time>
      </trkpt>
      <trkpt lat="45.94988" lon="4.86796">
        <ele>276</ele>
        <time>2017-08-20T09:03:01Z</time>
      </trkpt>
      <trkpt lat="45.94993" lon="4.86805">
        <ele>276</ele>
        <time>2017-08-20T09:03:03Z</time>
      </trkpt>
      <trkpt lat="45.94995" lon="4.86811">
        <ele>276</ele>
        <time>2017-08-20T09:03:04Z</time>
      </trkpt>
      <trkpt lat="45.94997" lon="4.86817">
        <ele>276</ele>
        <time>2017-08-20T09:03:05Z</time>
      </trkpt>
      <trkpt lat="45.95" lon="4.86823">
        <ele>275</ele>
        <time>2017-08-20T09:03:06Z</time>
      </trkpt>
      <trkpt lat="45.95003" lon="4.8683">
        <ele>276</ele>
        <time>2017-08-20T09:03:07Z</time>
      </trkpt>
      <trkpt lat="45.95005" lon="4.86836">
        <ele>276</ele>
        <time>2017-08-20T09:03:08Z</time>
      </trkpt>
      <trkpt lat="45.95008" lon="4.86843">
        <ele>276</ele>
        <time>2017-08-20T09:03:09Z</time>
      </trkpt>
      <trkpt lat="45.9501" lon="4.86849">
        <ele>275</ele>
        <time>2017-08-20T09:03:10Z</time>
      </trkpt>
      <trkpt lat="45.95012" lon="4.86856">
        <ele>275</ele>
        <time>2017-08-20T09:03:11Z</time>
      </trkpt>
      <trkpt lat="45.95014" lon="4.86862">
        <ele>275</ele>
        <time>2017-08-20T09:03:12Z</time>
      </trkpt>
      <trkpt lat="45.95016" lon="4.86868">
        <ele>275</ele>
        <time>2017-08-20T09:03:13Z</time>
      </trkpt>
      <trkpt lat="45.95018" lon="4.86875">
        <ele>275</ele>
        <time>2017-08-20T09:03:14Z</time>
      </trkpt>
      <trkpt lat="45.9502" lon="4.86881">
        <ele>275</ele>
        <time>2017-08-20T09:03:15Z</time>
      </trkpt>
      <trkpt lat="45.95022" lon="4.86887">
        <ele>275</ele>
        <time>2017-08-20T09:03:16Z</time>
      </trkpt>
      <trkpt lat="45.95024" lon="4.86892">
        <ele>275</ele>
        <time>2017-08-20T09:03:17Z</time>
      </trkpt>
      <trkpt lat="45.95027" lon="4.86899">
        <ele>275</ele>
        <time>2017-08-20T09:03:18Z</time>
      </trkpt>
      <trkpt lat="45.95029" lon="4.86905">
        <ele>275</ele>
        <time>2017-08-20T09:03:19Z</time>
      </trkpt>
      <trkpt lat="45.9503" lon="4.86912">
        <ele>275</ele>
        <time>2017-08-20T09:03:20Z</time>
      </trkpt>
      <trkpt lat="45.95033" lon="4.86919">
        <ele>276</ele>
        <time>2017-08-20T09:03:21Z</time>
      </trkpt>
      <trkpt lat="45.95035" lon="4.86926">
        <ele>276</ele>
        <time>2017-08-20T09:03:22Z</time>
      </trkpt>
      <trkpt lat="45.95037" lon="4.86932">
        <ele>276</ele>
        <time>2017-08-20T09:03:23Z</time>
      </trkpt>
      <trkpt lat="45.95039" lon="4.86938">
        <ele>276</ele>
        <time>2017-08-20T09:03:24Z</time>
      </trkpt>
      <trkpt lat="45.95042" lon="4.86947">
        <ele>276</ele>
        <time>2017-08-20T09:03:26Z</time>
      </trkpt>
      <trkpt lat="45.95044" lon="4.86952">
        <ele>276</ele>
        <time>2017-08-20T09:03:27Z</time>
      </trkpt>
      <trkpt lat="45.95046" lon="4.86958">
        <ele>276</ele>
        <time>2017-08-20T09:03:28Z</time>
      </trkpt>
      <trkpt lat="45.95048" lon="4.86964">
        <ele>276</ele>
        <time>2017-08-20T09:03:29Z</time>
      </trkpt>
      <trkpt lat="45.95051" lon="4.8697">
        <ele>276</ele>
        <time>2017-08-20T09:03:30Z</time>
      </trkpt>
      <trkpt lat="45.95053" lon="4.86976">
        <ele>276</ele>
        <time>2017-08-20T09:03:31Z</time>
      </trkpt>
      <trkpt lat="45.95056" lon="4.86984">
        <ele>276</ele>
        <time>2017-08-20T09:03:32Z</time>
      </trkpt>
      <trkpt lat="45.95058" lon="4.86991">
        <ele>276</ele>
        <time>2017-08-20T09:03:33Z</time>
      </trkpt>
      <trkpt lat="45.95061" lon="4.86998">
        <ele>276</ele>
        <time>2017-08-20T09:03:34Z</time>
      </trkpt>
      <trkpt lat="45.95064" lon="4.87004">
        <ele>277</ele>
        <time>2017-08-20T09:03:35Z</time>
      </trkpt>
      <trkpt lat="45.95067" lon="4.87011">
        <ele>277</ele>
        <time>2017-08-20T09:03:36Z</time>
      </trkpt>
      <trkpt lat="45.95071" lon="4.87017">
        <ele>277</ele>
        <time>2017-08-20T09:03:37Z</time>
      </trkpt>
      <trkpt lat="45.95074" lon="4.87024">
        <ele>277</ele>
        <time>2017-08-20T09:03:38Z</time>
      </trkpt>
      <trkpt lat="45.95078" lon="4.87029">
        <ele>277</ele>
        <time>2017-08-20T09:03:39Z</time>
      </trkpt>
      <trkpt lat="45.95081" lon="4.87035">
        <ele>277</ele>
        <time>2017-08-20T09:03:40Z</time>
      </trkpt>
      <trkpt lat="45.95083" lon="4.87041">
        <ele>277</ele>
        <time>2017-08-20T09:03:41Z</time>
      </trkpt>
      <trkpt lat="45.95085" lon="4.87047">
        <ele>277</ele>
        <time>2017-08-20T09:03:42Z</time>
      </trkpt>
      <trkpt lat="45.95088" lon="4.87052">
        <ele>277</ele>
        <time>2017-08-20T09:03:43Z</time>
      </trkpt>
      <trkpt lat="45.9509" lon="4.87059">
        <ele>277</ele>
        <time>2017-08-20T09:03:44Z</time>
      </trkpt>
      <trkpt lat="45.95092" lon="4.87065">
        <ele>277</ele>
        <time>2017-08-20T09:03:45Z</time>
      </trkpt>
      <trkpt lat="45.95095" lon="4.87071">
        <ele>277</ele>
        <time>2017-08-20T09:03:46Z</time>
      </trkpt>
      <trkpt lat="45.95097" lon="4.87077">
        <ele>277</ele>
        <time>2017-08-20T09:03:47Z</time>
      </trkpt>
      <trkpt lat="45.95099" lon="4.87083">
        <ele>277</ele>
        <time>2017-08-20T09:03:48Z</time>
      </trkpt>
      <trkpt lat="45.951" lon="4.87089">
        <ele>277</ele>
        <time>2017-08-20T09:03:49Z</time>
      </trkpt>
      <trkpt lat="45.95103" lon="4.87096">
        <ele>277</ele>
        <time>2017-08-20T09:03:50Z</time>
      </trkpt>
      <trkpt lat="45.95104" lon="4.87101">
        <ele>277</ele>
        <time>2017-08-20T09:03:51Z</time>
      </trkpt>
      <trkpt lat="45.95107" lon="4.87112">
        <ele>277</ele>
        <time>2017-08-20T09:03:53Z</time>
      </trkpt>
      <trkpt lat="45.95108" lon="4.87117">
        <ele>277</ele>
        <time>2017-08-20T09:03:54Z</time>
      </trkpt>
      <trkpt lat="45.9511" lon="4.87128">
        <ele>277</ele>
        <time>2017-08-20T09:03:56Z</time>
      </trkpt>
      <trkpt lat="45.95112" lon="4.87133">
        <ele>277</ele>
        <time>2017-08-20T09:03:57Z</time>
      </trkpt>
      <trkpt lat="45.95115" lon="4.8714">
        <ele>277</ele>
        <time>2017-08-20T09:03:58Z</time>
      </trkpt>
      <trkpt lat="45.95117" lon="4.87146">
        <ele>277</ele>
        <time>2017-08-20T09:03:59Z</time>
      </trkpt>
      <trkpt lat="45.9512" lon="4.87157">
        <ele>277</ele>
        <time>2017-08-20T09:04:01Z</time>
      </trkpt>
      <trkpt lat="45.95122" lon="4.87163">
        <ele>276</ele>
        <time>2017-08-20T09:04:02Z</time>
      </trkpt>
      <trkpt lat="45.95124" lon="4.87169">
        <ele>276</ele>
        <time>2017-08-20T09:04:03Z</time>
      </trkpt>
      <trkpt lat="45.95125" lon="4.87175">
        <ele>276</ele>
        <time>2017-08-20T09:04:04Z</time>
      </trkpt>
      <trkpt lat="45.95127" lon="4.87182">
        <ele>276</ele>
        <time>2017-08-20T09:04:05Z</time>
      </trkpt>
      <trkpt lat="45.95128" lon="4.87189">
        <ele>276</ele>
        <time>2017-08-20T09:04:06Z</time>
      </trkpt>
      <trkpt lat="45.9513" lon="4.87196">
        <ele>276</ele>
        <time>2017-08-20T09:04:07Z</time>
      </trkpt>
      <trkpt lat="45.95132" lon="4.87204">
        <ele>276</ele>
        <time>2017-08-20T09:04:08Z</time>
      </trkpt>
      <trkpt lat="45.95134" lon="4.87212">
        <ele>276</ele>
        <time>2017-08-20T09:04:09Z</time>
      </trkpt>
      <trkpt lat="45.95137" lon="4.8722">
        <ele>276</ele>
        <time>2017-08-20T09:04:10Z</time>
      </trkpt>
      <trkpt lat="45.95139" lon="4.87229">
        <ele>276</ele>
        <time>2017-08-20T09:04:11Z</time>
      </trkpt>
      <trkpt lat="45.95141" lon="4.87237">
        <ele>275</ele>
        <time>2017-08-20T09:04:12Z</time>
      </trkpt>
      <trkpt lat="45.95142" lon="4.87247">
        <ele>275</ele>
        <time>2017-08-20T09:04:13Z</time>
      </trkpt>
      <trkpt lat="45.95144" lon="4.87256">
        <ele>274</ele>
        <time>2017-08-20T09:04:14Z</time>
      </trkpt>
      <trkpt lat="45.95147" lon="4.87266">
        <ele>274</ele>
        <time>2017-08-20T09:04:15Z</time>
      </trkpt>
      <trkpt lat="45.95148" lon="4.87277">
        <ele>274</ele>
        <time>2017-08-20T09:04:16Z</time>
      </trkpt>
      <trkpt lat="45.9515" lon="4.87287">
        <ele>274</ele>
        <time>2017-08-20T09:04:17Z</time>
      </trkpt>
      <trkpt lat="45.95152" lon="4.87297">
        <ele>274</ele>
        <time>2017-08-20T09:04:18Z</time>
      </trkpt>
      <trkpt lat="45.95153" lon="4.87308">
        <ele>273</ele>
        <time>2017-08-20T09:04:19Z</time>
      </trkpt>
      <trkpt lat="45.95155" lon="4.87319">
        <ele>273</ele>
        <time>2017-08-20T09:04:20Z</time>
      </trkpt>
      <trkpt lat="45.95157" lon="4.87329">
        <ele>272</ele>
        <time>2017-08-20T09:04:21Z</time>
      </trkpt>
      <trkpt lat="45.95159" lon="4.8734">
        <ele>272</ele>
        <time>2017-08-20T09:04:22Z</time>
      </trkpt>
      <trkpt lat="45.95162" lon="4.8735">
        <ele>272</ele>
        <time>2017-08-20T09:04:23Z</time>
      </trkpt>
      <trkpt lat="45.95164" lon="4.8736">
        <ele>272</ele>
        <time>2017-08-20T09:04:24Z</time>
      </trkpt>
      <trkpt lat="45.95166" lon="4.87369">
        <ele>272</ele>
        <time>2017-08-20T09:04:25Z</time>
      </trkpt>
      <trkpt lat="45.95168" lon="4.87378">
        <ele>271</ele>
        <time>2017-08-20T09:04:26Z</time>
      </trkpt>
      <trkpt lat="45.9517" lon="4.87387">
        <ele>271</ele>
        <time>2017-08-20T09:04:27Z</time>
      </trkpt>
      <trkpt lat="45.95172" lon="4.87395">
        <ele>271</ele>
        <time>2017-08-20T09:04:28Z</time>
      </trkpt>
      <trkpt lat="45.95174" lon="4.87404">
        <ele>271</ele>
        <time>2017-08-20T09:04:29Z</time>
      </trkpt>
      <trkpt lat="45.95176" lon="4.87412">
        <ele>271</ele>
        <time>2017-08-20T09:04:30Z</time>
      </trkpt>
      <trkpt lat="45.95178" lon="4.8742">
        <ele>271</ele>
        <time>2017-08-20T09:04:31Z</time>
      </trkpt>
      <trkpt lat="45.9518" lon="4.87428">
        <ele>271</ele>
        <time>2017-08-20T09:04:32Z</time>
      </trkpt>
      <trkpt lat="45.95183" lon="4.87436">
        <ele>272</ele>
        <time>2017-08-20T09:04:33Z</time>
      </trkpt>
      <trkpt lat="45.95185" lon="4.87444">
        <ele>272</ele>
        <time>2017-08-20T09:04:34Z</time>
      </trkpt>
      <trkpt lat="45.95187" lon="4.87452">
        <ele>272</ele>
        <time>2017-08-20T09:04:35Z</time>
      </trkpt>
      <trkpt lat="45.95189" lon="4.8746">
        <ele>272</ele>
        <time>2017-08-20T09:04:36Z</time>
      </trkpt>
      <trkpt lat="45.9519" lon="4.87467">
        <ele>272</ele>
        <time>2017-08-20T09:04:37Z</time>
      </trkpt>
      <trkpt lat="45.95192" lon="4.87474">
        <ele>272</ele>
        <time>2017-08-20T09:04:38Z</time>
      </trkpt>
      <trkpt lat="45.95194" lon="4.8748">
        <ele>272</ele>
        <time>2017-08-20T09:04:39Z</time>
      </trkpt>
      <trkpt lat="45.95195" lon="4.87487">
        <ele>272</ele>
        <time>2017-08-20T09:04:40Z</time>
      </trkpt>
      <trkpt lat="45.95197" lon="4.87493">
        <ele>272</ele>
        <time>2017-08-20T09:04:41Z</time>
      </trkpt>
      <trkpt lat="45.95198" lon="4.875">
        <ele>272</ele>
        <time>2017-08-20T09:04:42Z</time>
      </trkpt>
      <trkpt lat="45.95199" lon="4.87507">
        <ele>273</ele>
        <time>2017-08-20T09:04:43Z</time>
      </trkpt>
      <trkpt lat="45.95201" lon="4.87515">
        <ele>273</ele>
        <time>2017-08-20T09:04:44Z</time>
      </trkpt>
      <trkpt lat="45.95203" lon="4.87523">
        <ele>274</ele>
        <time>2017-08-20T09:04:45Z</time>
      </trkpt>
      <trkpt lat="45.95205" lon="4.87531">
        <ele>274</ele>
        <time>2017-08-20T09:04:46Z</time>
      </trkpt>
      <trkpt lat="45.95206" lon="4.87539">
        <ele>274</ele>
        <time>2017-08-20T09:04:47Z</time>
      </trkpt>
      <trkpt lat="45.95207" lon="4.87547">
        <ele>274</ele>
        <time>2017-08-20T09:04:48Z</time>
      </trkpt>
      <trkpt lat="45.95208" lon="4.87556">
        <ele>274</ele>
        <time>2017-08-20T09:04:49Z</time>
      </trkpt>
      <trkpt lat="45.95209" lon="4.87563">
        <ele>274</ele>
        <time>2017-08-20T09:04:50Z</time>
      </trkpt>
      <trkpt lat="45.95209" lon="4.87569">
        <ele>274</ele>
        <time>2017-08-20T09:04:51Z</time>
      </trkpt>
      <trkpt lat="45.95209" lon="4.87577">
        <ele>274</ele>
        <time>2017-08-20T09:04:52Z</time>
      </trkpt>
      <trkpt lat="45.95209" lon="4.87583">
        <ele>274</ele>
        <time>2017-08-20T09:04:53Z</time>
      </trkpt>
      <trkpt lat="45.95209" lon="4.87591">
        <ele>276</ele>
        <time>2017-08-20T09:04:54Z</time>
      </trkpt>
      <trkpt lat="45.95209" lon="4.87598">
        <ele>276</ele>
        <time>2017-08-20T09:04:55Z</time>
      </trkpt>
      <trkpt lat="45.9521" lon="4.87606">
        <ele>276</ele>
        <time>2017-08-20T09:04:56Z</time>
      </trkpt>
      <trkpt lat="45.95211" lon="4.87614">
        <ele>276</ele>
        <time>2017-08-20T09:04:57Z</time>
      </trkpt>
      <trkpt lat="45.95212" lon="4.8762">
        <ele>276</ele>
        <time>2017-08-20T09:04:58Z</time>
      </trkpt>
      <trkpt lat="45.95213" lon="4.87627">
        <ele>276</ele>
        <time>2017-08-20T09:04:59Z</time>
      </trkpt>
      <trkpt lat="45.95213" lon="4.87634">
        <ele>276</ele>
        <time>2017-08-20T09:05:00Z</time>
      </trkpt>
      <trkpt lat="45.95214" lon="4.87641">
        <ele>276</ele>
        <time>2017-08-20T09:05:01Z</time>
      </trkpt>
      <trkpt lat="45.95215" lon="4.87648">
        <ele>276</ele>
        <time>2017-08-20T09:05:02Z</time>
      </trkpt>
      <trkpt lat="45.95215" lon="4.87655">
        <ele>276</ele>
        <time>2017-08-20T09:05:03Z</time>
      </trkpt>
      <trkpt lat="45.95216" lon="4.87662">
        <ele>277</ele>
        <time>2017-08-20T09:05:04Z</time>
      </trkpt>
      <trkpt lat="45.95217" lon="4.8767">
        <ele>278</ele>
        <time>2017-08-20T09:05:05Z</time>
      </trkpt>
      <trkpt lat="45.95218" lon="4.87677">
        <ele>279</ele>
        <time>2017-08-20T09:05:06Z</time>
      </trkpt>
      <trkpt lat="45.95219" lon="4.87684">
        <ele>279</ele>
        <time>2017-08-20T09:05:07Z</time>
      </trkpt>
      <trkpt lat="45.95221" lon="4.87691">
        <ele>279</ele>
        <time>2017-08-20T09:05:08Z</time>
      </trkpt>
      <trkpt lat="45.95224" lon="4.87702">
        <ele>279</ele>
        <time>2017-08-20T09:05:10Z</time>
      </trkpt>
      <trkpt lat="45.95224" lon="4.87708">
        <ele>279</ele>
        <time>2017-08-20T09:05:11Z</time>
      </trkpt>
      <trkpt lat="45.95225" lon="4.87719">
        <ele>279</ele>
        <time>2017-08-20T09:05:13Z</time>
      </trkpt>
      <trkpt lat="45.95226" lon="4.87725">
        <ele>280</ele>
        <time>2017-08-20T09:05:14Z</time>
      </trkpt>
      <trkpt lat="45.95227" lon="4.87732">
        <ele>280</ele>
        <time>2017-08-20T09:05:15Z</time>
      </trkpt>
      <trkpt lat="45.95229" lon="4.87738">
        <ele>280</ele>
        <time>2017-08-20T09:05:16Z</time>
      </trkpt>
      <trkpt lat="45.95231" lon="4.8775">
        <ele>280</ele>
        <time>2017-08-20T09:05:18Z</time>
      </trkpt>
      <trkpt lat="45.95233" lon="4.87757">
        <ele>281</ele>
        <time>2017-08-20T09:05:19Z</time>
      </trkpt>
      <trkpt lat="45.95234" lon="4.87763">
        <ele>282</ele>
        <time>2017-08-20T09:05:20Z</time>
      </trkpt>
      <trkpt lat="45.95234" lon="4.8777">
        <ele>282</ele>
        <time>2017-08-20T09:05:21Z</time>
      </trkpt>
      <trkpt lat="45.95235" lon="4.87776">
        <ele>282</ele>
        <time>2017-08-20T09:05:22Z</time>
      </trkpt>
      <trkpt lat="45.95237" lon="4.87784">
        <ele>282</ele>
        <time>2017-08-20T09:05:23Z</time>
      </trkpt>
      <trkpt lat="45.95239" lon="4.8779">
        <ele>282</ele>
        <time>2017-08-20T09:05:24Z</time>
      </trkpt>
      <trkpt lat="45.95241" lon="4.87796">
        <ele>282</ele>
        <time>2017-08-20T09:05:25Z</time>
      </trkpt>
      <trkpt lat="45.95242" lon="4.87807">
        <ele>282</ele>
        <time>2017-08-20T09:05:27Z</time>
      </trkpt>
      <trkpt lat="45.95243" lon="4.87812">
        <ele>282</ele>
        <time>2017-08-20T09:05:28Z</time>
      </trkpt>
      <trkpt lat="45.95245" lon="4.87821">
        <ele>282</ele>
        <time>2017-08-20T09:05:30Z</time>
      </trkpt>
      <trkpt lat="45.95246" lon="4.87826">
        <ele>282</ele>
        <time>2017-08-20T09:05:31Z</time>
      </trkpt>
      <trkpt lat="45.95249" lon="4.87838">
        <ele>282</ele>
        <time>2017-08-20T09:05:33Z</time>
      </trkpt>
      <trkpt lat="45.9525" lon="4.87844">
        <ele>283</ele>
        <time>2017-08-20T09:05:34Z</time>
      </trkpt>
      <trkpt lat="45.95251" lon="4.8785">
        <ele>281</ele>
        <time>2017-08-20T09:05:35Z</time>
      </trkpt>
      <trkpt lat="45.95252" lon="4.87858">
        <ele>281</ele>
        <time>2017-08-20T09:05:36Z</time>
      </trkpt>
      <trkpt lat="45.95253" lon="4.87865">
        <ele>281</ele>
        <time>2017-08-20T09:05:37Z</time>
      </trkpt>
      <trkpt lat="45.95255" lon="4.87871">
        <ele>281</ele>
        <time>2017-08-20T09:05:38Z</time>
      </trkpt>
      <trkpt lat="45.95256" lon="4.87878">
        <ele>281</ele>
        <time>2017-08-20T09:05:39Z</time>
      </trkpt>
      <trkpt lat="45.95258" lon="4.87884">
        <ele>281</ele>
        <time>2017-08-20T09:05:40Z</time>
      </trkpt>
      <trkpt lat="45.95259" lon="4.87891">
        <ele>281</ele>
        <time>2017-08-20T09:05:41Z</time>
      </trkpt>
      <trkpt lat="45.9526" lon="4.87897">
        <ele>281</ele>
        <time>2017-08-20T09:05:42Z</time>
      </trkpt>
      <trkpt lat="45.95261" lon="4.87904">
        <ele>281</ele>
        <time>2017-08-20T09:05:43Z</time>
      </trkpt>
      <trkpt lat="45.95261" lon="4.8791">
        <ele>282</ele>
        <time>2017-08-20T09:05:44Z</time>
      </trkpt>
      <trkpt lat="45.95261" lon="4.87917">
        <ele>281</ele>
        <time>2017-08-20T09:05:45Z</time>
      </trkpt>
      <trkpt lat="45.95261" lon="4.87924">
        <ele>281</ele>
        <time>2017-08-20T09:05:46Z</time>
      </trkpt>
      <trkpt lat="45.9526" lon="4.8793">
        <ele>281</ele>
        <time>2017-08-20T09:05:47Z</time>
      </trkpt>
      <trkpt lat="45.95258" lon="4.87937">
        <ele>281</ele>
        <time>2017-08-20T09:05:48Z</time>
      </trkpt>
      <trkpt lat="45.95256" lon="4.87944">
        <ele>280</ele>
        <time>2017-08-20T09:05:49Z</time>
      </trkpt>
      <trkpt lat="45.95254" lon="4.87949">
        <ele>280</ele>
        <time>2017-08-20T09:05:50Z</time>
      </trkpt>
      <trkpt lat="45.95251" lon="4.87954">
        <ele>280</ele>
        <time>2017-08-20T09:05:51Z</time>
      </trkpt>
      <trkpt lat="45.95248" lon="4.8796">
        <ele>282</ele>
        <time>2017-08-20T09:05:52Z</time>
      </trkpt>
      <trkpt lat="45.95241" lon="4.87968">
        <ele>282</ele>
        <time>2017-08-20T09:05:54Z</time>
      </trkpt>
      <trkpt lat="45.95238" lon="4.87973">
        <ele>282</ele>
        <time>2017-08-20T09:05:55Z</time>
      </trkpt>
      <trkpt lat="45.95232" lon="4.87982">
        <ele>282</ele>
        <time>2017-08-20T09:05:57Z</time>
      </trkpt>
      <trkpt lat="45.95229" lon="4.87986">
        <ele>282</ele>
        <time>2017-08-20T09:05:58Z</time>
      </trkpt>
      <trkpt lat="45.95223" lon="4.87994">
        <ele>282</ele>
        <time>2017-08-20T09:06:00Z</time>
      </trkpt>
      <trkpt lat="45.95221" lon="4.87999">
        <ele>282</ele>
        <time>2017-08-20T09:06:01Z</time>
      </trkpt>
      <trkpt lat="45.95215" lon="4.88008">
        <ele>281</ele>
        <time>2017-08-20T09:06:03Z</time>
      </trkpt>
      <trkpt lat="45.95212" lon="4.88012">
        <ele>281</ele>
        <time>2017-08-20T09:06:04Z</time>
      </trkpt>
      <trkpt lat="45.95206" lon="4.8802">
        <ele>281</ele>
        <time>2017-08-20T09:06:06Z</time>
      </trkpt>
      <trkpt lat="45.95203" lon="4.88025">
        <ele>281</ele>
        <time>2017-08-20T09:06:07Z</time>
      </trkpt>
      <trkpt lat="45.95197" lon="4.88034">
        <ele>281</ele>
        <time>2017-08-20T09:06:09Z</time>
      </trkpt>
      <trkpt lat="45.95195" lon="4.8804">
        <ele>281</ele>
        <time>2017-08-20T09:06:10Z</time>
      </trkpt>
      <trkpt lat="45.95192" lon="4.88046">
        <ele>281</ele>
        <time>2017-08-20T09:06:11Z</time>
      </trkpt>
      <trkpt lat="45.9519" lon="4.88054">
        <ele>281</ele>
        <time>2017-08-20T09:06:12Z</time>
      </trkpt>
      <trkpt lat="45.95188" lon="4.88061">
        <ele>281</ele>
        <time>2017-08-20T09:06:13Z</time>
      </trkpt>
      <trkpt lat="45.95185" lon="4.88068">
        <ele>281</ele>
        <time>2017-08-20T09:06:14Z</time>
      </trkpt>
      <trkpt lat="45.95184" lon="4.88075">
        <ele>281</ele>
        <time>2017-08-20T09:06:15Z</time>
      </trkpt>
      <trkpt lat="45.95182" lon="4.88081">
        <ele>281</ele>
        <time>2017-08-20T09:06:16Z</time>
      </trkpt>
      <trkpt lat="45.95181" lon="4.88087">
        <ele>282</ele>
        <time>2017-08-20T09:06:17Z</time>
      </trkpt>
      <trkpt lat="45.95179" lon="4.88093">
        <ele>282</ele>
        <time>2017-08-20T09:06:18Z</time>
      </trkpt>
      <trkpt lat="45.95176" lon="4.88105">
        <ele>282</ele>
        <time>2017-08-20T09:06:20Z</time>
      </trkpt>
      <trkpt lat="45.95176" lon="4.88111">
        <ele>282</ele>
        <time>2017-08-20T09:06:21Z</time>
      </trkpt>
      <trkpt lat="45.95175" lon="4.88123">
        <ele>282</ele>
        <time>2017-08-20T09:06:23Z</time>
      </trkpt>
      <trkpt lat="45.95175" lon="4.88128">
        <ele>282</ele>
        <time>2017-08-20T09:06:24Z</time>
      </trkpt>
      <trkpt lat="45.95172" lon="4.88141">
        <ele>283</ele>
        <time>2017-08-20T09:06:26Z</time>
      </trkpt>
      <trkpt lat="45.95171" lon="4.88146">
        <ele>283</ele>
        <time>2017-08-20T09:06:27Z</time>
      </trkpt>
      <trkpt lat="45.95169" lon="4.88157">
        <ele>284</ele>
        <time>2017-08-20T09:06:29Z</time>
      </trkpt>
      <trkpt lat="45.9517" lon="4.88162">
        <ele>284</ele>
        <time>2017-08-20T09:06:30Z</time>
      </trkpt>
      <trkpt lat="45.95175" lon="4.88169">
        <ele>285</ele>
        <time>2017-08-20T09:06:32Z</time>
      </trkpt>
      <trkpt lat="45.95179" lon="4.88171">
        <ele>285</ele>
        <time>2017-08-20T09:06:33Z</time>
      </trkpt>
      <trkpt lat="45.95187" lon="4.8817">
        <ele>285</ele>
        <time>2017-08-20T09:06:35Z</time>
      </trkpt>
      <trkpt lat="45.9519" lon="4.88169">
        <ele>285</ele>
        <time>2017-08-20T09:06:36Z</time>
      </trkpt>
      <trkpt lat="45.95199" lon="4.88169">
        <ele>285</ele>
        <time>2017-08-20T09:06:38Z</time>
      </trkpt>
      <trkpt lat="45.95205" lon="4.88169">
        <ele>285</ele>
        <time>2017-08-20T09:06:39Z</time>
      </trkpt>
      <trkpt lat="45.95211" lon="4.88168">
        <ele>284</ele>
        <time>2017-08-20T09:06:40Z</time>
      </trkpt>
      <trkpt lat="45.95215" lon="4.88167">
        <ele>284</ele>
        <time>2017-08-20T09:06:41Z</time>
      </trkpt>
      <trkpt lat="45.95221" lon="4.88167">
        <ele>284</ele>
        <time>2017-08-20T09:06:42Z</time>
      </trkpt>
      <trkpt lat="45.95226" lon="4.88167">
        <ele>282</ele>
        <time>2017-08-20T09:06:43Z</time>
      </trkpt>
      <trkpt lat="45.95232" lon="4.88167">
        <ele>283</ele>
        <time>2017-08-20T09:06:44Z</time>
      </trkpt>
      <trkpt lat="45.95238" lon="4.88167">
        <ele>283</ele>
        <time>2017-08-20T09:06:45Z</time>
      </trkpt>
      <trkpt lat="45.95243" lon="4.88168">
        <ele>282</ele>
        <time>2017-08-20T09:06:46Z</time>
      </trkpt>
      <trkpt lat="45.95249" lon="4.88168">
        <ele>281</ele>
        <time>2017-08-20T09:06:47Z</time>
      </trkpt>
      <trkpt lat="45.95255" lon="4.88168">
        <ele>281</ele>
        <time>2017-08-20T09:06:48Z</time>
      </trkpt>
      <trkpt lat="45.95261" lon="4.88168">
        <ele>281</ele>
        <time>2017-08-20T09:06:49Z</time>
      </trkpt>
      <trkpt lat="45.95267" lon="4.88168">
        <ele>281</ele>
        <time>2017-08-20T09:06:50Z</time>
      </trkpt>
      <trkpt lat="45.95274" lon="4.88168">
        <ele>281</ele>
        <time>2017-08-20T09:06:51Z</time>
      </trkpt>
      <trkpt lat="45.95281" lon="4.88169">
        <ele>281</ele>
        <time>2017-08-20T09:06:52Z</time>
      </trkpt>
      <trkpt lat="45.95287" lon="4.8817">
        <ele>281</ele>
        <time>2017-08-20T09:06:53Z</time>
      </trkpt>
      <trkpt lat="45.95294" lon="4.88171">
        <ele>281</ele>
        <time>2017-08-20T09:06:54Z</time>
      </trkpt>
      <trkpt lat="45.95299" lon="4.88172">
        <ele>281</ele>
        <time>2017-08-20T09:06:55Z</time>
      </trkpt>
      <trkpt lat="45.95306" lon="4.88173">
        <ele>280</ele>
        <time>2017-08-20T09:06:56Z</time>
      </trkpt>
      <trkpt lat="45.95313" lon="4.88175">
        <ele>280</ele>
        <time>2017-08-20T09:06:57Z</time>
      </trkpt>
      <trkpt lat="45.95321" lon="4.88176">
        <ele>280</ele>
        <time>2017-08-20T09:06:58Z</time>
      </trkpt>
      <trkpt lat="45.95328" lon="4.88176">
        <ele>279</ele>
        <time>2017-08-20T09:06:59Z</time>
      </trkpt>
      <trkpt lat="45.95335" lon="4.88176">
        <ele>278</ele>
        <time>2017-08-20T09:07:00Z</time>
      </trkpt>
      <trkpt lat="45.95343" lon="4.88175">
        <ele>278</ele>
        <time>2017-08-20T09:07:01Z</time>
      </trkpt>
      <trkpt lat="45.9535" lon="4.88176">
        <ele>278</ele>
        <time>2017-08-20T09:07:02Z</time>
      </trkpt>
      <trkpt lat="45.95356" lon="4.88175">
        <ele>278</ele>
        <time>2017-08-20T09:07:03Z</time>
      </trkpt>
      <trkpt lat="45.95363" lon="4.88174">
        <ele>278</ele>
        <time>2017-08-20T09:07:04Z</time>
      </trkpt>
      <trkpt lat="45.95369" lon="4.88173">
        <ele>278</ele>
        <time>2017-08-20T09:07:05Z</time>
      </trkpt>
      <trkpt lat="45.95376" lon="4.88171">
        <ele>278</ele>
        <time>2017-08-20T09:07:06Z</time>
      </trkpt>
      <trkpt lat="45.95382" lon="4.8817">
        <ele>278</ele>
        <time>2017-08-20T09:07:07Z</time>
      </trkpt>
      <trkpt lat="45.95388" lon="4.88168">
        <ele>278</ele>
        <time>2017-08-20T09:07:08Z</time>
      </trkpt>
      <trkpt lat="45.95394" lon="4.88166">
        <ele>276</ele>
        <time>2017-08-20T09:07:09Z</time>
      </trkpt>
      <trkpt lat="45.954" lon="4.88163">
        <ele>276</ele>
        <time>2017-08-20T09:07:10Z</time>
      </trkpt>
      <trkpt lat="45.95405" lon="4.88161">
        <ele>276</ele>
        <time>2017-08-20T09:07:11Z</time>
      </trkpt>
      <trkpt lat="45.9541" lon="4.88159">
        <ele>276</ele>
        <time>2017-08-20T09:07:12Z</time>
      </trkpt>
      <trkpt lat="45.95415" lon="4.88158">
        <ele>276</ele>
        <time>2017-08-20T09:07:13Z</time>
      </trkpt>
      <trkpt lat="45.95423" lon="4.88154">
        <ele>276</ele>
        <time>2017-08-20T09:07:15Z</time>
      </trkpt>
      <trkpt lat="45.95427" lon="4.88152">
        <ele>276</ele>
        <time>2017-08-20T09:07:16Z</time>
      </trkpt>
      <trkpt lat="45.95432" lon="4.88149">
        <ele>276</ele>
        <time>2017-08-20T09:07:17Z</time>
      </trkpt>
      <trkpt lat="45.95437" lon="4.88148">
        <ele>276</ele>
        <time>2017-08-20T09:07:18Z</time>
      </trkpt>
      <trkpt lat="45.95441" lon="4.88145">
        <ele>276</ele>
        <time>2017-08-20T09:07:19Z</time>
      </trkpt>
      <trkpt lat="45.95447" lon="4.88144">
        <ele>276</ele>
        <time>2017-08-20T09:07:20Z</time>
      </trkpt>
      <trkpt lat="45.95452" lon="4.88141">
        <ele>276</ele>
        <time>2017-08-20T09:07:21Z</time>
      </trkpt>
      <trkpt lat="45.95457" lon="4.88138">
        <ele>276</ele>
        <time>2017-08-20T09:07:22Z</time>
      </trkpt>
      <trkpt lat="45.95462" lon="4.88135">
        <ele>276</ele>
        <time>2017-08-20T09:07:23Z</time>
      </trkpt>
      <trkpt lat="45.95468" lon="4.88133">
        <ele>276</ele>
        <time>2017-08-20T09:07:24Z</time>
      </trkpt>
      <trkpt lat="45.95474" lon="4.88132">
        <ele>276</ele>
        <time>2017-08-20T09:07:25Z</time>
      </trkpt>
      <trkpt lat="45.95479" lon="4.8813">
        <ele>276</ele>
        <time>2017-08-20T09:07:26Z</time>
      </trkpt>
      <trkpt lat="45.95484" lon="4.88127">
        <ele>276</ele>
        <time>2017-08-20T09:07:27Z</time>
      </trkpt>
      <trkpt lat="45.95489" lon="4.88125">
        <ele>276</ele>
        <time>2017-08-20T09:07:28Z</time>
      </trkpt>
      <trkpt lat="45.95494" lon="4.88123">
        <ele>276</ele>
        <time>2017-08-20T09:07:29Z</time>
      </trkpt>
      <trkpt lat="45.95498" lon="4.88121">
        <ele>276</ele>
        <time>2017-08-20T09:07:30Z</time>
      </trkpt>
      <trkpt lat="45.95503" lon="4.88119">
        <ele>276</ele>
        <time>2017-08-20T09:07:31Z</time>
      </trkpt>
      <trkpt lat="45.95508" lon="4.88118">
        <ele>276</ele>
        <time>2017-08-20T09:07:32Z</time>
      </trkpt>
      <trkpt lat="45.95513" lon="4.88115">
        <ele>276</ele>
        <time>2017-08-20T09:07:33Z</time>
      </trkpt>
      <trkpt lat="45.95518" lon="4.88113">
        <ele>277</ele>
        <time>2017-08-20T09:07:34Z</time>
      </trkpt>
      <trkpt lat="45.95523" lon="4.8811">
        <ele>277</ele>
        <time>2017-08-20T09:07:35Z</time>
      </trkpt>
      <trkpt lat="45.95528" lon="4.88108">
        <ele>277</ele>
        <time>2017-08-20T09:07:36Z</time>
      </trkpt>
      <trkpt lat="45.95533" lon="4.88105">
        <ele>277</ele>
        <time>2017-08-20T09:07:37Z</time>
      </trkpt>
      <trkpt lat="45.95538" lon="4.88103">
        <ele>277</ele>
        <time>2017-08-20T09:07:38Z</time>
      </trkpt>
      <trkpt lat="45.95543" lon="4.88101">
        <ele>277</ele>
        <time>2017-08-20T09:07:39Z</time>
      </trkpt>
      <trkpt lat="45.95548" lon="4.88099">
        <ele>277</ele>
        <time>2017-08-20T09:07:40Z</time>
      </trkpt>
      <trkpt lat="45.95552" lon="4.88096">
        <ele>277</ele>
        <time>2017-08-20T09:07:41Z</time>
      </trkpt>
      <trkpt lat="45.95557" lon="4.88093">
        <ele>277</ele>
        <time>2017-08-20T09:07:42Z</time>
      </trkpt>
      <trkpt lat="45.95565" lon="4.88089">
        <ele>277</ele>
        <time>2017-08-20T09:07:44Z</time>
      </trkpt>
      <trkpt lat="45.95568" lon="4.88087">
        <ele>277</ele>
        <time>2017-08-20T09:07:45Z</time>
      </trkpt>
      <trkpt lat="45.95572" lon="4.88084">
        <ele>277</ele>
        <time>2017-08-20T09:07:46Z</time>
      </trkpt>
      <trkpt lat="45.95577" lon="4.88081">
        <ele>277</ele>
        <time>2017-08-20T09:07:47Z</time>
      </trkpt>
      <trkpt lat="45.95581" lon="4.88078">
        <ele>277</ele>
        <time>2017-08-20T09:07:48Z</time>
      </trkpt>
      <trkpt lat="45.95585" lon="4.88075">
        <ele>277</ele>
        <time>2017-08-20T09:07:49Z</time>
      </trkpt>
      <trkpt lat="45.95589" lon="4.88072">
        <ele>278</ele>
        <time>2017-08-20T09:07:50Z</time>
      </trkpt>
      <trkpt lat="45.95593" lon="4.88068">
        <ele>278</ele>
        <time>2017-08-20T09:07:51Z</time>
      </trkpt>
      <trkpt lat="45.95598" lon="4.88065">
        <ele>278</ele>
        <time>2017-08-20T09:07:52Z</time>
      </trkpt>
      <trkpt lat="45.95602" lon="4.88061">
        <ele>278</ele>
        <time>2017-08-20T09:07:53Z</time>
      </trkpt>
      <trkpt lat="45.95606" lon="4.88058">
        <ele>278</ele>
        <time>2017-08-20T09:07:54Z</time>
      </trkpt>
      <trkpt lat="45.9561" lon="4.88055">
        <ele>278</ele>
        <time>2017-08-20T09:07:55Z</time>
      </trkpt>
      <trkpt lat="45.95617" lon="4.88048">
        <ele>278</ele>
        <time>2017-08-20T09:07:57Z</time>
      </trkpt>
      <trkpt lat="45.95621" lon="4.88045">
        <ele>278</ele>
        <time>2017-08-20T09:07:58Z</time>
      </trkpt>
      <trkpt lat="45.95625" lon="4.88041">
        <ele>278</ele>
        <time>2017-08-20T09:07:59Z</time>
      </trkpt>
      <trkpt lat="45.95628" lon="4.88038">
        <ele>279</ele>
        <time>2017-08-20T09:08:00Z</time>
      </trkpt>
      <trkpt lat="45.95632" lon="4.88034">
        <ele>279</ele>
        <time>2017-08-20T09:08:01Z</time>
      </trkpt>
      <trkpt lat="45.95636" lon="4.88031">
        <ele>279</ele>
        <time>2017-08-20T09:08:02Z</time>
      </trkpt>
      <trkpt lat="45.9564" lon="4.88027">
        <ele>279</ele>
        <time>2017-08-20T09:08:03Z</time>
      </trkpt>
      <trkpt lat="45.95644" lon="4.88024">
        <ele>279</ele>
        <time>2017-08-20T09:08:04Z</time>
      </trkpt>
      <trkpt lat="45.95648" lon="4.8802">
        <ele>279</ele>
        <time>2017-08-20T09:08:05Z</time>
      </trkpt>
      <trkpt lat="45.95652" lon="4.88017">
        <ele>279</ele>
        <time>2017-08-20T09:08:06Z</time>
      </trkpt>
      <trkpt lat="45.95658" lon="4.88009">
        <ele>280</ele>
        <time>2017-08-20T09:08:08Z</time>
      </trkpt>
      <trkpt lat="45.95662" lon="4.88006">
        <ele>280</ele>
        <time>2017-08-20T09:08:09Z</time>
      </trkpt>
      <trkpt lat="45.95669" lon="4.88">
        <ele>281</ele>
        <time>2017-08-20T09:08:11Z</time>
      </trkpt>
      <trkpt lat="45.95673" lon="4.87996">
        <ele>281</ele>
        <time>2017-08-20T09:08:12Z</time>
      </trkpt>
      <trkpt lat="45.95679" lon="4.8799">
        <ele>282</ele>
        <time>2017-08-20T09:08:14Z</time>
      </trkpt>
      <trkpt lat="45.95682" lon="4.87987">
        <ele>282</ele>
        <time>2017-08-20T09:08:15Z</time>
      </trkpt>
      <trkpt lat="45.95689" lon="4.87981">
        <ele>282</ele>
        <time>2017-08-20T09:08:17Z</time>
      </trkpt>
      <trkpt lat="45.95692" lon="4.87978">
        <ele>282</ele>
        <time>2017-08-20T09:08:18Z</time>
      </trkpt>
      <trkpt lat="45.95699" lon="4.87972">
        <ele>283</ele>
        <time>2017-08-20T09:08:20Z</time>
      </trkpt>
      <trkpt lat="45.95702" lon="4.87969">
        <ele>283</ele>
        <time>2017-08-20T09:08:21Z</time>
      </trkpt>
      <trkpt lat="45.95708" lon="4.87963">
        <ele>283</ele>
        <time>2017-08-20T09:08:23Z</time>
      </trkpt>
      <trkpt lat="45.95712" lon="4.8796">
        <ele>283</ele>
        <time>2017-08-20T09:08:24Z</time>
      </trkpt>
      <trkpt lat="45.95718" lon="4.87952">
        <ele>283</ele>
        <time>2017-08-20T09:08:26Z</time>
      </trkpt>
      <trkpt lat="45.95722" lon="4.87949">
        <ele>283</ele>
        <time>2017-08-20T09:08:27Z</time>
      </trkpt>
      <trkpt lat="45.95728" lon="4.87943">
        <ele>283</ele>
        <time>2017-08-20T09:08:29Z</time>
      </trkpt>
      <trkpt lat="45.95732" lon="4.87939">
        <ele>283</ele>
        <time>2017-08-20T09:08:30Z</time>
      </trkpt>
      <trkpt lat="45.95736" lon="4.87936">
        <ele>284</ele>
        <time>2017-08-20T09:08:31Z</time>
      </trkpt>
      <trkpt lat="45.9574" lon="4.87933">
        <ele>284</ele>
        <time>2017-08-20T09:08:32Z</time>
      </trkpt>
      <trkpt lat="45.95746" lon="4.87927">
        <ele>284</ele>
        <time>2017-08-20T09:08:34Z</time>
      </trkpt>
      <trkpt lat="45.95749" lon="4.87924">
        <ele>284</ele>
        <time>2017-08-20T09:08:35Z</time>
      </trkpt>
      <trkpt lat="45.95755" lon="4.87919">
        <ele>285</ele>
        <time>2017-08-20T09:08:37Z</time>
      </trkpt>
      <trkpt lat="45.95759" lon="4.87917">
        <ele>286</ele>
        <time>2017-08-20T09:08:38Z</time>
      </trkpt>
      <trkpt lat="45.95765" lon="4.87913">
        <ele>286</ele>
        <time>2017-08-20T09:08:40Z</time>
      </trkpt>
      <trkpt lat="45.95768" lon="4.87911">
        <ele>286</ele>
        <time>2017-08-20T09:08:41Z</time>
      </trkpt>
      <trkpt lat="45.95774" lon="4.87907">
        <ele>286</ele>
        <time>2017-08-20T09:08:43Z</time>
      </trkpt>
      <trkpt lat="45.95777" lon="4.87905">
        <ele>286</ele>
        <time>2017-08-20T09:08:44Z</time>
      </trkpt>
      <trkpt lat="45.95783" lon="4.87902">
        <ele>286</ele>
        <time>2017-08-20T09:08:46Z</time>
      </trkpt>
      <trkpt lat="45.95785" lon="4.87901">
        <ele>286</ele>
        <time>2017-08-20T09:08:47Z</time>
      </trkpt>
      <trkpt lat="45.95794" lon="4.87897">
        <ele>286</ele>
        <time>2017-08-20T09:08:50Z</time>
      </trkpt>
      <trkpt lat="45.95797" lon="4.87895">
        <ele>287</ele>
        <time>2017-08-20T09:08:51Z</time>
      </trkpt>
      <trkpt lat="45.95803" lon="4.87892">
        <ele>287</ele>
        <time>2017-08-20T09:08:53Z</time>
      </trkpt>
      <trkpt lat="45.95806" lon="4.87891">
        <ele>287</ele>
        <time>2017-08-20T09:08:54Z</time>
      </trkpt>
      <trkpt lat="45.95812" lon="4.87888">
        <ele>287</ele>
        <time>2017-08-20T09:08:56Z</time>
      </trkpt>
      <trkpt lat="45.95815" lon="4.87887">
        <ele>287</ele>
        <time>2017-08-20T09:08:57Z</time>
      </trkpt>
      <trkpt lat="45.95821" lon="4.87886">
        <ele>287</ele>
        <time>2017-08-20T09:08:58Z</time>
      </trkpt>
      <trkpt lat="45.95824" lon="4.87887">
        <ele>287</ele>
        <time>2017-08-20T09:08:59Z</time>
      </trkpt>
      <trkpt lat="45.95833" lon="4.87887">
        <ele>287</ele>
        <time>2017-08-20T09:09:02Z</time>
      </trkpt>
      <trkpt lat="45.95836" lon="4.87886">
        <ele>289</ele>
        <time>2017-08-20T09:09:03Z</time>
      </trkpt>
      <trkpt lat="45.95841" lon="4.87882">
        <ele>289</ele>
        <time>2017-08-20T09:09:05Z</time>
      </trkpt>
      <trkpt lat="45.95843" lon="4.87878">
        <ele>289</ele>
        <time>2017-08-20T09:09:06Z</time>
      </trkpt>
      <trkpt lat="45.95848" lon="4.87871">
        <ele>289</ele>
        <time>2017-08-20T09:09:08Z</time>
      </trkpt>
      <trkpt lat="45.95851" lon="4.87867">
        <ele>289</ele>
        <time>2017-08-20T09:09:09Z</time>
      </trkpt>
      <trkpt lat="45.95856" lon="4.87862">
        <ele>289</ele>
        <time>2017-08-20T09:09:11Z</time>
      </trkpt>
      <trkpt lat="45.95859" lon="4.8786">
        <ele>289</ele>
        <time>2017-08-20T09:09:12Z</time>
      </trkpt>
      <trkpt lat="45.95865" lon="4.87854">
        <ele>289</ele>
        <time>2017-08-20T09:09:14Z</time>
      </trkpt>
      <trkpt lat="45.95868" lon="4.87851">
        <ele>289</ele>
        <time>2017-08-20T09:09:15Z</time>
      </trkpt>
      <trkpt lat="45.95874" lon="4.87844">
        <ele>289</ele>
        <time>2017-08-20T09:09:17Z</time>
      </trkpt>
      <trkpt lat="45.95877" lon="4.87841">
        <ele>289</ele>
        <time>2017-08-20T09:09:18Z</time>
      </trkpt>
      <trkpt lat="45.95884" lon="4.87834">
        <ele>289</ele>
        <time>2017-08-20T09:09:20Z</time>
      </trkpt>
      <trkpt lat="45.95888" lon="4.87829">
        <ele>288</ele>
        <time>2017-08-20T09:09:21Z</time>
      </trkpt>
      <trkpt lat="45.95895" lon="4.87821">
        <ele>288</ele>
        <time>2017-08-20T09:09:23Z</time>
      </trkpt>
      <trkpt lat="45.95898" lon="4.87817">
        <ele>288</ele>
        <time>2017-08-20T09:09:24Z</time>
      </trkpt>
      <trkpt lat="45.95904" lon="4.87809">
        <ele>288</ele>
        <time>2017-08-20T09:09:26Z</time>
      </trkpt>
      <trkpt lat="45.95906" lon="4.87805">
        <ele>288</ele>
        <time>2017-08-20T09:09:27Z</time>
      </trkpt>
      <trkpt lat="45.95912" lon="4.87797">
        <ele>288</ele>
        <time>2017-08-20T09:09:29Z</time>
      </trkpt>
      <trkpt lat="45.95914" lon="4.87792">
        <ele>288</ele>
        <time>2017-08-20T09:09:30Z</time>
      </trkpt>
      <trkpt lat="45.95919" lon="4.87783">
        <ele>289</ele>
        <time>2017-08-20T09:09:32Z</time>
      </trkpt>
      <trkpt lat="45.95921" lon="4.87779">
        <ele>289</ele>
        <time>2017-08-20T09:09:33Z</time>
      </trkpt>
      <trkpt lat="45.95926" lon="4.8777">
        <ele>289</ele>
        <time>2017-08-20T09:09:35Z</time>
      </trkpt>
      <trkpt lat="45.95929" lon="4.87765">
        <ele>289</ele>
        <time>2017-08-20T09:09:36Z</time>
      </trkpt>
      <trkpt lat="45.95933" lon="4.87757">
        <ele>289</ele>
        <time>2017-08-20T09:09:38Z</time>
      </trkpt>
      <trkpt lat="45.95936" lon="4.87753">
        <ele>289</ele>
        <time>2017-08-20T09:09:39Z</time>
      </trkpt>
      <trkpt lat="45.95941" lon="4.87746">
        <ele>288</ele>
        <time>2017-08-20T09:09:41Z</time>
      </trkpt>
      <trkpt lat="45.95944" lon="4.87742">
        <ele>289</ele>
        <time>2017-08-20T09:09:42Z</time>
      </trkpt>
      <trkpt lat="45.9595" lon="4.87734">
        <ele>289</ele>
        <time>2017-08-20T09:09:44Z</time>
      </trkpt>
      <trkpt lat="45.95952" lon="4.87729">
        <ele>289</ele>
        <time>2017-08-20T09:09:45Z</time>
      </trkpt>
      <trkpt lat="45.95958" lon="4.87721">
        <ele>289</ele>
        <time>2017-08-20T09:09:47Z</time>
      </trkpt>
      <trkpt lat="45.9596" lon="4.87717">
        <ele>289</ele>
        <time>2017-08-20T09:09:48Z</time>
      </trkpt>
      <trkpt lat="45.95965" lon="4.8771">
        <ele>289</ele>
        <time>2017-08-20T09:09:50Z</time>
      </trkpt>
      <trkpt lat="45.95968" lon="4.87706">
        <ele>289</ele>
        <time>2017-08-20T09:09:51Z</time>
      </trkpt>
      <trkpt lat="45.95974" lon="4.87698">
        <ele>289</ele>
        <time>2017-08-20T09:09:53Z</time>
      </trkpt>
      <trkpt lat="45.95977" lon="4.87694">
        <ele>289</ele>
        <time>2017-08-20T09:09:54Z</time>
      </trkpt>
      <trkpt lat="45.95984" lon="4.87686">
        <ele>289</ele>
        <time>2017-08-20T09:09:56Z</time>
      </trkpt>
      <trkpt lat="45.95987" lon="4.87681">
        <ele>289</ele>
        <time>2017-08-20T09:09:57Z</time>
      </trkpt>
      <trkpt lat="45.95994" lon="4.87674">
        <ele>290</ele>
        <time>2017-08-20T09:09:59Z</time>
      </trkpt>
      <trkpt lat="45.95997" lon="4.87669">
        <ele>290</ele>
        <time>2017-08-20T09:10:00Z</time>
      </trkpt>
      <trkpt lat="45.96003" lon="4.87661">
        <ele>290</ele>
        <time>2017-08-20T09:10:02Z</time>
      </trkpt>
      <trkpt lat="45.96006" lon="4.87658">
        <ele>290</ele>
        <time>2017-08-20T09:10:03Z</time>
      </trkpt>
      <trkpt lat="45.96012" lon="4.87651">
        <ele>289</ele>
        <time>2017-08-20T09:10:05Z</time>
      </trkpt>
      <trkpt lat="45.96015" lon="4.87647">
        <ele>289</ele>
        <time>2017-08-20T09:10:06Z</time>
      </trkpt>
      <trkpt lat="45.96019" lon="4.87643">
        <ele>289</ele>
        <time>2017-08-20T09:10:07Z</time>
      </trkpt>
      <trkpt lat="45.96022" lon="4.87638">
        <ele>289</ele>
        <time>2017-08-20T09:10:08Z</time>
      </trkpt>
      <trkpt lat="45.96026" lon="4.87634">
        <ele>289</ele>
        <time>2017-08-20T09:10:09Z</time>
      </trkpt>
      <trkpt lat="45.9603" lon="4.8763">
        <ele>289</ele>
        <time>2017-08-20T09:10:10Z</time>
      </trkpt>
      <trkpt lat="45.96034" lon="4.87626">
        <ele>289</ele>
        <time>2017-08-20T09:10:11Z</time>
      </trkpt>
      <trkpt lat="45.96037" lon="4.87622">
        <ele>289</ele>
        <time>2017-08-20T09:10:12Z</time>
      </trkpt>
      <trkpt lat="45.96044" lon="4.87616">
        <ele>289</ele>
        <time>2017-08-20T09:10:14Z</time>
      </trkpt>
      <trkpt lat="45.96048" lon="4.87613">
        <ele>289</ele>
        <time>2017-08-20T09:10:15Z</time>
      </trkpt>
      <trkpt lat="45.96054" lon="4.87605">
        <ele>289</ele>
        <time>2017-08-20T09:10:17Z</time>
      </trkpt>
      <trkpt lat="45.96057" lon="4.87602">
        <ele>289</ele>
        <time>2017-08-20T09:10:18Z</time>
      </trkpt>
      <trkpt lat="45.96061" lon="4.87598">
        <ele>288</ele>
        <time>2017-08-20T09:10:19Z</time>
      </trkpt>
      <trkpt lat="45.96065" lon="4.87594">
        <ele>288</ele>
        <time>2017-08-20T09:10:20Z</time>
      </trkpt>
      <trkpt lat="45.96068" lon="4.87589">
        <ele>288</ele>
        <time>2017-08-20T09:10:21Z</time>
      </trkpt>
      <trkpt lat="45.96072" lon="4.87585">
        <ele>288</ele>
        <time>2017-08-20T09:10:22Z</time>
      </trkpt>
      <trkpt lat="45.96076" lon="4.8758">
        <ele>288</ele>
        <time>2017-08-20T09:10:23Z</time>
      </trkpt>
      <trkpt lat="45.9608" lon="4.87576">
        <ele>288</ele>
        <time>2017-08-20T09:10:24Z</time>
      </trkpt>
      <trkpt lat="45.96084" lon="4.87572">
        <ele>287</ele>
        <time>2017-08-20T09:10:25Z</time>
      </trkpt>
      <trkpt lat="45.96087" lon="4.87567">
        <ele>287</ele>
        <time>2017-08-20T09:10:26Z</time>
      </trkpt>
      <trkpt lat="45.96091" lon="4.87563">
        <ele>287</ele>
        <time>2017-08-20T09:10:27Z</time>
      </trkpt>
      <trkpt lat="45.96095" lon="4.87559">
        <ele>287</ele>
        <time>2017-08-20T09:10:28Z</time>
      </trkpt>
      <trkpt lat="45.96102" lon="4.87551">
        <ele>287</ele>
        <time>2017-08-20T09:10:30Z</time>
      </trkpt>
      <trkpt lat="45.96106" lon="4.87546">
        <ele>287</ele>
        <time>2017-08-20T09:10:31Z</time>
      </trkpt>
      <trkpt lat="45.96109" lon="4.87541">
        <ele>287</ele>
        <time>2017-08-20T09:10:32Z</time>
      </trkpt>
      <trkpt lat="45.96113" lon="4.87537">
        <ele>287</ele>
        <time>2017-08-20T09:10:33Z</time>
      </trkpt>
      <trkpt lat="45.96118" lon="4.87532">
        <ele>287</ele>
        <time>2017-08-20T09:10:34Z</time>
      </trkpt>
      <trkpt lat="45.96122" lon="4.87526">
        <ele>286</ele>
        <time>2017-08-20T09:10:35Z</time>
      </trkpt>
      <trkpt lat="45.96126" lon="4.87521">
        <ele>286</ele>
        <time>2017-08-20T09:10:36Z</time>
      </trkpt>
      <trkpt lat="45.96131" lon="4.87516">
        <ele>286</ele>
        <time>2017-08-20T09:10:37Z</time>
      </trkpt>
      <trkpt lat="45.96135" lon="4.87511">
        <ele>286</ele>
        <time>2017-08-20T09:10:38Z</time>
      </trkpt>
      <trkpt lat="45.9614" lon="4.87507">
        <ele>286</ele>
        <time>2017-08-20T09:10:39Z</time>
      </trkpt>
      <trkpt lat="45.96144" lon="4.87502">
        <ele>286</ele>
        <time>2017-08-20T09:10:40Z</time>
      </trkpt>
      <trkpt lat="45.96148" lon="4.87497">
        <ele>285</ele>
        <time>2017-08-20T09:10:41Z</time>
      </trkpt>
      <trkpt lat="45.96152" lon="4.87493">
        <ele>285</ele>
        <time>2017-08-20T09:10:42Z</time>
      </trkpt>
      <trkpt lat="45.96156" lon="4.87488">
        <ele>285</ele>
        <time>2017-08-20T09:10:43Z</time>
      </trkpt>
      <trkpt lat="45.9616" lon="4.87483">
        <ele>285</ele>
        <time>2017-08-20T09:10:44Z</time>
      </trkpt>
      <trkpt lat="45.96164" lon="4.87479">
        <ele>285</ele>
        <time>2017-08-20T09:10:45Z</time>
      </trkpt>
      <trkpt lat="45.96168" lon="4.87475">
        <ele>284</ele>
        <time>2017-08-20T09:10:46Z</time>
      </trkpt>
      <trkpt lat="45.96172" lon="4.8747">
        <ele>284</ele>
        <time>2017-08-20T09:10:47Z</time>
      </trkpt>
      <trkpt lat="45.96175" lon="4.87466">
        <ele>284</ele>
        <time>2017-08-20T09:10:48Z</time>
      </trkpt>
      <trkpt lat="45.96179" lon="4.87461">
        <ele>284</ele>
        <time>2017-08-20T09:10:49Z</time>
      </trkpt>
      <trkpt lat="45.96183" lon="4.87457">
        <ele>284</ele>
        <time>2017-08-20T09:10:50Z</time>
      </trkpt>
      <trkpt lat="45.96187" lon="4.87452">
        <ele>284</ele>
        <time>2017-08-20T09:10:51Z</time>
      </trkpt>
      <trkpt lat="45.96191" lon="4.87448">
        <ele>284</ele>
        <time>2017-08-20T09:10:52Z</time>
      </trkpt>
      <trkpt lat="45.96195" lon="4.87443">
        <ele>284</ele>
        <time>2017-08-20T09:10:53Z</time>
      </trkpt>
      <trkpt lat="45.962" lon="4.87438">
        <ele>284</ele>
        <time>2017-08-20T09:10:54Z</time>
      </trkpt>
      <trkpt lat="45.96205" lon="4.87432">
        <ele>284</ele>
        <time>2017-08-20T09:10:55Z</time>
      </trkpt>
      <trkpt lat="45.9621" lon="4.87427">
        <ele>284</ele>
        <time>2017-08-20T09:10:56Z</time>
      </trkpt>
      <trkpt lat="45.96215" lon="4.87421">
        <ele>284</ele>
        <time>2017-08-20T09:10:57Z</time>
      </trkpt>
      <trkpt lat="45.96219" lon="4.87415">
        <ele>283</ele>
        <time>2017-08-20T09:10:58Z</time>
      </trkpt>
      <trkpt lat="45.96224" lon="4.87409">
        <ele>283</ele>
        <time>2017-08-20T09:10:59Z</time>
      </trkpt>
      <trkpt lat="45.96229" lon="4.87402">
        <ele>283</ele>
        <time>2017-08-20T09:11:00Z</time>
      </trkpt>
      <trkpt lat="45.96234" lon="4.87397">
        <ele>283</ele>
        <time>2017-08-20T09:11:01Z</time>
      </trkpt>
      <trkpt lat="45.9624" lon="4.87392">
        <ele>283</ele>
        <time>2017-08-20T09:11:02Z</time>
      </trkpt>
      <trkpt lat="45.96244" lon="4.87387">
        <ele>283</ele>
        <time>2017-08-20T09:11:03Z</time>
      </trkpt>
      <trkpt lat="45.96249" lon="4.87382">
        <ele>283</ele>
        <time>2017-08-20T09:11:04Z</time>
      </trkpt>
      <trkpt lat="45.96253" lon="4.87376">
        <ele>283</ele>
        <time>2017-08-20T09:11:05Z</time>
      </trkpt>
      <trkpt lat="45.96258" lon="4.87371">
        <ele>283</ele>
        <time>2017-08-20T09:11:06Z</time>
      </trkpt>
      <trkpt lat="45.96262" lon="4.87366">
        <ele>283</ele>
        <time>2017-08-20T09:11:07Z</time>
      </trkpt>
      <trkpt lat="45.96266" lon="4.87361">
        <ele>283</ele>
        <time>2017-08-20T09:11:08Z</time>
      </trkpt>
      <trkpt lat="45.9627" lon="4.87357">
        <ele>284</ele>
        <time>2017-08-20T09:11:09Z</time>
      </trkpt>
      <trkpt lat="45.96274" lon="4.87352">
        <ele>284</ele>
        <time>2017-08-20T09:11:10Z</time>
      </trkpt>
      <trkpt lat="45.96278" lon="4.87348">
        <ele>284</ele>
        <time>2017-08-20T09:11:11Z</time>
      </trkpt>
      <trkpt lat="45.96282" lon="4.87343">
        <ele>284</ele>
        <time>2017-08-20T09:11:12Z</time>
      </trkpt>
      <trkpt lat="45.96285" lon="4.87339">
        <ele>284</ele>
        <time>2017-08-20T09:11:13Z</time>
      </trkpt>
      <trkpt lat="45.96289" lon="4.87334">
        <ele>284</ele>
        <time>2017-08-20T09:11:14Z</time>
      </trkpt>
      <trkpt lat="45.96293" lon="4.87329">
        <ele>283</ele>
        <time>2017-08-20T09:11:15Z</time>
      </trkpt>
      <trkpt lat="45.96297" lon="4.87323">
        <ele>283</ele>
        <time>2017-08-20T09:11:16Z</time>
      </trkpt>
      <trkpt lat="45.96302" lon="4.87317">
        <ele>283</ele>
        <time>2017-08-20T09:11:17Z</time>
      </trkpt>
      <trkpt lat="45.96306" lon="4.87311">
        <ele>283</ele>
        <time>2017-08-20T09:11:18Z</time>
      </trkpt>
      <trkpt lat="45.96311" lon="4.87305">
        <ele>283</ele>
        <time>2017-08-20T09:11:19Z</time>
      </trkpt>
      <trkpt lat="45.96315" lon="4.873">
        <ele>283</ele>
        <time>2017-08-20T09:11:20Z</time>
      </trkpt>
      <trkpt lat="45.9632" lon="4.87295">
        <ele>283</ele>
        <time>2017-08-20T09:11:21Z</time>
      </trkpt>
      <trkpt lat="45.96324" lon="4.87289">
        <ele>283</ele>
        <time>2017-08-20T09:11:22Z</time>
      </trkpt>
      <trkpt lat="45.96328" lon="4.87283">
        <ele>283</ele>
        <time>2017-08-20T09:11:23Z</time>
      </trkpt>
      <trkpt lat="45.96332" lon="4.87278">
        <ele>283</ele>
        <time>2017-08-20T09:11:24Z</time>
      </trkpt>
      <trkpt lat="45.96336" lon="4.87273">
        <ele>283</ele>
        <time>2017-08-20T09:11:25Z</time>
      </trkpt>
      <trkpt lat="45.9634" lon="4.87267">
        <ele>283</ele>
        <time>2017-08-20T09:11:26Z</time>
      </trkpt>
      <trkpt lat="45.96344" lon="4.87262">
        <ele>283</ele>
        <time>2017-08-20T09:11:27Z</time>
      </trkpt>
      <trkpt lat="45.96348" lon="4.87256">
        <ele>283</ele>
        <time>2017-08-20T09:11:28Z</time>
      </trkpt>
      <trkpt lat="45.96352" lon="4.87251">
        <ele>283</ele>
        <time>2017-08-20T09:11:29Z</time>
      </trkpt>
      <trkpt lat="45.96355" lon="4.87246">
        <ele>282</ele>
        <time>2017-08-20T09:11:30Z</time>
      </trkpt>
      <trkpt lat="45.96359" lon="4.87241">
        <ele>282</ele>
        <time>2017-08-20T09:11:31Z</time>
      </trkpt>
      <trkpt lat="45.96362" lon="4.87236">
        <ele>282</ele>
        <time>2017-08-20T09:11:32Z</time>
      </trkpt>
      <trkpt lat="45.96366" lon="4.87231">
        <ele>282</ele>
        <time>2017-08-20T09:11:33Z</time>
      </trkpt>
      <trkpt lat="45.9637" lon="4.87225">
        <ele>282</ele>
        <time>2017-08-20T09:11:34Z</time>
      </trkpt>
      <trkpt lat="45.96374" lon="4.8722">
        <ele>282</ele>
        <time>2017-08-20T09:11:35Z</time>
      </trkpt>
      <trkpt lat="45.96378" lon="4.87215">
        <ele>282</ele>
        <time>2017-08-20T09:11:36Z</time>
      </trkpt>
      <trkpt lat="45.96382" lon="4.87209">
        <ele>282</ele>
        <time>2017-08-20T09:11:37Z</time>
      </trkpt>
      <trkpt lat="45.96386" lon="4.87204">
        <ele>282</ele>
        <time>2017-08-20T09:11:38Z</time>
      </trkpt>
      <trkpt lat="45.96391" lon="4.87198">
        <ele>282</ele>
        <time>2017-08-20T09:11:39Z</time>
      </trkpt>
      <trkpt lat="45.96395" lon="4.87193">
        <ele>282</ele>
        <time>2017-08-20T09:11:40Z</time>
      </trkpt>
      <trkpt lat="45.96398" lon="4.87188">
        <ele>282</ele>
        <time>2017-08-20T09:11:41Z</time>
      </trkpt>
      <trkpt lat="45.96402" lon="4.87183">
        <ele>282</ele>
        <time>2017-08-20T09:11:42Z</time>
      </trkpt>
      <trkpt lat="45.96406" lon="4.87177">
        <ele>281</ele>
        <time>2017-08-20T09:11:43Z</time>
      </trkpt>
      <trkpt lat="45.9641" lon="4.87172">
        <ele>281</ele>
        <time>2017-08-20T09:11:44Z</time>
      </trkpt>
      <trkpt lat="45.96413" lon="4.87168">
        <ele>281</ele>
        <time>2017-08-20T09:11:45Z</time>
      </trkpt>
      <trkpt lat="45.96417" lon="4.87163">
        <ele>281</ele>
        <time>2017-08-20T09:11:46Z</time>
      </trkpt>
      <trkpt lat="45.9642" lon="4.87158">
        <ele>281</ele>
        <time>2017-08-20T09:11:47Z</time>
      </trkpt>
      <trkpt lat="45.96426" lon="4.87149">
        <ele>281</ele>
        <time>2017-08-20T09:11:49Z</time>
      </trkpt>
      <trkpt lat="45.9643" lon="4.87144">
        <ele>281</ele>
        <time>2017-08-20T09:11:50Z</time>
      </trkpt>
      <trkpt lat="45.96436" lon="4.87136">
        <ele>281</ele>
        <time>2017-08-20T09:11:52Z</time>
      </trkpt>
      <trkpt lat="45.9644" lon="4.87131">
        <ele>281</ele>
        <time>2017-08-20T09:11:53Z</time>
      </trkpt>
      <trkpt lat="45.96443" lon="4.87126">
        <ele>281</ele>
        <time>2017-08-20T09:11:54Z</time>
      </trkpt>
      <trkpt lat="45.96447" lon="4.8712">
        <ele>281</ele>
        <time>2017-08-20T09:11:55Z</time>
      </trkpt>
      <trkpt lat="45.96451" lon="4.87115">
        <ele>281</ele>
        <time>2017-08-20T09:11:56Z</time>
      </trkpt>
      <trkpt lat="45.96454" lon="4.87111">
        <ele>281</ele>
        <time>2017-08-20T09:11:57Z</time>
      </trkpt>
      <trkpt lat="45.96458" lon="4.87106">
        <ele>281</ele>
        <time>2017-08-20T09:11:58Z</time>
      </trkpt>
      <trkpt lat="45.96462" lon="4.87102">
        <ele>282</ele>
        <time>2017-08-20T09:11:59Z</time>
      </trkpt>
      <trkpt lat="45.96466" lon="4.87098">
        <ele>282</ele>
        <time>2017-08-20T09:12:00Z</time>
      </trkpt>
      <trkpt lat="45.9647" lon="4.87093">
        <ele>282</ele>
        <time>2017-08-20T09:12:01Z</time>
      </trkpt>
      <trkpt lat="45.96474" lon="4.87089">
        <ele>282</ele>
        <time>2017-08-20T09:12:02Z</time>
      </trkpt>
      <trkpt lat="45.96477" lon="4.87084">
        <ele>282</ele>
        <time>2017-08-20T09:12:03Z</time>
      </trkpt>
      <trkpt lat="45.96481" lon="4.87079">
        <ele>282</ele>
        <time>2017-08-20T09:12:04Z</time>
      </trkpt>
      <trkpt lat="45.96483" lon="4.87074">
        <ele>282</ele>
        <time>2017-08-20T09:12:05Z</time>
      </trkpt>
      <trkpt lat="45.9649" lon="4.87067">
        <ele>282</ele>
        <time>2017-08-20T09:12:07Z</time>
      </trkpt>
      <trkpt lat="45.96493" lon="4.87063">
        <ele>282</ele>
        <time>2017-08-20T09:12:08Z</time>
      </trkpt>
      <trkpt lat="45.965" lon="4.87054">
        <ele>281</ele>
        <time>2017-08-20T09:12:10Z</time>
      </trkpt>
      <trkpt lat="45.96502" lon="4.8705">
        <ele>282</ele>
        <time>2017-08-20T09:12:11Z</time>
      </trkpt>
      <trkpt lat="45.96509" lon="4.87046">
        <ele>283</ele>
        <time>2017-08-20T09:12:13Z</time>
      </trkpt>
      <trkpt lat="45.96513" lon="4.87047">
        <ele>283</ele>
        <time>2017-08-20T09:12:14Z</time>
      </trkpt>
      <trkpt lat="45.96515" lon="4.87056">
        <ele>283</ele>
        <time>2017-08-20T09:12:16Z</time>
      </trkpt>
      <trkpt lat="45.96516" lon="4.87059">
        <ele>283</ele>
        <time>2017-08-20T09:12:17Z</time>
      </trkpt>
      <trkpt lat="45.96522" lon="4.87065">
        <ele>283</ele>
        <time>2017-08-20T09:12:19Z</time>
      </trkpt>
      <trkpt lat="45.96525" lon="4.87067">
        <ele>283</ele>
        <time>2017-08-20T09:12:20Z</time>
      </trkpt>
      <trkpt lat="45.96533" lon="4.87067">
        <ele>283</ele>
        <time>2017-08-20T09:12:23Z</time>
      </trkpt>
      <trkpt lat="45.96535" lon="4.87065">
        <ele>283</ele>
        <time>2017-08-20T09:12:24Z</time>
      </trkpt>
      <trkpt lat="45.96541" lon="4.87073">
        <ele>283</ele>
        <time>2017-08-20T09:12:31Z</time>
      </trkpt>
      <trkpt lat="45.96542" lon="4.87076">
        <ele>283</ele>
        <time>2017-08-20T09:12:32Z</time>
      </trkpt>
      <trkpt lat="45.96547" lon="4.87077">
        <ele>283</ele>
        <time>2017-08-20T09:12:36Z</time>
      </trkpt>
      <trkpt lat="45.96553" lon="4.87079">
        <ele>283</ele>
        <time>2017-08-20T09:12:37Z</time>
      </trkpt>
      <trkpt lat="45.96562" lon="4.87078">
        <ele>283</ele>
        <time>2017-08-20T09:12:39Z</time>
      </trkpt>
      <trkpt lat="45.96563" lon="4.87074">
        <ele>283</ele>
        <time>2017-08-20T09:12:40Z</time>
      </trkpt>
      <trkpt lat="45.96564" lon="4.87064">
        <ele>283</ele>
        <time>2017-08-20T09:12:42Z</time>
      </trkpt>
      <trkpt lat="45.96565" lon="4.87059">
        <ele>283</ele>
        <time>2017-08-20T09:12:43Z</time>
      </trkpt>
      <trkpt lat="45.96563" lon="4.87049">
        <ele>283</ele>
        <time>2017-08-20T09:12:45Z</time>
      </trkpt>
      <trkpt lat="45.96562" lon="4.87044">
        <ele>283</ele>
        <time>2017-08-20T09:12:46Z</time>
      </trkpt>
      <trkpt lat="45.9656" lon="4.87035">
        <ele>283</ele>
        <time>2017-08-20T09:12:48Z</time>
      </trkpt>
      <trkpt lat="45.96559" lon="4.87032">
        <ele>283</ele>
        <time>2017-08-20T09:12:49Z</time>
      </trkpt>
      <trkpt lat="45.96551" lon="4.87028">
        <ele>283</ele>
        <time>2017-08-20T09:12:52Z</time>
      </trkpt>
      <trkpt lat="45.96549" lon="4.87028">
        <ele>283</ele>
        <time>2017-08-20T09:12:53Z</time>
      </trkpt>
      <trkpt lat="45.96547" lon="4.87032">
        <ele>283</ele>
        <time>2017-08-20T09:13:04Z</time>
      </trkpt>
      <trkpt lat="45.96548" lon="4.87032">
        <ele>283</ele>
        <time>2017-08-20T09:13:05Z</time>
      </trkpt>
      <trkpt lat="45.9655" lon="4.87032">
        <ele>283</ele>
        <time>2017-08-20T09:19:05Z</time>
      </trkpt>
      <trkpt lat="45.9655" lon="4.87029">
        <ele>283</ele>
        <time>2017-08-20T09:19:06Z</time>
      </trkpt>
      <trkpt lat="45.96548" lon="4.87018">
        <ele>283</ele>
        <time>2017-08-20T09:19:12Z</time>
      </trkpt>
      <trkpt lat="45.96547" lon="4.87015">
        <ele>283</ele>
        <time>2017-08-20T09:19:13Z</time>
      </trkpt>
      <trkpt lat="45.96546" lon="4.87003">
        <ele>283</ele>
        <time>2017-08-20T09:19:17Z</time>
      </trkpt>
      <trkpt lat="45.96546" lon="4.87">
        <ele>283</ele>
        <time>2017-08-20T09:19:18Z</time>
      </trkpt>
      <trkpt lat="45.96551" lon="4.86989">
        <ele>283</ele>
        <time>2017-08-20T09:19:21Z</time>
      </trkpt>
      <trkpt lat="45.96552" lon="4.86986">
        <ele>283</ele>
        <time>2017-08-20T09:19:22Z</time>
      </trkpt>
      <trkpt lat="45.96555" lon="4.86979">
        <ele>283</ele>
        <time>2017-08-20T09:19:24Z</time>
      </trkpt>
      <trkpt lat="45.96557" lon="4.86975">
        <ele>283</ele>
        <time>2017-08-20T09:19:25Z</time>
      </trkpt>
      <trkpt lat="45.96562" lon="4.86967">
        <ele>283</ele>
        <time>2017-08-20T09:19:27Z</time>
      </trkpt>
      <trkpt lat="45.96565" lon="4.86962">
        <ele>284</ele>
        <time>2017-08-20T09:19:28Z</time>
      </trkpt>
      <trkpt lat="45.96571" lon="4.86953">
        <ele>284</ele>
        <time>2017-08-20T09:19:30Z</time>
      </trkpt>
      <trkpt lat="45.96573" lon="4.86948">
        <ele>284</ele>
        <time>2017-08-20T09:19:31Z</time>
      </trkpt>
      <trkpt lat="45.96576" lon="4.86942">
        <ele>284</ele>
        <time>2017-08-20T09:19:32Z</time>
      </trkpt>
      <trkpt lat="45.96579" lon="4.86937">
        <ele>284</ele>
        <time>2017-08-20T09:19:33Z</time>
      </trkpt>
      <trkpt lat="45.96583" lon="4.86932">
        <ele>284</ele>
        <time>2017-08-20T09:19:34Z</time>
      </trkpt>
      <trkpt lat="45.96585" lon="4.86927">
        <ele>285</ele>
        <time>2017-08-20T09:19:35Z</time>
      </trkpt>
      <trkpt lat="45.96588" lon="4.86922">
        <ele>285</ele>
        <time>2017-08-20T09:19:36Z</time>
      </trkpt>
      <trkpt lat="45.96592" lon="4.86917">
        <ele>286</ele>
        <time>2017-08-20T09:19:37Z</time>
      </trkpt>
      <trkpt lat="45.96595" lon="4.86911">
        <ele>286</ele>
        <time>2017-08-20T09:19:38Z</time>
      </trkpt>
      <trkpt lat="45.96598" lon="4.86906">
        <ele>286</ele>
        <time>2017-08-20T09:19:39Z</time>
      </trkpt>
      <trkpt lat="45.96604" lon="4.86898">
        <ele>286</ele>
        <time>2017-08-20T09:19:41Z</time>
      </trkpt>
      <trkpt lat="45.96606" lon="4.86894">
        <ele>287</ele>
        <time>2017-08-20T09:19:42Z</time>
      </trkpt>
      <trkpt lat="45.9661" lon="4.86886">
        <ele>287</ele>
        <time>2017-08-20T09:19:44Z</time>
      </trkpt>
      <trkpt lat="45.96612" lon="4.86882">
        <ele>287</ele>
        <time>2017-08-20T09:19:45Z</time>
      </trkpt>
      <trkpt lat="45.96617" lon="4.86874">
        <ele>287</ele>
        <time>2017-08-20T09:19:47Z</time>
      </trkpt>
      <trkpt lat="45.96619" lon="4.86869">
        <ele>287</ele>
        <time>2017-08-20T09:19:48Z</time>
      </trkpt>
      <trkpt lat="45.96624" lon="4.86861">
        <ele>287</ele>
        <time>2017-08-20T09:19:50Z</time>
      </trkpt>
      <trkpt lat="45.96627" lon="4.86856">
        <ele>287</ele>
        <time>2017-08-20T09:19:51Z</time>
      </trkpt>
      <trkpt lat="45.96632" lon="4.86846">
        <ele>287</ele>
        <time>2017-08-20T09:19:53Z</time>
      </trkpt>
      <trkpt lat="45.96635" lon="4.86841">
        <ele>287</ele>
        <time>2017-08-20T09:19:54Z</time>
      </trkpt>
      <trkpt lat="45.96638" lon="4.86836">
        <ele>287</ele>
        <time>2017-08-20T09:19:55Z</time>
      </trkpt>
      <trkpt lat="45.96641" lon="4.86831">
        <ele>288</ele>
        <time>2017-08-20T09:19:56Z</time>
      </trkpt>
      <trkpt lat="45.96644" lon="4.86826">
        <ele>288</ele>
        <time>2017-08-20T09:19:57Z</time>
      </trkpt>
      <trkpt lat="45.96647" lon="4.86821">
        <ele>288</ele>
        <time>2017-08-20T09:19:58Z</time>
      </trkpt>
      <trkpt lat="45.9665" lon="4.86816">
        <ele>288</ele>
        <time>2017-08-20T09:19:59Z</time>
      </trkpt>
      <trkpt lat="45.96653" lon="4.86811">
        <ele>288</ele>
        <time>2017-08-20T09:20:00Z</time>
      </trkpt>
      <trkpt lat="45.96656" lon="4.86805">
        <ele>288</ele>
        <time>2017-08-20T09:20:01Z</time>
      </trkpt>
      <trkpt lat="45.96659" lon="4.868">
        <ele>288</ele>
        <time>2017-08-20T09:20:02Z</time>
      </trkpt>
      <trkpt lat="45.96663" lon="4.86795">
        <ele>288</ele>
        <time>2017-08-20T09:20:03Z</time>
      </trkpt>
      <trkpt lat="45.96667" lon="4.8679">
        <ele>288</ele>
        <time>2017-08-20T09:20:04Z</time>
      </trkpt>
      <trkpt lat="45.9667" lon="4.86785">
        <ele>289</ele>
        <time>2017-08-20T09:20:05Z</time>
      </trkpt>
      <trkpt lat="45.96673" lon="4.8678">
        <ele>289</ele>
        <time>2017-08-20T09:20:06Z</time>
      </trkpt>
      <trkpt lat="45.96676" lon="4.86774">
        <ele>289</ele>
        <time>2017-08-20T09:20:07Z</time>
      </trkpt>
      <trkpt lat="45.9668" lon="4.86769">
        <ele>289</ele>
        <time>2017-08-20T09:20:08Z</time>
      </trkpt>
      <trkpt lat="45.96683" lon="4.86764">
        <ele>289</ele>
        <time>2017-08-20T09:20:09Z</time>
      </trkpt>
      <trkpt lat="45.96687" lon="4.86758">
        <ele>289</ele>
        <time>2017-08-20T09:20:10Z</time>
      </trkpt>
      <trkpt lat="45.96691" lon="4.86751">
        <ele>289</ele>
        <time>2017-08-20T09:20:11Z</time>
      </trkpt>
      <trkpt lat="45.96695" lon="4.86745">
        <ele>289</ele>
        <time>2017-08-20T09:20:12Z</time>
      </trkpt>
      <trkpt lat="45.96699" lon="4.8674">
        <ele>289</ele>
        <time>2017-08-20T09:20:13Z</time>
      </trkpt>
      <trkpt lat="45.96702" lon="4.86735">
        <ele>289</ele>
        <time>2017-08-20T09:20:14Z</time>
      </trkpt>
      <trkpt lat="45.96705" lon="4.86729">
        <ele>289</ele>
        <time>2017-08-20T09:20:15Z</time>
      </trkpt>
      <trkpt lat="45.96708" lon="4.86724">
        <ele>289</ele>
        <time>2017-08-20T09:20:16Z</time>
      </trkpt>
      <trkpt lat="45.96711" lon="4.86718">
        <ele>289</ele>
        <time>2017-08-20T09:20:17Z</time>
      </trkpt>
      <trkpt lat="45.96715" lon="4.86713">
        <ele>289</ele>
        <time>2017-08-20T09:20:18Z</time>
      </trkpt>
      <trkpt lat="45.96718" lon="4.86707">
        <ele>289</ele>
        <time>2017-08-20T09:20:19Z</time>
      </trkpt>
      <trkpt lat="45.9672" lon="4.86702">
        <ele>289</ele>
        <time>2017-08-20T09:20:20Z</time>
      </trkpt>
      <trkpt lat="45.96724" lon="4.86697">
        <ele>289</ele>
        <time>2017-08-20T09:20:21Z</time>
      </trkpt>
      <trkpt lat="45.96727" lon="4.86693">
        <ele>289</ele>
        <time>2017-08-20T09:20:22Z</time>
      </trkpt>
      <trkpt lat="45.96732" lon="4.86683">
        <ele>290</ele>
        <time>2017-08-20T09:20:24Z</time>
      </trkpt>
      <trkpt lat="45.96735" lon="4.86678">
        <ele>290</ele>
        <time>2017-08-20T09:20:25Z</time>
      </trkpt>
      <trkpt lat="45.96738" lon="4.86673">
        <ele>290</ele>
        <time>2017-08-20T09:20:26Z</time>
      </trkpt>
      <trkpt lat="45.96741" lon="4.86667">
        <ele>290</ele>
        <time>2017-08-20T09:20:27Z</time>
      </trkpt>
      <trkpt lat="45.96747" lon="4.86658">
        <ele>290</ele>
        <time>2017-08-20T09:20:29Z</time>
      </trkpt>
      <trkpt lat="45.96749" lon="4.86653">
        <ele>290</ele>
        <time>2017-08-20T09:20:30Z</time>
      </trkpt>
      <trkpt lat="45.96755" lon="4.86644">
        <ele>290</ele>
        <time>2017-08-20T09:20:32Z</time>
      </trkpt>
      <trkpt lat="45.96758" lon="4.86639">
        <ele>290</ele>
        <time>2017-08-20T09:20:33Z</time>
      </trkpt>
      <trkpt lat="45.96761" lon="4.86634">
        <ele>289</ele>
        <time>2017-08-20T09:20:34Z</time>
      </trkpt>
      <trkpt lat="45.96764" lon="4.86628">
        <ele>289</ele>
        <time>2017-08-20T09:20:35Z</time>
      </trkpt>
      <trkpt lat="45.96767" lon="4.86623">
        <ele>289</ele>
        <time>2017-08-20T09:20:36Z</time>
      </trkpt>
      <trkpt lat="45.9677" lon="4.86617">
        <ele>289</ele>
        <time>2017-08-20T09:20:37Z</time>
      </trkpt>
      <trkpt lat="45.96773" lon="4.86612">
        <ele>289</ele>
        <time>2017-08-20T09:20:38Z</time>
      </trkpt>
      <trkpt lat="45.96777" lon="4.86608">
        <ele>289</ele>
        <time>2017-08-20T09:20:39Z</time>
      </trkpt>
      <trkpt lat="45.96783" lon="4.86599">
        <ele>289</ele>
        <time>2017-08-20T09:20:41Z</time>
      </trkpt>
      <trkpt lat="45.96786" lon="4.86596">
        <ele>289</ele>
        <time>2017-08-20T09:20:42Z</time>
      </trkpt>
      <trkpt lat="45.96789" lon="4.8659">
        <ele>289</ele>
        <time>2017-08-20T09:20:43Z</time>
      </trkpt>
      <trkpt lat="45.96791" lon="4.86585">
        <ele>289</ele>
        <time>2017-08-20T09:20:44Z</time>
      </trkpt>
      <trkpt lat="45.96794" lon="4.86581">
        <ele>290</ele>
        <time>2017-08-20T09:20:45Z</time>
      </trkpt>
      <trkpt lat="45.96797" lon="4.86575">
        <ele>290</ele>
        <time>2017-08-20T09:20:46Z</time>
      </trkpt>
      <trkpt lat="45.968" lon="4.8657">
        <ele>290</ele>
        <time>2017-08-20T09:20:47Z</time>
      </trkpt>
      <trkpt lat="45.96803" lon="4.86565">
        <ele>290</ele>
        <time>2017-08-20T09:20:48Z</time>
      </trkpt>
      <trkpt lat="45.96806" lon="4.8656">
        <ele>290</ele>
        <time>2017-08-20T09:20:49Z</time>
      </trkpt>
      <trkpt lat="45.9681" lon="4.86555">
        <ele>290</ele>
        <time>2017-08-20T09:20:50Z</time>
      </trkpt>
      <trkpt lat="45.96813" lon="4.8655">
        <ele>290</ele>
        <time>2017-08-20T09:20:51Z</time>
      </trkpt>
      <trkpt lat="45.96816" lon="4.86545">
        <ele>290</ele>
        <time>2017-08-20T09:20:52Z</time>
      </trkpt>
      <trkpt lat="45.96819" lon="4.8654">
        <ele>290</ele>
        <time>2017-08-20T09:20:53Z</time>
      </trkpt>
      <trkpt lat="45.96822" lon="4.86534">
        <ele>290</ele>
        <time>2017-08-20T09:20:54Z</time>
      </trkpt>
      <trkpt lat="45.96828" lon="4.86524">
        <ele>289</ele>
        <time>2017-08-20T09:20:56Z</time>
      </trkpt>
      <trkpt lat="45.9683" lon="4.8652">
        <ele>289</ele>
        <time>2017-08-20T09:20:57Z</time>
      </trkpt>
      <trkpt lat="45.96833" lon="4.86514">
        <ele>289</ele>
        <time>2017-08-20T09:20:58Z</time>
      </trkpt>
      <trkpt lat="45.96835" lon="4.86508">
        <ele>289</ele>
        <time>2017-08-20T09:20:59Z</time>
      </trkpt>
      <trkpt lat="45.9684" lon="4.86498">
        <ele>289</ele>
        <time>2017-08-20T09:21:01Z</time>
      </trkpt>
      <trkpt lat="45.96842" lon="4.86492">
        <ele>289</ele>
        <time>2017-08-20T09:21:02Z</time>
      </trkpt>
      <trkpt lat="45.96845" lon="4.86486">
        <ele>289</ele>
        <time>2017-08-20T09:21:03Z</time>
      </trkpt>
      <trkpt lat="45.96847" lon="4.8648">
        <ele>289</ele>
        <time>2017-08-20T09:21:04Z</time>
      </trkpt>
      <trkpt lat="45.96848" lon="4.86473">
        <ele>289</ele>
        <time>2017-08-20T09:21:05Z</time>
      </trkpt>
      <trkpt lat="45.9685" lon="4.86466">
        <ele>289</ele>
        <time>2017-08-20T09:21:06Z</time>
      </trkpt>
      <trkpt lat="45.96851" lon="4.86459">
        <ele>289</ele>
        <time>2017-08-20T09:21:07Z</time>
      </trkpt>
      <trkpt lat="45.96853" lon="4.86452">
        <ele>289</ele>
        <time>2017-08-20T09:21:08Z</time>
      </trkpt>
      <trkpt lat="45.96855" lon="4.86444">
        <ele>289</ele>
        <time>2017-08-20T09:21:09Z</time>
      </trkpt>
      <trkpt lat="45.96856" lon="4.86437">
        <ele>290</ele>
        <time>2017-08-20T09:21:10Z</time>
      </trkpt>
      <trkpt lat="45.96857" lon="4.86429">
        <ele>290</ele>
        <time>2017-08-20T09:21:11Z</time>
      </trkpt>
      <trkpt lat="45.96859" lon="4.86422">
        <ele>290</ele>
        <time>2017-08-20T09:21:12Z</time>
      </trkpt>
      <trkpt lat="45.9686" lon="4.86414">
        <ele>290</ele>
        <time>2017-08-20T09:21:13Z</time>
      </trkpt>
      <trkpt lat="45.96862" lon="4.86406">
        <ele>290</ele>
        <time>2017-08-20T09:21:14Z</time>
      </trkpt>
      <trkpt lat="45.96862" lon="4.864">
        <ele>290</ele>
        <time>2017-08-20T09:21:15Z</time>
      </trkpt>
      <trkpt lat="45.96863" lon="4.86393">
        <ele>290</ele>
        <time>2017-08-20T09:21:16Z</time>
      </trkpt>
      <trkpt lat="45.96865" lon="4.8638">
        <ele>290</ele>
        <time>2017-08-20T09:21:18Z</time>
      </trkpt>
      <trkpt lat="45.96866" lon="4.86374">
        <ele>290</ele>
        <time>2017-08-20T09:21:19Z</time>
      </trkpt>
      <trkpt lat="45.96867" lon="4.86367">
        <ele>290</ele>
        <time>2017-08-20T09:21:20Z</time>
      </trkpt>
      <trkpt lat="45.96868" lon="4.86361">
        <ele>290</ele>
        <time>2017-08-20T09:21:21Z</time>
      </trkpt>
      <trkpt lat="45.96868" lon="4.86355">
        <ele>290</ele>
        <time>2017-08-20T09:21:22Z</time>
      </trkpt>
      <trkpt lat="45.96869" lon="4.86348">
        <ele>290</ele>
        <time>2017-08-20T09:21:23Z</time>
      </trkpt>
      <trkpt lat="45.9687" lon="4.86341">
        <ele>290</ele>
        <time>2017-08-20T09:21:24Z</time>
      </trkpt>
      <trkpt lat="45.96871" lon="4.86335">
        <ele>290</ele>
        <time>2017-08-20T09:21:25Z</time>
      </trkpt>
      <trkpt lat="45.96872" lon="4.86328">
        <ele>289</ele>
        <time>2017-08-20T09:21:26Z</time>
      </trkpt>
      <trkpt lat="45.96873" lon="4.86322">
        <ele>289</ele>
        <time>2017-08-20T09:21:27Z</time>
      </trkpt>
      <trkpt lat="45.96874" lon="4.8631">
        <ele>289</ele>
        <time>2017-08-20T09:21:29Z</time>
      </trkpt>
      <trkpt lat="45.96875" lon="4.86304">
        <ele>289</ele>
        <time>2017-08-20T09:21:30Z</time>
      </trkpt>
      <trkpt lat="45.96876" lon="4.86297">
        <ele>289</ele>
        <time>2017-08-20T09:21:31Z</time>
      </trkpt>
      <trkpt lat="45.96877" lon="4.8629">
        <ele>289</ele>
        <time>2017-08-20T09:21:32Z</time>
      </trkpt>
      <trkpt lat="45.96878" lon="4.86284">
        <ele>289</ele>
        <time>2017-08-20T09:21:33Z</time>
      </trkpt>
      <trkpt lat="45.96878" lon="4.86277">
        <ele>289</ele>
        <time>2017-08-20T09:21:34Z</time>
      </trkpt>
      <trkpt lat="45.96879" lon="4.86269">
        <ele>289</ele>
        <time>2017-08-20T09:21:35Z</time>
      </trkpt>
      <trkpt lat="45.9688" lon="4.86262">
        <ele>288</ele>
        <time>2017-08-20T09:21:36Z</time>
      </trkpt>
      <trkpt lat="45.96881" lon="4.86255">
        <ele>288</ele>
        <time>2017-08-20T09:21:37Z</time>
      </trkpt>
      <trkpt lat="45.96882" lon="4.86248">
        <ele>288</ele>
        <time>2017-08-20T09:21:38Z</time>
      </trkpt>
      <trkpt lat="45.96883" lon="4.86241">
        <ele>288</ele>
        <time>2017-08-20T09:21:39Z</time>
      </trkpt>
      <trkpt lat="45.96884" lon="4.86234">
        <ele>289</ele>
        <time>2017-08-20T09:21:40Z</time>
      </trkpt>
      <trkpt lat="45.96885" lon="4.86227">
        <ele>289</ele>
        <time>2017-08-20T09:21:41Z</time>
      </trkpt>
      <trkpt lat="45.96886" lon="4.8622">
        <ele>289</ele>
        <time>2017-08-20T09:21:42Z</time>
      </trkpt>
      <trkpt lat="45.96887" lon="4.86213">
        <ele>289</ele>
        <time>2017-08-20T09:21:43Z</time>
      </trkpt>
      <trkpt lat="45.96889" lon="4.86206">
        <ele>289</ele>
        <time>2017-08-20T09:21:44Z</time>
      </trkpt>
      <trkpt lat="45.96891" lon="4.86198">
        <ele>289</ele>
        <time>2017-08-20T09:21:45Z</time>
      </trkpt>
      <trkpt lat="45.96892" lon="4.86191">
        <ele>289</ele>
        <time>2017-08-20T09:21:46Z</time>
      </trkpt>
      <trkpt lat="45.96893" lon="4.86185">
        <ele>289</ele>
        <time>2017-08-20T09:21:47Z</time>
      </trkpt>
      <trkpt lat="45.96894" lon="4.86177">
        <ele>288</ele>
        <time>2017-08-20T09:21:48Z</time>
      </trkpt>
      <trkpt lat="45.96895" lon="4.8617">
        <ele>288</ele>
        <time>2017-08-20T09:21:49Z</time>
      </trkpt>
      <trkpt lat="45.96896" lon="4.86162">
        <ele>289</ele>
        <time>2017-08-20T09:21:50Z</time>
      </trkpt>
      <trkpt lat="45.96897" lon="4.86154">
        <ele>289</ele>
        <time>2017-08-20T09:21:51Z</time>
      </trkpt>
      <trkpt lat="45.96898" lon="4.86146">
        <ele>289</ele>
        <time>2017-08-20T09:21:52Z</time>
      </trkpt>
      <trkpt lat="45.96899" lon="4.86138">
        <ele>289</ele>
        <time>2017-08-20T09:21:53Z</time>
      </trkpt>
      <trkpt lat="45.969" lon="4.8613">
        <ele>289</ele>
        <time>2017-08-20T09:21:54Z</time>
      </trkpt>
      <trkpt lat="45.969" lon="4.86122">
        <ele>289</ele>
        <time>2017-08-20T09:21:55Z</time>
      </trkpt>
      <trkpt lat="45.96901" lon="4.86114">
        <ele>289</ele>
        <time>2017-08-20T09:21:56Z</time>
      </trkpt>
      <trkpt lat="45.96903" lon="4.86106">
        <ele>289</ele>
        <time>2017-08-20T09:21:57Z</time>
      </trkpt>
      <trkpt lat="45.96903" lon="4.86098">
        <ele>288</ele>
        <time>2017-08-20T09:21:58Z</time>
      </trkpt>
      <trkpt lat="45.96904" lon="4.86089">
        <ele>288</ele>
        <time>2017-08-20T09:21:59Z</time>
      </trkpt>
      <trkpt lat="45.96905" lon="4.86081">
        <ele>288</ele>
        <time>2017-08-20T09:22:00Z</time>
      </trkpt>
      <trkpt lat="45.96906" lon="4.86073">
        <ele>288</ele>
        <time>2017-08-20T09:22:01Z</time>
      </trkpt>
      <trkpt lat="45.96907" lon="4.86064">
        <ele>288</ele>
        <time>2017-08-20T09:22:02Z</time>
      </trkpt>
      <trkpt lat="45.96908" lon="4.86055">
        <ele>288</ele>
        <time>2017-08-20T09:22:03Z</time>
      </trkpt>
      <trkpt lat="45.96909" lon="4.86046">
        <ele>289</ele>
        <time>2017-08-20T09:22:04Z</time>
      </trkpt>
      <trkpt lat="45.9691" lon="4.86037">
        <ele>289</ele>
        <time>2017-08-20T09:22:05Z</time>
      </trkpt>
      <trkpt lat="45.96911" lon="4.86028">
        <ele>289</ele>
        <time>2017-08-20T09:22:06Z</time>
      </trkpt>
      <trkpt lat="45.96913" lon="4.86019">
        <ele>289</ele>
        <time>2017-08-20T09:22:07Z</time>
      </trkpt>
      <trkpt lat="45.96914" lon="4.86009">
        <ele>288</ele>
        <time>2017-08-20T09:22:08Z</time>
      </trkpt>
      <trkpt lat="45.96915" lon="4.86">
        <ele>288</ele>
        <time>2017-08-20T09:22:09Z</time>
      </trkpt>
      <trkpt lat="45.96916" lon="4.8599">
        <ele>288</ele>
        <time>2017-08-20T09:22:10Z</time>
      </trkpt>
      <trkpt lat="45.96918" lon="4.8598">
        <ele>287</ele>
        <time>2017-08-20T09:22:11Z</time>
      </trkpt>
      <trkpt lat="45.96921" lon="4.8597">
        <ele>287</ele>
        <time>2017-08-20T09:22:12Z</time>
      </trkpt>
      <trkpt lat="45.96923" lon="4.85961">
        <ele>287</ele>
        <time>2017-08-20T09:22:13Z</time>
      </trkpt>
      <trkpt lat="45.96926" lon="4.85951">
        <ele>287</ele>
        <time>2017-08-20T09:22:14Z</time>
      </trkpt>
      <trkpt lat="45.96929" lon="4.85943">
        <ele>286</ele>
        <time>2017-08-20T09:22:15Z</time>
      </trkpt>
      <trkpt lat="45.96932" lon="4.85934">
        <ele>286</ele>
        <time>2017-08-20T09:22:16Z</time>
      </trkpt>
      <trkpt lat="45.96935" lon="4.85925">
        <ele>286</ele>
        <time>2017-08-20T09:22:17Z</time>
      </trkpt>
      <trkpt lat="45.96937" lon="4.85917">
        <ele>286</ele>
        <time>2017-08-20T09:22:18Z</time>
      </trkpt>
      <trkpt lat="45.9694" lon="4.85908">
        <ele>286</ele>
        <time>2017-08-20T09:22:19Z</time>
      </trkpt>
      <trkpt lat="45.96942" lon="4.859">
        <ele>285</ele>
        <time>2017-08-20T09:22:20Z</time>
      </trkpt>
      <trkpt lat="45.96944" lon="4.85892">
        <ele>285</ele>
        <time>2017-08-20T09:22:21Z</time>
      </trkpt>
      <trkpt lat="45.96946" lon="4.85884">
        <ele>285</ele>
        <time>2017-08-20T09:22:22Z</time>
      </trkpt>
      <trkpt lat="45.96949" lon="4.85876">
        <ele>285</ele>
        <time>2017-08-20T09:22:23Z</time>
      </trkpt>
      <trkpt lat="45.96951" lon="4.85868">
        <ele>285</ele>
        <time>2017-08-20T09:22:24Z</time>
      </trkpt>
      <trkpt lat="45.96953" lon="4.8586">
        <ele>285</ele>
        <time>2017-08-20T09:22:25Z</time>
      </trkpt>
      <trkpt lat="45.96955" lon="4.85853">
        <ele>285</ele>
        <time>2017-08-20T09:22:26Z</time>
      </trkpt>
      <trkpt lat="45.96957" lon="4.85845">
        <ele>285</ele>
        <time>2017-08-20T09:22:27Z</time>
      </trkpt>
      <trkpt lat="45.96959" lon="4.85837">
        <ele>285</ele>
        <time>2017-08-20T09:22:28Z</time>
      </trkpt>
      <trkpt lat="45.96962" lon="4.85829">
        <ele>285</ele>
        <time>2017-08-20T09:22:29Z</time>
      </trkpt>
      <trkpt lat="45.96964" lon="4.8582">
        <ele>285</ele>
        <time>2017-08-20T09:22:30Z</time>
      </trkpt>
      <trkpt lat="45.96966" lon="4.85811">
        <ele>285</ele>
        <time>2017-08-20T09:22:31Z</time>
      </trkpt>
      <trkpt lat="45.96968" lon="4.85803">
        <ele>285</ele>
        <time>2017-08-20T09:22:32Z</time>
      </trkpt>
      <trkpt lat="45.9697" lon="4.85795">
        <ele>285</ele>
        <time>2017-08-20T09:22:33Z</time>
      </trkpt>
      <trkpt lat="45.96972" lon="4.85787">
        <ele>285</ele>
        <time>2017-08-20T09:22:34Z</time>
      </trkpt>
      <trkpt lat="45.96974" lon="4.85779">
        <ele>285</ele>
        <time>2017-08-20T09:22:35Z</time>
      </trkpt>
      <trkpt lat="45.96977" lon="4.85772">
        <ele>285</ele>
        <time>2017-08-20T09:22:36Z</time>
      </trkpt>
      <trkpt lat="45.96979" lon="4.85764">
        <ele>285</ele>
        <time>2017-08-20T09:22:37Z</time>
      </trkpt>
      <trkpt lat="45.96981" lon="4.85757">
        <ele>285</ele>
        <time>2017-08-20T09:22:38Z</time>
      </trkpt>
      <trkpt lat="45.96982" lon="4.8575">
        <ele>285</ele>
        <time>2017-08-20T09:22:39Z</time>
      </trkpt>
      <trkpt lat="45.96984" lon="4.85743">
        <ele>285</ele>
        <time>2017-08-20T09:22:40Z</time>
      </trkpt>
      <trkpt lat="45.96986" lon="4.85736">
        <ele>285</ele>
        <time>2017-08-20T09:22:41Z</time>
      </trkpt>
      <trkpt lat="45.96987" lon="4.85729">
        <ele>285</ele>
        <time>2017-08-20T09:22:42Z</time>
      </trkpt>
      <trkpt lat="45.96989" lon="4.85721">
        <ele>285</ele>
        <time>2017-08-20T09:22:43Z</time>
      </trkpt>
      <trkpt lat="45.96991" lon="4.85713">
        <ele>285</ele>
        <time>2017-08-20T09:22:44Z</time>
      </trkpt>
      <trkpt lat="45.96993" lon="4.85705">
        <ele>285</ele>
        <time>2017-08-20T09:22:45Z</time>
      </trkpt>
      <trkpt lat="45.96995" lon="4.85698">
        <ele>285</ele>
        <time>2017-08-20T09:22:46Z</time>
      </trkpt>
      <trkpt lat="45.96997" lon="4.8569">
        <ele>285</ele>
        <time>2017-08-20T09:22:47Z</time>
      </trkpt>
      <trkpt lat="45.96999" lon="4.85682">
        <ele>286</ele>
        <time>2017-08-20T09:22:48Z</time>
      </trkpt>
      <trkpt lat="45.97001" lon="4.85675">
        <ele>285</ele>
        <time>2017-08-20T09:22:49Z</time>
      </trkpt>
      <trkpt lat="45.97003" lon="4.85668">
        <ele>286</ele>
        <time>2017-08-20T09:22:50Z</time>
      </trkpt>
      <trkpt lat="45.97005" lon="4.8566">
        <ele>285</ele>
        <time>2017-08-20T09:22:51Z</time>
      </trkpt>
      <trkpt lat="45.97007" lon="4.85653">
        <ele>285</ele>
        <time>2017-08-20T09:22:52Z</time>
      </trkpt>
      <trkpt lat="45.97009" lon="4.85646">
        <ele>284</ele>
        <time>2017-08-20T09:22:53Z</time>
      </trkpt>
      <trkpt lat="45.9701" lon="4.85639">
        <ele>284</ele>
        <time>2017-08-20T09:22:54Z</time>
      </trkpt>
      <trkpt lat="45.97012" lon="4.85631">
        <ele>284</ele>
        <time>2017-08-20T09:22:55Z</time>
      </trkpt>
      <trkpt lat="45.97014" lon="4.85624">
        <ele>284</ele>
        <time>2017-08-20T09:22:56Z</time>
      </trkpt>
      <trkpt lat="45.97016" lon="4.85616">
        <ele>284</ele>
        <time>2017-08-20T09:22:57Z</time>
      </trkpt>
      <trkpt lat="45.97018" lon="4.85609">
        <ele>284</ele>
        <time>2017-08-20T09:22:58Z</time>
      </trkpt>
      <trkpt lat="45.97021" lon="4.85601">
        <ele>284</ele>
        <time>2017-08-20T09:22:59Z</time>
      </trkpt>
      <trkpt lat="45.97023" lon="4.85593">
        <ele>284</ele>
        <time>2017-08-20T09:23:00Z</time>
      </trkpt>
      <trkpt lat="45.97025" lon="4.85585">
        <ele>284</ele>
        <time>2017-08-20T09:23:01Z</time>
      </trkpt>
      <trkpt lat="45.97027" lon="4.85577">
        <ele>283</ele>
        <time>2017-08-20T09:23:02Z</time>
      </trkpt>
      <trkpt lat="45.9703" lon="4.85569">
        <ele>283</ele>
        <time>2017-08-20T09:23:03Z</time>
      </trkpt>
      <trkpt lat="45.97032" lon="4.85561">
        <ele>283</ele>
        <time>2017-08-20T09:23:04Z</time>
      </trkpt>
      <trkpt lat="45.97034" lon="4.85553">
        <ele>283</ele>
        <time>2017-08-20T09:23:05Z</time>
      </trkpt>
      <trkpt lat="45.97036" lon="4.85545">
        <ele>282</ele>
        <time>2017-08-20T09:23:06Z</time>
      </trkpt>
      <trkpt lat="45.97039" lon="4.85537">
        <ele>282</ele>
        <time>2017-08-20T09:23:07Z</time>
      </trkpt>
      <trkpt lat="45.97041" lon="4.8553">
        <ele>282</ele>
        <time>2017-08-20T09:23:08Z</time>
      </trkpt>
      <trkpt lat="45.97043" lon="4.85522">
        <ele>282</ele>
        <time>2017-08-20T09:23:09Z</time>
      </trkpt>
      <trkpt lat="45.97046" lon="4.85513">
        <ele>282</ele>
        <time>2017-08-20T09:23:10Z</time>
      </trkpt>
      <trkpt lat="45.97048" lon="4.85505">
        <ele>282</ele>
        <time>2017-08-20T09:23:11Z</time>
      </trkpt>
      <trkpt lat="45.97051" lon="4.85496">
        <ele>281</ele>
        <time>2017-08-20T09:23:12Z</time>
      </trkpt>
      <trkpt lat="45.97054" lon="4.85487">
        <ele>281</ele>
        <time>2017-08-20T09:23:13Z</time>
      </trkpt>
      <trkpt lat="45.97057" lon="4.85478">
        <ele>281</ele>
        <time>2017-08-20T09:23:14Z</time>
      </trkpt>
      <trkpt lat="45.97059" lon="4.85469">
        <ele>281</ele>
        <time>2017-08-20T09:23:15Z</time>
      </trkpt>
      <trkpt lat="45.97063" lon="4.8546">
        <ele>281</ele>
        <time>2017-08-20T09:23:16Z</time>
      </trkpt>
      <trkpt lat="45.97066" lon="4.85452">
        <ele>281</ele>
        <time>2017-08-20T09:23:17Z</time>
      </trkpt>
      <trkpt lat="45.97069" lon="4.85443">
        <ele>281</ele>
        <time>2017-08-20T09:23:18Z</time>
      </trkpt>
      <trkpt lat="45.97072" lon="4.85435">
        <ele>281</ele>
        <time>2017-08-20T09:23:19Z</time>
      </trkpt>
      <trkpt lat="45.97075" lon="4.85427">
        <ele>281</ele>
        <time>2017-08-20T09:23:20Z</time>
      </trkpt>
      <trkpt lat="45.97078" lon="4.85419">
        <ele>280</ele>
        <time>2017-08-20T09:23:21Z</time>
      </trkpt>
      <trkpt lat="45.9708" lon="4.85411">
        <ele>280</ele>
        <time>2017-08-20T09:23:22Z</time>
      </trkpt>
      <trkpt lat="45.97083" lon="4.85403">
        <ele>281</ele>
        <time>2017-08-20T09:23:23Z</time>
      </trkpt>
      <trkpt lat="45.97085" lon="4.85396">
        <ele>280</ele>
        <time>2017-08-20T09:23:24Z</time>
      </trkpt>
      <trkpt lat="45.97087" lon="4.85389">
        <ele>280</ele>
        <time>2017-08-20T09:23:25Z</time>
      </trkpt>
      <trkpt lat="45.97089" lon="4.85382">
        <ele>280</ele>
        <time>2017-08-20T09:23:26Z</time>
      </trkpt>
      <trkpt lat="45.97092" lon="4.85375">
        <ele>280</ele>
        <time>2017-08-20T09:23:27Z</time>
      </trkpt>
      <trkpt lat="45.97094" lon="4.85368">
        <ele>280</ele>
        <time>2017-08-20T09:23:28Z</time>
      </trkpt>
      <trkpt lat="45.97096" lon="4.85361">
        <ele>280</ele>
        <time>2017-08-20T09:23:29Z</time>
      </trkpt>
      <trkpt lat="45.97098" lon="4.85355">
        <ele>280</ele>
        <time>2017-08-20T09:23:30Z</time>
      </trkpt>
      <trkpt lat="45.97101" lon="4.85347">
        <ele>280</ele>
        <time>2017-08-20T09:23:31Z</time>
      </trkpt>
      <trkpt lat="45.97104" lon="4.8534">
        <ele>280</ele>
        <time>2017-08-20T09:23:32Z</time>
      </trkpt>
      <trkpt lat="45.97106" lon="4.85332">
        <ele>280</ele>
        <time>2017-08-20T09:23:33Z</time>
      </trkpt>
      <trkpt lat="45.97109" lon="4.85324">
        <ele>280</ele>
        <time>2017-08-20T09:23:34Z</time>
      </trkpt>
      <trkpt lat="45.97112" lon="4.85317">
        <ele>280</ele>
        <time>2017-08-20T09:23:35Z</time>
      </trkpt>
      <trkpt lat="45.97115" lon="4.85311">
        <ele>280</ele>
        <time>2017-08-20T09:23:36Z</time>
      </trkpt>
      <trkpt lat="45.97118" lon="4.85304">
        <ele>280</ele>
        <time>2017-08-20T09:23:37Z</time>
      </trkpt>
      <trkpt lat="45.9712" lon="4.85298">
        <ele>280</ele>
        <time>2017-08-20T09:23:38Z</time>
      </trkpt>
      <trkpt lat="45.97123" lon="4.85292">
        <ele>280</ele>
        <time>2017-08-20T09:23:39Z</time>
      </trkpt>
      <trkpt lat="45.97126" lon="4.85286">
        <ele>279</ele>
        <time>2017-08-20T09:23:40Z</time>
      </trkpt>
      <trkpt lat="45.97129" lon="4.85281">
        <ele>279</ele>
        <time>2017-08-20T09:23:41Z</time>
      </trkpt>
      <trkpt lat="45.97132" lon="4.85276">
        <ele>279</ele>
        <time>2017-08-20T09:23:42Z</time>
      </trkpt>
      <trkpt lat="45.97134" lon="4.8527">
        <ele>279</ele>
        <time>2017-08-20T09:23:43Z</time>
      </trkpt>
      <trkpt lat="45.97137" lon="4.85264">
        <ele>279</ele>
        <time>2017-08-20T09:23:44Z</time>
      </trkpt>
      <trkpt lat="45.9714" lon="4.85257">
        <ele>279</ele>
        <time>2017-08-20T09:23:45Z</time>
      </trkpt>
      <trkpt lat="45.97143" lon="4.8525">
        <ele>279</ele>
        <time>2017-08-20T09:23:46Z</time>
      </trkpt>
      <trkpt lat="45.97147" lon="4.85243">
        <ele>279</ele>
        <time>2017-08-20T09:23:47Z</time>
      </trkpt>
      <trkpt lat="45.9715" lon="4.85235">
        <ele>279</ele>
        <time>2017-08-20T09:23:48Z</time>
      </trkpt>
      <trkpt lat="45.97154" lon="4.85227">
        <ele>279</ele>
        <time>2017-08-20T09:23:49Z</time>
      </trkpt>
      <trkpt lat="45.97157" lon="4.8522">
        <ele>279</ele>
        <time>2017-08-20T09:23:50Z</time>
      </trkpt>
      <trkpt lat="45.97161" lon="4.85212">
        <ele>279</ele>
        <time>2017-08-20T09:23:51Z</time>
      </trkpt>
      <trkpt lat="45.97165" lon="4.85205">
        <ele>279</ele>
        <time>2017-08-20T09:23:52Z</time>
      </trkpt>
      <trkpt lat="45.97168" lon="4.85197">
        <ele>278</ele>
        <time>2017-08-20T09:23:53Z</time>
      </trkpt>
      <trkpt lat="45.97171" lon="4.8519">
        <ele>278</ele>
        <time>2017-08-20T09:23:54Z</time>
      </trkpt>
      <trkpt lat="45.97175" lon="4.85184">
        <ele>278</ele>
        <time>2017-08-20T09:23:55Z</time>
      </trkpt>
      <trkpt lat="45.97178" lon="4.85178">
        <ele>278</ele>
        <time>2017-08-20T09:23:56Z</time>
      </trkpt>
      <trkpt lat="45.97181" lon="4.85171">
        <ele>278</ele>
        <time>2017-08-20T09:23:57Z</time>
      </trkpt>
      <trkpt lat="45.97185" lon="4.85165">
        <ele>278</ele>
        <time>2017-08-20T09:23:58Z</time>
      </trkpt>
      <trkpt lat="45.97188" lon="4.85159">
        <ele>278</ele>
        <time>2017-08-20T09:23:59Z</time>
      </trkpt>
      <trkpt lat="45.97191" lon="4.85152">
        <ele>278</ele>
        <time>2017-08-20T09:24:00Z</time>
      </trkpt>
      <trkpt lat="45.97194" lon="4.85146">
        <ele>278</ele>
        <time>2017-08-20T09:24:01Z</time>
      </trkpt>
      <trkpt lat="45.97197" lon="4.85139">
        <ele>278</ele>
        <time>2017-08-20T09:24:02Z</time>
      </trkpt>
      <trkpt lat="45.972" lon="4.85131">
        <ele>278</ele>
        <time>2017-08-20T09:24:03Z</time>
      </trkpt>
      <trkpt lat="45.97204" lon="4.85124">
        <ele>278</ele>
        <time>2017-08-20T09:24:04Z</time>
      </trkpt>
      <trkpt lat="45.97207" lon="4.85116">
        <ele>278</ele>
        <time>2017-08-20T09:24:05Z</time>
      </trkpt>
      <trkpt lat="45.97211" lon="4.85109">
        <ele>278</ele>
        <time>2017-08-20T09:24:06Z</time>
      </trkpt>
      <trkpt lat="45.97214" lon="4.85101">
        <ele>278</ele>
        <time>2017-08-20T09:24:07Z</time>
      </trkpt>
      <trkpt lat="45.97218" lon="4.85094">
        <ele>278</ele>
        <time>2017-08-20T09:24:08Z</time>
      </trkpt>
      <trkpt lat="45.97221" lon="4.85086">
        <ele>278</ele>
        <time>2017-08-20T09:24:09Z</time>
      </trkpt>
      <trkpt lat="45.97225" lon="4.8508">
        <ele>278</ele>
        <time>2017-08-20T09:24:10Z</time>
      </trkpt>
      <trkpt lat="45.97228" lon="4.85073">
        <ele>278</ele>
        <time>2017-08-20T09:24:11Z</time>
      </trkpt>
      <trkpt lat="45.97231" lon="4.85066">
        <ele>278</ele>
        <time>2017-08-20T09:24:12Z</time>
      </trkpt>
      <trkpt lat="45.97234" lon="4.85059">
        <ele>279</ele>
        <time>2017-08-20T09:24:13Z</time>
      </trkpt>
      <trkpt lat="45.97237" lon="4.85052">
        <ele>279</ele>
        <time>2017-08-20T09:24:14Z</time>
      </trkpt>
      <trkpt lat="45.9724" lon="4.85046">
        <ele>279</ele>
        <time>2017-08-20T09:24:15Z</time>
      </trkpt>
      <trkpt lat="45.97242" lon="4.8504">
        <ele>279</ele>
        <time>2017-08-20T09:24:16Z</time>
      </trkpt>
      <trkpt lat="45.97245" lon="4.85034">
        <ele>279</ele>
        <time>2017-08-20T09:24:17Z</time>
      </trkpt>
      <trkpt lat="45.97248" lon="4.85028">
        <ele>279</ele>
        <time>2017-08-20T09:24:18Z</time>
      </trkpt>
      <trkpt lat="45.9725" lon="4.85023">
        <ele>279</ele>
        <time>2017-08-20T09:24:19Z</time>
      </trkpt>
      <trkpt lat="45.97253" lon="4.85016">
        <ele>279</ele>
        <time>2017-08-20T09:24:20Z</time>
      </trkpt>
      <trkpt lat="45.97256" lon="4.85009">
        <ele>279</ele>
        <time>2017-08-20T09:24:21Z</time>
      </trkpt>
      <trkpt lat="45.9726" lon="4.85002">
        <ele>279</ele>
        <time>2017-08-20T09:24:22Z</time>
      </trkpt>
      <trkpt lat="45.97263" lon="4.84994">
        <ele>279</ele>
        <time>2017-08-20T09:24:23Z</time>
      </trkpt>
      <trkpt lat="45.97267" lon="4.84987">
        <ele>279</ele>
        <time>2017-08-20T09:24:24Z</time>
      </trkpt>
      <trkpt lat="45.9727" lon="4.84979">
        <ele>279</ele>
        <time>2017-08-20T09:24:25Z</time>
      </trkpt>
      <trkpt lat="45.97274" lon="4.84971">
        <ele>278</ele>
        <time>2017-08-20T09:24:26Z</time>
      </trkpt>
      <trkpt lat="45.97277" lon="4.84964">
        <ele>278</ele>
        <time>2017-08-20T09:24:27Z</time>
      </trkpt>
      <trkpt lat="45.9728" lon="4.84957">
        <ele>278</ele>
        <time>2017-08-20T09:24:28Z</time>
      </trkpt>
      <trkpt lat="45.97284" lon="4.84951">
        <ele>278</ele>
        <time>2017-08-20T09:24:29Z</time>
      </trkpt>
      <trkpt lat="45.97287" lon="4.84945">
        <ele>278</ele>
        <time>2017-08-20T09:24:30Z</time>
      </trkpt>
      <trkpt lat="45.97291" lon="4.84938">
        <ele>278</ele>
        <time>2017-08-20T09:24:31Z</time>
      </trkpt>
      <trkpt lat="45.97294" lon="4.84932">
        <ele>278</ele>
        <time>2017-08-20T09:24:32Z</time>
      </trkpt>
      <trkpt lat="45.97298" lon="4.84927">
        <ele>278</ele>
        <time>2017-08-20T09:24:33Z</time>
      </trkpt>
      <trkpt lat="45.97301" lon="4.84921">
        <ele>278</ele>
        <time>2017-08-20T09:24:34Z</time>
      </trkpt>
      <trkpt lat="45.97304" lon="4.84916">
        <ele>278</ele>
        <time>2017-08-20T09:24:35Z</time>
      </trkpt>
      <trkpt lat="45.97308" lon="4.8491">
        <ele>278</ele>
        <time>2017-08-20T09:24:36Z</time>
      </trkpt>
      <trkpt lat="45.97311" lon="4.84905">
        <ele>278</ele>
        <time>2017-08-20T09:24:37Z</time>
      </trkpt>
      <trkpt lat="45.97315" lon="4.84898">
        <ele>278</ele>
        <time>2017-08-20T09:24:38Z</time>
      </trkpt>
      <trkpt lat="45.97319" lon="4.84892">
        <ele>278</ele>
        <time>2017-08-20T09:24:39Z</time>
      </trkpt>
      <trkpt lat="45.97322" lon="4.84885">
        <ele>278</ele>
        <time>2017-08-20T09:24:40Z</time>
      </trkpt>
      <trkpt lat="45.97326" lon="4.84879">
        <ele>278</ele>
        <time>2017-08-20T09:24:41Z</time>
      </trkpt>
      <trkpt lat="45.9733" lon="4.84872">
        <ele>278</ele>
        <time>2017-08-20T09:24:42Z</time>
      </trkpt>
      <trkpt lat="45.97333" lon="4.84865">
        <ele>278</ele>
        <time>2017-08-20T09:24:43Z</time>
      </trkpt>
      <trkpt lat="45.97337" lon="4.84858">
        <ele>277</ele>
        <time>2017-08-20T09:24:44Z</time>
      </trkpt>
      <trkpt lat="45.97341" lon="4.84851">
        <ele>277</ele>
        <time>2017-08-20T09:24:45Z</time>
      </trkpt>
      <trkpt lat="45.97344" lon="4.84843">
        <ele>277</ele>
        <time>2017-08-20T09:24:46Z</time>
      </trkpt>
      <trkpt lat="45.97348" lon="4.84836">
        <ele>277</ele>
        <time>2017-08-20T09:24:47Z</time>
      </trkpt>
      <trkpt lat="45.97351" lon="4.84829">
        <ele>278</ele>
        <time>2017-08-20T09:24:48Z</time>
      </trkpt>
      <trkpt lat="45.97354" lon="4.84822">
        <ele>278</ele>
        <time>2017-08-20T09:24:49Z</time>
      </trkpt>
      <trkpt lat="45.97358" lon="4.84815">
        <ele>278</ele>
        <time>2017-08-20T09:24:50Z</time>
      </trkpt>
      <trkpt lat="45.97361" lon="4.84807">
        <ele>278</ele>
        <time>2017-08-20T09:24:51Z</time>
      </trkpt>
      <trkpt lat="45.97364" lon="4.84801">
        <ele>278</ele>
        <time>2017-08-20T09:24:52Z</time>
      </trkpt>
      <trkpt lat="45.97366" lon="4.84795">
        <ele>278</ele>
        <time>2017-08-20T09:24:53Z</time>
      </trkpt>
      <trkpt lat="45.97369" lon="4.84788">
        <ele>278</ele>
        <time>2017-08-20T09:24:54Z</time>
      </trkpt>
      <trkpt lat="45.97371" lon="4.84782">
        <ele>278</ele>
        <time>2017-08-20T09:24:55Z</time>
      </trkpt>
      <trkpt lat="45.97374" lon="4.84776">
        <ele>278</ele>
        <time>2017-08-20T09:24:56Z</time>
      </trkpt>
      <trkpt lat="45.97376" lon="4.84769">
        <ele>278</ele>
        <time>2017-08-20T09:24:57Z</time>
      </trkpt>
      <trkpt lat="45.97378" lon="4.84763">
        <ele>278</ele>
        <time>2017-08-20T09:24:58Z</time>
      </trkpt>
      <trkpt lat="45.9738" lon="4.84756">
        <ele>278</ele>
        <time>2017-08-20T09:24:59Z</time>
      </trkpt>
      <trkpt lat="45.97383" lon="4.84749">
        <ele>278</ele>
        <time>2017-08-20T09:25:00Z</time>
      </trkpt>
      <trkpt lat="45.97386" lon="4.84742">
        <ele>278</ele>
        <time>2017-08-20T09:25:01Z</time>
      </trkpt>
      <trkpt lat="45.9739" lon="4.84736">
        <ele>278</ele>
        <time>2017-08-20T09:25:02Z</time>
      </trkpt>
      <trkpt lat="45.97395" lon="4.84731">
        <ele>278</ele>
        <time>2017-08-20T09:25:03Z</time>
      </trkpt>
      <trkpt lat="45.974" lon="4.84725">
        <ele>278</ele>
        <time>2017-08-20T09:25:04Z</time>
      </trkpt>
      <trkpt lat="45.97405" lon="4.84721">
        <ele>278</ele>
        <time>2017-08-20T09:25:05Z</time>
      </trkpt>
      <trkpt lat="45.9741" lon="4.84717">
        <ele>278</ele>
        <time>2017-08-20T09:25:06Z</time>
      </trkpt>
      <trkpt lat="45.97415" lon="4.84713">
        <ele>278</ele>
        <time>2017-08-20T09:25:07Z</time>
      </trkpt>
      <trkpt lat="45.97421" lon="4.8471">
        <ele>276</ele>
        <time>2017-08-20T09:25:08Z</time>
      </trkpt>
      <trkpt lat="45.97426" lon="4.84707">
        <ele>276</ele>
        <time>2017-08-20T09:25:09Z</time>
      </trkpt>
      <trkpt lat="45.97431" lon="4.84704">
        <ele>276</ele>
        <time>2017-08-20T09:25:10Z</time>
      </trkpt>
      <trkpt lat="45.97436" lon="4.84701">
        <ele>276</ele>
        <time>2017-08-20T09:25:11Z</time>
      </trkpt>
      <trkpt lat="45.97441" lon="4.84698">
        <ele>276</ele>
        <time>2017-08-20T09:25:12Z</time>
      </trkpt>
      <trkpt lat="45.97446" lon="4.84694">
        <ele>276</ele>
        <time>2017-08-20T09:25:13Z</time>
      </trkpt>
      <trkpt lat="45.97451" lon="4.8469">
        <ele>276</ele>
        <time>2017-08-20T09:25:14Z</time>
      </trkpt>
      <trkpt lat="45.97457" lon="4.84686">
        <ele>276</ele>
        <time>2017-08-20T09:25:15Z</time>
      </trkpt>
      <trkpt lat="45.97462" lon="4.84682">
        <ele>276</ele>
        <time>2017-08-20T09:25:16Z</time>
      </trkpt>
      <trkpt lat="45.97468" lon="4.84679">
        <ele>276</ele>
        <time>2017-08-20T09:25:17Z</time>
      </trkpt>
      <trkpt lat="45.97474" lon="4.84674">
        <ele>276</ele>
        <time>2017-08-20T09:25:18Z</time>
      </trkpt>
      <trkpt lat="45.9748" lon="4.8467">
        <ele>276</ele>
        <time>2017-08-20T09:25:19Z</time>
      </trkpt>
      <trkpt lat="45.97485" lon="4.84666">
        <ele>275</ele>
        <time>2017-08-20T09:25:20Z</time>
      </trkpt>
      <trkpt lat="45.97491" lon="4.84663">
        <ele>275</ele>
        <time>2017-08-20T09:25:21Z</time>
      </trkpt>
      <trkpt lat="45.97496" lon="4.84659">
        <ele>275</ele>
        <time>2017-08-20T09:25:22Z</time>
      </trkpt>
      <trkpt lat="45.97501" lon="4.84656">
        <ele>275</ele>
        <time>2017-08-20T09:25:23Z</time>
      </trkpt>
      <trkpt lat="45.97506" lon="4.84652">
        <ele>275</ele>
        <time>2017-08-20T09:25:24Z</time>
      </trkpt>
      <trkpt lat="45.9751" lon="4.84649">
        <ele>275</ele>
        <time>2017-08-20T09:25:25Z</time>
      </trkpt>
      <trkpt lat="45.97515" lon="4.84646">
        <ele>275</ele>
        <time>2017-08-20T09:25:26Z</time>
      </trkpt>
      <trkpt lat="45.97519" lon="4.84642">
        <ele>275</ele>
        <time>2017-08-20T09:25:27Z</time>
      </trkpt>
      <trkpt lat="45.97523" lon="4.84639">
        <ele>275</ele>
        <time>2017-08-20T09:25:28Z</time>
      </trkpt>
      <trkpt lat="45.97528" lon="4.84635">
        <ele>275</ele>
        <time>2017-08-20T09:25:29Z</time>
      </trkpt>
      <trkpt lat="45.97533" lon="4.8463">
        <ele>275</ele>
        <time>2017-08-20T09:25:30Z</time>
      </trkpt>
      <trkpt lat="45.97539" lon="4.84626">
        <ele>275</ele>
        <time>2017-08-20T09:25:31Z</time>
      </trkpt>
      <trkpt lat="45.97544" lon="4.84621">
        <ele>274</ele>
        <time>2017-08-20T09:25:32Z</time>
      </trkpt>
      <trkpt lat="45.9755" lon="4.84617">
        <ele>274</ele>
        <time>2017-08-20T09:25:33Z</time>
      </trkpt>
      <trkpt lat="45.97555" lon="4.84612">
        <ele>274</ele>
        <time>2017-08-20T09:25:34Z</time>
      </trkpt>
      <trkpt lat="45.97561" lon="4.84607">
        <ele>274</ele>
        <time>2017-08-20T09:25:35Z</time>
      </trkpt>
      <trkpt lat="45.97566" lon="4.84601">
        <ele>274</ele>
        <time>2017-08-20T09:25:36Z</time>
      </trkpt>
      <trkpt lat="45.9757" lon="4.84596">
        <ele>274</ele>
        <time>2017-08-20T09:25:37Z</time>
      </trkpt>
      <trkpt lat="45.97575" lon="4.84591">
        <ele>274</ele>
        <time>2017-08-20T09:25:38Z</time>
      </trkpt>
      <trkpt lat="45.97579" lon="4.84586">
        <ele>274</ele>
        <time>2017-08-20T09:25:39Z</time>
      </trkpt>
      <trkpt lat="45.97583" lon="4.84581">
        <ele>274</ele>
        <time>2017-08-20T09:25:40Z</time>
      </trkpt>
      <trkpt lat="45.97588" lon="4.84577">
        <ele>274</ele>
        <time>2017-08-20T09:25:41Z</time>
      </trkpt>
      <trkpt lat="45.97592" lon="4.84572">
        <ele>274</ele>
        <time>2017-08-20T09:25:42Z</time>
      </trkpt>
      <trkpt lat="45.97596" lon="4.84567">
        <ele>274</ele>
        <time>2017-08-20T09:25:43Z</time>
      </trkpt>
      <trkpt lat="45.976" lon="4.84561">
        <ele>275</ele>
        <time>2017-08-20T09:25:44Z</time>
      </trkpt>
      <trkpt lat="45.97604" lon="4.84556">
        <ele>275</ele>
        <time>2017-08-20T09:25:45Z</time>
      </trkpt>
      <trkpt lat="45.97608" lon="4.8455">
        <ele>275</ele>
        <time>2017-08-20T09:25:46Z</time>
      </trkpt>
      <trkpt lat="45.97613" lon="4.84545">
        <ele>275</ele>
        <time>2017-08-20T09:25:47Z</time>
      </trkpt>
      <trkpt lat="45.97617" lon="4.84539">
        <ele>275</ele>
        <time>2017-08-20T09:25:48Z</time>
      </trkpt>
      <trkpt lat="45.97621" lon="4.84533">
        <ele>275</ele>
        <time>2017-08-20T09:25:49Z</time>
      </trkpt>
      <trkpt lat="45.97626" lon="4.84528">
        <ele>275</ele>
        <time>2017-08-20T09:25:50Z</time>
      </trkpt>
      <trkpt lat="45.9763" lon="4.84523">
        <ele>275</ele>
        <time>2017-08-20T09:25:51Z</time>
      </trkpt>
      <trkpt lat="45.97634" lon="4.84518">
        <ele>275</ele>
        <time>2017-08-20T09:25:52Z</time>
      </trkpt>
      <trkpt lat="45.97637" lon="4.84514">
        <ele>275</ele>
        <time>2017-08-20T09:25:53Z</time>
      </trkpt>
      <trkpt lat="45.97641" lon="4.8451">
        <ele>275</ele>
        <time>2017-08-20T09:25:54Z</time>
      </trkpt>
      <trkpt lat="45.97648" lon="4.84502">
        <ele>275</ele>
        <time>2017-08-20T09:25:56Z</time>
      </trkpt>
      <trkpt lat="45.97651" lon="4.84499">
        <ele>275</ele>
        <time>2017-08-20T09:25:57Z</time>
      </trkpt>
      <trkpt lat="45.97658" lon="4.84491">
        <ele>275</ele>
        <time>2017-08-20T09:25:59Z</time>
      </trkpt>
      <trkpt lat="45.97662" lon="4.84487">
        <ele>275</ele>
        <time>2017-08-20T09:26:00Z</time>
      </trkpt>
      <trkpt lat="45.97666" lon="4.84484">
        <ele>275</ele>
        <time>2017-08-20T09:26:01Z</time>
      </trkpt>
      <trkpt lat="45.97671" lon="4.8448">
        <ele>276</ele>
        <time>2017-08-20T09:26:02Z</time>
      </trkpt>
      <trkpt lat="45.97675" lon="4.84476">
        <ele>276</ele>
        <time>2017-08-20T09:26:03Z</time>
      </trkpt>
      <trkpt lat="45.97679" lon="4.84472">
        <ele>277</ele>
        <time>2017-08-20T09:26:04Z</time>
      </trkpt>
      <trkpt lat="45.97684" lon="4.84469">
        <ele>277</ele>
        <time>2017-08-20T09:26:05Z</time>
      </trkpt>
      <trkpt lat="45.97689" lon="4.84466">
        <ele>277</ele>
        <time>2017-08-20T09:26:06Z</time>
      </trkpt>
      <trkpt lat="45.97694" lon="4.84463">
        <ele>277</ele>
        <time>2017-08-20T09:26:07Z</time>
      </trkpt>
      <trkpt lat="45.97699" lon="4.8446">
        <ele>277</ele>
        <time>2017-08-20T09:26:08Z</time>
      </trkpt>
      <trkpt lat="45.97704" lon="4.84458">
        <ele>277</ele>
        <time>2017-08-20T09:26:09Z</time>
      </trkpt>
      <trkpt lat="45.97709" lon="4.84456">
        <ele>277</ele>
        <time>2017-08-20T09:26:10Z</time>
      </trkpt>
      <trkpt lat="45.97713" lon="4.84454">
        <ele>277</ele>
        <time>2017-08-20T09:26:11Z</time>
      </trkpt>
      <trkpt lat="45.97717" lon="4.84452">
        <ele>277</ele>
        <time>2017-08-20T09:26:12Z</time>
      </trkpt>
      <trkpt lat="45.97722" lon="4.84451">
        <ele>277</ele>
        <time>2017-08-20T09:26:13Z</time>
      </trkpt>
      <trkpt lat="45.97727" lon="4.84449">
        <ele>277</ele>
        <time>2017-08-20T09:26:14Z</time>
      </trkpt>
      <trkpt lat="45.97732" lon="4.84448">
        <ele>277</ele>
        <time>2017-08-20T09:26:15Z</time>
      </trkpt>
      <trkpt lat="45.97737" lon="4.84446">
        <ele>277</ele>
        <time>2017-08-20T09:26:16Z</time>
      </trkpt>
      <trkpt lat="45.97742" lon="4.84444">
        <ele>277</ele>
        <time>2017-08-20T09:26:17Z</time>
      </trkpt>
      <trkpt lat="45.97747" lon="4.84442">
        <ele>277</ele>
        <time>2017-08-20T09:26:18Z</time>
      </trkpt>
      <trkpt lat="45.97752" lon="4.8444">
        <ele>277</ele>
        <time>2017-08-20T09:26:19Z</time>
      </trkpt>
      <trkpt lat="45.97757" lon="4.84439">
        <ele>277</ele>
        <time>2017-08-20T09:26:20Z</time>
      </trkpt>
      <trkpt lat="45.97761" lon="4.84437">
        <ele>277</ele>
        <time>2017-08-20T09:26:21Z</time>
      </trkpt>
      <trkpt lat="45.97766" lon="4.84436">
        <ele>277</ele>
        <time>2017-08-20T09:26:22Z</time>
      </trkpt>
      <trkpt lat="45.9777" lon="4.84434">
        <ele>277</ele>
        <time>2017-08-20T09:26:23Z</time>
      </trkpt>
      <trkpt lat="45.97775" lon="4.84433">
        <ele>277</ele>
        <time>2017-08-20T09:26:24Z</time>
      </trkpt>
      <trkpt lat="45.9778" lon="4.84431">
        <ele>277</ele>
        <time>2017-08-20T09:26:25Z</time>
      </trkpt>
      <trkpt lat="45.97785" lon="4.84429">
        <ele>277</ele>
        <time>2017-08-20T09:26:26Z</time>
      </trkpt>
      <trkpt lat="45.9779" lon="4.84427">
        <ele>277</ele>
        <time>2017-08-20T09:26:27Z</time>
      </trkpt>
      <trkpt lat="45.97795" lon="4.84425">
        <ele>277</ele>
        <time>2017-08-20T09:26:28Z</time>
      </trkpt>
      <trkpt lat="45.978" lon="4.84423">
        <ele>277</ele>
        <time>2017-08-20T09:26:29Z</time>
      </trkpt>
      <trkpt lat="45.97804" lon="4.8442">
        <ele>277</ele>
        <time>2017-08-20T09:26:30Z</time>
      </trkpt>
      <trkpt lat="45.97809" lon="4.84418">
        <ele>277</ele>
        <time>2017-08-20T09:26:31Z</time>
      </trkpt>
      <trkpt lat="45.97813" lon="4.84416">
        <ele>276</ele>
        <time>2017-08-20T09:26:32Z</time>
      </trkpt>
      <trkpt lat="45.97818" lon="4.84413">
        <ele>276</ele>
        <time>2017-08-20T09:26:33Z</time>
      </trkpt>
      <trkpt lat="45.97822" lon="4.8441">
        <ele>276</ele>
        <time>2017-08-20T09:26:34Z</time>
      </trkpt>
      <trkpt lat="45.97826" lon="4.84407">
        <ele>276</ele>
        <time>2017-08-20T09:26:35Z</time>
      </trkpt>
      <trkpt lat="45.9783" lon="4.84404">
        <ele>276</ele>
        <time>2017-08-20T09:26:36Z</time>
      </trkpt>
      <trkpt lat="45.97834" lon="4.844">
        <ele>276</ele>
        <time>2017-08-20T09:26:37Z</time>
      </trkpt>
      <trkpt lat="45.97838" lon="4.84397">
        <ele>276</ele>
        <time>2017-08-20T09:26:38Z</time>
      </trkpt>
      <trkpt lat="45.97842" lon="4.84393">
        <ele>276</ele>
        <time>2017-08-20T09:26:39Z</time>
      </trkpt>
      <trkpt lat="45.97845" lon="4.84389">
        <ele>276</ele>
        <time>2017-08-20T09:26:40Z</time>
      </trkpt>
      <trkpt lat="45.97849" lon="4.84385">
        <ele>276</ele>
        <time>2017-08-20T09:26:41Z</time>
      </trkpt>
      <trkpt lat="45.97853" lon="4.8438">
        <ele>276</ele>
        <time>2017-08-20T09:26:42Z</time>
      </trkpt>
      <trkpt lat="45.97857" lon="4.84376">
        <ele>276</ele>
        <time>2017-08-20T09:26:43Z</time>
      </trkpt>
      <trkpt lat="45.9786" lon="4.84371">
        <ele>276</ele>
        <time>2017-08-20T09:26:44Z</time>
      </trkpt>
      <trkpt lat="45.97864" lon="4.84366">
        <ele>276</ele>
        <time>2017-08-20T09:26:45Z</time>
      </trkpt>
      <trkpt lat="45.97867" lon="4.84362">
        <ele>276</ele>
        <time>2017-08-20T09:26:46Z</time>
      </trkpt>
      <trkpt lat="45.9787" lon="4.84357">
        <ele>276</ele>
        <time>2017-08-20T09:26:47Z</time>
      </trkpt>
      <trkpt lat="45.97873" lon="4.84352">
        <ele>276</ele>
        <time>2017-08-20T09:26:48Z</time>
      </trkpt>
      <trkpt lat="45.97877" lon="4.84347">
        <ele>275</ele>
        <time>2017-08-20T09:26:49Z</time>
      </trkpt>
      <trkpt lat="45.9788" lon="4.84342">
        <ele>275</ele>
        <time>2017-08-20T09:26:50Z</time>
      </trkpt>
      <trkpt lat="45.97883" lon="4.84336">
        <ele>275</ele>
        <time>2017-08-20T09:26:51Z</time>
      </trkpt>
      <trkpt lat="45.97887" lon="4.84331">
        <ele>275</ele>
        <time>2017-08-20T09:26:52Z</time>
      </trkpt>
      <trkpt lat="45.97889" lon="4.84325">
        <ele>275</ele>
        <time>2017-08-20T09:26:53Z</time>
      </trkpt>
      <trkpt lat="45.97892" lon="4.8432">
        <ele>275</ele>
        <time>2017-08-20T09:26:54Z</time>
      </trkpt>
      <trkpt lat="45.97898" lon="4.84311">
        <ele>275</ele>
        <time>2017-08-20T09:26:56Z</time>
      </trkpt>
      <trkpt lat="45.97901" lon="4.84306">
        <ele>275</ele>
        <time>2017-08-20T09:26:57Z</time>
      </trkpt>
      <trkpt lat="45.97907" lon="4.84298">
        <ele>275</ele>
        <time>2017-08-20T09:26:59Z</time>
      </trkpt>
      <trkpt lat="45.97911" lon="4.84293">
        <ele>275</ele>
        <time>2017-08-20T09:27:00Z</time>
      </trkpt>
      <trkpt lat="45.97914" lon="4.84288">
        <ele>275</ele>
        <time>2017-08-20T09:27:01Z</time>
      </trkpt>
      <trkpt lat="45.97918" lon="4.84283">
        <ele>275</ele>
        <time>2017-08-20T09:27:02Z</time>
      </trkpt>
      <trkpt lat="45.97922" lon="4.84278">
        <ele>275</ele>
        <time>2017-08-20T09:27:03Z</time>
      </trkpt>
      <trkpt lat="45.97926" lon="4.84273">
        <ele>275</ele>
        <time>2017-08-20T09:27:04Z</time>
      </trkpt>
      <trkpt lat="45.9793" lon="4.84269">
        <ele>275</ele>
        <time>2017-08-20T09:27:05Z</time>
      </trkpt>
      <trkpt lat="45.97934" lon="4.84264">
        <ele>275</ele>
        <time>2017-08-20T09:27:06Z</time>
      </trkpt>
      <trkpt lat="45.97938" lon="4.8426">
        <ele>275</ele>
        <time>2017-08-20T09:27:07Z</time>
      </trkpt>
      <trkpt lat="45.97943" lon="4.84255">
        <ele>275</ele>
        <time>2017-08-20T09:27:08Z</time>
      </trkpt>
      <trkpt lat="45.97947" lon="4.84251">
        <ele>275</ele>
        <time>2017-08-20T09:27:09Z</time>
      </trkpt>
      <trkpt lat="45.97951" lon="4.84247">
        <ele>275</ele>
        <time>2017-08-20T09:27:10Z</time>
      </trkpt>
      <trkpt lat="45.97956" lon="4.84243">
        <ele>275</ele>
        <time>2017-08-20T09:27:11Z</time>
      </trkpt>
      <trkpt lat="45.9796" lon="4.84239">
        <ele>274</ele>
        <time>2017-08-20T09:27:12Z</time>
      </trkpt>
      <trkpt lat="45.97964" lon="4.84235">
        <ele>274</ele>
        <time>2017-08-20T09:27:13Z</time>
      </trkpt>
      <trkpt lat="45.97968" lon="4.84231">
        <ele>274</ele>
        <time>2017-08-20T09:27:14Z</time>
      </trkpt>
      <trkpt lat="45.97972" lon="4.84228">
        <ele>274</ele>
        <time>2017-08-20T09:27:15Z</time>
      </trkpt>
      <trkpt lat="45.97975" lon="4.84224">
        <ele>274</ele>
        <time>2017-08-20T09:27:16Z</time>
      </trkpt>
      <trkpt lat="45.9798" lon="4.84221">
        <ele>274</ele>
        <time>2017-08-20T09:27:17Z</time>
      </trkpt>
      <trkpt lat="45.97984" lon="4.84217">
        <ele>274</ele>
        <time>2017-08-20T09:27:18Z</time>
      </trkpt>
      <trkpt lat="45.97989" lon="4.84213">
        <ele>274</ele>
        <time>2017-08-20T09:27:19Z</time>
      </trkpt>
      <trkpt lat="45.97994" lon="4.84208">
        <ele>274</ele>
        <time>2017-08-20T09:27:20Z</time>
      </trkpt>
      <trkpt lat="45.97999" lon="4.84204">
        <ele>274</ele>
        <time>2017-08-20T09:27:21Z</time>
      </trkpt>
      <trkpt lat="45.98003" lon="4.84199">
        <ele>274</ele>
        <time>2017-08-20T09:27:22Z</time>
      </trkpt>
      <trkpt lat="45.98008" lon="4.84194">
        <ele>274</ele>
        <time>2017-08-20T09:27:23Z</time>
      </trkpt>
      <trkpt lat="45.98012" lon="4.8419">
        <ele>274</ele>
        <time>2017-08-20T09:27:24Z</time>
      </trkpt>
      <trkpt lat="45.98017" lon="4.84186">
        <ele>274</ele>
        <time>2017-08-20T09:27:25Z</time>
      </trkpt>
      <trkpt lat="45.98021" lon="4.84182">
        <ele>274</ele>
        <time>2017-08-20T09:27:26Z</time>
      </trkpt>
      <trkpt lat="45.98025" lon="4.84178">
        <ele>274</ele>
        <time>2017-08-20T09:27:27Z</time>
      </trkpt>
      <trkpt lat="45.98029" lon="4.84174">
        <ele>274</ele>
        <time>2017-08-20T09:27:28Z</time>
      </trkpt>
      <trkpt lat="45.98033" lon="4.8417">
        <ele>273</ele>
        <time>2017-08-20T09:27:29Z</time>
      </trkpt>
      <trkpt lat="45.98037" lon="4.84166">
        <ele>273</ele>
        <time>2017-08-20T09:27:30Z</time>
      </trkpt>
      <trkpt lat="45.98041" lon="4.84163">
        <ele>273</ele>
        <time>2017-08-20T09:27:31Z</time>
      </trkpt>
      <trkpt lat="45.98046" lon="4.84159">
        <ele>273</ele>
        <time>2017-08-20T09:27:32Z</time>
      </trkpt>
      <trkpt lat="45.9805" lon="4.84155">
        <ele>273</ele>
        <time>2017-08-20T09:27:33Z</time>
      </trkpt>
      <trkpt lat="45.98055" lon="4.84151">
        <ele>273</ele>
        <time>2017-08-20T09:27:34Z</time>
      </trkpt>
      <trkpt lat="45.9806" lon="4.84146">
        <ele>273</ele>
        <time>2017-08-20T09:27:35Z</time>
      </trkpt>
      <trkpt lat="45.98064" lon="4.84141">
        <ele>273</ele>
        <time>2017-08-20T09:27:36Z</time>
      </trkpt>
      <trkpt lat="45.98068" lon="4.84137">
        <ele>273</ele>
        <time>2017-08-20T09:27:37Z</time>
      </trkpt>
      <trkpt lat="45.98073" lon="4.84133">
        <ele>273</ele>
        <time>2017-08-20T09:27:38Z</time>
      </trkpt>
      <trkpt lat="45.98077" lon="4.8413">
        <ele>273</ele>
        <time>2017-08-20T09:27:39Z</time>
      </trkpt>
      <trkpt lat="45.98081" lon="4.84126">
        <ele>273</ele>
        <time>2017-08-20T09:27:40Z</time>
      </trkpt>
      <trkpt lat="45.98088" lon="4.84119">
        <ele>273</ele>
        <time>2017-08-20T09:27:42Z</time>
      </trkpt>
      <trkpt lat="45.98092" lon="4.84116">
        <ele>273</ele>
        <time>2017-08-20T09:27:43Z</time>
      </trkpt>
      <trkpt lat="45.98096" lon="4.84112">
        <ele>273</ele>
        <time>2017-08-20T09:27:44Z</time>
      </trkpt>
      <trkpt lat="45.981" lon="4.84108">
        <ele>273</ele>
        <time>2017-08-20T09:27:45Z</time>
      </trkpt>
      <trkpt lat="45.98104" lon="4.84103">
        <ele>273</ele>
        <time>2017-08-20T09:27:46Z</time>
      </trkpt>
      <trkpt lat="45.98109" lon="4.84099">
        <ele>273</ele>
        <time>2017-08-20T09:27:47Z</time>
      </trkpt>
      <trkpt lat="45.98114" lon="4.84094">
        <ele>273</ele>
        <time>2017-08-20T09:27:48Z</time>
      </trkpt>
      <trkpt lat="45.98119" lon="4.84089">
        <ele>273</ele>
        <time>2017-08-20T09:27:49Z</time>
      </trkpt>
      <trkpt lat="45.98124" lon="4.84084">
        <ele>273</ele>
        <time>2017-08-20T09:27:50Z</time>
      </trkpt>
      <trkpt lat="45.98129" lon="4.84079">
        <ele>273</ele>
        <time>2017-08-20T09:27:51Z</time>
      </trkpt>
      <trkpt lat="45.98134" lon="4.84073">
        <ele>273</ele>
        <time>2017-08-20T09:27:52Z</time>
      </trkpt>
      <trkpt lat="45.98139" lon="4.84068">
        <ele>273</ele>
        <time>2017-08-20T09:27:53Z</time>
      </trkpt>
      <trkpt lat="45.98143" lon="4.84062">
        <ele>273</ele>
        <time>2017-08-20T09:27:54Z</time>
      </trkpt>
      <trkpt lat="45.98148" lon="4.84056">
        <ele>273</ele>
        <time>2017-08-20T09:27:55Z</time>
      </trkpt>
      <trkpt lat="45.98152" lon="4.8405">
        <ele>273</ele>
        <time>2017-08-20T09:27:56Z</time>
      </trkpt>
      <trkpt lat="45.98156" lon="4.84044">
        <ele>273</ele>
        <time>2017-08-20T09:27:57Z</time>
      </trkpt>
      <trkpt lat="45.98159" lon="4.84039">
        <ele>273</ele>
        <time>2017-08-20T09:27:58Z</time>
      </trkpt>
      <trkpt lat="45.98163" lon="4.84033">
        <ele>273</ele>
        <time>2017-08-20T09:27:59Z</time>
      </trkpt>
      <trkpt lat="45.98167" lon="4.84027">
        <ele>273</ele>
        <time>2017-08-20T09:28:00Z</time>
      </trkpt>
      <trkpt lat="45.9817" lon="4.84021">
        <ele>273</ele>
        <time>2017-08-20T09:28:01Z</time>
      </trkpt>
      <trkpt lat="45.98174" lon="4.84014">
        <ele>273</ele>
        <time>2017-08-20T09:28:02Z</time>
      </trkpt>
      <trkpt lat="45.98177" lon="4.84008">
        <ele>273</ele>
        <time>2017-08-20T09:28:03Z</time>
      </trkpt>
      <trkpt lat="45.9818" lon="4.84001">
        <ele>273</ele>
        <time>2017-08-20T09:28:04Z</time>
      </trkpt>
      <trkpt lat="45.98183" lon="4.83993">
        <ele>273</ele>
        <time>2017-08-20T09:28:05Z</time>
      </trkpt>
      <trkpt lat="45.98186" lon="4.83985">
        <ele>273</ele>
        <time>2017-08-20T09:28:06Z</time>
      </trkpt>
      <trkpt lat="45.98189" lon="4.83978">
        <ele>273</ele>
        <time>2017-08-20T09:28:07Z</time>
      </trkpt>
      <trkpt lat="45.98192" lon="4.8397">
        <ele>273</ele>
        <time>2017-08-20T09:28:08Z</time>
      </trkpt>
      <trkpt lat="45.98194" lon="4.83962">
        <ele>273</ele>
        <time>2017-08-20T09:28:09Z</time>
      </trkpt>
      <trkpt lat="45.98197" lon="4.83954">
        <ele>273</ele>
        <time>2017-08-20T09:28:10Z</time>
      </trkpt>
      <trkpt lat="45.98199" lon="4.83947">
        <ele>273</ele>
        <time>2017-08-20T09:28:11Z</time>
      </trkpt>
      <trkpt lat="45.98202" lon="4.8394">
        <ele>273</ele>
        <time>2017-08-20T09:28:12Z</time>
      </trkpt>
      <trkpt lat="45.98204" lon="4.83934">
        <ele>273</ele>
        <time>2017-08-20T09:28:13Z</time>
      </trkpt>
      <trkpt lat="45.98207" lon="4.83927">
        <ele>273</ele>
        <time>2017-08-20T09:28:14Z</time>
      </trkpt>
      <trkpt lat="45.98209" lon="4.83921">
        <ele>273</ele>
        <time>2017-08-20T09:28:15Z</time>
      </trkpt>
      <trkpt lat="45.98211" lon="4.83915">
        <ele>273</ele>
        <time>2017-08-20T09:28:16Z</time>
      </trkpt>
      <trkpt lat="45.98213" lon="4.83908">
        <ele>273</ele>
        <time>2017-08-20T09:28:17Z</time>
      </trkpt>
      <trkpt lat="45.98216" lon="4.83901">
        <ele>273</ele>
        <time>2017-08-20T09:28:18Z</time>
      </trkpt>
      <trkpt lat="45.98218" lon="4.83894">
        <ele>273</ele>
        <time>2017-08-20T09:28:19Z</time>
      </trkpt>
      <trkpt lat="45.9822" lon="4.83887">
        <ele>272</ele>
        <time>2017-08-20T09:28:20Z</time>
      </trkpt>
      <trkpt lat="45.98223" lon="4.8388">
        <ele>272</ele>
        <time>2017-08-20T09:28:21Z</time>
      </trkpt>
      <trkpt lat="45.98226" lon="4.83872">
        <ele>272</ele>
        <time>2017-08-20T09:28:22Z</time>
      </trkpt>
      <trkpt lat="45.98229" lon="4.83864">
        <ele>272</ele>
        <time>2017-08-20T09:28:23Z</time>
      </trkpt>
      <trkpt lat="45.98231" lon="4.83856">
        <ele>272</ele>
        <time>2017-08-20T09:28:24Z</time>
      </trkpt>
      <trkpt lat="45.98234" lon="4.83849">
        <ele>272</ele>
        <time>2017-08-20T09:28:25Z</time>
      </trkpt>
      <trkpt lat="45.98236" lon="4.83841">
        <ele>272</ele>
        <time>2017-08-20T09:28:26Z</time>
      </trkpt>
      <trkpt lat="45.98238" lon="4.83834">
        <ele>272</ele>
        <time>2017-08-20T09:28:27Z</time>
      </trkpt>
      <trkpt lat="45.98241" lon="4.83827">
        <ele>272</ele>
        <time>2017-08-20T09:28:28Z</time>
      </trkpt>
      <trkpt lat="45.98243" lon="4.8382">
        <ele>272</ele>
        <time>2017-08-20T09:28:29Z</time>
      </trkpt>
      <trkpt lat="45.98245" lon="4.83813">
        <ele>272</ele>
        <time>2017-08-20T09:28:30Z</time>
      </trkpt>
      <trkpt lat="45.98247" lon="4.83807">
        <ele>272</ele>
        <time>2017-08-20T09:28:31Z</time>
      </trkpt>
      <trkpt lat="45.98249" lon="4.838">
        <ele>272</ele>
        <time>2017-08-20T09:28:32Z</time>
      </trkpt>
      <trkpt lat="45.98251" lon="4.83794">
        <ele>272</ele>
        <time>2017-08-20T09:28:33Z</time>
      </trkpt>
      <trkpt lat="45.98254" lon="4.83788">
        <ele>272</ele>
        <time>2017-08-20T09:28:34Z</time>
      </trkpt>
      <trkpt lat="45.98256" lon="4.83781">
        <ele>272</ele>
        <time>2017-08-20T09:28:35Z</time>
      </trkpt>
      <trkpt lat="45.98258" lon="4.83774">
        <ele>272</ele>
        <time>2017-08-20T09:28:36Z</time>
      </trkpt>
      <trkpt lat="45.98261" lon="4.83767">
        <ele>272</ele>
        <time>2017-08-20T09:28:37Z</time>
      </trkpt>
      <trkpt lat="45.98263" lon="4.8376">
        <ele>272</ele>
        <time>2017-08-20T09:28:38Z</time>
      </trkpt>
      <trkpt lat="45.98266" lon="4.83753">
        <ele>272</ele>
        <time>2017-08-20T09:28:39Z</time>
      </trkpt>
      <trkpt lat="45.98268" lon="4.83745">
        <ele>272</ele>
        <time>2017-08-20T09:28:40Z</time>
      </trkpt>
      <trkpt lat="45.98271" lon="4.83738">
        <ele>272</ele>
        <time>2017-08-20T09:28:41Z</time>
      </trkpt>
      <trkpt lat="45.98273" lon="4.83731">
        <ele>272</ele>
        <time>2017-08-20T09:28:42Z</time>
      </trkpt>
      <trkpt lat="45.98276" lon="4.83724">
        <ele>272</ele>
        <time>2017-08-20T09:28:43Z</time>
      </trkpt>
      <trkpt lat="45.98278" lon="4.83718">
        <ele>272</ele>
        <time>2017-08-20T09:28:44Z</time>
      </trkpt>
      <trkpt lat="45.9828" lon="4.83711">
        <ele>272</ele>
        <time>2017-08-20T09:28:45Z</time>
      </trkpt>
      <trkpt lat="45.98283" lon="4.83705">
        <ele>272</ele>
        <time>2017-08-20T09:28:46Z</time>
      </trkpt>
      <trkpt lat="45.98285" lon="4.83699">
        <ele>272</ele>
        <time>2017-08-20T09:28:47Z</time>
      </trkpt>
      <trkpt lat="45.98289" lon="4.83688">
        <ele>272</ele>
        <time>2017-08-20T09:28:49Z</time>
      </trkpt>
      <trkpt lat="45.98291" lon="4.83682">
        <ele>272</ele>
        <time>2017-08-20T09:28:50Z</time>
      </trkpt>
      <trkpt lat="45.98293" lon="4.83677">
        <ele>272</ele>
        <time>2017-08-20T09:28:51Z</time>
      </trkpt>
      <trkpt lat="45.98295" lon="4.83671">
        <ele>272</ele>
        <time>2017-08-20T09:28:52Z</time>
      </trkpt>
      <trkpt lat="45.98298" lon="4.83665">
        <ele>271</ele>
        <time>2017-08-20T09:28:53Z</time>
      </trkpt>
      <trkpt lat="45.98301" lon="4.83658">
        <ele>271</ele>
        <time>2017-08-20T09:28:54Z</time>
      </trkpt>
      <trkpt lat="45.98304" lon="4.83651">
        <ele>271</ele>
        <time>2017-08-20T09:28:55Z</time>
      </trkpt>
      <trkpt lat="45.98307" lon="4.83644">
        <ele>271</ele>
        <time>2017-08-20T09:28:56Z</time>
      </trkpt>
      <trkpt lat="45.9831" lon="4.83637">
        <ele>271</ele>
        <time>2017-08-20T09:28:57Z</time>
      </trkpt>
      <trkpt lat="45.98314" lon="4.8363">
        <ele>271</ele>
        <time>2017-08-20T09:28:58Z</time>
      </trkpt>
      <trkpt lat="45.98317" lon="4.83624">
        <ele>271</ele>
        <time>2017-08-20T09:28:59Z</time>
      </trkpt>
      <trkpt lat="45.9832" lon="4.83618">
        <ele>271</ele>
        <time>2017-08-20T09:29:00Z</time>
      </trkpt>
      <trkpt lat="45.98324" lon="4.83612">
        <ele>271</ele>
        <time>2017-08-20T09:29:01Z</time>
      </trkpt>
      <trkpt lat="45.98327" lon="4.83607">
        <ele>271</ele>
        <time>2017-08-20T09:29:02Z</time>
      </trkpt>
      <trkpt lat="45.98331" lon="4.83602">
        <ele>271</ele>
        <time>2017-08-20T09:29:03Z</time>
      </trkpt>
      <trkpt lat="45.98334" lon="4.83596">
        <ele>270</ele>
        <time>2017-08-20T09:29:04Z</time>
      </trkpt>
      <trkpt lat="45.98338" lon="4.83591">
        <ele>270</ele>
        <time>2017-08-20T09:29:05Z</time>
      </trkpt>
      <trkpt lat="45.98341" lon="4.83586">
        <ele>270</ele>
        <time>2017-08-20T09:29:06Z</time>
      </trkpt>
      <trkpt lat="45.98345" lon="4.83581">
        <ele>270</ele>
        <time>2017-08-20T09:29:07Z</time>
      </trkpt>
      <trkpt lat="45.98349" lon="4.83576">
        <ele>269</ele>
        <time>2017-08-20T09:29:08Z</time>
      </trkpt>
      <trkpt lat="45.98353" lon="4.83571">
        <ele>269</ele>
        <time>2017-08-20T09:29:09Z</time>
      </trkpt>
      <trkpt lat="45.98357" lon="4.83565">
        <ele>269</ele>
        <time>2017-08-20T09:29:10Z</time>
      </trkpt>
      <trkpt lat="45.98361" lon="4.83559">
        <ele>269</ele>
        <time>2017-08-20T09:29:11Z</time>
      </trkpt>
      <trkpt lat="45.98366" lon="4.83553">
        <ele>269</ele>
        <time>2017-08-20T09:29:12Z</time>
      </trkpt>
      <trkpt lat="45.9837" lon="4.83547">
        <ele>269</ele>
        <time>2017-08-20T09:29:13Z</time>
      </trkpt>
      <trkpt lat="45.98374" lon="4.83541">
        <ele>269</ele>
        <time>2017-08-20T09:29:14Z</time>
      </trkpt>
      <trkpt lat="45.98378" lon="4.83536">
        <ele>269</ele>
        <time>2017-08-20T09:29:15Z</time>
      </trkpt>
      <trkpt lat="45.98382" lon="4.8353">
        <ele>269</ele>
        <time>2017-08-20T09:29:16Z</time>
      </trkpt>
      <trkpt lat="45.98386" lon="4.83525">
        <ele>269</ele>
        <time>2017-08-20T09:29:17Z</time>
      </trkpt>
      <trkpt lat="45.9839" lon="4.8352">
        <ele>269</ele>
        <time>2017-08-20T09:29:18Z</time>
      </trkpt>
      <trkpt lat="45.98394" lon="4.83514">
        <ele>269</ele>
        <time>2017-08-20T09:29:19Z</time>
      </trkpt>
      <trkpt lat="45.98397" lon="4.83509">
        <ele>269</ele>
        <time>2017-08-20T09:29:20Z</time>
      </trkpt>
      <trkpt lat="45.98401" lon="4.83505">
        <ele>269</ele>
        <time>2017-08-20T09:29:21Z</time>
      </trkpt>
      <trkpt lat="45.98404" lon="4.835">
        <ele>268</ele>
        <time>2017-08-20T09:29:22Z</time>
      </trkpt>
      <trkpt lat="45.98408" lon="4.83496">
        <ele>268</ele>
        <time>2017-08-20T09:29:23Z</time>
      </trkpt>
      <trkpt lat="45.98412" lon="4.83491">
        <ele>268</ele>
        <time>2017-08-20T09:29:24Z</time>
      </trkpt>
      <trkpt lat="45.98416" lon="4.83486">
        <ele>269</ele>
        <time>2017-08-20T09:29:25Z</time>
      </trkpt>
      <trkpt lat="45.98419" lon="4.83481">
        <ele>268</ele>
        <time>2017-08-20T09:29:26Z</time>
      </trkpt>
      <trkpt lat="45.98423" lon="4.83476">
        <ele>268</ele>
        <time>2017-08-20T09:29:27Z</time>
      </trkpt>
      <trkpt lat="45.98427" lon="4.8347">
        <ele>268</ele>
        <time>2017-08-20T09:29:28Z</time>
      </trkpt>
      <trkpt lat="45.98432" lon="4.83465">
        <ele>268</ele>
        <time>2017-08-20T09:29:29Z</time>
      </trkpt>
      <trkpt lat="45.98436" lon="4.83459">
        <ele>268</ele>
        <time>2017-08-20T09:29:30Z</time>
      </trkpt>
      <trkpt lat="45.9844" lon="4.83453">
        <ele>268</ele>
        <time>2017-08-20T09:29:31Z</time>
      </trkpt>
      <trkpt lat="45.98445" lon="4.83447">
        <ele>268</ele>
        <time>2017-08-20T09:29:32Z</time>
      </trkpt>
      <trkpt lat="45.9845" lon="4.83441">
        <ele>268</ele>
        <time>2017-08-20T09:29:33Z</time>
      </trkpt>
      <trkpt lat="45.98454" lon="4.83436">
        <ele>268</ele>
        <time>2017-08-20T09:29:34Z</time>
      </trkpt>
      <trkpt lat="45.98459" lon="4.8343">
        <ele>268</ele>
        <time>2017-08-20T09:29:35Z</time>
      </trkpt>
      <trkpt lat="45.98463" lon="4.83424">
        <ele>269</ele>
        <time>2017-08-20T09:29:36Z</time>
      </trkpt>
      <trkpt lat="45.98467" lon="4.83419">
        <ele>269</ele>
        <time>2017-08-20T09:29:37Z</time>
      </trkpt>
      <trkpt lat="45.9847" lon="4.83413">
        <ele>269</ele>
        <time>2017-08-20T09:29:38Z</time>
      </trkpt>
      <trkpt lat="45.98474" lon="4.83409">
        <ele>269</ele>
        <time>2017-08-20T09:29:39Z</time>
      </trkpt>
      <trkpt lat="45.98477" lon="4.83404">
        <ele>269</ele>
        <time>2017-08-20T09:29:40Z</time>
      </trkpt>
      <trkpt lat="45.98481" lon="4.83399">
        <ele>269</ele>
        <time>2017-08-20T09:29:41Z</time>
      </trkpt>
      <trkpt lat="45.98484" lon="4.83393">
        <ele>269</ele>
        <time>2017-08-20T09:29:42Z</time>
      </trkpt>
      <trkpt lat="45.98488" lon="4.83388">
        <ele>269</ele>
        <time>2017-08-20T09:29:43Z</time>
      </trkpt>
      <trkpt lat="45.98492" lon="4.83383">
        <ele>269</ele>
        <time>2017-08-20T09:29:44Z</time>
      </trkpt>
      <trkpt lat="45.98497" lon="4.83378">
        <ele>269</ele>
        <time>2017-08-20T09:29:45Z</time>
      </trkpt>
      <trkpt lat="45.98501" lon="4.83372">
        <ele>269</ele>
        <time>2017-08-20T09:29:46Z</time>
      </trkpt>
      <trkpt lat="45.98505" lon="4.83367">
        <ele>269</ele>
        <time>2017-08-20T09:29:47Z</time>
      </trkpt>
      <trkpt lat="45.98509" lon="4.83361">
        <ele>269</ele>
        <time>2017-08-20T09:29:48Z</time>
      </trkpt>
      <trkpt lat="45.98513" lon="4.83356">
        <ele>269</ele>
        <time>2017-08-20T09:29:49Z</time>
      </trkpt>
      <trkpt lat="45.98517" lon="4.8335">
        <ele>270</ele>
        <time>2017-08-20T09:29:50Z</time>
      </trkpt>
      <trkpt lat="45.9852" lon="4.83346">
        <ele>270</ele>
        <time>2017-08-20T09:29:51Z</time>
      </trkpt>
      <trkpt lat="45.98524" lon="4.83341">
        <ele>270</ele>
        <time>2017-08-20T09:29:52Z</time>
      </trkpt>
      <trkpt lat="45.9853" lon="4.83333">
        <ele>269</ele>
        <time>2017-08-20T09:29:54Z</time>
      </trkpt>
      <trkpt lat="45.98533" lon="4.83328">
        <ele>269</ele>
        <time>2017-08-20T09:29:55Z</time>
      </trkpt>
      <trkpt lat="45.98539" lon="4.83319">
        <ele>269</ele>
        <time>2017-08-20T09:29:57Z</time>
      </trkpt>
      <trkpt lat="45.98542" lon="4.83315">
        <ele>269</ele>
        <time>2017-08-20T09:29:58Z</time>
      </trkpt>
      <trkpt lat="45.98546" lon="4.8331">
        <ele>269</ele>
        <time>2017-08-20T09:29:59Z</time>
      </trkpt>
      <trkpt lat="45.98549" lon="4.83305">
        <ele>269</ele>
        <time>2017-08-20T09:30:00Z</time>
      </trkpt>
      <trkpt lat="45.98553" lon="4.833">
        <ele>269</ele>
        <time>2017-08-20T09:30:01Z</time>
      </trkpt>
      <trkpt lat="45.98556" lon="4.83296">
        <ele>269</ele>
        <time>2017-08-20T09:30:02Z</time>
      </trkpt>
      <trkpt lat="45.9856" lon="4.83291">
        <ele>269</ele>
        <time>2017-08-20T09:30:03Z</time>
      </trkpt>
      <trkpt lat="45.98563" lon="4.83286">
        <ele>269</ele>
        <time>2017-08-20T09:30:04Z</time>
      </trkpt>
      <trkpt lat="45.98566" lon="4.83282">
        <ele>269</ele>
        <time>2017-08-20T09:30:05Z</time>
      </trkpt>
      <trkpt lat="45.98569" lon="4.83277">
        <ele>269</ele>
        <time>2017-08-20T09:30:06Z</time>
      </trkpt>
      <trkpt lat="45.98575" lon="4.83268">
        <ele>269</ele>
        <time>2017-08-20T09:30:08Z</time>
      </trkpt>
      <trkpt lat="45.98578" lon="4.83264">
        <ele>269</ele>
        <time>2017-08-20T09:30:09Z</time>
      </trkpt>
      <trkpt lat="45.98585" lon="4.83257">
        <ele>268</ele>
        <time>2017-08-20T09:30:11Z</time>
      </trkpt>
      <trkpt lat="45.98588" lon="4.83252">
        <ele>268</ele>
        <time>2017-08-20T09:30:12Z</time>
      </trkpt>
      <trkpt lat="45.98591" lon="4.83248">
        <ele>268</ele>
        <time>2017-08-20T09:30:13Z</time>
      </trkpt>
      <trkpt lat="45.98595" lon="4.83243">
        <ele>268</ele>
        <time>2017-08-20T09:30:14Z</time>
      </trkpt>
      <trkpt lat="45.98599" lon="4.83238">
        <ele>268</ele>
        <time>2017-08-20T09:30:15Z</time>
      </trkpt>
      <trkpt lat="45.98603" lon="4.83233">
        <ele>268</ele>
        <time>2017-08-20T09:30:16Z</time>
      </trkpt>
      <trkpt lat="45.98606" lon="4.83228">
        <ele>267</ele>
        <time>2017-08-20T09:30:17Z</time>
      </trkpt>
      <trkpt lat="45.9861" lon="4.83223">
        <ele>267</ele>
        <time>2017-08-20T09:30:18Z</time>
      </trkpt>
      <trkpt lat="45.98614" lon="4.83218">
        <ele>267</ele>
        <time>2017-08-20T09:30:19Z</time>
      </trkpt>
      <trkpt lat="45.98617" lon="4.83213">
        <ele>267</ele>
        <time>2017-08-20T09:30:20Z</time>
      </trkpt>
      <trkpt lat="45.98621" lon="4.83208">
        <ele>267</ele>
        <time>2017-08-20T09:30:21Z</time>
      </trkpt>
      <trkpt lat="45.98625" lon="4.83204">
        <ele>267</ele>
        <time>2017-08-20T09:30:22Z</time>
      </trkpt>
      <trkpt lat="45.98629" lon="4.832">
        <ele>267</ele>
        <time>2017-08-20T09:30:23Z</time>
      </trkpt>
      <trkpt lat="45.98632" lon="4.83195">
        <ele>267</ele>
        <time>2017-08-20T09:30:24Z</time>
      </trkpt>
      <trkpt lat="45.98636" lon="4.83191">
        <ele>267</ele>
        <time>2017-08-20T09:30:25Z</time>
      </trkpt>
      <trkpt lat="45.9864" lon="4.83187">
        <ele>267</ele>
        <time>2017-08-20T09:30:26Z</time>
      </trkpt>
      <trkpt lat="45.98643" lon="4.83183">
        <ele>267</ele>
        <time>2017-08-20T09:30:27Z</time>
      </trkpt>
      <trkpt lat="45.98647" lon="4.83179">
        <ele>267</ele>
        <time>2017-08-20T09:30:28Z</time>
      </trkpt>
      <trkpt lat="45.98651" lon="4.83175">
        <ele>267</ele>
        <time>2017-08-20T09:30:29Z</time>
      </trkpt>
      <trkpt lat="45.98656" lon="4.83171">
        <ele>266</ele>
        <time>2017-08-20T09:30:30Z</time>
      </trkpt>
      <trkpt lat="45.98661" lon="4.83167">
        <ele>266</ele>
        <time>2017-08-20T09:30:31Z</time>
      </trkpt>
      <trkpt lat="45.98666" lon="4.83163">
        <ele>266</ele>
        <time>2017-08-20T09:30:32Z</time>
      </trkpt>
      <trkpt lat="45.98672" lon="4.83159">
        <ele>266</ele>
        <time>2017-08-20T09:30:33Z</time>
      </trkpt>
      <trkpt lat="45.98677" lon="4.83156">
        <ele>266</ele>
        <time>2017-08-20T09:30:34Z</time>
      </trkpt>
      <trkpt lat="45.98682" lon="4.83152">
        <ele>266</ele>
        <time>2017-08-20T09:30:35Z</time>
      </trkpt>
      <trkpt lat="45.98687" lon="4.83149">
        <ele>266</ele>
        <time>2017-08-20T09:30:36Z</time>
      </trkpt>
      <trkpt lat="45.98692" lon="4.83146">
        <ele>266</ele>
        <time>2017-08-20T09:30:37Z</time>
      </trkpt>
      <trkpt lat="45.98696" lon="4.83142">
        <ele>266</ele>
        <time>2017-08-20T09:30:38Z</time>
      </trkpt>
      <trkpt lat="45.987" lon="4.83139">
        <ele>266</ele>
        <time>2017-08-20T09:30:39Z</time>
      </trkpt>
      <trkpt lat="45.98705" lon="4.83135">
        <ele>266</ele>
        <time>2017-08-20T09:30:40Z</time>
      </trkpt>
      <trkpt lat="45.98709" lon="4.83132">
        <ele>266</ele>
        <time>2017-08-20T09:30:41Z</time>
      </trkpt>
      <trkpt lat="45.98714" lon="4.83128">
        <ele>266</ele>
        <time>2017-08-20T09:30:42Z</time>
      </trkpt>
      <trkpt lat="45.98718" lon="4.83124">
        <ele>266</ele>
        <time>2017-08-20T09:30:43Z</time>
      </trkpt>
      <trkpt lat="45.98723" lon="4.8312">
        <ele>266</ele>
        <time>2017-08-20T09:30:44Z</time>
      </trkpt>
      <trkpt lat="45.98727" lon="4.83115">
        <ele>267</ele>
        <time>2017-08-20T09:30:45Z</time>
      </trkpt>
      <trkpt lat="45.98731" lon="4.83111">
        <ele>267</ele>
        <time>2017-08-20T09:30:46Z</time>
      </trkpt>
      <trkpt lat="45.98736" lon="4.83108">
        <ele>267</ele>
        <time>2017-08-20T09:30:47Z</time>
      </trkpt>
      <trkpt lat="45.9874" lon="4.83104">
        <ele>267</ele>
        <time>2017-08-20T09:30:48Z</time>
      </trkpt>
      <trkpt lat="45.98745" lon="4.83101">
        <ele>267</ele>
        <time>2017-08-20T09:30:49Z</time>
      </trkpt>
      <trkpt lat="45.98749" lon="4.83097">
        <ele>267</ele>
        <time>2017-08-20T09:30:50Z</time>
      </trkpt>
      <trkpt lat="45.98753" lon="4.83093">
        <ele>266</ele>
        <time>2017-08-20T09:30:51Z</time>
      </trkpt>
      <trkpt lat="45.98758" lon="4.8309">
        <ele>266</ele>
        <time>2017-08-20T09:30:52Z</time>
      </trkpt>
      <trkpt lat="45.98763" lon="4.83086">
        <ele>266</ele>
        <time>2017-08-20T09:30:53Z</time>
      </trkpt>
      <trkpt lat="45.98767" lon="4.83082">
        <ele>266</ele>
        <time>2017-08-20T09:30:54Z</time>
      </trkpt>
      <trkpt lat="45.98772" lon="4.83077">
        <ele>265</ele>
        <time>2017-08-20T09:30:55Z</time>
      </trkpt>
      <trkpt lat="45.98777" lon="4.83073">
        <ele>265</ele>
        <time>2017-08-20T09:30:56Z</time>
      </trkpt>
      <trkpt lat="45.98782" lon="4.83069">
        <ele>265</ele>
        <time>2017-08-20T09:30:57Z</time>
      </trkpt>
      <trkpt lat="45.98788" lon="4.83064">
        <ele>265</ele>
        <time>2017-08-20T09:30:58Z</time>
      </trkpt>
      <trkpt lat="45.98793" lon="4.8306">
        <ele>265</ele>
        <time>2017-08-20T09:30:59Z</time>
      </trkpt>
      <trkpt lat="45.98799" lon="4.83055">
        <ele>264</ele>
        <time>2017-08-20T09:31:00Z</time>
      </trkpt>
      <trkpt lat="45.98804" lon="4.8305">
        <ele>264</ele>
        <time>2017-08-20T09:31:01Z</time>
      </trkpt>
      <trkpt lat="45.9881" lon="4.83046">
        <ele>264</ele>
        <time>2017-08-20T09:31:02Z</time>
      </trkpt>
      <trkpt lat="45.98815" lon="4.83041">
        <ele>264</ele>
        <time>2017-08-20T09:31:03Z</time>
      </trkpt>
      <trkpt lat="45.98821" lon="4.83036">
        <ele>264</ele>
        <time>2017-08-20T09:31:04Z</time>
      </trkpt>
      <trkpt lat="45.98827" lon="4.83032">
        <ele>264</ele>
        <time>2017-08-20T09:31:05Z</time>
      </trkpt>
      <trkpt lat="45.98834" lon="4.83027">
        <ele>261</ele>
        <time>2017-08-20T09:31:06Z</time>
      </trkpt>
      <trkpt lat="45.9884" lon="4.83023">
        <ele>261</ele>
        <time>2017-08-20T09:31:07Z</time>
      </trkpt>
      <trkpt lat="45.98847" lon="4.83018">
        <ele>261</ele>
        <time>2017-08-20T09:31:08Z</time>
      </trkpt>
      <trkpt lat="45.98853" lon="4.83014">
        <ele>261</ele>
        <time>2017-08-20T09:31:09Z</time>
      </trkpt>
      <trkpt lat="45.98859" lon="4.83009">
        <ele>261</ele>
        <time>2017-08-20T09:31:10Z</time>
      </trkpt>
      <trkpt lat="45.98866" lon="4.83005">
        <ele>260</ele>
        <time>2017-08-20T09:31:11Z</time>
      </trkpt>
      <trkpt lat="45.98873" lon="4.83">
        <ele>260</ele>
        <time>2017-08-20T09:31:12Z</time>
      </trkpt>
      <trkpt lat="45.9888" lon="4.82995">
        <ele>260</ele>
        <time>2017-08-20T09:31:13Z</time>
      </trkpt>
      <trkpt lat="45.98888" lon="4.82989">
        <ele>259</ele>
        <time>2017-08-20T09:31:14Z</time>
      </trkpt>
      <trkpt lat="45.98896" lon="4.82983">
        <ele>259</ele>
        <time>2017-08-20T09:31:15Z</time>
      </trkpt>
      <trkpt lat="45.98904" lon="4.82976">
        <ele>259</ele>
        <time>2017-08-20T09:31:16Z</time>
      </trkpt>
      <trkpt lat="45.98911" lon="4.82968">
        <ele>258</ele>
        <time>2017-08-20T09:31:17Z</time>
      </trkpt>
      <trkpt lat="45.98918" lon="4.82959">
        <ele>255</ele>
        <time>2017-08-20T09:31:18Z</time>
      </trkpt>
      <trkpt lat="45.98925" lon="4.82947">
        <ele>255</ele>
        <time>2017-08-20T09:31:19Z</time>
      </trkpt>
      <trkpt lat="45.9893" lon="4.82933">
        <ele>255</ele>
        <time>2017-08-20T09:31:20Z</time>
      </trkpt>
      <trkpt lat="45.98936" lon="4.8292">
        <ele>255</ele>
        <time>2017-08-20T09:31:21Z</time>
      </trkpt>
      <trkpt lat="45.98942" lon="4.82905">
        <ele>253</ele>
        <time>2017-08-20T09:31:22Z</time>
      </trkpt>
      <trkpt lat="45.98948" lon="4.8289">
        <ele>253</ele>
        <time>2017-08-20T09:31:23Z</time>
      </trkpt>
      <trkpt lat="45.98955" lon="4.82875">
        <ele>253</ele>
        <time>2017-08-20T09:31:24Z</time>
      </trkpt>
      <trkpt lat="45.98961" lon="4.8286">
        <ele>252</ele>
        <time>2017-08-20T09:31:25Z</time>
      </trkpt>
      <trkpt lat="45.98968" lon="4.82846">
        <ele>252</ele>
        <time>2017-08-20T09:31:26Z</time>
      </trkpt>
      <trkpt lat="45.98974" lon="4.82831">
        <ele>249</ele>
        <time>2017-08-20T09:31:27Z</time>
      </trkpt>
      <trkpt lat="45.98981" lon="4.82815">
        <ele>248</ele>
        <time>2017-08-20T09:31:28Z</time>
      </trkpt>
      <trkpt lat="45.98988" lon="4.828">
        <ele>248</ele>
        <time>2017-08-20T09:31:29Z</time>
      </trkpt>
      <trkpt lat="45.98995" lon="4.82784">
        <ele>247</ele>
        <time>2017-08-20T09:31:30Z</time>
      </trkpt>
      <trkpt lat="45.99002" lon="4.82769">
        <ele>241</ele>
        <time>2017-08-20T09:31:31Z</time>
      </trkpt>
      <trkpt lat="45.99008" lon="4.82753">
        <ele>241</ele>
        <time>2017-08-20T09:31:32Z</time>
      </trkpt>
      <trkpt lat="45.99015" lon="4.82737">
        <ele>239</ele>
        <time>2017-08-20T09:31:33Z</time>
      </trkpt>
      <trkpt lat="45.99022" lon="4.82722">
        <ele>239</ele>
        <time>2017-08-20T09:31:34Z</time>
      </trkpt>
      <trkpt lat="45.99029" lon="4.82706">
        <ele>238</ele>
        <time>2017-08-20T09:31:35Z</time>
      </trkpt>
      <trkpt lat="45.99035" lon="4.8269">
        <ele>238</ele>
        <time>2017-08-20T09:31:36Z</time>
      </trkpt>
      <trkpt lat="45.99042" lon="4.82676">
        <ele>238</ele>
        <time>2017-08-20T09:31:37Z</time>
      </trkpt>
      <trkpt lat="45.99048" lon="4.82661">
        <ele>236</ele>
        <time>2017-08-20T09:31:38Z</time>
      </trkpt>
      <trkpt lat="45.99054" lon="4.82648">
        <ele>236</ele>
        <time>2017-08-20T09:31:39Z</time>
      </trkpt>
      <trkpt lat="45.99059" lon="4.82635">
        <ele>236</ele>
        <time>2017-08-20T09:31:40Z</time>
      </trkpt>
      <trkpt lat="45.99064" lon="4.82624">
        <ele>236</ele>
        <time>2017-08-20T09:31:41Z</time>
      </trkpt>
      <trkpt lat="45.99068" lon="4.82614">
        <ele>236</ele>
        <time>2017-08-20T09:31:42Z</time>
      </trkpt>
      <trkpt lat="45.99072" lon="4.82605">
        <ele>236</ele>
        <time>2017-08-20T09:31:43Z</time>
      </trkpt>
      <trkpt lat="45.99076" lon="4.82597">
        <ele>235</ele>
        <time>2017-08-20T09:31:44Z</time>
      </trkpt>
      <trkpt lat="45.99077" lon="4.8259">
        <ele>235</ele>
        <time>2017-08-20T09:31:45Z</time>
      </trkpt>
      <trkpt lat="45.99078" lon="4.82578">
        <ele>235</ele>
        <time>2017-08-20T09:31:47Z</time>
      </trkpt>
      <trkpt lat="45.99075" lon="4.82572">
        <ele>235</ele>
        <time>2017-08-20T09:31:48Z</time>
      </trkpt>
      <trkpt lat="45.9907" lon="4.82568">
        <ele>235</ele>
        <time>2017-08-20T09:31:49Z</time>
      </trkpt>
      <trkpt lat="45.99064" lon="4.82565">
        <ele>235</ele>
        <time>2017-08-20T09:31:50Z</time>
      </trkpt>
      <trkpt lat="45.99059" lon="4.82563">
        <ele>235</ele>
        <time>2017-08-20T09:31:51Z</time>
      </trkpt>
      <trkpt lat="45.99053" lon="4.82561">
        <ele>235</ele>
        <time>2017-08-20T09:31:52Z</time>
      </trkpt>
      <trkpt lat="45.99048" lon="4.82559">
        <ele>235</ele>
        <time>2017-08-20T09:31:53Z</time>
      </trkpt>
      <trkpt lat="45.99044" lon="4.82556">
        <ele>235</ele>
        <time>2017-08-20T09:31:54Z</time>
      </trkpt>
      <trkpt lat="45.99039" lon="4.82553">
        <ele>235</ele>
        <time>2017-08-20T09:31:55Z</time>
      </trkpt>
      <trkpt lat="45.99035" lon="4.82549">
        <ele>235</ele>
        <time>2017-08-20T09:31:56Z</time>
      </trkpt>
      <trkpt lat="45.99031" lon="4.82545">
        <ele>235</ele>
        <time>2017-08-20T09:31:57Z</time>
      </trkpt>
      <trkpt lat="45.99027" lon="4.82542">
        <ele>235</ele>
        <time>2017-08-20T09:31:58Z</time>
      </trkpt>
      <trkpt lat="45.9902" lon="4.82534">
        <ele>235</ele>
        <time>2017-08-20T09:32:00Z</time>
      </trkpt>
      <trkpt lat="45.99017" lon="4.82529">
        <ele>235</ele>
        <time>2017-08-20T09:32:01Z</time>
      </trkpt>
      <trkpt lat="45.99015" lon="4.82524">
        <ele>235</ele>
        <time>2017-08-20T09:32:02Z</time>
      </trkpt>
      <trkpt lat="45.99012" lon="4.82518">
        <ele>235</ele>
        <time>2017-08-20T09:32:03Z</time>
      </trkpt>
      <trkpt lat="45.99009" lon="4.82512">
        <ele>235</ele>
        <time>2017-08-20T09:32:04Z</time>
      </trkpt>
      <trkpt lat="45.99006" lon="4.82507">
        <ele>235</ele>
        <time>2017-08-20T09:32:05Z</time>
      </trkpt>
      <trkpt lat="45.99002" lon="4.82501">
        <ele>235</ele>
        <time>2017-08-20T09:32:06Z</time>
      </trkpt>
      <trkpt lat="45.98999" lon="4.82494">
        <ele>235</ele>
        <time>2017-08-20T09:32:07Z</time>
      </trkpt>
      <trkpt lat="45.98997" lon="4.82486">
        <ele>236</ele>
        <time>2017-08-20T09:32:08Z</time>
      </trkpt>
      <trkpt lat="45.98994" lon="4.82478">
        <ele>236</ele>
        <time>2017-08-20T09:32:09Z</time>
      </trkpt>
      <trkpt lat="45.98991" lon="4.8247">
        <ele>236</ele>
        <time>2017-08-20T09:32:10Z</time>
      </trkpt>
      <trkpt lat="45.98989" lon="4.82461">
        <ele>236</ele>
        <time>2017-08-20T09:32:11Z</time>
      </trkpt>
      <trkpt lat="45.98986" lon="4.82453">
        <ele>236</ele>
        <time>2017-08-20T09:32:12Z</time>
      </trkpt>
      <trkpt lat="45.98984" lon="4.82445">
        <ele>236</ele>
        <time>2017-08-20T09:32:13Z</time>
      </trkpt>
      <trkpt lat="45.98982" lon="4.82437">
        <ele>236</ele>
        <time>2017-08-20T09:32:14Z</time>
      </trkpt>
      <trkpt lat="45.9898" lon="4.82429">
        <ele>236</ele>
        <time>2017-08-20T09:32:15Z</time>
      </trkpt>
      <trkpt lat="45.98977" lon="4.82422">
        <ele>236</ele>
        <time>2017-08-20T09:32:16Z</time>
      </trkpt>
      <trkpt lat="45.98975" lon="4.82416">
        <ele>235</ele>
        <time>2017-08-20T09:32:17Z</time>
      </trkpt>
      <trkpt lat="45.98973" lon="4.82409">
        <ele>235</ele>
        <time>2017-08-20T09:32:18Z</time>
      </trkpt>
      <trkpt lat="45.98972" lon="4.82402">
        <ele>235</ele>
        <time>2017-08-20T09:32:19Z</time>
      </trkpt>
      <trkpt lat="45.9897" lon="4.82394">
        <ele>235</ele>
        <time>2017-08-20T09:32:20Z</time>
      </trkpt>
      <trkpt lat="45.98968" lon="4.82387">
        <ele>235</ele>
        <time>2017-08-20T09:32:21Z</time>
      </trkpt>
      <trkpt lat="45.98965" lon="4.82379">
        <ele>235</ele>
        <time>2017-08-20T09:32:22Z</time>
      </trkpt>
      <trkpt lat="45.98963" lon="4.82371">
        <ele>235</ele>
        <time>2017-08-20T09:32:23Z</time>
      </trkpt>
      <trkpt lat="45.9896" lon="4.82362">
        <ele>235</ele>
        <time>2017-08-20T09:32:24Z</time>
      </trkpt>
      <trkpt lat="45.98957" lon="4.82354">
        <ele>235</ele>
        <time>2017-08-20T09:32:25Z</time>
      </trkpt>
      <trkpt lat="45.98953" lon="4.82347">
        <ele>235</ele>
        <time>2017-08-20T09:32:26Z</time>
      </trkpt>
      <trkpt lat="45.98949" lon="4.8234">
        <ele>235</ele>
        <time>2017-08-20T09:32:27Z</time>
      </trkpt>
      <trkpt lat="45.98945" lon="4.82333">
        <ele>234</ele>
        <time>2017-08-20T09:32:28Z</time>
      </trkpt>
      <trkpt lat="45.98941" lon="4.82328">
        <ele>234</ele>
        <time>2017-08-20T09:32:29Z</time>
      </trkpt>
      <trkpt lat="45.98937" lon="4.82322">
        <ele>235</ele>
        <time>2017-08-20T09:32:30Z</time>
      </trkpt>
      <trkpt lat="45.98933" lon="4.82317">
        <ele>235</ele>
        <time>2017-08-20T09:32:31Z</time>
      </trkpt>
      <trkpt lat="45.98929" lon="4.82312">
        <ele>235</ele>
        <time>2017-08-20T09:32:32Z</time>
      </trkpt>
      <trkpt lat="45.98925" lon="4.82307">
        <ele>234</ele>
        <time>2017-08-20T09:32:33Z</time>
      </trkpt>
      <trkpt lat="45.98922" lon="4.82303">
        <ele>234</ele>
        <time>2017-08-20T09:32:34Z</time>
      </trkpt>
      <trkpt lat="45.98918" lon="4.82298">
        <ele>234</ele>
        <time>2017-08-20T09:32:35Z</time>
      </trkpt>
      <trkpt lat="45.98914" lon="4.82293">
        <ele>236</ele>
        <time>2017-08-20T09:32:36Z</time>
      </trkpt>
      <trkpt lat="45.9891" lon="4.82288">
        <ele>236</ele>
        <time>2017-08-20T09:32:37Z</time>
      </trkpt>
      <trkpt lat="45.98906" lon="4.82282">
        <ele>236</ele>
        <time>2017-08-20T09:32:38Z</time>
      </trkpt>
      <trkpt lat="45.98901" lon="4.82276">
        <ele>236</ele>
        <time>2017-08-20T09:32:39Z</time>
      </trkpt>
      <trkpt lat="45.98897" lon="4.82269">
        <ele>236</ele>
        <time>2017-08-20T09:32:40Z</time>
      </trkpt>
      <trkpt lat="45.98893" lon="4.82262">
        <ele>236</ele>
        <time>2017-08-20T09:32:41Z</time>
      </trkpt>
      <trkpt lat="45.98889" lon="4.82255">
        <ele>236</ele>
        <time>2017-08-20T09:32:42Z</time>
      </trkpt>
      <trkpt lat="45.98885" lon="4.82247">
        <ele>235</ele>
        <time>2017-08-20T09:32:43Z</time>
      </trkpt>
      <trkpt lat="45.98881" lon="4.82239">
        <ele>236</ele>
        <time>2017-08-20T09:32:44Z</time>
      </trkpt>
      <trkpt lat="45.98877" lon="4.82231">
        <ele>236</ele>
        <time>2017-08-20T09:32:45Z</time>
      </trkpt>
      <trkpt lat="45.98874" lon="4.82223">
        <ele>236</ele>
        <time>2017-08-20T09:32:46Z</time>
      </trkpt>
      <trkpt lat="45.9887" lon="4.82214">
        <ele>236</ele>
        <time>2017-08-20T09:32:47Z</time>
      </trkpt>
      <trkpt lat="45.98865" lon="4.82205">
        <ele>236</ele>
        <time>2017-08-20T09:32:48Z</time>
      </trkpt>
      <trkpt lat="45.98862" lon="4.82197">
        <ele>236</ele>
        <time>2017-08-20T09:32:49Z</time>
      </trkpt>
      <trkpt lat="45.98857" lon="4.82188">
        <ele>236</ele>
        <time>2017-08-20T09:32:50Z</time>
      </trkpt>
      <trkpt lat="45.98854" lon="4.8218">
        <ele>236</ele>
        <time>2017-08-20T09:32:51Z</time>
      </trkpt>
      <trkpt lat="45.98851" lon="4.82171">
        <ele>236</ele>
        <time>2017-08-20T09:32:52Z</time>
      </trkpt>
      <trkpt lat="45.98849" lon="4.82161">
        <ele>236</ele>
        <time>2017-08-20T09:32:53Z</time>
      </trkpt>
      <trkpt lat="45.98847" lon="4.82152">
        <ele>236</ele>
        <time>2017-08-20T09:32:54Z</time>
      </trkpt>
      <trkpt lat="45.98845" lon="4.82142">
        <ele>236</ele>
        <time>2017-08-20T09:32:55Z</time>
      </trkpt>
      <trkpt lat="45.98844" lon="4.82133">
        <ele>236</ele>
        <time>2017-08-20T09:32:56Z</time>
      </trkpt>
      <trkpt lat="45.98842" lon="4.82124">
        <ele>235</ele>
        <time>2017-08-20T09:32:57Z</time>
      </trkpt>
      <trkpt lat="45.98841" lon="4.82115">
        <ele>235</ele>
        <time>2017-08-20T09:32:58Z</time>
      </trkpt>
      <trkpt lat="45.98839" lon="4.82107">
        <ele>235</ele>
        <time>2017-08-20T09:32:59Z</time>
      </trkpt>
      <trkpt lat="45.98838" lon="4.82098">
        <ele>236</ele>
        <time>2017-08-20T09:33:00Z</time>
      </trkpt>
      <trkpt lat="45.98837" lon="4.8209">
        <ele>236</ele>
        <time>2017-08-20T09:33:01Z</time>
      </trkpt>
      <trkpt lat="45.98836" lon="4.82082">
        <ele>236</ele>
        <time>2017-08-20T09:33:02Z</time>
      </trkpt>
      <trkpt lat="45.98835" lon="4.82074">
        <ele>236</ele>
        <time>2017-08-20T09:33:03Z</time>
      </trkpt>
      <trkpt lat="45.98833" lon="4.82067">
        <ele>237</ele>
        <time>2017-08-20T09:33:04Z</time>
      </trkpt>
      <trkpt lat="45.98832" lon="4.8206">
        <ele>237</ele>
        <time>2017-08-20T09:33:05Z</time>
      </trkpt>
      <trkpt lat="45.98831" lon="4.82053">
        <ele>237</ele>
        <time>2017-08-20T09:33:06Z</time>
      </trkpt>
      <trkpt lat="45.9883" lon="4.82046">
        <ele>238</ele>
        <time>2017-08-20T09:33:07Z</time>
      </trkpt>
      <trkpt lat="45.98829" lon="4.82039">
        <ele>238</ele>
        <time>2017-08-20T09:33:08Z</time>
      </trkpt>
      <trkpt lat="45.98828" lon="4.82032">
        <ele>238</ele>
        <time>2017-08-20T09:33:09Z</time>
      </trkpt>
      <trkpt lat="45.98826" lon="4.82024">
        <ele>238</ele>
        <time>2017-08-20T09:33:10Z</time>
      </trkpt>
      <trkpt lat="45.98825" lon="4.82016">
        <ele>238</ele>
        <time>2017-08-20T09:33:11Z</time>
      </trkpt>
      <trkpt lat="45.98823" lon="4.82007">
        <ele>238</ele>
        <time>2017-08-20T09:33:12Z</time>
      </trkpt>
      <trkpt lat="45.98821" lon="4.81999">
        <ele>238</ele>
        <time>2017-08-20T09:33:13Z</time>
      </trkpt>
      <trkpt lat="45.9882" lon="4.8199">
        <ele>238</ele>
        <time>2017-08-20T09:33:14Z</time>
      </trkpt>
      <trkpt lat="45.98819" lon="4.81981">
        <ele>238</ele>
        <time>2017-08-20T09:33:15Z</time>
      </trkpt>
      <trkpt lat="45.98818" lon="4.81973">
        <ele>239</ele>
        <time>2017-08-20T09:33:16Z</time>
      </trkpt>
      <trkpt lat="45.98816" lon="4.81965">
        <ele>239</ele>
        <time>2017-08-20T09:33:17Z</time>
      </trkpt>
      <trkpt lat="45.98815" lon="4.81958">
        <ele>239</ele>
        <time>2017-08-20T09:33:18Z</time>
      </trkpt>
      <trkpt lat="45.98814" lon="4.81951">
        <ele>239</ele>
        <time>2017-08-20T09:33:19Z</time>
      </trkpt>
      <trkpt lat="45.98813" lon="4.81944">
        <ele>239</ele>
        <time>2017-08-20T09:33:20Z</time>
      </trkpt>
      <trkpt lat="45.98813" lon="4.81936">
        <ele>239</ele>
        <time>2017-08-20T09:33:21Z</time>
      </trkpt>
      <trkpt lat="45.98812" lon="4.81929">
        <ele>239</ele>
        <time>2017-08-20T09:33:22Z</time>
      </trkpt>
      <trkpt lat="45.98811" lon="4.81922">
        <ele>239</ele>
        <time>2017-08-20T09:33:23Z</time>
      </trkpt>
      <trkpt lat="45.9881" lon="4.81915">
        <ele>239</ele>
        <time>2017-08-20T09:33:24Z</time>
      </trkpt>
      <trkpt lat="45.98809" lon="4.81907">
        <ele>239</ele>
        <time>2017-08-20T09:33:25Z</time>
      </trkpt>
      <trkpt lat="45.98808" lon="4.819">
        <ele>239</ele>
        <time>2017-08-20T09:33:26Z</time>
      </trkpt>
      <trkpt lat="45.98805" lon="4.81893">
        <ele>239</ele>
        <time>2017-08-20T09:33:27Z</time>
      </trkpt>
      <trkpt lat="45.98802" lon="4.81886">
        <ele>239</ele>
        <time>2017-08-20T09:33:28Z</time>
      </trkpt>
      <trkpt lat="45.988" lon="4.81879">
        <ele>239</ele>
        <time>2017-08-20T09:33:29Z</time>
      </trkpt>
      <trkpt lat="45.98796" lon="4.81872">
        <ele>239</ele>
        <time>2017-08-20T09:33:30Z</time>
      </trkpt>
      <trkpt lat="45.98793" lon="4.81865">
        <ele>239</ele>
        <time>2017-08-20T09:33:31Z</time>
      </trkpt>
      <trkpt lat="45.98791" lon="4.81859">
        <ele>239</ele>
        <time>2017-08-20T09:33:32Z</time>
      </trkpt>
      <trkpt lat="45.98788" lon="4.81853">
        <ele>239</ele>
        <time>2017-08-20T09:33:33Z</time>
      </trkpt>
      <trkpt lat="45.98785" lon="4.81846">
        <ele>239</ele>
        <time>2017-08-20T09:33:34Z</time>
      </trkpt>
      <trkpt lat="45.98782" lon="4.8184">
        <ele>239</ele>
        <time>2017-08-20T09:33:35Z</time>
      </trkpt>
      <trkpt lat="45.98778" lon="4.81829">
        <ele>240</ele>
        <time>2017-08-20T09:33:37Z</time>
      </trkpt>
      <trkpt lat="45.98776" lon="4.81824">
        <ele>240</ele>
        <time>2017-08-20T09:33:38Z</time>
      </trkpt>
      <trkpt lat="45.98771" lon="4.81813">
        <ele>240</ele>
        <time>2017-08-20T09:33:40Z</time>
      </trkpt>
      <trkpt lat="45.98769" lon="4.81807">
        <ele>240</ele>
        <time>2017-08-20T09:33:41Z</time>
      </trkpt>
      <trkpt lat="45.98766" lon="4.81802">
        <ele>240</ele>
        <time>2017-08-20T09:33:42Z</time>
      </trkpt>
      <trkpt lat="45.98764" lon="4.81797">
        <ele>240</ele>
        <time>2017-08-20T09:33:43Z</time>
      </trkpt>
      <trkpt lat="45.98761" lon="4.81791">
        <ele>241</ele>
        <time>2017-08-20T09:33:44Z</time>
      </trkpt>
      <trkpt lat="45.98758" lon="4.81785">
        <ele>241</ele>
        <time>2017-08-20T09:33:45Z</time>
      </trkpt>
      <trkpt lat="45.98756" lon="4.81779">
        <ele>241</ele>
        <time>2017-08-20T09:33:46Z</time>
      </trkpt>
      <trkpt lat="45.98753" lon="4.81773">
        <ele>241</ele>
        <time>2017-08-20T09:33:47Z</time>
      </trkpt>
      <trkpt lat="45.9875" lon="4.81767">
        <ele>240</ele>
        <time>2017-08-20T09:33:48Z</time>
      </trkpt>
      <trkpt lat="45.98747" lon="4.8176">
        <ele>240</ele>
        <time>2017-08-20T09:33:49Z</time>
      </trkpt>
      <trkpt lat="45.98744" lon="4.81755">
        <ele>240</ele>
        <time>2017-08-20T09:33:50Z</time>
      </trkpt>
      <trkpt lat="45.9874" lon="4.8175">
        <ele>240</ele>
        <time>2017-08-20T09:33:51Z</time>
      </trkpt>
      <trkpt lat="45.98738" lon="4.81744">
        <ele>240</ele>
        <time>2017-08-20T09:33:52Z</time>
      </trkpt>
      <trkpt lat="45.98735" lon="4.81738">
        <ele>240</ele>
        <time>2017-08-20T09:33:53Z</time>
      </trkpt>
      <trkpt lat="45.98729" lon="4.81731">
        <ele>239</ele>
        <time>2017-08-20T09:33:55Z</time>
      </trkpt>
      <trkpt lat="45.98725" lon="4.81729">
        <ele>239</ele>
        <time>2017-08-20T09:33:56Z</time>
      </trkpt>
      <trkpt lat="45.98721" lon="4.81728">
        <ele>239</ele>
        <time>2017-08-20T09:33:57Z</time>
      </trkpt>
      <trkpt lat="45.98716" lon="4.81729">
        <ele>239</ele>
        <time>2017-08-20T09:33:58Z</time>
      </trkpt>
      <trkpt lat="45.98711" lon="4.8173">
        <ele>239</ele>
        <time>2017-08-20T09:33:59Z</time>
      </trkpt>
      <trkpt lat="45.98706" lon="4.81731">
        <ele>239</ele>
        <time>2017-08-20T09:34:00Z</time>
      </trkpt>
      <trkpt lat="45.987" lon="4.81732">
        <ele>239</ele>
        <time>2017-08-20T09:34:01Z</time>
      </trkpt>
      <trkpt lat="45.98695" lon="4.81733">
        <ele>238</ele>
        <time>2017-08-20T09:34:02Z</time>
      </trkpt>
      <trkpt lat="45.9869" lon="4.81734">
        <ele>238</ele>
        <time>2017-08-20T09:34:03Z</time>
      </trkpt>
      <trkpt lat="45.98686" lon="4.81736">
        <ele>238</ele>
        <time>2017-08-20T09:34:04Z</time>
      </trkpt>
      <trkpt lat="45.98681" lon="4.81737">
        <ele>238</ele>
        <time>2017-08-20T09:34:05Z</time>
      </trkpt>
      <trkpt lat="45.98677" lon="4.81737">
        <ele>238</ele>
        <time>2017-08-20T09:34:06Z</time>
      </trkpt>
      <trkpt lat="45.98668" lon="4.81739">
        <ele>238</ele>
        <time>2017-08-20T09:34:08Z</time>
      </trkpt>
      <trkpt lat="45.98663" lon="4.81741">
        <ele>237</ele>
        <time>2017-08-20T09:34:09Z</time>
      </trkpt>
      <trkpt lat="45.98658" lon="4.81743">
        <ele>237</ele>
        <time>2017-08-20T09:34:10Z</time>
      </trkpt>
      <trkpt lat="45.98652" lon="4.81745">
        <ele>237</ele>
        <time>2017-08-20T09:34:11Z</time>
      </trkpt>
      <trkpt lat="45.98646" lon="4.81746">
        <ele>237</ele>
        <time>2017-08-20T09:34:12Z</time>
      </trkpt>
      <trkpt lat="45.9864" lon="4.81747">
        <ele>237</ele>
        <time>2017-08-20T09:34:13Z</time>
      </trkpt>
      <trkpt lat="45.98635" lon="4.81749">
        <ele>237</ele>
        <time>2017-08-20T09:34:14Z</time>
      </trkpt>
      <trkpt lat="45.9863" lon="4.8175">
        <ele>237</ele>
        <time>2017-08-20T09:34:15Z</time>
      </trkpt>
      <trkpt lat="45.98624" lon="4.81752">
        <ele>238</ele>
        <time>2017-08-20T09:34:16Z</time>
      </trkpt>
      <trkpt lat="45.98619" lon="4.81754">
        <ele>238</ele>
        <time>2017-08-20T09:34:17Z</time>
      </trkpt>
      <trkpt lat="45.98614" lon="4.81756">
        <ele>238</ele>
        <time>2017-08-20T09:34:18Z</time>
      </trkpt>
      <trkpt lat="45.98609" lon="4.81757">
        <ele>238</ele>
        <time>2017-08-20T09:34:19Z</time>
      </trkpt>
      <trkpt lat="45.98603" lon="4.81759">
        <ele>238</ele>
        <time>2017-08-20T09:34:20Z</time>
      </trkpt>
      <trkpt lat="45.98598" lon="4.81762">
        <ele>238</ele>
        <time>2017-08-20T09:34:21Z</time>
      </trkpt>
      <trkpt lat="45.98591" lon="4.81765">
        <ele>237</ele>
        <time>2017-08-20T09:34:22Z</time>
      </trkpt>
      <trkpt lat="45.98586" lon="4.81768">
        <ele>238</ele>
        <time>2017-08-20T09:34:23Z</time>
      </trkpt>
      <trkpt lat="45.98582" lon="4.81772">
        <ele>237</ele>
        <time>2017-08-20T09:34:24Z</time>
      </trkpt>
      <trkpt lat="45.98577" lon="4.81776">
        <ele>237</ele>
        <time>2017-08-20T09:34:25Z</time>
      </trkpt>
      <trkpt lat="45.98574" lon="4.8178">
        <ele>238</ele>
        <time>2017-08-20T09:34:26Z</time>
      </trkpt>
      <trkpt lat="45.98569" lon="4.81786">
        <ele>238</ele>
        <time>2017-08-20T09:34:27Z</time>
      </trkpt>
      <trkpt lat="45.98565" lon="4.81791">
        <ele>238</ele>
        <time>2017-08-20T09:34:28Z</time>
      </trkpt>
      <trkpt lat="45.98562" lon="4.81795">
        <ele>238</ele>
        <time>2017-08-20T09:34:29Z</time>
      </trkpt>
      <trkpt lat="45.98558" lon="4.81799">
        <ele>238</ele>
        <time>2017-08-20T09:34:30Z</time>
      </trkpt>
      <trkpt lat="45.98553" lon="4.81802">
        <ele>238</ele>
        <time>2017-08-20T09:34:31Z</time>
      </trkpt>
      <trkpt lat="45.98549" lon="4.81803">
        <ele>238</ele>
        <time>2017-08-20T09:34:32Z</time>
      </trkpt>
      <trkpt lat="45.98544" lon="4.81803">
        <ele>238</ele>
        <time>2017-08-20T09:34:33Z</time>
      </trkpt>
      <trkpt lat="45.98539" lon="4.81802">
        <ele>238</ele>
        <time>2017-08-20T09:34:34Z</time>
      </trkpt>
      <trkpt lat="45.98535" lon="4.81799">
        <ele>238</ele>
        <time>2017-08-20T09:34:35Z</time>
      </trkpt>
      <trkpt lat="45.98531" lon="4.81794">
        <ele>238</ele>
        <time>2017-08-20T09:34:36Z</time>
      </trkpt>
      <trkpt lat="45.98527" lon="4.81789">
        <ele>238</ele>
        <time>2017-08-20T09:34:37Z</time>
      </trkpt>
      <trkpt lat="45.98523" lon="4.81784">
        <ele>238</ele>
        <time>2017-08-20T09:34:38Z</time>
      </trkpt>
      <trkpt lat="45.98519" lon="4.81779">
        <ele>238</ele>
        <time>2017-08-20T09:34:39Z</time>
      </trkpt>
      <trkpt lat="45.98515" lon="4.81773">
        <ele>238</ele>
        <time>2017-08-20T09:34:40Z</time>
      </trkpt>
      <trkpt lat="45.98511" lon="4.81768">
        <ele>237</ele>
        <time>2017-08-20T09:34:41Z</time>
      </trkpt>
      <trkpt lat="45.98506" lon="4.81762">
        <ele>237</ele>
        <time>2017-08-20T09:34:42Z</time>
      </trkpt>
      <trkpt lat="45.98502" lon="4.81757">
        <ele>237</ele>
        <time>2017-08-20T09:34:43Z</time>
      </trkpt>
      <trkpt lat="45.98498" lon="4.81751">
        <ele>237</ele>
        <time>2017-08-20T09:34:44Z</time>
      </trkpt>
      <trkpt lat="45.98494" lon="4.81747">
        <ele>237</ele>
        <time>2017-08-20T09:34:45Z</time>
      </trkpt>
      <trkpt lat="45.9849" lon="4.81742">
        <ele>238</ele>
        <time>2017-08-20T09:34:46Z</time>
      </trkpt>
      <trkpt lat="45.98486" lon="4.81738">
        <ele>238</ele>
        <time>2017-08-20T09:34:47Z</time>
      </trkpt>
      <trkpt lat="45.98481" lon="4.81734">
        <ele>238</ele>
        <time>2017-08-20T09:34:48Z</time>
      </trkpt>
      <trkpt lat="45.98477" lon="4.81729">
        <ele>238</ele>
        <time>2017-08-20T09:34:49Z</time>
      </trkpt>
      <trkpt lat="45.98473" lon="4.81724">
        <ele>239</ele>
        <time>2017-08-20T09:34:50Z</time>
      </trkpt>
      <trkpt lat="45.98469" lon="4.8172">
        <ele>239</ele>
        <time>2017-08-20T09:34:51Z</time>
      </trkpt>
      <trkpt lat="45.98466" lon="4.81715">
        <ele>239</ele>
        <time>2017-08-20T09:34:52Z</time>
      </trkpt>
      <trkpt lat="45.98463" lon="4.8171">
        <ele>239</ele>
        <time>2017-08-20T09:34:53Z</time>
      </trkpt>
      <trkpt lat="45.9846" lon="4.81705">
        <ele>239</ele>
        <time>2017-08-20T09:34:54Z</time>
      </trkpt>
      <trkpt lat="45.98457" lon="4.817">
        <ele>239</ele>
        <time>2017-08-20T09:34:55Z</time>
      </trkpt>
      <trkpt lat="45.98452" lon="4.8169">
        <ele>239</ele>
        <time>2017-08-20T09:34:57Z</time>
      </trkpt>
      <trkpt lat="45.98448" lon="4.81685">
        <ele>239</ele>
        <time>2017-08-20T09:34:58Z</time>
      </trkpt>
      <trkpt lat="45.98445" lon="4.81681">
        <ele>239</ele>
        <time>2017-08-20T09:34:59Z</time>
      </trkpt>
      <trkpt lat="45.9844" lon="4.81676">
        <ele>240</ele>
        <time>2017-08-20T09:35:00Z</time>
      </trkpt>
      <trkpt lat="45.98436" lon="4.81673">
        <ele>240</ele>
        <time>2017-08-20T09:35:01Z</time>
      </trkpt>
      <trkpt lat="45.98431" lon="4.8167">
        <ele>240</ele>
        <time>2017-08-20T09:35:02Z</time>
      </trkpt>
      <trkpt lat="45.98426" lon="4.81669">
        <ele>240</ele>
        <time>2017-08-20T09:35:03Z</time>
      </trkpt>
      <trkpt lat="45.9842" lon="4.81668">
        <ele>241</ele>
        <time>2017-08-20T09:35:04Z</time>
      </trkpt>
      <trkpt lat="45.98415" lon="4.81667">
        <ele>241</ele>
        <time>2017-08-20T09:35:05Z</time>
      </trkpt>
      <trkpt lat="45.98409" lon="4.81667">
        <ele>242</ele>
        <time>2017-08-20T09:35:06Z</time>
      </trkpt>
      <trkpt lat="45.98404" lon="4.81668">
        <ele>242</ele>
        <time>2017-08-20T09:35:07Z</time>
      </trkpt>
      <trkpt lat="45.98399" lon="4.81669">
        <ele>243</ele>
        <time>2017-08-20T09:35:08Z</time>
      </trkpt>
      <trkpt lat="45.98394" lon="4.8167">
        <ele>243</ele>
        <time>2017-08-20T09:35:09Z</time>
      </trkpt>
      <trkpt lat="45.98389" lon="4.81671">
        <ele>243</ele>
        <time>2017-08-20T09:35:10Z</time>
      </trkpt>
      <trkpt lat="45.98384" lon="4.81672">
        <ele>243</ele>
        <time>2017-08-20T09:35:11Z</time>
      </trkpt>
      <trkpt lat="45.9838" lon="4.81674">
        <ele>244</ele>
        <time>2017-08-20T09:35:12Z</time>
      </trkpt>
      <trkpt lat="45.98375" lon="4.81675">
        <ele>244</ele>
        <time>2017-08-20T09:35:13Z</time>
      </trkpt>
      <trkpt lat="45.98371" lon="4.81676">
        <ele>244</ele>
        <time>2017-08-20T09:35:14Z</time>
      </trkpt>
      <trkpt lat="45.98366" lon="4.81677">
        <ele>244</ele>
        <time>2017-08-20T09:35:15Z</time>
      </trkpt>
      <trkpt lat="45.98361" lon="4.81677">
        <ele>244</ele>
        <time>2017-08-20T09:35:16Z</time>
      </trkpt>
      <trkpt lat="45.98355" lon="4.81677">
        <ele>245</ele>
        <time>2017-08-20T09:35:17Z</time>
      </trkpt>
      <trkpt lat="45.9835" lon="4.81676">
        <ele>245</ele>
        <time>2017-08-20T09:35:18Z</time>
      </trkpt>
      <trkpt lat="45.98345" lon="4.81675">
        <ele>245</ele>
        <time>2017-08-20T09:35:19Z</time>
      </trkpt>
      <trkpt lat="45.9834" lon="4.81674">
        <ele>245</ele>
        <time>2017-08-20T09:35:20Z</time>
      </trkpt>
      <trkpt lat="45.98332" lon="4.81671">
        <ele>246</ele>
        <time>2017-08-20T09:35:22Z</time>
      </trkpt>
      <trkpt lat="45.98329" lon="4.8167">
        <ele>246</ele>
        <time>2017-08-20T09:35:23Z</time>
      </trkpt>
      <trkpt lat="45.98323" lon="4.81666">
        <ele>246</ele>
        <time>2017-08-20T09:35:25Z</time>
      </trkpt>
      <trkpt lat="45.98319" lon="4.81662">
        <ele>246</ele>
        <time>2017-08-20T09:35:26Z</time>
      </trkpt>
      <trkpt lat="45.98315" lon="4.81659">
        <ele>246</ele>
        <time>2017-08-20T09:35:27Z</time>
      </trkpt>
      <trkpt lat="45.98312" lon="4.81655">
        <ele>246</ele>
        <time>2017-08-20T09:35:28Z</time>
      </trkpt>
      <trkpt lat="45.98308" lon="4.81651">
        <ele>246</ele>
        <time>2017-08-20T09:35:29Z</time>
      </trkpt>
      <trkpt lat="45.98304" lon="4.81647">
        <ele>246</ele>
        <time>2017-08-20T09:35:30Z</time>
      </trkpt>
      <trkpt lat="45.983" lon="4.81642">
        <ele>247</ele>
        <time>2017-08-20T09:35:31Z</time>
      </trkpt>
      <trkpt lat="45.98295" lon="4.81638">
        <ele>247</ele>
        <time>2017-08-20T09:35:32Z</time>
      </trkpt>
      <trkpt lat="45.98291" lon="4.81633">
        <ele>247</ele>
        <time>2017-08-20T09:35:33Z</time>
      </trkpt>
      <trkpt lat="45.98288" lon="4.81628">
        <ele>247</ele>
        <time>2017-08-20T09:35:34Z</time>
      </trkpt>
      <trkpt lat="45.98284" lon="4.81623">
        <ele>247</ele>
        <time>2017-08-20T09:35:35Z</time>
      </trkpt>
      <trkpt lat="45.98281" lon="4.81617">
        <ele>247</ele>
        <time>2017-08-20T09:35:36Z</time>
      </trkpt>
      <trkpt lat="45.98279" lon="4.81611">
        <ele>247</ele>
        <time>2017-08-20T09:35:37Z</time>
      </trkpt>
      <trkpt lat="45.98277" lon="4.81605">
        <ele>247</ele>
        <time>2017-08-20T09:35:38Z</time>
      </trkpt>
      <trkpt lat="45.98274" lon="4.81594">
        <ele>247</ele>
        <time>2017-08-20T09:35:40Z</time>
      </trkpt>
      <trkpt lat="45.98272" lon="4.81588">
        <ele>247</ele>
        <time>2017-08-20T09:35:41Z</time>
      </trkpt>
      <trkpt lat="45.98269" lon="4.81583">
        <ele>247</ele>
        <time>2017-08-20T09:35:42Z</time>
      </trkpt>
      <trkpt lat="45.98267" lon="4.81576">
        <ele>247</ele>
        <time>2017-08-20T09:35:43Z</time>
      </trkpt>
      <trkpt lat="45.98265" lon="4.8157">
        <ele>247</ele>
        <time>2017-08-20T09:35:44Z</time>
      </trkpt>
      <trkpt lat="45.98262" lon="4.81563">
        <ele>247</ele>
        <time>2017-08-20T09:35:45Z</time>
      </trkpt>
      <trkpt lat="45.9826" lon="4.81556">
        <ele>247</ele>
        <time>2017-08-20T09:35:46Z</time>
      </trkpt>
      <trkpt lat="45.98258" lon="4.81548">
        <ele>247</ele>
        <time>2017-08-20T09:35:47Z</time>
      </trkpt>
      <trkpt lat="45.98256" lon="4.81541">
        <ele>247</ele>
        <time>2017-08-20T09:35:48Z</time>
      </trkpt>
      <trkpt lat="45.98254" lon="4.81535">
        <ele>247</ele>
        <time>2017-08-20T09:35:49Z</time>
      </trkpt>
      <trkpt lat="45.98252" lon="4.81528">
        <ele>247</ele>
        <time>2017-08-20T09:35:50Z</time>
      </trkpt>
      <trkpt lat="45.98249" lon="4.81522">
        <ele>249</ele>
        <time>2017-08-20T09:35:51Z</time>
      </trkpt>
      <trkpt lat="45.98247" lon="4.81516">
        <ele>249</ele>
        <time>2017-08-20T09:35:52Z</time>
      </trkpt>
      <trkpt lat="45.98245" lon="4.8151">
        <ele>249</ele>
        <time>2017-08-20T09:35:53Z</time>
      </trkpt>
      <trkpt lat="45.98243" lon="4.81504">
        <ele>249</ele>
        <time>2017-08-20T09:35:54Z</time>
      </trkpt>
      <trkpt lat="45.98241" lon="4.81497">
        <ele>249</ele>
        <time>2017-08-20T09:35:55Z</time>
      </trkpt>
      <trkpt lat="45.98238" lon="4.8149">
        <ele>249</ele>
        <time>2017-08-20T09:35:56Z</time>
      </trkpt>
      <trkpt lat="45.98235" lon="4.81483">
        <ele>249</ele>
        <time>2017-08-20T09:35:57Z</time>
      </trkpt>
      <trkpt lat="45.98233" lon="4.81477">
        <ele>249</ele>
        <time>2017-08-20T09:35:58Z</time>
      </trkpt>
      <trkpt lat="45.98232" lon="4.8147">
        <ele>249</ele>
        <time>2017-08-20T09:35:59Z</time>
      </trkpt>
      <trkpt lat="45.9823" lon="4.81463">
        <ele>249</ele>
        <time>2017-08-20T09:36:00Z</time>
      </trkpt>
      <trkpt lat="45.98228" lon="4.81457">
        <ele>249</ele>
        <time>2017-08-20T09:36:01Z</time>
      </trkpt>
      <trkpt lat="45.98225" lon="4.81446">
        <ele>249</ele>
        <time>2017-08-20T09:36:03Z</time>
      </trkpt>
      <trkpt lat="45.98223" lon="4.8144">
        <ele>249</ele>
        <time>2017-08-20T09:36:04Z</time>
      </trkpt>
      <trkpt lat="45.98221" lon="4.81434">
        <ele>249</ele>
        <time>2017-08-20T09:36:05Z</time>
      </trkpt>
      <trkpt lat="45.9822" lon="4.81428">
        <ele>249</ele>
        <time>2017-08-20T09:36:06Z</time>
      </trkpt>
      <trkpt lat="45.98216" lon="4.81417">
        <ele>248</ele>
        <time>2017-08-20T09:36:08Z</time>
      </trkpt>
      <trkpt lat="45.98214" lon="4.81411">
        <ele>248</ele>
        <time>2017-08-20T09:36:09Z</time>
      </trkpt>
      <trkpt lat="45.98211" lon="4.814">
        <ele>248</ele>
        <time>2017-08-20T09:36:11Z</time>
      </trkpt>
      <trkpt lat="45.98209" lon="4.81394">
        <ele>248</ele>
        <time>2017-08-20T09:36:12Z</time>
      </trkpt>
      <trkpt lat="45.98206" lon="4.81383">
        <ele>248</ele>
        <time>2017-08-20T09:36:14Z</time>
      </trkpt>
      <trkpt lat="45.98204" lon="4.81377">
        <ele>248</ele>
        <time>2017-08-20T09:36:15Z</time>
      </trkpt>
      <trkpt lat="45.98203" lon="4.81371">
        <ele>248</ele>
        <time>2017-08-20T09:36:16Z</time>
      </trkpt>
      <trkpt lat="45.98201" lon="4.81364">
        <ele>248</ele>
        <time>2017-08-20T09:36:17Z</time>
      </trkpt>
      <trkpt lat="45.98199" lon="4.81357">
        <ele>248</ele>
        <time>2017-08-20T09:36:18Z</time>
      </trkpt>
      <trkpt lat="45.98197" lon="4.8135">
        <ele>248</ele>
        <time>2017-08-20T09:36:19Z</time>
      </trkpt>
      <trkpt lat="45.98196" lon="4.81343">
        <ele>248</ele>
        <time>2017-08-20T09:36:20Z</time>
      </trkpt>
      <trkpt lat="45.98195" lon="4.81335">
        <ele>248</ele>
        <time>2017-08-20T09:36:21Z</time>
      </trkpt>
      <trkpt lat="45.98193" lon="4.81328">
        <ele>247</ele>
        <time>2017-08-20T09:36:22Z</time>
      </trkpt>
      <trkpt lat="45.98191" lon="4.8132">
        <ele>247</ele>
        <time>2017-08-20T09:36:23Z</time>
      </trkpt>
      <trkpt lat="45.98189" lon="4.81311">
        <ele>247</ele>
        <time>2017-08-20T09:36:24Z</time>
      </trkpt>
      <trkpt lat="45.98188" lon="4.81303">
        <ele>247</ele>
        <time>2017-08-20T09:36:25Z</time>
      </trkpt>
      <trkpt lat="45.98187" lon="4.81296">
        <ele>247</ele>
        <time>2017-08-20T09:36:26Z</time>
      </trkpt>
      <trkpt lat="45.98185" lon="4.81287">
        <ele>247</ele>
        <time>2017-08-20T09:36:27Z</time>
      </trkpt>
      <trkpt lat="45.98184" lon="4.81279">
        <ele>247</ele>
        <time>2017-08-20T09:36:28Z</time>
      </trkpt>
      <trkpt lat="45.98183" lon="4.81271">
        <ele>247</ele>
        <time>2017-08-20T09:36:29Z</time>
      </trkpt>
      <trkpt lat="45.98182" lon="4.81263">
        <ele>247</ele>
        <time>2017-08-20T09:36:30Z</time>
      </trkpt>
      <trkpt lat="45.98181" lon="4.81255">
        <ele>247</ele>
        <time>2017-08-20T09:36:31Z</time>
      </trkpt>
      <trkpt lat="45.9818" lon="4.81247">
        <ele>247</ele>
        <time>2017-08-20T09:36:32Z</time>
      </trkpt>
      <trkpt lat="45.98179" lon="4.81239">
        <ele>247</ele>
        <time>2017-08-20T09:36:33Z</time>
      </trkpt>
      <trkpt lat="45.98177" lon="4.81232">
        <ele>246</ele>
        <time>2017-08-20T09:36:34Z</time>
      </trkpt>
      <trkpt lat="45.98176" lon="4.81224">
        <ele>246</ele>
        <time>2017-08-20T09:36:35Z</time>
      </trkpt>
      <trkpt lat="45.98175" lon="4.81217">
        <ele>246</ele>
        <time>2017-08-20T09:36:36Z</time>
      </trkpt>
      <trkpt lat="45.98174" lon="4.81209">
        <ele>246</ele>
        <time>2017-08-20T09:36:37Z</time>
      </trkpt>
      <trkpt lat="45.98173" lon="4.81202">
        <ele>245</ele>
        <time>2017-08-20T09:36:38Z</time>
      </trkpt>
      <trkpt lat="45.98173" lon="4.81194">
        <ele>245</ele>
        <time>2017-08-20T09:36:39Z</time>
      </trkpt>
      <trkpt lat="45.98172" lon="4.81187">
        <ele>245</ele>
        <time>2017-08-20T09:36:40Z</time>
      </trkpt>
      <trkpt lat="45.9817" lon="4.8118">
        <ele>245</ele>
        <time>2017-08-20T09:36:41Z</time>
      </trkpt>
      <trkpt lat="45.98168" lon="4.81173">
        <ele>245</ele>
        <time>2017-08-20T09:36:42Z</time>
      </trkpt>
      <trkpt lat="45.98165" lon="4.81165">
        <ele>245</ele>
        <time>2017-08-20T09:36:43Z</time>
      </trkpt>
      <trkpt lat="45.98163" lon="4.81158">
        <ele>245</ele>
        <time>2017-08-20T09:36:44Z</time>
      </trkpt>
      <trkpt lat="45.9816" lon="4.8115">
        <ele>245</ele>
        <time>2017-08-20T09:36:45Z</time>
      </trkpt>
      <trkpt lat="45.98157" lon="4.81142">
        <ele>245</ele>
        <time>2017-08-20T09:36:46Z</time>
      </trkpt>
      <trkpt lat="45.98155" lon="4.81135">
        <ele>245</ele>
        <time>2017-08-20T09:36:47Z</time>
      </trkpt>
      <trkpt lat="45.98152" lon="4.81127">
        <ele>245</ele>
        <time>2017-08-20T09:36:48Z</time>
      </trkpt>
      <trkpt lat="45.9815" lon="4.8112">
        <ele>245</ele>
        <time>2017-08-20T09:36:49Z</time>
      </trkpt>
      <trkpt lat="45.98148" lon="4.81112">
        <ele>245</ele>
        <time>2017-08-20T09:36:50Z</time>
      </trkpt>
      <trkpt lat="45.98145" lon="4.81105">
        <ele>245</ele>
        <time>2017-08-20T09:36:51Z</time>
      </trkpt>
      <trkpt lat="45.98141" lon="4.81097">
        <ele>245</ele>
        <time>2017-08-20T09:36:52Z</time>
      </trkpt>
      <trkpt lat="45.98138" lon="4.8109">
        <ele>245</ele>
        <time>2017-08-20T09:36:53Z</time>
      </trkpt>
      <trkpt lat="45.98135" lon="4.81082">
        <ele>243</ele>
        <time>2017-08-20T09:36:54Z</time>
      </trkpt>
      <trkpt lat="45.98131" lon="4.81073">
        <ele>243</ele>
        <time>2017-08-20T09:36:55Z</time>
      </trkpt>
      <trkpt lat="45.98128" lon="4.81065">
        <ele>243</ele>
        <time>2017-08-20T09:36:56Z</time>
      </trkpt>
      <trkpt lat="45.98125" lon="4.81057">
        <ele>243</ele>
        <time>2017-08-20T09:36:57Z</time>
      </trkpt>
      <trkpt lat="45.98122" lon="4.8105">
        <ele>242</ele>
        <time>2017-08-20T09:36:58Z</time>
      </trkpt>
      <trkpt lat="45.98119" lon="4.81042">
        <ele>242</ele>
        <time>2017-08-20T09:36:59Z</time>
      </trkpt>
      <trkpt lat="45.98116" lon="4.81035">
        <ele>242</ele>
        <time>2017-08-20T09:37:00Z</time>
      </trkpt>
      <trkpt lat="45.98114" lon="4.81028">
        <ele>242</ele>
        <time>2017-08-20T09:37:01Z</time>
      </trkpt>
      <trkpt lat="45.98112" lon="4.81021">
        <ele>242</ele>
        <time>2017-08-20T09:37:02Z</time>
      </trkpt>
      <trkpt lat="45.9811" lon="4.81015">
        <ele>242</ele>
        <time>2017-08-20T09:37:03Z</time>
      </trkpt>
      <trkpt lat="45.98107" lon="4.81008">
        <ele>242</ele>
        <time>2017-08-20T09:37:04Z</time>
      </trkpt>
      <trkpt lat="45.98105" lon="4.81003">
        <ele>242</ele>
        <time>2017-08-20T09:37:05Z</time>
      </trkpt>
      <trkpt lat="45.98102" lon="4.80993">
        <ele>240</ele>
        <time>2017-08-20T09:37:07Z</time>
      </trkpt>
      <trkpt lat="45.98101" lon="4.80988">
        <ele>240</ele>
        <time>2017-08-20T09:37:08Z</time>
      </trkpt>
      <trkpt lat="45.98098" lon="4.80979">
        <ele>239</ele>
        <time>2017-08-20T09:37:10Z</time>
      </trkpt>
      <trkpt lat="45.98097" lon="4.80973">
        <ele>239</ele>
        <time>2017-08-20T09:37:11Z</time>
      </trkpt>
      <trkpt lat="45.98096" lon="4.80967">
        <ele>239</ele>
        <time>2017-08-20T09:37:12Z</time>
      </trkpt>
      <trkpt lat="45.98094" lon="4.8096">
        <ele>239</ele>
        <time>2017-08-20T09:37:13Z</time>
      </trkpt>
      <trkpt lat="45.98092" lon="4.80952">
        <ele>238</ele>
        <time>2017-08-20T09:37:14Z</time>
      </trkpt>
      <trkpt lat="45.9809" lon="4.80943">
        <ele>238</ele>
        <time>2017-08-20T09:37:15Z</time>
      </trkpt>
      <trkpt lat="45.98088" lon="4.80934">
        <ele>238</ele>
        <time>2017-08-20T09:37:16Z</time>
      </trkpt>
      <trkpt lat="45.98085" lon="4.80924">
        <ele>239</ele>
        <time>2017-08-20T09:37:17Z</time>
      </trkpt>
      <trkpt lat="45.98083" lon="4.80913">
        <ele>239</ele>
        <time>2017-08-20T09:37:18Z</time>
      </trkpt>
      <trkpt lat="45.98081" lon="4.80902">
        <ele>238</ele>
        <time>2017-08-20T09:37:19Z</time>
      </trkpt>
      <trkpt lat="45.98078" lon="4.80891">
        <ele>238</ele>
        <time>2017-08-20T09:37:20Z</time>
      </trkpt>
      <trkpt lat="45.98075" lon="4.80879">
        <ele>237</ele>
        <time>2017-08-20T09:37:21Z</time>
      </trkpt>
      <trkpt lat="45.98073" lon="4.80867">
        <ele>237</ele>
        <time>2017-08-20T09:37:22Z</time>
      </trkpt>
      <trkpt lat="45.9807" lon="4.80856">
        <ele>236</ele>
        <time>2017-08-20T09:37:23Z</time>
      </trkpt>
      <trkpt lat="45.98066" lon="4.80844">
        <ele>236</ele>
        <time>2017-08-20T09:37:24Z</time>
      </trkpt>
      <trkpt lat="45.98063" lon="4.80832">
        <ele>234</ele>
        <time>2017-08-20T09:37:25Z</time>
      </trkpt>
      <trkpt lat="45.98059" lon="4.8082">
        <ele>234</ele>
        <time>2017-08-20T09:37:26Z</time>
      </trkpt>
      <trkpt lat="45.98056" lon="4.80808">
        <ele>234</ele>
        <time>2017-08-20T09:37:27Z</time>
      </trkpt>
      <trkpt lat="45.98053" lon="4.80797">
        <ele>233</ele>
        <time>2017-08-20T09:37:28Z</time>
      </trkpt>
      <trkpt lat="45.9805" lon="4.80785">
        <ele>233</ele>
        <time>2017-08-20T09:37:29Z</time>
      </trkpt>
      <trkpt lat="45.98048" lon="4.80774">
        <ele>233</ele>
        <time>2017-08-20T09:37:30Z</time>
      </trkpt>
      <trkpt lat="45.98046" lon="4.80763">
        <ele>233</ele>
        <time>2017-08-20T09:37:31Z</time>
      </trkpt>
      <trkpt lat="45.98043" lon="4.80752">
        <ele>233</ele>
        <time>2017-08-20T09:37:32Z</time>
      </trkpt>
      <trkpt lat="45.9804" lon="4.80742">
        <ele>231</ele>
        <time>2017-08-20T09:37:33Z</time>
      </trkpt>
      <trkpt lat="45.98037" lon="4.80734">
        <ele>231</ele>
        <time>2017-08-20T09:37:34Z</time>
      </trkpt>
      <trkpt lat="45.98035" lon="4.80727">
        <ele>231</ele>
        <time>2017-08-20T09:37:35Z</time>
      </trkpt>
      <trkpt lat="45.98033" lon="4.80715">
        <ele>231</ele>
        <time>2017-08-20T09:37:37Z</time>
      </trkpt>
      <trkpt lat="45.98033" lon="4.8071">
        <ele>231</ele>
        <time>2017-08-20T09:37:38Z</time>
      </trkpt>
      <trkpt lat="45.98035" lon="4.80701">
        <ele>230</ele>
        <time>2017-08-20T09:37:40Z</time>
      </trkpt>
      <trkpt lat="45.98037" lon="4.80698">
        <ele>230</ele>
        <time>2017-08-20T09:37:41Z</time>
      </trkpt>
      <trkpt lat="45.98046" lon="4.80695">
        <ele>230</ele>
        <time>2017-08-20T09:37:43Z</time>
      </trkpt>
      <trkpt lat="45.98051" lon="4.80695">
        <ele>230</ele>
        <time>2017-08-20T09:37:44Z</time>
      </trkpt>
      <trkpt lat="45.98058" lon="4.80695">
        <ele>230</ele>
        <time>2017-08-20T09:37:45Z</time>
      </trkpt>
      <trkpt lat="45.98065" lon="4.80695">
        <ele>230</ele>
        <time>2017-08-20T09:37:46Z</time>
      </trkpt>
      <trkpt lat="45.98073" lon="4.80696">
        <ele>230</ele>
        <time>2017-08-20T09:37:47Z</time>
      </trkpt>
      <trkpt lat="45.9808" lon="4.80696">
        <ele>230</ele>
        <time>2017-08-20T09:37:48Z</time>
      </trkpt>
      <trkpt lat="45.98087" lon="4.80696">
        <ele>228</ele>
        <time>2017-08-20T09:37:49Z</time>
      </trkpt>
      <trkpt lat="45.98094" lon="4.80696">
        <ele>228</ele>
        <time>2017-08-20T09:37:50Z</time>
      </trkpt>
      <trkpt lat="45.98102" lon="4.80696">
        <ele>228</ele>
        <time>2017-08-20T09:37:51Z</time>
      </trkpt>
      <trkpt lat="45.98109" lon="4.80696">
        <ele>228</ele>
        <time>2017-08-20T09:37:52Z</time>
      </trkpt>
      <trkpt lat="45.98117" lon="4.80696">
        <ele>228</ele>
        <time>2017-08-20T09:37:53Z</time>
      </trkpt>
      <trkpt lat="45.98126" lon="4.80695">
        <ele>228</ele>
        <time>2017-08-20T09:37:54Z</time>
      </trkpt>
      <trkpt lat="45.98134" lon="4.80695">
        <ele>228</ele>
        <time>2017-08-20T09:37:55Z</time>
      </trkpt>
      <trkpt lat="45.98142" lon="4.80695">
        <ele>228</ele>
        <time>2017-08-20T09:37:56Z</time>
      </trkpt>
      <trkpt lat="45.9815" lon="4.80694">
        <ele>228</ele>
        <time>2017-08-20T09:37:57Z</time>
      </trkpt>
      <trkpt lat="45.98158" lon="4.80693">
        <ele>227</ele>
        <time>2017-08-20T09:37:58Z</time>
      </trkpt>
      <trkpt lat="45.98165" lon="4.80691">
        <ele>227</ele>
        <time>2017-08-20T09:37:59Z</time>
      </trkpt>
      <trkpt lat="45.98172" lon="4.8069">
        <ele>225</ele>
        <time>2017-08-20T09:38:00Z</time>
      </trkpt>
      <trkpt lat="45.98179" lon="4.80689">
        <ele>225</ele>
        <time>2017-08-20T09:38:01Z</time>
      </trkpt>
      <trkpt lat="45.98186" lon="4.80688">
        <ele>225</ele>
        <time>2017-08-20T09:38:02Z</time>
      </trkpt>
      <trkpt lat="45.98192" lon="4.80686">
        <ele>225</ele>
        <time>2017-08-20T09:38:03Z</time>
      </trkpt>
      <trkpt lat="45.98199" lon="4.80683">
        <ele>225</ele>
        <time>2017-08-20T09:38:04Z</time>
      </trkpt>
      <trkpt lat="45.98206" lon="4.8068">
        <ele>224</ele>
        <time>2017-08-20T09:38:05Z</time>
      </trkpt>
      <trkpt lat="45.98212" lon="4.80677">
        <ele>224</ele>
        <time>2017-08-20T09:38:06Z</time>
      </trkpt>
      <trkpt lat="45.98217" lon="4.80673">
        <ele>224</ele>
        <time>2017-08-20T09:38:07Z</time>
      </trkpt>
      <trkpt lat="45.98222" lon="4.80667">
        <ele>224</ele>
        <time>2017-08-20T09:38:08Z</time>
      </trkpt>
      <trkpt lat="45.98227" lon="4.80659">
        <ele>223</ele>
        <time>2017-08-20T09:38:09Z</time>
      </trkpt>
      <trkpt lat="45.98231" lon="4.8065">
        <ele>223</ele>
        <time>2017-08-20T09:38:10Z</time>
      </trkpt>
      <trkpt lat="45.98233" lon="4.80641">
        <ele>224</ele>
        <time>2017-08-20T09:38:11Z</time>
      </trkpt>
      <trkpt lat="45.98236" lon="4.80631">
        <ele>224</ele>
        <time>2017-08-20T09:38:12Z</time>
      </trkpt>
      <trkpt lat="45.98239" lon="4.80622">
        <ele>224</ele>
        <time>2017-08-20T09:38:13Z</time>
      </trkpt>
      <trkpt lat="45.98242" lon="4.80612">
        <ele>224</ele>
        <time>2017-08-20T09:38:14Z</time>
      </trkpt>
      <trkpt lat="45.98245" lon="4.80602">
        <ele>224</ele>
        <time>2017-08-20T09:38:15Z</time>
      </trkpt>
      <trkpt lat="45.98248" lon="4.80592">
        <ele>224</ele>
        <time>2017-08-20T09:38:16Z</time>
      </trkpt>
      <trkpt lat="45.9825" lon="4.80582">
        <ele>224</ele>
        <time>2017-08-20T09:38:17Z</time>
      </trkpt>
      <trkpt lat="45.98253" lon="4.80573">
        <ele>224</ele>
        <time>2017-08-20T09:38:18Z</time>
      </trkpt>
      <trkpt lat="45.98256" lon="4.80564">
        <ele>224</ele>
        <time>2017-08-20T09:38:19Z</time>
      </trkpt>
      <trkpt lat="45.98259" lon="4.80555">
        <ele>224</ele>
        <time>2017-08-20T09:38:20Z</time>
      </trkpt>
      <trkpt lat="45.98262" lon="4.80546">
        <ele>224</ele>
        <time>2017-08-20T09:38:21Z</time>
      </trkpt>
      <trkpt lat="45.98265" lon="4.80539">
        <ele>224</ele>
        <time>2017-08-20T09:38:22Z</time>
      </trkpt>
      <trkpt lat="45.98268" lon="4.80531">
        <ele>224</ele>
        <time>2017-08-20T09:38:23Z</time>
      </trkpt>
      <trkpt lat="45.98271" lon="4.80524">
        <ele>224</ele>
        <time>2017-08-20T09:38:24Z</time>
      </trkpt>
      <trkpt lat="45.98274" lon="4.80517">
        <ele>224</ele>
        <time>2017-08-20T09:38:25Z</time>
      </trkpt>
      <trkpt lat="45.98276" lon="4.80509">
        <ele>224</ele>
        <time>2017-08-20T09:38:26Z</time>
      </trkpt>
      <trkpt lat="45.98277" lon="4.80502">
        <ele>224</ele>
        <time>2017-08-20T09:38:27Z</time>
      </trkpt>
      <trkpt lat="45.98279" lon="4.80495">
        <ele>223</ele>
        <time>2017-08-20T09:38:28Z</time>
      </trkpt>
      <trkpt lat="45.98281" lon="4.80488">
        <ele>223</ele>
        <time>2017-08-20T09:38:29Z</time>
      </trkpt>
      <trkpt lat="45.98282" lon="4.8048">
        <ele>223</ele>
        <time>2017-08-20T09:38:30Z</time>
      </trkpt>
      <trkpt lat="45.98284" lon="4.80473">
        <ele>223</ele>
        <time>2017-08-20T09:38:31Z</time>
      </trkpt>
      <trkpt lat="45.98286" lon="4.80464">
        <ele>224</ele>
        <time>2017-08-20T09:38:32Z</time>
      </trkpt>
      <trkpt lat="45.98288" lon="4.80456">
        <ele>224</ele>
        <time>2017-08-20T09:38:33Z</time>
      </trkpt>
      <trkpt lat="45.98288" lon="4.80445">
        <ele>224</ele>
        <time>2017-08-20T09:38:34Z</time>
      </trkpt>
      <trkpt lat="45.9829" lon="4.80436">
        <ele>224</ele>
        <time>2017-08-20T09:38:35Z</time>
      </trkpt>
      <trkpt lat="45.98292" lon="4.80427">
        <ele>224</ele>
        <time>2017-08-20T09:38:36Z</time>
      </trkpt>
      <trkpt lat="45.98294" lon="4.80419">
        <ele>224</ele>
        <time>2017-08-20T09:38:37Z</time>
      </trkpt>
      <trkpt lat="45.98296" lon="4.80411">
        <ele>224</ele>
        <time>2017-08-20T09:38:38Z</time>
      </trkpt>
      <trkpt lat="45.98298" lon="4.80402">
        <ele>225</ele>
        <time>2017-08-20T09:38:39Z</time>
      </trkpt>
      <trkpt lat="45.98299" lon="4.80394">
        <ele>225</ele>
        <time>2017-08-20T09:38:40Z</time>
      </trkpt>
      <trkpt lat="45.98301" lon="4.80387">
        <ele>225</ele>
        <time>2017-08-20T09:38:41Z</time>
      </trkpt>
      <trkpt lat="45.98304" lon="4.80379">
        <ele>225</ele>
        <time>2017-08-20T09:38:42Z</time>
      </trkpt>
      <trkpt lat="45.98304" lon="4.80371">
        <ele>225</ele>
        <time>2017-08-20T09:38:43Z</time>
      </trkpt>
      <trkpt lat="45.98305" lon="4.80364">
        <ele>225</ele>
        <time>2017-08-20T09:38:44Z</time>
      </trkpt>
      <trkpt lat="45.98306" lon="4.80357">
        <ele>225</ele>
        <time>2017-08-20T09:38:45Z</time>
      </trkpt>
      <trkpt lat="45.98307" lon="4.8035">
        <ele>226</ele>
        <time>2017-08-20T09:38:46Z</time>
      </trkpt>
      <trkpt lat="45.98308" lon="4.80343">
        <ele>226</ele>
        <time>2017-08-20T09:38:47Z</time>
      </trkpt>
      <trkpt lat="45.9831" lon="4.80335">
        <ele>226</ele>
        <time>2017-08-20T09:38:48Z</time>
      </trkpt>
      <trkpt lat="45.98312" lon="4.80328">
        <ele>227</ele>
        <time>2017-08-20T09:38:49Z</time>
      </trkpt>
      <trkpt lat="45.98314" lon="4.8032">
        <ele>227</ele>
        <time>2017-08-20T09:38:50Z</time>
      </trkpt>
      <trkpt lat="45.98315" lon="4.80312">
        <ele>227</ele>
        <time>2017-08-20T09:38:51Z</time>
      </trkpt>
      <trkpt lat="45.98317" lon="4.80305">
        <ele>226</ele>
        <time>2017-08-20T09:38:52Z</time>
      </trkpt>
      <trkpt lat="45.98319" lon="4.80298">
        <ele>226</ele>
        <time>2017-08-20T09:38:53Z</time>
      </trkpt>
      <trkpt lat="45.9832" lon="4.8029">
        <ele>227</ele>
        <time>2017-08-20T09:38:54Z</time>
      </trkpt>
      <trkpt lat="45.98322" lon="4.80282">
        <ele>227</ele>
        <time>2017-08-20T09:38:55Z</time>
      </trkpt>
      <trkpt lat="45.98324" lon="4.80274">
        <ele>227</ele>
        <time>2017-08-20T09:38:56Z</time>
      </trkpt>
      <trkpt lat="45.98325" lon="4.80267">
        <ele>228</ele>
        <time>2017-08-20T09:38:57Z</time>
      </trkpt>
      <trkpt lat="45.98327" lon="4.8026">
        <ele>228</ele>
        <time>2017-08-20T09:38:58Z</time>
      </trkpt>
      <trkpt lat="45.98327" lon="4.80253">
        <ele>229</ele>
        <time>2017-08-20T09:38:59Z</time>
      </trkpt>
      <trkpt lat="45.98328" lon="4.80247">
        <ele>229</ele>
        <time>2017-08-20T09:39:00Z</time>
      </trkpt>
      <trkpt lat="45.98329" lon="4.8024">
        <ele>229</ele>
        <time>2017-08-20T09:39:01Z</time>
      </trkpt>
      <trkpt lat="45.9833" lon="4.80233">
        <ele>228</ele>
        <time>2017-08-20T09:39:02Z</time>
      </trkpt>
      <trkpt lat="45.98331" lon="4.80221">
        <ele>227</ele>
        <time>2017-08-20T09:39:04Z</time>
      </trkpt>
      <trkpt lat="45.9833" lon="4.80214">
        <ele>227</ele>
        <time>2017-08-20T09:39:05Z</time>
      </trkpt>
      <trkpt lat="45.98328" lon="4.80204">
        <ele>227</ele>
        <time>2017-08-20T09:39:07Z</time>
      </trkpt>
      <trkpt lat="45.98326" lon="4.80199">
        <ele>227</ele>
        <time>2017-08-20T09:39:08Z</time>
      </trkpt>
      <trkpt lat="45.98322" lon="4.8019">
        <ele>227</ele>
        <time>2017-08-20T09:39:10Z</time>
      </trkpt>
      <trkpt lat="45.98321" lon="4.80184">
        <ele>227</ele>
        <time>2017-08-20T09:39:11Z</time>
      </trkpt>
      <trkpt lat="45.98318" lon="4.80177">
        <ele>227</ele>
        <time>2017-08-20T09:39:12Z</time>
      </trkpt>
      <trkpt lat="45.98316" lon="4.8017">
        <ele>227</ele>
        <time>2017-08-20T09:39:13Z</time>
      </trkpt>
      <trkpt lat="45.98313" lon="4.80163">
        <ele>228</ele>
        <time>2017-08-20T09:39:14Z</time>
      </trkpt>
      <trkpt lat="45.98311" lon="4.80157">
        <ele>228</ele>
        <time>2017-08-20T09:39:15Z</time>
      </trkpt>
      <trkpt lat="45.98308" lon="4.80151">
        <ele>228</ele>
        <time>2017-08-20T09:39:16Z</time>
      </trkpt>
      <trkpt lat="45.98306" lon="4.80144">
        <ele>228</ele>
        <time>2017-08-20T09:39:17Z</time>
      </trkpt>
      <trkpt lat="45.98304" lon="4.80138">
        <ele>228</ele>
        <time>2017-08-20T09:39:18Z</time>
      </trkpt>
      <trkpt lat="45.98302" lon="4.80132">
        <ele>228</ele>
        <time>2017-08-20T09:39:19Z</time>
      </trkpt>
      <trkpt lat="45.983" lon="4.80126">
        <ele>228</ele>
        <time>2017-08-20T09:39:20Z</time>
      </trkpt>
      <trkpt lat="45.98297" lon="4.8012">
        <ele>228</ele>
        <time>2017-08-20T09:39:21Z</time>
      </trkpt>
      <trkpt lat="45.98295" lon="4.80113">
        <ele>228</ele>
        <time>2017-08-20T09:39:22Z</time>
      </trkpt>
      <trkpt lat="45.98293" lon="4.80107">
        <ele>228</ele>
        <time>2017-08-20T09:39:23Z</time>
      </trkpt>
      <trkpt lat="45.98289" lon="4.80095">
        <ele>228</ele>
        <time>2017-08-20T09:39:25Z</time>
      </trkpt>
      <trkpt lat="45.98287" lon="4.8009">
        <ele>228</ele>
        <time>2017-08-20T09:39:26Z</time>
      </trkpt>
      <trkpt lat="45.98285" lon="4.80084">
        <ele>228</ele>
        <time>2017-08-20T09:39:27Z</time>
      </trkpt>
      <trkpt lat="45.98283" lon="4.80077">
        <ele>229</ele>
        <time>2017-08-20T09:39:28Z</time>
      </trkpt>
      <trkpt lat="45.9828" lon="4.80069">
        <ele>229</ele>
        <time>2017-08-20T09:39:29Z</time>
      </trkpt>
      <trkpt lat="45.98277" lon="4.80063">
        <ele>229</ele>
        <time>2017-08-20T09:39:30Z</time>
      </trkpt>
      <trkpt lat="45.98275" lon="4.80055">
        <ele>229</ele>
        <time>2017-08-20T09:39:31Z</time>
      </trkpt>
      <trkpt lat="45.98272" lon="4.80048">
        <ele>229</ele>
        <time>2017-08-20T09:39:32Z</time>
      </trkpt>
      <trkpt lat="45.98269" lon="4.80041">
        <ele>229</ele>
        <time>2017-08-20T09:39:33Z</time>
      </trkpt>
      <trkpt lat="45.98266" lon="4.80035">
        <ele>229</ele>
        <time>2017-08-20T09:39:34Z</time>
      </trkpt>
      <trkpt lat="45.98263" lon="4.80028">
        <ele>228</ele>
        <time>2017-08-20T09:39:35Z</time>
      </trkpt>
      <trkpt lat="45.98261" lon="4.80021">
        <ele>228</ele>
        <time>2017-08-20T09:39:36Z</time>
      </trkpt>
      <trkpt lat="45.98258" lon="4.80014">
        <ele>228</ele>
        <time>2017-08-20T09:39:37Z</time>
      </trkpt>
      <trkpt lat="45.98256" lon="4.80007">
        <ele>227</ele>
        <time>2017-08-20T09:39:38Z</time>
      </trkpt>
      <trkpt lat="45.98254" lon="4.80001">
        <ele>226</ele>
        <time>2017-08-20T09:39:39Z</time>
      </trkpt>
      <trkpt lat="45.98251" lon="4.79995">
        <ele>227</ele>
        <time>2017-08-20T09:39:40Z</time>
      </trkpt>
      <trkpt lat="45.98249" lon="4.7999">
        <ele>226</ele>
        <time>2017-08-20T09:39:41Z</time>
      </trkpt>
      <trkpt lat="45.98247" lon="4.79984">
        <ele>225</ele>
        <time>2017-08-20T09:39:42Z</time>
      </trkpt>
      <trkpt lat="45.98244" lon="4.79974">
        <ele>225</ele>
        <time>2017-08-20T09:39:44Z</time>
      </trkpt>
      <trkpt lat="45.98243" lon="4.79969">
        <ele>225</ele>
        <time>2017-08-20T09:39:45Z</time>
      </trkpt>
      <trkpt lat="45.98241" lon="4.7996">
        <ele>225</ele>
        <time>2017-08-20T09:39:47Z</time>
      </trkpt>
      <trkpt lat="45.98239" lon="4.79955">
        <ele>225</ele>
        <time>2017-08-20T09:39:48Z</time>
      </trkpt>
      <trkpt lat="45.98237" lon="4.79945">
        <ele>225</ele>
        <time>2017-08-20T09:39:50Z</time>
      </trkpt>
      <trkpt lat="45.98236" lon="4.79939">
        <ele>225</ele>
        <time>2017-08-20T09:39:51Z</time>
      </trkpt>
      <trkpt lat="45.98234" lon="4.79932">
        <ele>225</ele>
        <time>2017-08-20T09:39:52Z</time>
      </trkpt>
      <trkpt lat="45.98231" lon="4.79925">
        <ele>225</ele>
        <time>2017-08-20T09:39:53Z</time>
      </trkpt>
      <trkpt lat="45.98229" lon="4.79918">
        <ele>225</ele>
        <time>2017-08-20T09:39:54Z</time>
      </trkpt>
      <trkpt lat="45.98226" lon="4.7991">
        <ele>225</ele>
        <time>2017-08-20T09:39:55Z</time>
      </trkpt>
      <trkpt lat="45.98224" lon="4.79903">
        <ele>225</ele>
        <time>2017-08-20T09:39:56Z</time>
      </trkpt>
      <trkpt lat="45.98221" lon="4.79896">
        <ele>225</ele>
        <time>2017-08-20T09:39:57Z</time>
      </trkpt>
      <trkpt lat="45.98218" lon="4.79885">
        <ele>225</ele>
        <time>2017-08-20T09:39:59Z</time>
      </trkpt>
      <trkpt lat="45.98216" lon="4.7988">
        <ele>225</ele>
        <time>2017-08-20T09:40:00Z</time>
      </trkpt>
      <trkpt lat="45.98214" lon="4.7987">
        <ele>225</ele>
        <time>2017-08-20T09:40:02Z</time>
      </trkpt>
      <trkpt lat="45.98212" lon="4.79863">
        <ele>225</ele>
        <time>2017-08-20T09:40:03Z</time>
      </trkpt>
      <trkpt lat="45.98209" lon="4.79856">
        <ele>225</ele>
        <time>2017-08-20T09:40:04Z</time>
      </trkpt>
      <trkpt lat="45.98207" lon="4.7985">
        <ele>225</ele>
        <time>2017-08-20T09:40:05Z</time>
      </trkpt>
      <trkpt lat="45.98204" lon="4.79843">
        <ele>225</ele>
        <time>2017-08-20T09:40:06Z</time>
      </trkpt>
      <trkpt lat="45.982" lon="4.79834">
        <ele>225</ele>
        <time>2017-08-20T09:40:07Z</time>
      </trkpt>
      <trkpt lat="45.98197" lon="4.79826">
        <ele>225</ele>
        <time>2017-08-20T09:40:08Z</time>
      </trkpt>
      <trkpt lat="45.98194" lon="4.7982">
        <ele>225</ele>
        <time>2017-08-20T09:40:09Z</time>
      </trkpt>
      <trkpt lat="45.98192" lon="4.79813">
        <ele>225</ele>
        <time>2017-08-20T09:40:10Z</time>
      </trkpt>
      <trkpt lat="45.98191" lon="4.79807">
        <ele>226</ele>
        <time>2017-08-20T09:40:11Z</time>
      </trkpt>
      <trkpt lat="45.98189" lon="4.79801">
        <ele>226</ele>
        <time>2017-08-20T09:40:12Z</time>
      </trkpt>
      <trkpt lat="45.98188" lon="4.79794">
        <ele>226</ele>
        <time>2017-08-20T09:40:13Z</time>
      </trkpt>
      <trkpt lat="45.98187" lon="4.79788">
        <ele>226</ele>
        <time>2017-08-20T09:40:14Z</time>
      </trkpt>
      <trkpt lat="45.98186" lon="4.79782">
        <ele>226</ele>
        <time>2017-08-20T09:40:15Z</time>
      </trkpt>
      <trkpt lat="45.98186" lon="4.79775">
        <ele>226</ele>
        <time>2017-08-20T09:40:16Z</time>
      </trkpt>
      <trkpt lat="45.98186" lon="4.79769">
        <ele>226</ele>
        <time>2017-08-20T09:40:17Z</time>
      </trkpt>
      <trkpt lat="45.98187" lon="4.79762">
        <ele>226</ele>
        <time>2017-08-20T09:40:18Z</time>
      </trkpt>
      <trkpt lat="45.98187" lon="4.79756">
        <ele>226</ele>
        <time>2017-08-20T09:40:19Z</time>
      </trkpt>
      <trkpt lat="45.98185" lon="4.79749">
        <ele>227</ele>
        <time>2017-08-20T09:40:20Z</time>
      </trkpt>
      <trkpt lat="45.98183" lon="4.79743">
        <ele>227</ele>
        <time>2017-08-20T09:40:21Z</time>
      </trkpt>
      <trkpt lat="45.98178" lon="4.7974">
        <ele>227</ele>
        <time>2017-08-20T09:40:22Z</time>
      </trkpt>
      <trkpt lat="45.98172" lon="4.79739">
        <ele>227</ele>
        <time>2017-08-20T09:40:23Z</time>
      </trkpt>
      <trkpt lat="45.98167" lon="4.79741">
        <ele>227</ele>
        <time>2017-08-20T09:40:24Z</time>
      </trkpt>
      <trkpt lat="45.98162" lon="4.79745">
        <ele>226</ele>
        <time>2017-08-20T09:40:25Z</time>
      </trkpt>
      <trkpt lat="45.98156" lon="4.79749">
        <ele>226</ele>
        <time>2017-08-20T09:40:26Z</time>
      </trkpt>
      <trkpt lat="45.9815" lon="4.79753">
        <ele>225</ele>
        <time>2017-08-20T09:40:27Z</time>
      </trkpt>
      <trkpt lat="45.98144" lon="4.79755">
        <ele>225</ele>
        <time>2017-08-20T09:40:28Z</time>
      </trkpt>
      <trkpt lat="45.98137" lon="4.79756">
        <ele>224</ele>
        <time>2017-08-20T09:40:29Z</time>
      </trkpt>
      <trkpt lat="45.9813" lon="4.79758">
        <ele>224</ele>
        <time>2017-08-20T09:40:30Z</time>
      </trkpt>
      <trkpt lat="45.98123" lon="4.79759">
        <ele>224</ele>
        <time>2017-08-20T09:40:31Z</time>
      </trkpt>
      <trkpt lat="45.98115" lon="4.7976">
        <ele>224</ele>
        <time>2017-08-20T09:40:32Z</time>
      </trkpt>
      <trkpt lat="45.98107" lon="4.79761">
        <ele>224</ele>
        <time>2017-08-20T09:40:33Z</time>
      </trkpt>
      <trkpt lat="45.98099" lon="4.79762">
        <ele>223</ele>
        <time>2017-08-20T09:40:34Z</time>
      </trkpt>
      <trkpt lat="45.98092" lon="4.79763">
        <ele>223</ele>
        <time>2017-08-20T09:40:35Z</time>
      </trkpt>
      <trkpt lat="45.98084" lon="4.79764">
        <ele>223</ele>
        <time>2017-08-20T09:40:36Z</time>
      </trkpt>
      <trkpt lat="45.98076" lon="4.79766">
        <ele>223</ele>
        <time>2017-08-20T09:40:37Z</time>
      </trkpt>
      <trkpt lat="45.98068" lon="4.79767">
        <ele>223</ele>
        <time>2017-08-20T09:40:38Z</time>
      </trkpt>
      <trkpt lat="45.9806" lon="4.79768">
        <ele>223</ele>
        <time>2017-08-20T09:40:39Z</time>
      </trkpt>
      <trkpt lat="45.98052" lon="4.79769">
        <ele>223</ele>
        <time>2017-08-20T09:40:40Z</time>
      </trkpt>
      <trkpt lat="45.98044" lon="4.7977">
        <ele>223</ele>
        <time>2017-08-20T09:40:41Z</time>
      </trkpt>
      <trkpt lat="45.98036" lon="4.79771">
        <ele>223</ele>
        <time>2017-08-20T09:40:42Z</time>
      </trkpt>
      <trkpt lat="45.98028" lon="4.79772">
        <ele>223</ele>
        <time>2017-08-20T09:40:43Z</time>
      </trkpt>
      <trkpt lat="45.9802" lon="4.79773">
        <ele>223</ele>
        <time>2017-08-20T09:40:44Z</time>
      </trkpt>
      <trkpt lat="45.98012" lon="4.79774">
        <ele>223</ele>
        <time>2017-08-20T09:40:45Z</time>
      </trkpt>
      <trkpt lat="45.98005" lon="4.79775">
        <ele>223</ele>
        <time>2017-08-20T09:40:46Z</time>
      </trkpt>
      <trkpt lat="45.97997" lon="4.79776">
        <ele>224</ele>
        <time>2017-08-20T09:40:47Z</time>
      </trkpt>
      <trkpt lat="45.9799" lon="4.79777">
        <ele>224</ele>
        <time>2017-08-20T09:40:48Z</time>
      </trkpt>
      <trkpt lat="45.97983" lon="4.79778">
        <ele>224</ele>
        <time>2017-08-20T09:40:49Z</time>
      </trkpt>
      <trkpt lat="45.97976" lon="4.79778">
        <ele>224</ele>
        <time>2017-08-20T09:40:50Z</time>
      </trkpt>
      <trkpt lat="45.97969" lon="4.7978">
        <ele>224</ele>
        <time>2017-08-20T09:40:51Z</time>
      </trkpt>
      <trkpt lat="45.97962" lon="4.79782">
        <ele>224</ele>
        <time>2017-08-20T09:40:52Z</time>
      </trkpt>
      <trkpt lat="45.97955" lon="4.79783">
        <ele>224</ele>
        <time>2017-08-20T09:40:53Z</time>
      </trkpt>
      <trkpt lat="45.97949" lon="4.79784">
        <ele>224</ele>
        <time>2017-08-20T09:40:54Z</time>
      </trkpt>
      <trkpt lat="45.97943" lon="4.79785">
        <ele>224</ele>
        <time>2017-08-20T09:40:55Z</time>
      </trkpt>
      <trkpt lat="45.97935" lon="4.79786">
        <ele>224</ele>
        <time>2017-08-20T09:40:56Z</time>
      </trkpt>
      <trkpt lat="45.97928" lon="4.79787">
        <ele>224</ele>
        <time>2017-08-20T09:40:57Z</time>
      </trkpt>
      <trkpt lat="45.97921" lon="4.79788">
        <ele>224</ele>
        <time>2017-08-20T09:40:58Z</time>
      </trkpt>
      <trkpt lat="45.97913" lon="4.7979">
        <ele>225</ele>
        <time>2017-08-20T09:40:59Z</time>
      </trkpt>
      <trkpt lat="45.97905" lon="4.79792">
        <ele>224</ele>
        <time>2017-08-20T09:41:00Z</time>
      </trkpt>
      <trkpt lat="45.97897" lon="4.79793">
        <ele>224</ele>
        <time>2017-08-20T09:41:01Z</time>
      </trkpt>
      <trkpt lat="45.97889" lon="4.79795">
        <ele>224</ele>
        <time>2017-08-20T09:41:02Z</time>
      </trkpt>
      <trkpt lat="45.97882" lon="4.79797">
        <ele>224</ele>
        <time>2017-08-20T09:41:03Z</time>
      </trkpt>
      <trkpt lat="45.97874" lon="4.79797">
        <ele>224</ele>
        <time>2017-08-20T09:41:04Z</time>
      </trkpt>
      <trkpt lat="45.97868" lon="4.79798">
        <ele>224</ele>
        <time>2017-08-20T09:41:05Z</time>
      </trkpt>
      <trkpt lat="45.9786" lon="4.79798">
        <ele>224</ele>
        <time>2017-08-20T09:41:06Z</time>
      </trkpt>
      <trkpt lat="45.97853" lon="4.798">
        <ele>224</ele>
        <time>2017-08-20T09:41:07Z</time>
      </trkpt>
      <trkpt lat="45.97847" lon="4.79801">
        <ele>224</ele>
        <time>2017-08-20T09:41:08Z</time>
      </trkpt>
      <trkpt lat="45.9784" lon="4.79802">
        <ele>224</ele>
        <time>2017-08-20T09:41:09Z</time>
      </trkpt>
      <trkpt lat="45.97833" lon="4.79803">
        <ele>223</ele>
        <time>2017-08-20T09:41:10Z</time>
      </trkpt>
      <trkpt lat="45.97826" lon="4.79804">
        <ele>223</ele>
        <time>2017-08-20T09:41:11Z</time>
      </trkpt>
      <trkpt lat="45.97819" lon="4.79805">
        <ele>223</ele>
        <time>2017-08-20T09:41:12Z</time>
      </trkpt>
      <trkpt lat="45.97812" lon="4.79806">
        <ele>223</ele>
        <time>2017-08-20T09:41:13Z</time>
      </trkpt>
      <trkpt lat="45.97806" lon="4.79808">
        <ele>223</ele>
        <time>2017-08-20T09:41:14Z</time>
      </trkpt>
      <trkpt lat="45.978" lon="4.79809">
        <ele>223</ele>
        <time>2017-08-20T09:41:15Z</time>
      </trkpt>
      <trkpt lat="45.97794" lon="4.7981">
        <ele>223</ele>
        <time>2017-08-20T09:41:16Z</time>
      </trkpt>
      <trkpt lat="45.97788" lon="4.79812">
        <ele>223</ele>
        <time>2017-08-20T09:41:17Z</time>
      </trkpt>
      <trkpt lat="45.97782" lon="4.79813">
        <ele>223</ele>
        <time>2017-08-20T09:41:18Z</time>
      </trkpt>
      <trkpt lat="45.97776" lon="4.79814">
        <ele>223</ele>
        <time>2017-08-20T09:41:19Z</time>
      </trkpt>
      <trkpt lat="45.9777" lon="4.79815">
        <ele>223</ele>
        <time>2017-08-20T09:41:20Z</time>
      </trkpt>
      <trkpt lat="45.97764" lon="4.79815">
        <ele>223</ele>
        <time>2017-08-20T09:41:21Z</time>
      </trkpt>
      <trkpt lat="45.97757" lon="4.79816">
        <ele>223</ele>
        <time>2017-08-20T09:41:22Z</time>
      </trkpt>
      <trkpt lat="45.97751" lon="4.79818">
        <ele>223</ele>
        <time>2017-08-20T09:41:23Z</time>
      </trkpt>
      <trkpt lat="45.97745" lon="4.79819">
        <ele>223</ele>
        <time>2017-08-20T09:41:24Z</time>
      </trkpt>
      <trkpt lat="45.97738" lon="4.79819">
        <ele>223</ele>
        <time>2017-08-20T09:41:25Z</time>
      </trkpt>
      <trkpt lat="45.97732" lon="4.79821">
        <ele>223</ele>
        <time>2017-08-20T09:41:26Z</time>
      </trkpt>
      <trkpt lat="45.97726" lon="4.79822">
        <ele>223</ele>
        <time>2017-08-20T09:41:27Z</time>
      </trkpt>
      <trkpt lat="45.97721" lon="4.79823">
        <ele>223</ele>
        <time>2017-08-20T09:41:28Z</time>
      </trkpt>
      <trkpt lat="45.97715" lon="4.79824">
        <ele>223</ele>
        <time>2017-08-20T09:41:29Z</time>
      </trkpt>
      <trkpt lat="45.9771" lon="4.79825">
        <ele>223</ele>
        <time>2017-08-20T09:41:30Z</time>
      </trkpt>
      <trkpt lat="45.97705" lon="4.79826">
        <ele>223</ele>
        <time>2017-08-20T09:41:31Z</time>
      </trkpt>
      <trkpt lat="45.977" lon="4.79827">
        <ele>223</ele>
        <time>2017-08-20T09:41:32Z</time>
      </trkpt>
      <trkpt lat="45.97696" lon="4.79828">
        <ele>223</ele>
        <time>2017-08-20T09:41:33Z</time>
      </trkpt>
      <trkpt lat="45.97691" lon="4.7983">
        <ele>223</ele>
        <time>2017-08-20T09:41:34Z</time>
      </trkpt>
      <trkpt lat="45.97686" lon="4.79831">
        <ele>223</ele>
        <time>2017-08-20T09:41:35Z</time>
      </trkpt>
      <trkpt lat="45.97681" lon="4.79833">
        <ele>223</ele>
        <time>2017-08-20T09:41:36Z</time>
      </trkpt>
      <trkpt lat="45.97675" lon="4.79834">
        <ele>221</ele>
        <time>2017-08-20T09:41:37Z</time>
      </trkpt>
      <trkpt lat="45.97669" lon="4.79835">
        <ele>222</ele>
        <time>2017-08-20T09:41:38Z</time>
      </trkpt>
      <trkpt lat="45.97663" lon="4.79837">
        <ele>222</ele>
        <time>2017-08-20T09:41:39Z</time>
      </trkpt>
      <trkpt lat="45.97657" lon="4.79838">
        <ele>221</ele>
        <time>2017-08-20T09:41:40Z</time>
      </trkpt>
      <trkpt lat="45.9765" lon="4.7984">
        <ele>221</ele>
        <time>2017-08-20T09:41:41Z</time>
      </trkpt>
      <trkpt lat="45.97644" lon="4.79842">
        <ele>221</ele>
        <time>2017-08-20T09:41:42Z</time>
      </trkpt>
      <trkpt lat="45.97638" lon="4.79845">
        <ele>221</ele>
        <time>2017-08-20T09:41:43Z</time>
      </trkpt>
      <trkpt lat="45.97632" lon="4.79847">
        <ele>221</ele>
        <time>2017-08-20T09:41:44Z</time>
      </trkpt>
      <trkpt lat="45.97627" lon="4.79849">
        <ele>221</ele>
        <time>2017-08-20T09:41:45Z</time>
      </trkpt>
      <trkpt lat="45.97621" lon="4.79851">
        <ele>221</ele>
        <time>2017-08-20T09:41:46Z</time>
      </trkpt>
      <trkpt lat="45.97615" lon="4.79853">
        <ele>221</ele>
        <time>2017-08-20T09:41:47Z</time>
      </trkpt>
      <trkpt lat="45.97609" lon="4.79856">
        <ele>221</ele>
        <time>2017-08-20T09:41:48Z</time>
      </trkpt>
      <trkpt lat="45.97603" lon="4.79858">
        <ele>221</ele>
        <time>2017-08-20T09:41:49Z</time>
      </trkpt>
      <trkpt lat="45.97597" lon="4.79861">
        <ele>221</ele>
        <time>2017-08-20T09:41:50Z</time>
      </trkpt>
      <trkpt lat="45.9759" lon="4.79863">
        <ele>221</ele>
        <time>2017-08-20T09:41:51Z</time>
      </trkpt>
      <trkpt lat="45.97584" lon="4.79865">
        <ele>221</ele>
        <time>2017-08-20T09:41:52Z</time>
      </trkpt>
      <trkpt lat="45.97577" lon="4.79867">
        <ele>222</ele>
        <time>2017-08-20T09:41:53Z</time>
      </trkpt>
      <trkpt lat="45.97571" lon="4.7987">
        <ele>222</ele>
        <time>2017-08-20T09:41:54Z</time>
      </trkpt>
      <trkpt lat="45.97564" lon="4.79872">
        <ele>222</ele>
        <time>2017-08-20T09:41:55Z</time>
      </trkpt>
      <trkpt lat="45.97557" lon="4.79875">
        <ele>222</ele>
        <time>2017-08-20T09:41:56Z</time>
      </trkpt>
      <trkpt lat="45.97549" lon="4.79877">
        <ele>222</ele>
        <time>2017-08-20T09:41:57Z</time>
      </trkpt>
      <trkpt lat="45.97542" lon="4.79879">
        <ele>222</ele>
        <time>2017-08-20T09:41:58Z</time>
      </trkpt>
      <trkpt lat="45.97534" lon="4.7988">
        <ele>222</ele>
        <time>2017-08-20T09:41:59Z</time>
      </trkpt>
      <trkpt lat="45.97526" lon="4.79881">
        <ele>222</ele>
        <time>2017-08-20T09:42:00Z</time>
      </trkpt>
      <trkpt lat="45.97517" lon="4.79883">
        <ele>222</ele>
        <time>2017-08-20T09:42:01Z</time>
      </trkpt>
      <trkpt lat="45.97508" lon="4.79884">
        <ele>221</ele>
        <time>2017-08-20T09:42:02Z</time>
      </trkpt>
      <trkpt lat="45.97499" lon="4.79886">
        <ele>221</ele>
        <time>2017-08-20T09:42:03Z</time>
      </trkpt>
      <trkpt lat="45.97489" lon="4.79887">
        <ele>221</ele>
        <time>2017-08-20T09:42:04Z</time>
      </trkpt>
      <trkpt lat="45.97479" lon="4.79887">
        <ele>221</ele>
        <time>2017-08-20T09:42:05Z</time>
      </trkpt>
      <trkpt lat="45.97469" lon="4.79887">
        <ele>221</ele>
        <time>2017-08-20T09:42:06Z</time>
      </trkpt>
      <trkpt lat="45.97459" lon="4.79886">
        <ele>221</ele>
        <time>2017-08-20T09:42:07Z</time>
      </trkpt>
      <trkpt lat="45.97448" lon="4.79887">
        <ele>221</ele>
        <time>2017-08-20T09:42:08Z</time>
      </trkpt>
      <trkpt lat="45.97438" lon="4.79887">
        <ele>220</ele>
        <time>2017-08-20T09:42:09Z</time>
      </trkpt>
      <trkpt lat="45.97428" lon="4.79887">
        <ele>220</ele>
        <time>2017-08-20T09:42:10Z</time>
      </trkpt>
      <trkpt lat="45.97417" lon="4.79889">
        <ele>220</ele>
        <time>2017-08-20T09:42:11Z</time>
      </trkpt>
      <trkpt lat="45.97407" lon="4.7989">
        <ele>218</ele>
        <time>2017-08-20T09:42:12Z</time>
      </trkpt>
      <trkpt lat="45.97396" lon="4.79892">
        <ele>217</ele>
        <time>2017-08-20T09:42:13Z</time>
      </trkpt>
      <trkpt lat="45.97385" lon="4.79894">
        <ele>217</ele>
        <time>2017-08-20T09:42:14Z</time>
      </trkpt>
      <trkpt lat="45.97375" lon="4.79897">
        <ele>217</ele>
        <time>2017-08-20T09:42:15Z</time>
      </trkpt>
      <trkpt lat="45.97364" lon="4.79899">
        <ele>217</ele>
        <time>2017-08-20T09:42:16Z</time>
      </trkpt>
      <trkpt lat="45.97354" lon="4.79902">
        <ele>216</ele>
        <time>2017-08-20T09:42:17Z</time>
      </trkpt>
      <trkpt lat="45.97343" lon="4.79904">
        <ele>215</ele>
        <time>2017-08-20T09:42:18Z</time>
      </trkpt>
      <trkpt lat="45.97332" lon="4.79905">
        <ele>213</ele>
        <time>2017-08-20T09:42:19Z</time>
      </trkpt>
      <trkpt lat="45.97321" lon="4.79907">
        <ele>213</ele>
        <time>2017-08-20T09:42:20Z</time>
      </trkpt>
      <trkpt lat="45.97309" lon="4.7991">
        <ele>213</ele>
        <time>2017-08-20T09:42:21Z</time>
      </trkpt>
      <trkpt lat="45.97299" lon="4.79912">
        <ele>213</ele>
        <time>2017-08-20T09:42:22Z</time>
      </trkpt>
      <trkpt lat="45.97288" lon="4.79914">
        <ele>213</ele>
        <time>2017-08-20T09:42:23Z</time>
      </trkpt>
      <trkpt lat="45.97279" lon="4.79915">
        <ele>213</ele>
        <time>2017-08-20T09:42:24Z</time>
      </trkpt>
      <trkpt lat="45.9727" lon="4.79916">
        <ele>213</ele>
        <time>2017-08-20T09:42:25Z</time>
      </trkpt>
      <trkpt lat="45.97263" lon="4.79917">
        <ele>212</ele>
        <time>2017-08-20T09:42:26Z</time>
      </trkpt>
      <trkpt lat="45.97256" lon="4.79917">
        <ele>212</ele>
        <time>2017-08-20T09:42:27Z</time>
      </trkpt>
      <trkpt lat="45.97252" lon="4.79913">
        <ele>212</ele>
        <time>2017-08-20T09:42:28Z</time>
      </trkpt>
      <trkpt lat="45.9725" lon="4.79907">
        <ele>212</ele>
        <time>2017-08-20T09:42:29Z</time>
      </trkpt>
      <trkpt lat="45.97249" lon="4.79899">
        <ele>211</ele>
        <time>2017-08-20T09:42:30Z</time>
      </trkpt>
      <trkpt lat="45.97247" lon="4.79892">
        <ele>211</ele>
        <time>2017-08-20T09:42:31Z</time>
      </trkpt>
      <trkpt lat="45.97244" lon="4.79885">
        <ele>211</ele>
        <time>2017-08-20T09:42:32Z</time>
      </trkpt>
      <trkpt lat="45.97242" lon="4.79877">
        <ele>211</ele>
        <time>2017-08-20T09:42:33Z</time>
      </trkpt>
      <trkpt lat="45.97241" lon="4.79868">
        <ele>211</ele>
        <time>2017-08-20T09:42:34Z</time>
      </trkpt>
      <trkpt lat="45.9724" lon="4.7986">
        <ele>211</ele>
        <time>2017-08-20T09:42:35Z</time>
      </trkpt>
      <trkpt lat="45.9724" lon="4.79851">
        <ele>211</ele>
        <time>2017-08-20T09:42:36Z</time>
      </trkpt>
      <trkpt lat="45.9724" lon="4.79844">
        <ele>211</ele>
        <time>2017-08-20T09:42:37Z</time>
      </trkpt>
      <trkpt lat="45.97241" lon="4.79836">
        <ele>212</ele>
        <time>2017-08-20T09:42:38Z</time>
      </trkpt>
      <trkpt lat="45.97241" lon="4.79828">
        <ele>211</ele>
        <time>2017-08-20T09:42:39Z</time>
      </trkpt>
      <trkpt lat="45.97242" lon="4.79821">
        <ele>211</ele>
        <time>2017-08-20T09:42:40Z</time>
      </trkpt>
      <trkpt lat="45.97243" lon="4.79813">
        <ele>211</ele>
        <time>2017-08-20T09:42:41Z</time>
      </trkpt>
      <trkpt lat="45.97243" lon="4.79805">
        <ele>210</ele>
        <time>2017-08-20T09:42:42Z</time>
      </trkpt>
      <trkpt lat="45.97244" lon="4.79796">
        <ele>210</ele>
        <time>2017-08-20T09:42:43Z</time>
      </trkpt>
      <trkpt lat="45.97245" lon="4.79788">
        <ele>210</ele>
        <time>2017-08-20T09:42:44Z</time>
      </trkpt>
      <trkpt lat="45.97245" lon="4.79779">
        <ele>210</ele>
        <time>2017-08-20T09:42:45Z</time>
      </trkpt>
      <trkpt lat="45.97245" lon="4.7977">
        <ele>210</ele>
        <time>2017-08-20T09:42:46Z</time>
      </trkpt>
      <trkpt lat="45.97245" lon="4.7976">
        <ele>209</ele>
        <time>2017-08-20T09:42:47Z</time>
      </trkpt>
      <trkpt lat="45.97245" lon="4.79752">
        <ele>209</ele>
        <time>2017-08-20T09:42:48Z</time>
      </trkpt>
      <trkpt lat="45.97246" lon="4.79743">
        <ele>209</ele>
        <time>2017-08-20T09:42:49Z</time>
      </trkpt>
      <trkpt lat="45.97246" lon="4.79736">
        <ele>209</ele>
        <time>2017-08-20T09:42:50Z</time>
      </trkpt>
      <trkpt lat="45.97247" lon="4.79728">
        <ele>209</ele>
        <time>2017-08-20T09:42:51Z</time>
      </trkpt>
      <trkpt lat="45.97248" lon="4.79721">
        <ele>209</ele>
        <time>2017-08-20T09:42:52Z</time>
      </trkpt>
      <trkpt lat="45.97248" lon="4.79713">
        <ele>209</ele>
        <time>2017-08-20T09:42:53Z</time>
      </trkpt>
      <trkpt lat="45.97249" lon="4.79706">
        <ele>208</ele>
        <time>2017-08-20T09:42:54Z</time>
      </trkpt>
      <trkpt lat="45.9725" lon="4.79698">
        <ele>208</ele>
        <time>2017-08-20T09:42:55Z</time>
      </trkpt>
      <trkpt lat="45.97251" lon="4.7969">
        <ele>211</ele>
        <time>2017-08-20T09:42:56Z</time>
      </trkpt>
      <trkpt lat="45.97253" lon="4.79681">
        <ele>211</ele>
        <time>2017-08-20T09:42:57Z</time>
      </trkpt>
      <trkpt lat="45.97254" lon="4.79673">
        <ele>210</ele>
        <time>2017-08-20T09:42:58Z</time>
      </trkpt>
      <trkpt lat="45.97255" lon="4.79663">
        <ele>209</ele>
        <time>2017-08-20T09:42:59Z</time>
      </trkpt>
      <trkpt lat="45.97256" lon="4.79654">
        <ele>211</ele>
        <time>2017-08-20T09:43:00Z</time>
      </trkpt>
      <trkpt lat="45.97258" lon="4.79644">
        <ele>212</ele>
        <time>2017-08-20T09:43:01Z</time>
      </trkpt>
      <trkpt lat="45.97258" lon="4.79634">
        <ele>213</ele>
        <time>2017-08-20T09:43:02Z</time>
      </trkpt>
      <trkpt lat="45.97259" lon="4.79624">
        <ele>213</ele>
        <time>2017-08-20T09:43:03Z</time>
      </trkpt>
      <trkpt lat="45.97259" lon="4.79613">
        <ele>213</ele>
        <time>2017-08-20T09:43:04Z</time>
      </trkpt>
      <trkpt lat="45.97258" lon="4.79604">
        <ele>213</ele>
        <time>2017-08-20T09:43:05Z</time>
      </trkpt>
      <trkpt lat="45.97258" lon="4.79595">
        <ele>212</ele>
        <time>2017-08-20T09:43:06Z</time>
      </trkpt>
      <trkpt lat="45.97258" lon="4.79586">
        <ele>211</ele>
        <time>2017-08-20T09:43:07Z</time>
      </trkpt>
      <trkpt lat="45.97258" lon="4.79579">
        <ele>212</ele>
        <time>2017-08-20T09:43:08Z</time>
      </trkpt>
      <trkpt lat="45.97258" lon="4.79572">
        <ele>212</ele>
        <time>2017-08-20T09:43:09Z</time>
      </trkpt>
      <trkpt lat="45.97258" lon="4.79564">
        <ele>213</ele>
        <time>2017-08-20T09:43:10Z</time>
      </trkpt>
      <trkpt lat="45.97257" lon="4.79556">
        <ele>214</ele>
        <time>2017-08-20T09:43:11Z</time>
      </trkpt>
      <trkpt lat="45.97256" lon="4.79548">
        <ele>214</ele>
        <time>2017-08-20T09:43:12Z</time>
      </trkpt>
      <trkpt lat="45.97255" lon="4.7954">
        <ele>214</ele>
        <time>2017-08-20T09:43:13Z</time>
      </trkpt>
      <trkpt lat="45.97254" lon="4.79532">
        <ele>214</ele>
        <time>2017-08-20T09:43:14Z</time>
      </trkpt>
      <trkpt lat="45.97253" lon="4.79524">
        <ele>214</ele>
        <time>2017-08-20T09:43:15Z</time>
      </trkpt>
      <trkpt lat="45.97251" lon="4.79515">
        <ele>213</ele>
        <time>2017-08-20T09:43:16Z</time>
      </trkpt>
      <trkpt lat="45.9725" lon="4.79508">
        <ele>210</ele>
        <time>2017-08-20T09:43:17Z</time>
      </trkpt>
      <trkpt lat="45.97249" lon="4.795">
        <ele>211</ele>
        <time>2017-08-20T09:43:18Z</time>
      </trkpt>
      <trkpt lat="45.97247" lon="4.79492">
        <ele>210</ele>
        <time>2017-08-20T09:43:19Z</time>
      </trkpt>
      <trkpt lat="45.97245" lon="4.79484">
        <ele>210</ele>
        <time>2017-08-20T09:43:20Z</time>
      </trkpt>
      <trkpt lat="45.97243" lon="4.79476">
        <ele>209</ele>
        <time>2017-08-20T09:43:21Z</time>
      </trkpt>
      <trkpt lat="45.97241" lon="4.79468">
        <ele>209</ele>
        <time>2017-08-20T09:43:22Z</time>
      </trkpt>
      <trkpt lat="45.97238" lon="4.79461">
        <ele>209</ele>
        <time>2017-08-20T09:43:23Z</time>
      </trkpt>
      <trkpt lat="45.97236" lon="4.79453">
        <ele>209</ele>
        <time>2017-08-20T09:43:24Z</time>
      </trkpt>
      <trkpt lat="45.97233" lon="4.79446">
        <ele>209</ele>
        <time>2017-08-20T09:43:25Z</time>
      </trkpt>
      <trkpt lat="45.9723" lon="4.79439">
        <ele>209</ele>
        <time>2017-08-20T09:43:26Z</time>
      </trkpt>
      <trkpt lat="45.97227" lon="4.79432">
        <ele>209</ele>
        <time>2017-08-20T09:43:27Z</time>
      </trkpt>
      <trkpt lat="45.97224" lon="4.79424">
        <ele>209</ele>
        <time>2017-08-20T09:43:28Z</time>
      </trkpt>
      <trkpt lat="45.9722" lon="4.79417">
        <ele>208</ele>
        <time>2017-08-20T09:43:29Z</time>
      </trkpt>
      <trkpt lat="45.97217" lon="4.7941">
        <ele>208</ele>
        <time>2017-08-20T09:43:30Z</time>
      </trkpt>
      <trkpt lat="45.97215" lon="4.79402">
        <ele>208</ele>
        <time>2017-08-20T09:43:31Z</time>
      </trkpt>
      <trkpt lat="45.97212" lon="4.79395">
        <ele>208</ele>
        <time>2017-08-20T09:43:32Z</time>
      </trkpt>
      <trkpt lat="45.97209" lon="4.79388">
        <ele>208</ele>
        <time>2017-08-20T09:43:33Z</time>
      </trkpt>
      <trkpt lat="45.97206" lon="4.79382">
        <ele>208</ele>
        <time>2017-08-20T09:43:34Z</time>
      </trkpt>
      <trkpt lat="45.97202" lon="4.79376">
        <ele>208</ele>
        <time>2017-08-20T09:43:35Z</time>
      </trkpt>
      <trkpt lat="45.97199" lon="4.79369">
        <ele>207</ele>
        <time>2017-08-20T09:43:36Z</time>
      </trkpt>
      <trkpt lat="45.97196" lon="4.79362">
        <ele>207</ele>
        <time>2017-08-20T09:43:37Z</time>
      </trkpt>
      <trkpt lat="45.97192" lon="4.79355">
        <ele>207</ele>
        <time>2017-08-20T09:43:38Z</time>
      </trkpt>
      <trkpt lat="45.97187" lon="4.79348">
        <ele>207</ele>
        <time>2017-08-20T09:43:39Z</time>
      </trkpt>
      <trkpt lat="45.97183" lon="4.7934">
        <ele>206</ele>
        <time>2017-08-20T09:43:40Z</time>
      </trkpt>
      <trkpt lat="45.9718" lon="4.79332">
        <ele>206</ele>
        <time>2017-08-20T09:43:41Z</time>
      </trkpt>
      <trkpt lat="45.97176" lon="4.79324">
        <ele>206</ele>
        <time>2017-08-20T09:43:42Z</time>
      </trkpt>
      <trkpt lat="45.97172" lon="4.79315">
        <ele>207</ele>
        <time>2017-08-20T09:43:43Z</time>
      </trkpt>
      <trkpt lat="45.97168" lon="4.79307">
        <ele>207</ele>
        <time>2017-08-20T09:43:44Z</time>
      </trkpt>
      <trkpt lat="45.97165" lon="4.79298">
        <ele>204</ele>
        <time>2017-08-20T09:43:45Z</time>
      </trkpt>
      <trkpt lat="45.97162" lon="4.79289">
        <ele>204</ele>
        <time>2017-08-20T09:43:46Z</time>
      </trkpt>
      <trkpt lat="45.97159" lon="4.79281">
        <ele>204</ele>
        <time>2017-08-20T09:43:47Z</time>
      </trkpt>
      <trkpt lat="45.97156" lon="4.79272">
        <ele>204</ele>
        <time>2017-08-20T09:43:48Z</time>
      </trkpt>
      <trkpt lat="45.97154" lon="4.79264">
        <ele>204</ele>
        <time>2017-08-20T09:43:49Z</time>
      </trkpt>
      <trkpt lat="45.97151" lon="4.79256">
        <ele>204</ele>
        <time>2017-08-20T09:43:50Z</time>
      </trkpt>
      <trkpt lat="45.97148" lon="4.79248">
        <ele>205</ele>
        <time>2017-08-20T09:43:51Z</time>
      </trkpt>
      <trkpt lat="45.97144" lon="4.7924">
        <ele>205</ele>
        <time>2017-08-20T09:43:52Z</time>
      </trkpt>
      <trkpt lat="45.97141" lon="4.79232">
        <ele>205</ele>
        <time>2017-08-20T09:43:53Z</time>
      </trkpt>
      <trkpt lat="45.97138" lon="4.79224">
        <ele>205</ele>
        <time>2017-08-20T09:43:54Z</time>
      </trkpt>
      <trkpt lat="45.97134" lon="4.79215">
        <ele>206</ele>
        <time>2017-08-20T09:43:55Z</time>
      </trkpt>
      <trkpt lat="45.97131" lon="4.79206">
        <ele>206</ele>
        <time>2017-08-20T09:43:56Z</time>
      </trkpt>
      <trkpt lat="45.97127" lon="4.79197">
        <ele>206</ele>
        <time>2017-08-20T09:43:57Z</time>
      </trkpt>
      <trkpt lat="45.97123" lon="4.79187">
        <ele>206</ele>
        <time>2017-08-20T09:43:58Z</time>
      </trkpt>
      <trkpt lat="45.9712" lon="4.79178">
        <ele>206</ele>
        <time>2017-08-20T09:43:59Z</time>
      </trkpt>
      <trkpt lat="45.97116" lon="4.79169">
        <ele>206</ele>
        <time>2017-08-20T09:44:00Z</time>
      </trkpt>
      <trkpt lat="45.97113" lon="4.7916">
        <ele>206</ele>
        <time>2017-08-20T09:44:01Z</time>
      </trkpt>
      <trkpt lat="45.97108" lon="4.79152">
        <ele>206</ele>
        <time>2017-08-20T09:44:02Z</time>
      </trkpt>
      <trkpt lat="45.97104" lon="4.79145">
        <ele>206</ele>
        <time>2017-08-20T09:44:03Z</time>
      </trkpt>
      <trkpt lat="45.971" lon="4.79137">
        <ele>206</ele>
        <time>2017-08-20T09:44:04Z</time>
      </trkpt>
      <trkpt lat="45.97096" lon="4.7913">
        <ele>206</ele>
        <time>2017-08-20T09:44:05Z</time>
      </trkpt>
      <trkpt lat="45.97092" lon="4.79123">
        <ele>206</ele>
        <time>2017-08-20T09:44:06Z</time>
      </trkpt>
      <trkpt lat="45.97087" lon="4.79116">
        <ele>206</ele>
        <time>2017-08-20T09:44:07Z</time>
      </trkpt>
      <trkpt lat="45.97084" lon="4.79107">
        <ele>206</ele>
        <time>2017-08-20T09:44:08Z</time>
      </trkpt>
      <trkpt lat="45.97081" lon="4.79099">
        <ele>204</ele>
        <time>2017-08-20T09:44:09Z</time>
      </trkpt>
      <trkpt lat="45.97079" lon="4.79091">
        <ele>204</ele>
        <time>2017-08-20T09:44:10Z</time>
      </trkpt>
      <trkpt lat="45.97078" lon="4.79083">
        <ele>204</ele>
        <time>2017-08-20T09:44:11Z</time>
      </trkpt>
      <trkpt lat="45.97077" lon="4.79075">
        <ele>204</ele>
        <time>2017-08-20T09:44:12Z</time>
      </trkpt>
      <trkpt lat="45.97076" lon="4.79067">
        <ele>204</ele>
        <time>2017-08-20T09:44:13Z</time>
      </trkpt>
      <trkpt lat="45.97074" lon="4.7906">
        <ele>203</ele>
        <time>2017-08-20T09:44:14Z</time>
      </trkpt>
      <trkpt lat="45.97072" lon="4.79052">
        <ele>203</ele>
        <time>2017-08-20T09:44:15Z</time>
      </trkpt>
      <trkpt lat="45.97071" lon="4.79044">
        <ele>203</ele>
        <time>2017-08-20T09:44:16Z</time>
      </trkpt>
      <trkpt lat="45.97069" lon="4.79035">
        <ele>203</ele>
        <time>2017-08-20T09:44:17Z</time>
      </trkpt>
      <trkpt lat="45.97067" lon="4.79027">
        <ele>204</ele>
        <time>2017-08-20T09:44:18Z</time>
      </trkpt>
      <trkpt lat="45.97065" lon="4.79019">
        <ele>204</ele>
        <time>2017-08-20T09:44:19Z</time>
      </trkpt>
      <trkpt lat="45.97062" lon="4.79011">
        <ele>204</ele>
        <time>2017-08-20T09:44:20Z</time>
      </trkpt>
      <trkpt lat="45.97059" lon="4.79003">
        <ele>204</ele>
        <time>2017-08-20T09:44:21Z</time>
      </trkpt>
      <trkpt lat="45.97057" lon="4.78996">
        <ele>205</ele>
        <time>2017-08-20T09:44:22Z</time>
      </trkpt>
      <trkpt lat="45.97054" lon="4.78989">
        <ele>205</ele>
        <time>2017-08-20T09:44:23Z</time>
      </trkpt>
      <trkpt lat="45.97051" lon="4.78982">
        <ele>205</ele>
        <time>2017-08-20T09:44:24Z</time>
      </trkpt>
      <trkpt lat="45.97048" lon="4.78975">
        <ele>205</ele>
        <time>2017-08-20T09:44:25Z</time>
      </trkpt>
      <trkpt lat="45.97045" lon="4.78967">
        <ele>205</ele>
        <time>2017-08-20T09:44:26Z</time>
      </trkpt>
      <trkpt lat="45.97041" lon="4.78961">
        <ele>205</ele>
        <time>2017-08-20T09:44:27Z</time>
      </trkpt>
      <trkpt lat="45.97038" lon="4.78954">
        <ele>205</ele>
        <time>2017-08-20T09:44:28Z</time>
      </trkpt>
      <trkpt lat="45.97033" lon="4.78948">
        <ele>205</ele>
        <time>2017-08-20T09:44:29Z</time>
      </trkpt>
      <trkpt lat="45.97029" lon="4.78941">
        <ele>205</ele>
        <time>2017-08-20T09:44:30Z</time>
      </trkpt>
      <trkpt lat="45.97024" lon="4.78935">
        <ele>205</ele>
        <time>2017-08-20T09:44:31Z</time>
      </trkpt>
      <trkpt lat="45.97019" lon="4.78929">
        <ele>205</ele>
        <time>2017-08-20T09:44:32Z</time>
      </trkpt>
      <trkpt lat="45.97015" lon="4.78922">
        <ele>205</ele>
        <time>2017-08-20T09:44:33Z</time>
      </trkpt>
      <trkpt lat="45.9701" lon="4.78916">
        <ele>205</ele>
        <time>2017-08-20T09:44:34Z</time>
      </trkpt>
      <trkpt lat="45.97005" lon="4.78909">
        <ele>205</ele>
        <time>2017-08-20T09:44:35Z</time>
      </trkpt>
      <trkpt lat="45.97001" lon="4.78902">
        <ele>206</ele>
        <time>2017-08-20T09:44:36Z</time>
      </trkpt>
      <trkpt lat="45.96997" lon="4.78896">
        <ele>203</ele>
        <time>2017-08-20T09:44:37Z</time>
      </trkpt>
      <trkpt lat="45.96992" lon="4.7889">
        <ele>203</ele>
        <time>2017-08-20T09:44:38Z</time>
      </trkpt>
      <trkpt lat="45.96987" lon="4.78883">
        <ele>203</ele>
        <time>2017-08-20T09:44:39Z</time>
      </trkpt>
      <trkpt lat="45.96982" lon="4.78877">
        <ele>203</ele>
        <time>2017-08-20T09:44:40Z</time>
      </trkpt>
      <trkpt lat="45.96977" lon="4.78871">
        <ele>203</ele>
        <time>2017-08-20T09:44:41Z</time>
      </trkpt>
      <trkpt lat="45.96972" lon="4.78864">
        <ele>203</ele>
        <time>2017-08-20T09:44:42Z</time>
      </trkpt>
      <trkpt lat="45.96967" lon="4.78858">
        <ele>203</ele>
        <time>2017-08-20T09:44:43Z</time>
      </trkpt>
      <trkpt lat="45.96962" lon="4.78853">
        <ele>203</ele>
        <time>2017-08-20T09:44:44Z</time>
      </trkpt>
      <trkpt lat="45.96957" lon="4.78847">
        <ele>203</ele>
        <time>2017-08-20T09:44:45Z</time>
      </trkpt>
      <trkpt lat="45.96953" lon="4.78841">
        <ele>203</ele>
        <time>2017-08-20T09:44:46Z</time>
      </trkpt>
      <trkpt lat="45.96948" lon="4.78835">
        <ele>202</ele>
        <time>2017-08-20T09:44:47Z</time>
      </trkpt>
      <trkpt lat="45.96943" lon="4.78829">
        <ele>203</ele>
        <time>2017-08-20T09:44:48Z</time>
      </trkpt>
      <trkpt lat="45.96939" lon="4.78823">
        <ele>203</ele>
        <time>2017-08-20T09:44:49Z</time>
      </trkpt>
      <trkpt lat="45.96934" lon="4.78816">
        <ele>203</ele>
        <time>2017-08-20T09:44:50Z</time>
      </trkpt>
      <trkpt lat="45.9693" lon="4.7881">
        <ele>203</ele>
        <time>2017-08-20T09:44:51Z</time>
      </trkpt>
      <trkpt lat="45.96926" lon="4.78803">
        <ele>203</ele>
        <time>2017-08-20T09:44:52Z</time>
      </trkpt>
      <trkpt lat="45.96922" lon="4.78796">
        <ele>203</ele>
        <time>2017-08-20T09:44:53Z</time>
      </trkpt>
      <trkpt lat="45.96918" lon="4.78789">
        <ele>203</ele>
        <time>2017-08-20T09:44:54Z</time>
      </trkpt>
      <trkpt lat="45.96913" lon="4.78781">
        <ele>201</ele>
        <time>2017-08-20T09:44:55Z</time>
      </trkpt>
      <trkpt lat="45.96909" lon="4.78772">
        <ele>201</ele>
        <time>2017-08-20T09:44:56Z</time>
      </trkpt>
      <trkpt lat="45.96905" lon="4.78764">
        <ele>202</ele>
        <time>2017-08-20T09:44:57Z</time>
      </trkpt>
      <trkpt lat="45.96901" lon="4.78755">
        <ele>202</ele>
        <time>2017-08-20T09:44:58Z</time>
      </trkpt>
      <trkpt lat="45.96897" lon="4.78747">
        <ele>202</ele>
        <time>2017-08-20T09:44:59Z</time>
      </trkpt>
      <trkpt lat="45.96893" lon="4.78738">
        <ele>202</ele>
        <time>2017-08-20T09:45:00Z</time>
      </trkpt>
      <trkpt lat="45.96889" lon="4.7873">
        <ele>202</ele>
        <time>2017-08-20T09:45:01Z</time>
      </trkpt>
      <trkpt lat="45.96885" lon="4.78721">
        <ele>202</ele>
        <time>2017-08-20T09:45:02Z</time>
      </trkpt>
      <trkpt lat="45.96881" lon="4.78713">
        <ele>202</ele>
        <time>2017-08-20T09:45:03Z</time>
      </trkpt>
      <trkpt lat="45.96878" lon="4.78705">
        <ele>202</ele>
        <time>2017-08-20T09:45:04Z</time>
      </trkpt>
      <trkpt lat="45.96873" lon="4.78697">
        <ele>202</ele>
        <time>2017-08-20T09:45:05Z</time>
      </trkpt>
      <trkpt lat="45.96869" lon="4.7869">
        <ele>202</ele>
        <time>2017-08-20T09:45:06Z</time>
      </trkpt>
      <trkpt lat="45.96865" lon="4.78682">
        <ele>202</ele>
        <time>2017-08-20T09:45:07Z</time>
      </trkpt>
      <trkpt lat="45.96861" lon="4.78674">
        <ele>202</ele>
        <time>2017-08-20T09:45:08Z</time>
      </trkpt>
      <trkpt lat="45.96857" lon="4.78667">
        <ele>203</ele>
        <time>2017-08-20T09:45:09Z</time>
      </trkpt>
      <trkpt lat="45.96853" lon="4.78659">
        <ele>203</ele>
        <time>2017-08-20T09:45:10Z</time>
      </trkpt>
      <trkpt lat="45.96849" lon="4.78652">
        <ele>203</ele>
        <time>2017-08-20T09:45:11Z</time>
      </trkpt>
      <trkpt lat="45.96845" lon="4.78644">
        <ele>203</ele>
        <time>2017-08-20T09:45:12Z</time>
      </trkpt>
      <trkpt lat="45.96842" lon="4.78637">
        <ele>203</ele>
        <time>2017-08-20T09:45:13Z</time>
      </trkpt>
      <trkpt lat="45.96838" lon="4.78629">
        <ele>203</ele>
        <time>2017-08-20T09:45:14Z</time>
      </trkpt>
      <trkpt lat="45.96835" lon="4.78621">
        <ele>203</ele>
        <time>2017-08-20T09:45:15Z</time>
      </trkpt>
      <trkpt lat="45.96832" lon="4.78614">
        <ele>202</ele>
        <time>2017-08-20T09:45:16Z</time>
      </trkpt>
      <trkpt lat="45.9683" lon="4.78607">
        <ele>202</ele>
        <time>2017-08-20T09:45:17Z</time>
      </trkpt>
      <trkpt lat="45.96827" lon="4.786">
        <ele>202</ele>
        <time>2017-08-20T09:45:18Z</time>
      </trkpt>
      <trkpt lat="45.96825" lon="4.78593">
        <ele>202</ele>
        <time>2017-08-20T09:45:19Z</time>
      </trkpt>
      <trkpt lat="45.96822" lon="4.78586">
        <ele>202</ele>
        <time>2017-08-20T09:45:20Z</time>
      </trkpt>
      <trkpt lat="45.96818" lon="4.78579">
        <ele>203</ele>
        <time>2017-08-20T09:45:21Z</time>
      </trkpt>
      <trkpt lat="45.96814" lon="4.78572">
        <ele>203</ele>
        <time>2017-08-20T09:45:22Z</time>
      </trkpt>
      <trkpt lat="45.9681" lon="4.78566">
        <ele>203</ele>
        <time>2017-08-20T09:45:23Z</time>
      </trkpt>
      <trkpt lat="45.96805" lon="4.78558">
        <ele>203</ele>
        <time>2017-08-20T09:45:24Z</time>
      </trkpt>
      <trkpt lat="45.968" lon="4.78551">
        <ele>203</ele>
        <time>2017-08-20T09:45:25Z</time>
      </trkpt>
      <trkpt lat="45.96795" lon="4.78543">
        <ele>203</ele>
        <time>2017-08-20T09:45:26Z</time>
      </trkpt>
      <trkpt lat="45.96791" lon="4.78535">
        <ele>203</ele>
        <time>2017-08-20T09:45:27Z</time>
      </trkpt>
      <trkpt lat="45.96786" lon="4.78528">
        <ele>203</ele>
        <time>2017-08-20T09:45:28Z</time>
      </trkpt>
      <trkpt lat="45.96781" lon="4.7852">
        <ele>203</ele>
        <time>2017-08-20T09:45:29Z</time>
      </trkpt>
      <trkpt lat="45.96776" lon="4.78513">
        <ele>203</ele>
        <time>2017-08-20T09:45:30Z</time>
      </trkpt>
      <trkpt lat="45.96771" lon="4.78506">
        <ele>203</ele>
        <time>2017-08-20T09:45:31Z</time>
      </trkpt>
      <trkpt lat="45.96767" lon="4.78498">
        <ele>205</ele>
        <time>2017-08-20T09:45:32Z</time>
      </trkpt>
      <trkpt lat="45.96762" lon="4.78491">
        <ele>204</ele>
        <time>2017-08-20T09:45:33Z</time>
      </trkpt>
      <trkpt lat="45.96757" lon="4.78484">
        <ele>205</ele>
        <time>2017-08-20T09:45:34Z</time>
      </trkpt>
      <trkpt lat="45.96752" lon="4.78478">
        <ele>205</ele>
        <time>2017-08-20T09:45:35Z</time>
      </trkpt>
      <trkpt lat="45.96747" lon="4.78472">
        <ele>203</ele>
        <time>2017-08-20T09:45:36Z</time>
      </trkpt>
      <trkpt lat="45.96742" lon="4.78467">
        <ele>203</ele>
        <time>2017-08-20T09:45:37Z</time>
      </trkpt>
      <trkpt lat="45.96737" lon="4.78462">
        <ele>203</ele>
        <time>2017-08-20T09:45:38Z</time>
      </trkpt>
      <trkpt lat="45.96732" lon="4.78457">
        <ele>203</ele>
        <time>2017-08-20T09:45:39Z</time>
      </trkpt>
      <trkpt lat="45.96726" lon="4.78452">
        <ele>203</ele>
        <time>2017-08-20T09:45:40Z</time>
      </trkpt>
      <trkpt lat="45.96721" lon="4.78447">
        <ele>203</ele>
        <time>2017-08-20T09:45:41Z</time>
      </trkpt>
      <trkpt lat="45.96715" lon="4.78442">
        <ele>203</ele>
        <time>2017-08-20T09:45:42Z</time>
      </trkpt>
      <trkpt lat="45.96709" lon="4.78437">
        <ele>203</ele>
        <time>2017-08-20T09:45:43Z</time>
      </trkpt>
      <trkpt lat="45.96704" lon="4.78431">
        <ele>203</ele>
        <time>2017-08-20T09:45:44Z</time>
      </trkpt>
      <trkpt lat="45.96699" lon="4.78425">
        <ele>203</ele>
        <time>2017-08-20T09:45:45Z</time>
      </trkpt>
      <trkpt lat="45.96694" lon="4.78419">
        <ele>202</ele>
        <time>2017-08-20T09:45:46Z</time>
      </trkpt>
      <trkpt lat="45.96689" lon="4.78414">
        <ele>204</ele>
        <time>2017-08-20T09:45:47Z</time>
      </trkpt>
      <trkpt lat="45.96684" lon="4.7841">
        <ele>204</ele>
        <time>2017-08-20T09:45:48Z</time>
      </trkpt>
      <trkpt lat="45.96679" lon="4.78405">
        <ele>204</ele>
        <time>2017-08-20T09:45:49Z</time>
      </trkpt>
      <trkpt lat="45.96673" lon="4.784">
        <ele>204</ele>
        <time>2017-08-20T09:45:50Z</time>
      </trkpt>
      <trkpt lat="45.96668" lon="4.78395">
        <ele>204</ele>
        <time>2017-08-20T09:45:51Z</time>
      </trkpt>
      <trkpt lat="45.96663" lon="4.78389">
        <ele>201</ele>
        <time>2017-08-20T09:45:52Z</time>
      </trkpt>
      <trkpt lat="45.96658" lon="4.78384">
        <ele>201</ele>
        <time>2017-08-20T09:45:53Z</time>
      </trkpt>
      <trkpt lat="45.96652" lon="4.78379">
        <ele>201</ele>
        <time>2017-08-20T09:45:54Z</time>
      </trkpt>
      <trkpt lat="45.96646" lon="4.78374">
        <ele>201</ele>
        <time>2017-08-20T09:45:55Z</time>
      </trkpt>
      <trkpt lat="45.96641" lon="4.78369">
        <ele>201</ele>
        <time>2017-08-20T09:45:56Z</time>
      </trkpt>
      <trkpt lat="45.96635" lon="4.78363">
        <ele>201</ele>
        <time>2017-08-20T09:45:57Z</time>
      </trkpt>
      <trkpt lat="45.9663" lon="4.78358">
        <ele>201</ele>
        <time>2017-08-20T09:45:58Z</time>
      </trkpt>
      <trkpt lat="45.96624" lon="4.78353">
        <ele>201</ele>
        <time>2017-08-20T09:45:59Z</time>
      </trkpt>
      <trkpt lat="45.96619" lon="4.78348">
        <ele>201</ele>
        <time>2017-08-20T09:46:00Z</time>
      </trkpt>
      <trkpt lat="45.96614" lon="4.78343">
        <ele>200</ele>
        <time>2017-08-20T09:46:01Z</time>
      </trkpt>
      <trkpt lat="45.96609" lon="4.78338">
        <ele>200</ele>
        <time>2017-08-20T09:46:02Z</time>
      </trkpt>
      <trkpt lat="45.96604" lon="4.78332">
        <ele>203</ele>
        <time>2017-08-20T09:46:03Z</time>
      </trkpt>
      <trkpt lat="45.96598" lon="4.78328">
        <ele>202</ele>
        <time>2017-08-20T09:46:04Z</time>
      </trkpt>
      <trkpt lat="45.96593" lon="4.78323">
        <ele>202</ele>
        <time>2017-08-20T09:46:05Z</time>
      </trkpt>
      <trkpt lat="45.96588" lon="4.78318">
        <ele>202</ele>
        <time>2017-08-20T09:46:06Z</time>
      </trkpt>
      <trkpt lat="45.96583" lon="4.78313">
        <ele>199</ele>
        <time>2017-08-20T09:46:07Z</time>
      </trkpt>
      <trkpt lat="45.96578" lon="4.78308">
        <ele>200</ele>
        <time>2017-08-20T09:46:08Z</time>
      </trkpt>
      <trkpt lat="45.96573" lon="4.78303">
        <ele>200</ele>
        <time>2017-08-20T09:46:09Z</time>
      </trkpt>
      <trkpt lat="45.96568" lon="4.78299">
        <ele>200</ele>
        <time>2017-08-20T09:46:10Z</time>
      </trkpt>
      <trkpt lat="45.96563" lon="4.78294">
        <ele>200</ele>
        <time>2017-08-20T09:46:11Z</time>
      </trkpt>
      <trkpt lat="45.96558" lon="4.78289">
        <ele>200</ele>
        <time>2017-08-20T09:46:12Z</time>
      </trkpt>
      <trkpt lat="45.96554" lon="4.78282">
        <ele>200</ele>
        <time>2017-08-20T09:46:13Z</time>
      </trkpt>
      <trkpt lat="45.96549" lon="4.78276">
        <ele>200</ele>
        <time>2017-08-20T09:46:14Z</time>
      </trkpt>
      <trkpt lat="45.96544" lon="4.78269">
        <ele>200</ele>
        <time>2017-08-20T09:46:15Z</time>
      </trkpt>
      <trkpt lat="45.96539" lon="4.78262">
        <ele>200</ele>
        <time>2017-08-20T09:46:16Z</time>
      </trkpt>
      <trkpt lat="45.96534" lon="4.78254">
        <ele>200</ele>
        <time>2017-08-20T09:46:17Z</time>
      </trkpt>
      <trkpt lat="45.96529" lon="4.78246">
        <ele>204</ele>
        <time>2017-08-20T09:46:18Z</time>
      </trkpt>
      <trkpt lat="45.96525" lon="4.78237">
        <ele>204</ele>
        <time>2017-08-20T09:46:19Z</time>
      </trkpt>
      <trkpt lat="45.9652" lon="4.78229">
        <ele>204</ele>
        <time>2017-08-20T09:46:20Z</time>
      </trkpt>
      <trkpt lat="45.96514" lon="4.78221">
        <ele>204</ele>
        <time>2017-08-20T09:46:21Z</time>
      </trkpt>
      <trkpt lat="45.9651" lon="4.78213">
        <ele>205</ele>
        <time>2017-08-20T09:46:22Z</time>
      </trkpt>
      <trkpt lat="45.96504" lon="4.78206">
        <ele>205</ele>
        <time>2017-08-20T09:46:23Z</time>
      </trkpt>
      <trkpt lat="45.96498" lon="4.78201">
        <ele>200</ele>
        <time>2017-08-20T09:46:24Z</time>
      </trkpt>
      <trkpt lat="45.96491" lon="4.78196">
        <ele>201</ele>
        <time>2017-08-20T09:46:25Z</time>
      </trkpt>
      <trkpt lat="45.96485" lon="4.78192">
        <ele>201</ele>
        <time>2017-08-20T09:46:26Z</time>
      </trkpt>
      <trkpt lat="45.96478" lon="4.78188">
        <ele>201</ele>
        <time>2017-08-20T09:46:27Z</time>
      </trkpt>
      <trkpt lat="45.96472" lon="4.78184">
        <ele>200</ele>
        <time>2017-08-20T09:46:28Z</time>
      </trkpt>
      <trkpt lat="45.96466" lon="4.78179">
        <ele>200</ele>
        <time>2017-08-20T09:46:29Z</time>
      </trkpt>
      <trkpt lat="45.9646" lon="4.78174">
        <ele>200</ele>
        <time>2017-08-20T09:46:30Z</time>
      </trkpt>
      <trkpt lat="45.96454" lon="4.78168">
        <ele>200</ele>
        <time>2017-08-20T09:46:31Z</time>
      </trkpt>
      <trkpt lat="45.96448" lon="4.78164">
        <ele>203</ele>
        <time>2017-08-20T09:46:32Z</time>
      </trkpt>
      <trkpt lat="45.96443" lon="4.78159">
        <ele>203</ele>
        <time>2017-08-20T09:46:33Z</time>
      </trkpt>
      <trkpt lat="45.96438" lon="4.78153">
        <ele>203</ele>
        <time>2017-08-20T09:46:34Z</time>
      </trkpt>
      <trkpt lat="45.96432" lon="4.78148">
        <ele>203</ele>
        <time>2017-08-20T09:46:35Z</time>
      </trkpt>
      <trkpt lat="45.96426" lon="4.78143">
        <ele>203</ele>
        <time>2017-08-20T09:46:36Z</time>
      </trkpt>
      <trkpt lat="45.96421" lon="4.78138">
        <ele>203</ele>
        <time>2017-08-20T09:46:37Z</time>
      </trkpt>
      <trkpt lat="45.96415" lon="4.78134">
        <ele>199</ele>
        <time>2017-08-20T09:46:38Z</time>
      </trkpt>
      <trkpt lat="45.96409" lon="4.78129">
        <ele>200</ele>
        <time>2017-08-20T09:46:39Z</time>
      </trkpt>
      <trkpt lat="45.96403" lon="4.78124">
        <ele>200</ele>
        <time>2017-08-20T09:46:40Z</time>
      </trkpt>
      <trkpt lat="45.96398" lon="4.78118">
        <ele>200</ele>
        <time>2017-08-20T09:46:41Z</time>
      </trkpt>
      <trkpt lat="45.96393" lon="4.78112">
        <ele>200</ele>
        <time>2017-08-20T09:46:42Z</time>
      </trkpt>
      <trkpt lat="45.96387" lon="4.78107">
        <ele>200</ele>
        <time>2017-08-20T09:46:43Z</time>
      </trkpt>
      <trkpt lat="45.96382" lon="4.78101">
        <ele>200</ele>
        <time>2017-08-20T09:46:44Z</time>
      </trkpt>
      <trkpt lat="45.96376" lon="4.78096">
        <ele>200</ele>
        <time>2017-08-20T09:46:45Z</time>
      </trkpt>
      <trkpt lat="45.96371" lon="4.78091">
        <ele>199</ele>
        <time>2017-08-20T09:46:46Z</time>
      </trkpt>
      <trkpt lat="45.96365" lon="4.78087">
        <ele>199</ele>
        <time>2017-08-20T09:46:47Z</time>
      </trkpt>
      <trkpt lat="45.9636" lon="4.78081">
        <ele>202</ele>
        <time>2017-08-20T09:46:48Z</time>
      </trkpt>
      <trkpt lat="45.96354" lon="4.78075">
        <ele>202</ele>
        <time>2017-08-20T09:46:49Z</time>
      </trkpt>
      <trkpt lat="45.9635" lon="4.78068">
        <ele>202</ele>
        <time>2017-08-20T09:46:50Z</time>
      </trkpt>
      <trkpt lat="45.96345" lon="4.78062">
        <ele>202</ele>
        <time>2017-08-20T09:46:51Z</time>
      </trkpt>
      <trkpt lat="45.9634" lon="4.78055">
        <ele>202</ele>
        <time>2017-08-20T09:46:52Z</time>
      </trkpt>
      <trkpt lat="45.96335" lon="4.78049">
        <ele>203</ele>
        <time>2017-08-20T09:46:53Z</time>
      </trkpt>
      <trkpt lat="45.9633" lon="4.78043">
        <ele>199</ele>
        <time>2017-08-20T09:46:54Z</time>
      </trkpt>
      <trkpt lat="45.96325" lon="4.78036">
        <ele>200</ele>
        <time>2017-08-20T09:46:55Z</time>
      </trkpt>
      <trkpt lat="45.96321" lon="4.7803">
        <ele>200</ele>
        <time>2017-08-20T09:46:56Z</time>
      </trkpt>
      <trkpt lat="45.96316" lon="4.78024">
        <ele>200</ele>
        <time>2017-08-20T09:46:57Z</time>
      </trkpt>
      <trkpt lat="45.96311" lon="4.78018">
        <ele>200</ele>
        <time>2017-08-20T09:46:58Z</time>
      </trkpt>
      <trkpt lat="45.96307" lon="4.78013">
        <ele>200</ele>
        <time>2017-08-20T09:46:59Z</time>
      </trkpt>
      <trkpt lat="45.96302" lon="4.78008">
        <ele>200</ele>
        <time>2017-08-20T09:47:00Z</time>
      </trkpt>
      <trkpt lat="45.96297" lon="4.78003">
        <ele>199</ele>
        <time>2017-08-20T09:47:01Z</time>
      </trkpt>
      <trkpt lat="45.96292" lon="4.77999">
        <ele>204</ele>
        <time>2017-08-20T09:47:02Z</time>
      </trkpt>
      <trkpt lat="45.96287" lon="4.77995">
        <ele>204</ele>
        <time>2017-08-20T09:47:03Z</time>
      </trkpt>
      <trkpt lat="45.96284" lon="4.77991">
        <ele>204</ele>
        <time>2017-08-20T09:47:04Z</time>
      </trkpt>
      <trkpt lat="45.9628" lon="4.77987">
        <ele>203</ele>
        <time>2017-08-20T09:47:05Z</time>
      </trkpt>
      <trkpt lat="45.96275" lon="4.77984">
        <ele>203</ele>
        <time>2017-08-20T09:47:06Z</time>
      </trkpt>
      <trkpt lat="45.9627" lon="4.7798">
        <ele>203</ele>
        <time>2017-08-20T09:47:07Z</time>
      </trkpt>
      <trkpt lat="45.96265" lon="4.77976">
        <ele>203</ele>
        <time>2017-08-20T09:47:08Z</time>
      </trkpt>
      <trkpt lat="45.96261" lon="4.77971">
        <ele>204</ele>
        <time>2017-08-20T09:47:09Z</time>
      </trkpt>
      <trkpt lat="45.96255" lon="4.77966">
        <ele>204</ele>
        <time>2017-08-20T09:47:10Z</time>
      </trkpt>
      <trkpt lat="45.96249" lon="4.77961">
        <ele>199</ele>
        <time>2017-08-20T09:47:11Z</time>
      </trkpt>
      <trkpt lat="45.96244" lon="4.77956">
        <ele>200</ele>
        <time>2017-08-20T09:47:12Z</time>
      </trkpt>
      <trkpt lat="45.96239" lon="4.7795">
        <ele>200</ele>
        <time>2017-08-20T09:47:13Z</time>
      </trkpt>
      <trkpt lat="45.96234" lon="4.77945">
        <ele>200</ele>
        <time>2017-08-20T09:47:14Z</time>
      </trkpt>
      <trkpt lat="45.96229" lon="4.77938">
        <ele>200</ele>
        <time>2017-08-20T09:47:15Z</time>
      </trkpt>
      <trkpt lat="45.96224" lon="4.77931">
        <ele>200</ele>
        <time>2017-08-20T09:47:16Z</time>
      </trkpt>
      <trkpt lat="45.96219" lon="4.77924">
        <ele>200</ele>
        <time>2017-08-20T09:47:17Z</time>
      </trkpt>
      <trkpt lat="45.96215" lon="4.77917">
        <ele>200</ele>
        <time>2017-08-20T09:47:18Z</time>
      </trkpt>
      <trkpt lat="45.9621" lon="4.7791">
        <ele>203</ele>
        <time>2017-08-20T09:47:19Z</time>
      </trkpt>
      <trkpt lat="45.96206" lon="4.77904">
        <ele>202</ele>
        <time>2017-08-20T09:47:20Z</time>
      </trkpt>
      <trkpt lat="45.96202" lon="4.77897">
        <ele>202</ele>
        <time>2017-08-20T09:47:21Z</time>
      </trkpt>
      <trkpt lat="45.96198" lon="4.7789">
        <ele>202</ele>
        <time>2017-08-20T09:47:22Z</time>
      </trkpt>
      <trkpt lat="45.96195" lon="4.77884">
        <ele>202</ele>
        <time>2017-08-20T09:47:23Z</time>
      </trkpt>
      <trkpt lat="45.96191" lon="4.77877">
        <ele>202</ele>
        <time>2017-08-20T09:47:24Z</time>
      </trkpt>
      <trkpt lat="45.96187" lon="4.7787">
        <ele>202</ele>
        <time>2017-08-20T09:47:25Z</time>
      </trkpt>
      <trkpt lat="45.96183" lon="4.77864">
        <ele>201</ele>
        <time>2017-08-20T09:47:26Z</time>
      </trkpt>
      <trkpt lat="45.96179" lon="4.77857">
        <ele>201</ele>
        <time>2017-08-20T09:47:27Z</time>
      </trkpt>
      <trkpt lat="45.96175" lon="4.7785">
        <ele>201</ele>
        <time>2017-08-20T09:47:28Z</time>
      </trkpt>
      <trkpt lat="45.96171" lon="4.77843">
        <ele>200</ele>
        <time>2017-08-20T09:47:29Z</time>
      </trkpt>
      <trkpt lat="45.96167" lon="4.77836">
        <ele>199</ele>
        <time>2017-08-20T09:47:30Z</time>
      </trkpt>
      <trkpt lat="45.96163" lon="4.7783">
        <ele>199</ele>
        <time>2017-08-20T09:47:31Z</time>
      </trkpt>
      <trkpt lat="45.9616" lon="4.77824">
        <ele>198</ele>
        <time>2017-08-20T09:47:32Z</time>
      </trkpt>
      <trkpt lat="45.96156" lon="4.77817">
        <ele>198</ele>
        <time>2017-08-20T09:47:33Z</time>
      </trkpt>
      <trkpt lat="45.96153" lon="4.77811">
        <ele>198</ele>
        <time>2017-08-20T09:47:34Z</time>
      </trkpt>
      <trkpt lat="45.96149" lon="4.77806">
        <ele>198</ele>
        <time>2017-08-20T09:47:35Z</time>
      </trkpt>
      <trkpt lat="45.96146" lon="4.778">
        <ele>198</ele>
        <time>2017-08-20T09:47:36Z</time>
      </trkpt>
      <trkpt lat="45.96143" lon="4.77794">
        <ele>198</ele>
        <time>2017-08-20T09:47:37Z</time>
      </trkpt>
      <trkpt lat="45.96139" lon="4.77789">
        <ele>198</ele>
        <time>2017-08-20T09:47:38Z</time>
      </trkpt>
      <trkpt lat="45.96136" lon="4.77783">
        <ele>198</ele>
        <time>2017-08-20T09:47:39Z</time>
      </trkpt>
      <trkpt lat="45.96133" lon="4.77777">
        <ele>198</ele>
        <time>2017-08-20T09:47:40Z</time>
      </trkpt>
      <trkpt lat="45.96129" lon="4.77771">
        <ele>198</ele>
        <time>2017-08-20T09:47:41Z</time>
      </trkpt>
      <trkpt lat="45.96125" lon="4.77764">
        <ele>198</ele>
        <time>2017-08-20T09:47:42Z</time>
      </trkpt>
      <trkpt lat="45.96121" lon="4.77757">
        <ele>197</ele>
        <time>2017-08-20T09:47:43Z</time>
      </trkpt>
      <trkpt lat="45.96116" lon="4.7775">
        <ele>197</ele>
        <time>2017-08-20T09:47:44Z</time>
      </trkpt>
      <trkpt lat="45.96112" lon="4.77743">
        <ele>199</ele>
        <time>2017-08-20T09:47:45Z</time>
      </trkpt>
      <trkpt lat="45.96107" lon="4.77736">
        <ele>199</ele>
        <time>2017-08-20T09:47:46Z</time>
      </trkpt>
      <trkpt lat="45.96103" lon="4.77729">
        <ele>199</ele>
        <time>2017-08-20T09:47:47Z</time>
      </trkpt>
      <trkpt lat="45.96098" lon="4.77722">
        <ele>199</ele>
        <time>2017-08-20T09:47:48Z</time>
      </trkpt>
      <trkpt lat="45.96094" lon="4.77715">
        <ele>200</ele>
        <time>2017-08-20T09:47:49Z</time>
      </trkpt>
      <trkpt lat="45.96089" lon="4.77707">
        <ele>200</ele>
        <time>2017-08-20T09:47:50Z</time>
      </trkpt>
      <trkpt lat="45.96084" lon="4.777">
        <ele>200</ele>
        <time>2017-08-20T09:47:51Z</time>
      </trkpt>
      <trkpt lat="45.9608" lon="4.77694">
        <ele>197</ele>
        <time>2017-08-20T09:47:52Z</time>
      </trkpt>
      <trkpt lat="45.96075" lon="4.77687">
        <ele>198</ele>
        <time>2017-08-20T09:47:53Z</time>
      </trkpt>
      <trkpt lat="45.9607" lon="4.7768">
        <ele>198</ele>
        <time>2017-08-20T09:47:54Z</time>
      </trkpt>
      <trkpt lat="45.96065" lon="4.77673">
        <ele>198</ele>
        <time>2017-08-20T09:47:55Z</time>
      </trkpt>
      <trkpt lat="45.96059" lon="4.77667">
        <ele>198</ele>
        <time>2017-08-20T09:47:56Z</time>
      </trkpt>
      <trkpt lat="45.96054" lon="4.77661">
        <ele>200</ele>
        <time>2017-08-20T09:47:57Z</time>
      </trkpt>
      <trkpt lat="45.96049" lon="4.77654">
        <ele>200</ele>
        <time>2017-08-20T09:47:58Z</time>
      </trkpt>
      <trkpt lat="45.96044" lon="4.77647">
        <ele>199</ele>
        <time>2017-08-20T09:47:59Z</time>
      </trkpt>
      <trkpt lat="45.9604" lon="4.7764">
        <ele>199</ele>
        <time>2017-08-20T09:48:00Z</time>
      </trkpt>
      <trkpt lat="45.96034" lon="4.77634">
        <ele>199</ele>
        <time>2017-08-20T09:48:01Z</time>
      </trkpt>
      <trkpt lat="45.96028" lon="4.77628">
        <ele>199</ele>
        <time>2017-08-20T09:48:02Z</time>
      </trkpt>
      <trkpt lat="45.96023" lon="4.77621">
        <ele>199</ele>
        <time>2017-08-20T09:48:03Z</time>
      </trkpt>
      <trkpt lat="45.96018" lon="4.77614">
        <ele>199</ele>
        <time>2017-08-20T09:48:04Z</time>
      </trkpt>
      <trkpt lat="45.96013" lon="4.77608">
        <ele>199</ele>
        <time>2017-08-20T09:48:05Z</time>
      </trkpt>
      <trkpt lat="45.96008" lon="4.77603">
        <ele>198</ele>
        <time>2017-08-20T09:48:06Z</time>
      </trkpt>
      <trkpt lat="45.96005" lon="4.77598">
        <ele>198</ele>
        <time>2017-08-20T09:48:07Z</time>
      </trkpt>
      <trkpt lat="45.96001" lon="4.77593">
        <ele>198</ele>
        <time>2017-08-20T09:48:08Z</time>
      </trkpt>
      <trkpt lat="45.95997" lon="4.77586">
        <ele>196</ele>
        <time>2017-08-20T09:48:09Z</time>
      </trkpt>
      <trkpt lat="45.95994" lon="4.77579">
        <ele>196</ele>
        <time>2017-08-20T09:48:10Z</time>
      </trkpt>
      <trkpt lat="45.95992" lon="4.77571">
        <ele>196</ele>
        <time>2017-08-20T09:48:11Z</time>
      </trkpt>
      <trkpt lat="45.9599" lon="4.77563">
        <ele>196</ele>
        <time>2017-08-20T09:48:12Z</time>
      </trkpt>
      <trkpt lat="45.95987" lon="4.77555">
        <ele>196</ele>
        <time>2017-08-20T09:48:13Z</time>
      </trkpt>
      <trkpt lat="45.95985" lon="4.77547">
        <ele>196</ele>
        <time>2017-08-20T09:48:14Z</time>
      </trkpt>
      <trkpt lat="45.95981" lon="4.7754">
        <ele>196</ele>
        <time>2017-08-20T09:48:15Z</time>
      </trkpt>
      <trkpt lat="45.95978" lon="4.77534">
        <ele>196</ele>
        <time>2017-08-20T09:48:16Z</time>
      </trkpt>
      <trkpt lat="45.95974" lon="4.77527">
        <ele>196</ele>
        <time>2017-08-20T09:48:17Z</time>
      </trkpt>
      <trkpt lat="45.9597" lon="4.7752">
        <ele>196</ele>
        <time>2017-08-20T09:48:18Z</time>
      </trkpt>
      <trkpt lat="45.95966" lon="4.77512">
        <ele>196</ele>
        <time>2017-08-20T09:48:19Z</time>
      </trkpt>
      <trkpt lat="45.95963" lon="4.77505">
        <ele>195</ele>
        <time>2017-08-20T09:48:20Z</time>
      </trkpt>
      <trkpt lat="45.9596" lon="4.77497">
        <ele>196</ele>
        <time>2017-08-20T09:48:21Z</time>
      </trkpt>
      <trkpt lat="45.95957" lon="4.77489">
        <ele>196</ele>
        <time>2017-08-20T09:48:22Z</time>
      </trkpt>
      <trkpt lat="45.95954" lon="4.77481">
        <ele>196</ele>
        <time>2017-08-20T09:48:23Z</time>
      </trkpt>
      <trkpt lat="45.9595" lon="4.77473">
        <ele>196</ele>
        <time>2017-08-20T09:48:24Z</time>
      </trkpt>
      <trkpt lat="45.95947" lon="4.77465">
        <ele>196</ele>
        <time>2017-08-20T09:48:25Z</time>
      </trkpt>
      <trkpt lat="45.95944" lon="4.77456">
        <ele>196</ele>
        <time>2017-08-20T09:48:26Z</time>
      </trkpt>
      <trkpt lat="45.95942" lon="4.77447">
        <ele>196</ele>
        <time>2017-08-20T09:48:27Z</time>
      </trkpt>
      <trkpt lat="45.95939" lon="4.77439">
        <ele>196</ele>
        <time>2017-08-20T09:48:28Z</time>
      </trkpt>
      <trkpt lat="45.95936" lon="4.7743">
        <ele>195</ele>
        <time>2017-08-20T09:48:29Z</time>
      </trkpt>
      <trkpt lat="45.95934" lon="4.77422">
        <ele>195</ele>
        <time>2017-08-20T09:48:30Z</time>
      </trkpt>
      <trkpt lat="45.95931" lon="4.77413">
        <ele>196</ele>
        <time>2017-08-20T09:48:31Z</time>
      </trkpt>
      <trkpt lat="45.95928" lon="4.77405">
        <ele>196</ele>
        <time>2017-08-20T09:48:32Z</time>
      </trkpt>
      <trkpt lat="45.95925" lon="4.77397">
        <ele>196</ele>
        <time>2017-08-20T09:48:33Z</time>
      </trkpt>
      <trkpt lat="45.95922" lon="4.77388">
        <ele>196</ele>
        <time>2017-08-20T09:48:34Z</time>
      </trkpt>
      <trkpt lat="45.95919" lon="4.7738">
        <ele>196</ele>
        <time>2017-08-20T09:48:35Z</time>
      </trkpt>
      <trkpt lat="45.95916" lon="4.77372">
        <ele>193</ele>
        <time>2017-08-20T09:48:36Z</time>
      </trkpt>
      <trkpt lat="45.95913" lon="4.77364">
        <ele>193</ele>
        <time>2017-08-20T09:48:37Z</time>
      </trkpt>
      <trkpt lat="45.9591" lon="4.77356">
        <ele>193</ele>
        <time>2017-08-20T09:48:38Z</time>
      </trkpt>
      <trkpt lat="45.95908" lon="4.77348">
        <ele>193</ele>
        <time>2017-08-20T09:48:39Z</time>
      </trkpt>
      <trkpt lat="45.95905" lon="4.77341">
        <ele>194</ele>
        <time>2017-08-20T09:48:40Z</time>
      </trkpt>
      <trkpt lat="45.95903" lon="4.77333">
        <ele>194</ele>
        <time>2017-08-20T09:48:41Z</time>
      </trkpt>
      <trkpt lat="45.95901" lon="4.77325">
        <ele>194</ele>
        <time>2017-08-20T09:48:42Z</time>
      </trkpt>
      <trkpt lat="45.95898" lon="4.77316">
        <ele>193</ele>
        <time>2017-08-20T09:48:43Z</time>
      </trkpt>
      <trkpt lat="45.95896" lon="4.77306">
        <ele>193</ele>
        <time>2017-08-20T09:48:44Z</time>
      </trkpt>
      <trkpt lat="45.95893" lon="4.77296">
        <ele>193</ele>
        <time>2017-08-20T09:48:45Z</time>
      </trkpt>
      <trkpt lat="45.9589" lon="4.77286">
        <ele>193</ele>
        <time>2017-08-20T09:48:46Z</time>
      </trkpt>
      <trkpt lat="45.95887" lon="4.77275">
        <ele>193</ele>
        <time>2017-08-20T09:48:47Z</time>
      </trkpt>
      <trkpt lat="45.95884" lon="4.77264">
        <ele>193</ele>
        <time>2017-08-20T09:48:48Z</time>
      </trkpt>
      <trkpt lat="45.95882" lon="4.77253">
        <ele>193</ele>
        <time>2017-08-20T09:48:49Z</time>
      </trkpt>
      <trkpt lat="45.95879" lon="4.77243">
        <ele>193</ele>
        <time>2017-08-20T09:48:50Z</time>
      </trkpt>
      <trkpt lat="45.95878" lon="4.77232">
        <ele>193</ele>
        <time>2017-08-20T09:48:51Z</time>
      </trkpt>
      <trkpt lat="45.95876" lon="4.77222">
        <ele>193</ele>
        <time>2017-08-20T09:48:52Z</time>
      </trkpt>
      <trkpt lat="45.95874" lon="4.77213">
        <ele>193</ele>
        <time>2017-08-20T09:48:53Z</time>
      </trkpt>
      <trkpt lat="45.95872" lon="4.77203">
        <ele>193</ele>
        <time>2017-08-20T09:48:54Z</time>
      </trkpt>
      <trkpt lat="45.95871" lon="4.77194">
        <ele>193</ele>
        <time>2017-08-20T09:48:55Z</time>
      </trkpt>
      <trkpt lat="45.95868" lon="4.77185">
        <ele>193</ele>
        <time>2017-08-20T09:48:56Z</time>
      </trkpt>
      <trkpt lat="45.95866" lon="4.77177">
        <ele>193</ele>
        <time>2017-08-20T09:48:57Z</time>
      </trkpt>
      <trkpt lat="45.95864" lon="4.77169">
        <ele>192</ele>
        <time>2017-08-20T09:48:58Z</time>
      </trkpt>
      <trkpt lat="45.95862" lon="4.7716">
        <ele>193</ele>
        <time>2017-08-20T09:48:59Z</time>
      </trkpt>
      <trkpt lat="45.9586" lon="4.77152">
        <ele>193</ele>
        <time>2017-08-20T09:49:00Z</time>
      </trkpt>
      <trkpt lat="45.95857" lon="4.77144">
        <ele>193</ele>
        <time>2017-08-20T09:49:01Z</time>
      </trkpt>
      <trkpt lat="45.95854" lon="4.77136">
        <ele>193</ele>
        <time>2017-08-20T09:49:02Z</time>
      </trkpt>
      <trkpt lat="45.95852" lon="4.77129">
        <ele>193</ele>
        <time>2017-08-20T09:49:03Z</time>
      </trkpt>
      <trkpt lat="45.9585" lon="4.77121">
        <ele>193</ele>
        <time>2017-08-20T09:49:04Z</time>
      </trkpt>
      <trkpt lat="45.95848" lon="4.77113">
        <ele>193</ele>
        <time>2017-08-20T09:49:05Z</time>
      </trkpt>
      <trkpt lat="45.95846" lon="4.77104">
        <ele>193</ele>
        <time>2017-08-20T09:49:06Z</time>
      </trkpt>
      <trkpt lat="45.95843" lon="4.77095">
        <ele>193</ele>
        <time>2017-08-20T09:49:07Z</time>
      </trkpt>
      <trkpt lat="45.95839" lon="4.77085">
        <ele>192</ele>
        <time>2017-08-20T09:49:08Z</time>
      </trkpt>
      <trkpt lat="45.95835" lon="4.77076">
        <ele>192</ele>
        <time>2017-08-20T09:49:09Z</time>
      </trkpt>
      <trkpt lat="45.95831" lon="4.77066">
        <ele>191</ele>
        <time>2017-08-20T09:49:10Z</time>
      </trkpt>
      <trkpt lat="45.95826" lon="4.77057">
        <ele>190</ele>
        <time>2017-08-20T09:49:11Z</time>
      </trkpt>
      <trkpt lat="45.95822" lon="4.77048">
        <ele>190</ele>
        <time>2017-08-20T09:49:12Z</time>
      </trkpt>
      <trkpt lat="45.95818" lon="4.77039">
        <ele>190</ele>
        <time>2017-08-20T09:49:13Z</time>
      </trkpt>
      <trkpt lat="45.95814" lon="4.7703">
        <ele>190</ele>
        <time>2017-08-20T09:49:14Z</time>
      </trkpt>
      <trkpt lat="45.9581" lon="4.77021">
        <ele>190</ele>
        <time>2017-08-20T09:49:15Z</time>
      </trkpt>
      <trkpt lat="45.95807" lon="4.77012">
        <ele>190</ele>
        <time>2017-08-20T09:49:16Z</time>
      </trkpt>
      <trkpt lat="45.95807" lon="4.77003">
        <ele>190</ele>
        <time>2017-08-20T09:49:17Z</time>
      </trkpt>
      <trkpt lat="45.95807" lon="4.76995">
        <ele>190</ele>
        <time>2017-08-20T09:49:18Z</time>
      </trkpt>
      <trkpt lat="45.95806" lon="4.76986">
        <ele>190</ele>
        <time>2017-08-20T09:49:19Z</time>
      </trkpt>
      <trkpt lat="45.95807" lon="4.76977">
        <ele>189</ele>
        <time>2017-08-20T09:49:20Z</time>
      </trkpt>
      <trkpt lat="45.95807" lon="4.76969">
        <ele>189</ele>
        <time>2017-08-20T09:49:21Z</time>
      </trkpt>
      <trkpt lat="45.95808" lon="4.76962">
        <ele>189</ele>
        <time>2017-08-20T09:49:22Z</time>
      </trkpt>
      <trkpt lat="45.95809" lon="4.76954">
        <ele>189</ele>
        <time>2017-08-20T09:49:23Z</time>
      </trkpt>
      <trkpt lat="45.9581" lon="4.76945">
        <ele>189</ele>
        <time>2017-08-20T09:49:24Z</time>
      </trkpt>
      <trkpt lat="45.95812" lon="4.76937">
        <ele>189</ele>
        <time>2017-08-20T09:49:25Z</time>
      </trkpt>
      <trkpt lat="45.95814" lon="4.76929">
        <ele>189</ele>
        <time>2017-08-20T09:49:26Z</time>
      </trkpt>
      <trkpt lat="45.95815" lon="4.76921">
        <ele>189</ele>
        <time>2017-08-20T09:49:27Z</time>
      </trkpt>
      <trkpt lat="45.95817" lon="4.76912">
        <ele>189</ele>
        <time>2017-08-20T09:49:28Z</time>
      </trkpt>
      <trkpt lat="45.95818" lon="4.76903">
        <ele>189</ele>
        <time>2017-08-20T09:49:29Z</time>
      </trkpt>
      <trkpt lat="45.9582" lon="4.76894">
        <ele>189</ele>
        <time>2017-08-20T09:49:30Z</time>
      </trkpt>
      <trkpt lat="45.95821" lon="4.76886">
        <ele>189</ele>
        <time>2017-08-20T09:49:31Z</time>
      </trkpt>
      <trkpt lat="45.95822" lon="4.76878">
        <ele>189</ele>
        <time>2017-08-20T09:49:32Z</time>
      </trkpt>
      <trkpt lat="45.95824" lon="4.7687">
        <ele>189</ele>
        <time>2017-08-20T09:49:33Z</time>
      </trkpt>
      <trkpt lat="45.95825" lon="4.76862">
        <ele>189</ele>
        <time>2017-08-20T09:49:34Z</time>
      </trkpt>
      <trkpt lat="45.95827" lon="4.76855">
        <ele>189</ele>
        <time>2017-08-20T09:49:35Z</time>
      </trkpt>
      <trkpt lat="45.95828" lon="4.76849">
        <ele>190</ele>
        <time>2017-08-20T09:49:36Z</time>
      </trkpt>
      <trkpt lat="45.95829" lon="4.76842">
        <ele>190</ele>
        <time>2017-08-20T09:49:37Z</time>
      </trkpt>
      <trkpt lat="45.95831" lon="4.76835">
        <ele>190</ele>
        <time>2017-08-20T09:49:38Z</time>
      </trkpt>
      <trkpt lat="45.95832" lon="4.76829">
        <ele>190</ele>
        <time>2017-08-20T09:49:39Z</time>
      </trkpt>
      <trkpt lat="45.95834" lon="4.76822">
        <ele>190</ele>
        <time>2017-08-20T09:49:40Z</time>
      </trkpt>
      <trkpt lat="45.95836" lon="4.7681">
        <ele>190</ele>
        <time>2017-08-20T09:49:42Z</time>
      </trkpt>
      <trkpt lat="45.95836" lon="4.76805">
        <ele>191</ele>
        <time>2017-08-20T09:49:43Z</time>
      </trkpt>
      <trkpt lat="45.95838" lon="4.76793">
        <ele>191</ele>
        <time>2017-08-20T09:49:47Z</time>
      </trkpt>
      <trkpt lat="45.95839" lon="4.76789">
        <ele>191</ele>
        <time>2017-08-20T09:49:48Z</time>
      </trkpt>
      <trkpt lat="45.95837" lon="4.76779">
        <ele>191</ele>
        <time>2017-08-20T09:49:50Z</time>
      </trkpt>
      <trkpt lat="45.95835" lon="4.76773">
        <ele>191</ele>
        <time>2017-08-20T09:49:51Z</time>
      </trkpt>
      <trkpt lat="45.95833" lon="4.76767">
        <ele>190</ele>
        <time>2017-08-20T09:49:52Z</time>
      </trkpt>
      <trkpt lat="45.95831" lon="4.7676">
        <ele>191</ele>
        <time>2017-08-20T09:49:53Z</time>
      </trkpt>
      <trkpt lat="45.95829" lon="4.76752">
        <ele>191</ele>
        <time>2017-08-20T09:49:54Z</time>
      </trkpt>
      <trkpt lat="45.95828" lon="4.76744">
        <ele>190</ele>
        <time>2017-08-20T09:49:55Z</time>
      </trkpt>
      <trkpt lat="45.95827" lon="4.76736">
        <ele>190</ele>
        <time>2017-08-20T09:49:56Z</time>
      </trkpt>
      <trkpt lat="45.95825" lon="4.76728">
        <ele>190</ele>
        <time>2017-08-20T09:49:57Z</time>
      </trkpt>
      <trkpt lat="45.95824" lon="4.7672">
        <ele>189</ele>
        <time>2017-08-20T09:49:58Z</time>
      </trkpt>
      <trkpt lat="45.95823" lon="4.76713">
        <ele>189</ele>
        <time>2017-08-20T09:49:59Z</time>
      </trkpt>
      <trkpt lat="45.95822" lon="4.76706">
        <ele>189</ele>
        <time>2017-08-20T09:50:00Z</time>
      </trkpt>
      <trkpt lat="45.95821" lon="4.76698">
        <ele>189</ele>
        <time>2017-08-20T09:50:01Z</time>
      </trkpt>
      <trkpt lat="45.9582" lon="4.76689">
        <ele>189</ele>
        <time>2017-08-20T09:50:02Z</time>
      </trkpt>
      <trkpt lat="45.95819" lon="4.7668">
        <ele>189</ele>
        <time>2017-08-20T09:50:03Z</time>
      </trkpt>
      <trkpt lat="45.95818" lon="4.76671">
        <ele>188</ele>
        <time>2017-08-20T09:50:04Z</time>
      </trkpt>
      <trkpt lat="45.95817" lon="4.76662">
        <ele>188</ele>
        <time>2017-08-20T09:50:05Z</time>
      </trkpt>
      <trkpt lat="45.95816" lon="4.76653">
        <ele>188</ele>
        <time>2017-08-20T09:50:06Z</time>
      </trkpt>
      <trkpt lat="45.95814" lon="4.76644">
        <ele>188</ele>
        <time>2017-08-20T09:50:07Z</time>
      </trkpt>
      <trkpt lat="45.95813" lon="4.76636">
        <ele>188</ele>
        <time>2017-08-20T09:50:08Z</time>
      </trkpt>
      <trkpt lat="45.95812" lon="4.76627">
        <ele>188</ele>
        <time>2017-08-20T09:50:09Z</time>
      </trkpt>
      <trkpt lat="45.9581" lon="4.76619">
        <ele>188</ele>
        <time>2017-08-20T09:50:10Z</time>
      </trkpt>
      <trkpt lat="45.95809" lon="4.7661">
        <ele>188</ele>
        <time>2017-08-20T09:50:11Z</time>
      </trkpt>
      <trkpt lat="45.95808" lon="4.76602">
        <ele>188</ele>
        <time>2017-08-20T09:50:12Z</time>
      </trkpt>
      <trkpt lat="45.95807" lon="4.76595">
        <ele>188</ele>
        <time>2017-08-20T09:50:13Z</time>
      </trkpt>
      <trkpt lat="45.95805" lon="4.76588">
        <ele>188</ele>
        <time>2017-08-20T09:50:14Z</time>
      </trkpt>
      <trkpt lat="45.95804" lon="4.7658">
        <ele>187</ele>
        <time>2017-08-20T09:50:15Z</time>
      </trkpt>
      <trkpt lat="45.95803" lon="4.76573">
        <ele>187</ele>
        <time>2017-08-20T09:50:16Z</time>
      </trkpt>
      <trkpt lat="45.95802" lon="4.76565">
        <ele>187</ele>
        <time>2017-08-20T09:50:17Z</time>
      </trkpt>
      <trkpt lat="45.95801" lon="4.76557">
        <ele>187</ele>
        <time>2017-08-20T09:50:18Z</time>
      </trkpt>
      <trkpt lat="45.95799" lon="4.76549">
        <ele>187</ele>
        <time>2017-08-20T09:50:19Z</time>
      </trkpt>
      <trkpt lat="45.95798" lon="4.7654">
        <ele>187</ele>
        <time>2017-08-20T09:50:20Z</time>
      </trkpt>
      <trkpt lat="45.95797" lon="4.76532">
        <ele>187</ele>
        <time>2017-08-20T09:50:21Z</time>
      </trkpt>
      <trkpt lat="45.95796" lon="4.76523">
        <ele>187</ele>
        <time>2017-08-20T09:50:22Z</time>
      </trkpt>
      <trkpt lat="45.95795" lon="4.76514">
        <ele>187</ele>
        <time>2017-08-20T09:50:23Z</time>
      </trkpt>
      <trkpt lat="45.95794" lon="4.76505">
        <ele>187</ele>
        <time>2017-08-20T09:50:24Z</time>
      </trkpt>
      <trkpt lat="45.95793" lon="4.76497">
        <ele>187</ele>
        <time>2017-08-20T09:50:25Z</time>
      </trkpt>
      <trkpt lat="45.95792" lon="4.76489">
        <ele>186</ele>
        <time>2017-08-20T09:50:26Z</time>
      </trkpt>
      <trkpt lat="45.9579" lon="4.76481">
        <ele>186</ele>
        <time>2017-08-20T09:50:27Z</time>
      </trkpt>
      <trkpt lat="45.95789" lon="4.76474">
        <ele>186</ele>
        <time>2017-08-20T09:50:28Z</time>
      </trkpt>
      <trkpt lat="45.95788" lon="4.76466">
        <ele>186</ele>
        <time>2017-08-20T09:50:29Z</time>
      </trkpt>
      <trkpt lat="45.95786" lon="4.76459">
        <ele>186</ele>
        <time>2017-08-20T09:50:30Z</time>
      </trkpt>
      <trkpt lat="45.95786" lon="4.76452">
        <ele>186</ele>
        <time>2017-08-20T09:50:31Z</time>
      </trkpt>
      <trkpt lat="45.95785" lon="4.76445">
        <ele>186</ele>
        <time>2017-08-20T09:50:32Z</time>
      </trkpt>
      <trkpt lat="45.95784" lon="4.76438">
        <ele>186</ele>
        <time>2017-08-20T09:50:33Z</time>
      </trkpt>
      <trkpt lat="45.95783" lon="4.76431">
        <ele>186</ele>
        <time>2017-08-20T09:50:34Z</time>
      </trkpt>
      <trkpt lat="45.95782" lon="4.76424">
        <ele>186</ele>
        <time>2017-08-20T09:50:35Z</time>
      </trkpt>
      <trkpt lat="45.95781" lon="4.76416">
        <ele>186</ele>
        <time>2017-08-20T09:50:36Z</time>
      </trkpt>
      <trkpt lat="45.9578" lon="4.76408">
        <ele>186</ele>
        <time>2017-08-20T09:50:37Z</time>
      </trkpt>
      <trkpt lat="45.95779" lon="4.76399">
        <ele>186</ele>
        <time>2017-08-20T09:50:38Z</time>
      </trkpt>
      <trkpt lat="45.95779" lon="4.76389">
        <ele>186</ele>
        <time>2017-08-20T09:50:39Z</time>
      </trkpt>
      <trkpt lat="45.95778" lon="4.7638">
        <ele>186</ele>
        <time>2017-08-20T09:50:40Z</time>
      </trkpt>
      <trkpt lat="45.95777" lon="4.7637">
        <ele>186</ele>
        <time>2017-08-20T09:50:41Z</time>
      </trkpt>
      <trkpt lat="45.95777" lon="4.76361">
        <ele>186</ele>
        <time>2017-08-20T09:50:42Z</time>
      </trkpt>
      <trkpt lat="45.95776" lon="4.76352">
        <ele>186</ele>
        <time>2017-08-20T09:50:43Z</time>
      </trkpt>
      <trkpt lat="45.95775" lon="4.76343">
        <ele>186</ele>
        <time>2017-08-20T09:50:44Z</time>
      </trkpt>
      <trkpt lat="45.95775" lon="4.76334">
        <ele>186</ele>
        <time>2017-08-20T09:50:45Z</time>
      </trkpt>
      <trkpt lat="45.95774" lon="4.76325">
        <ele>185</ele>
        <time>2017-08-20T09:50:46Z</time>
      </trkpt>
      <trkpt lat="45.95773" lon="4.76316">
        <ele>186</ele>
        <time>2017-08-20T09:50:47Z</time>
      </trkpt>
      <trkpt lat="45.95772" lon="4.76308">
        <ele>186</ele>
        <time>2017-08-20T09:50:48Z</time>
      </trkpt>
      <trkpt lat="45.95772" lon="4.763">
        <ele>186</ele>
        <time>2017-08-20T09:50:49Z</time>
      </trkpt>
      <trkpt lat="45.95771" lon="4.76292">
        <ele>186</ele>
        <time>2017-08-20T09:50:50Z</time>
      </trkpt>
      <trkpt lat="45.95771" lon="4.76285">
        <ele>186</ele>
        <time>2017-08-20T09:50:51Z</time>
      </trkpt>
      <trkpt lat="45.95771" lon="4.76277">
        <ele>186</ele>
        <time>2017-08-20T09:50:52Z</time>
      </trkpt>
      <trkpt lat="45.9577" lon="4.76269">
        <ele>186</ele>
        <time>2017-08-20T09:50:53Z</time>
      </trkpt>
      <trkpt lat="45.9577" lon="4.76261">
        <ele>185</ele>
        <time>2017-08-20T09:50:54Z</time>
      </trkpt>
      <trkpt lat="45.95769" lon="4.76253">
        <ele>185</ele>
        <time>2017-08-20T09:50:55Z</time>
      </trkpt>
      <trkpt lat="45.95769" lon="4.76244">
        <ele>186</ele>
        <time>2017-08-20T09:50:56Z</time>
      </trkpt>
      <trkpt lat="45.95769" lon="4.76235">
        <ele>186</ele>
        <time>2017-08-20T09:50:57Z</time>
      </trkpt>
      <trkpt lat="45.95768" lon="4.76227">
        <ele>186</ele>
        <time>2017-08-20T09:50:58Z</time>
      </trkpt>
      <trkpt lat="45.95767" lon="4.76218">
        <ele>186</ele>
        <time>2017-08-20T09:50:59Z</time>
      </trkpt>
      <trkpt lat="45.95767" lon="4.76209">
        <ele>186</ele>
        <time>2017-08-20T09:51:00Z</time>
      </trkpt>
      <trkpt lat="45.95766" lon="4.76201">
        <ele>186</ele>
        <time>2017-08-20T09:51:01Z</time>
      </trkpt>
      <trkpt lat="45.95766" lon="4.76193">
        <ele>186</ele>
        <time>2017-08-20T09:51:02Z</time>
      </trkpt>
      <trkpt lat="45.95766" lon="4.76185">
        <ele>186</ele>
        <time>2017-08-20T09:51:03Z</time>
      </trkpt>
      <trkpt lat="45.95766" lon="4.76177">
        <ele>186</ele>
        <time>2017-08-20T09:51:04Z</time>
      </trkpt>
      <trkpt lat="45.95765" lon="4.76169">
        <ele>185</ele>
        <time>2017-08-20T09:51:05Z</time>
      </trkpt>
      <trkpt lat="45.95764" lon="4.76161">
        <ele>186</ele>
        <time>2017-08-20T09:51:06Z</time>
      </trkpt>
      <trkpt lat="45.95763" lon="4.76153">
        <ele>186</ele>
        <time>2017-08-20T09:51:07Z</time>
      </trkpt>
      <trkpt lat="45.95763" lon="4.76145">
        <ele>186</ele>
        <time>2017-08-20T09:51:08Z</time>
      </trkpt>
      <trkpt lat="45.95762" lon="4.76138">
        <ele>186</ele>
        <time>2017-08-20T09:51:09Z</time>
      </trkpt>
      <trkpt lat="45.95762" lon="4.7613">
        <ele>186</ele>
        <time>2017-08-20T09:51:10Z</time>
      </trkpt>
      <trkpt lat="45.95761" lon="4.76123">
        <ele>186</ele>
        <time>2017-08-20T09:51:11Z</time>
      </trkpt>
      <trkpt lat="45.9576" lon="4.76116">
        <ele>186</ele>
        <time>2017-08-20T09:51:12Z</time>
      </trkpt>
      <trkpt lat="45.95758" lon="4.76109">
        <ele>186</ele>
        <time>2017-08-20T09:51:13Z</time>
      </trkpt>
      <trkpt lat="45.95757" lon="4.76101">
        <ele>186</ele>
        <time>2017-08-20T09:51:14Z</time>
      </trkpt>
      <trkpt lat="45.95755" lon="4.76093">
        <ele>186</ele>
        <time>2017-08-20T09:51:15Z</time>
      </trkpt>
      <trkpt lat="45.95752" lon="4.76085">
        <ele>185</ele>
        <time>2017-08-20T09:51:16Z</time>
      </trkpt>
      <trkpt lat="45.95749" lon="4.76077">
        <ele>185</ele>
        <time>2017-08-20T09:51:17Z</time>
      </trkpt>
      <trkpt lat="45.95745" lon="4.76068">
        <ele>185</ele>
        <time>2017-08-20T09:51:18Z</time>
      </trkpt>
      <trkpt lat="45.95741" lon="4.7606">
        <ele>184</ele>
        <time>2017-08-20T09:51:19Z</time>
      </trkpt>
      <trkpt lat="45.95737" lon="4.76052">
        <ele>184</ele>
        <time>2017-08-20T09:51:20Z</time>
      </trkpt>
      <trkpt lat="45.95734" lon="4.76044">
        <ele>184</ele>
        <time>2017-08-20T09:51:21Z</time>
      </trkpt>
      <trkpt lat="45.95731" lon="4.76036">
        <ele>184</ele>
        <time>2017-08-20T09:51:22Z</time>
      </trkpt>
      <trkpt lat="45.95727" lon="4.76028">
        <ele>184</ele>
        <time>2017-08-20T09:51:23Z</time>
      </trkpt>
      <trkpt lat="45.95724" lon="4.7602">
        <ele>184</ele>
        <time>2017-08-20T09:51:24Z</time>
      </trkpt>
      <trkpt lat="45.9572" lon="4.76012">
        <ele>184</ele>
        <time>2017-08-20T09:51:25Z</time>
      </trkpt>
      <trkpt lat="45.95717" lon="4.76004">
        <ele>184</ele>
        <time>2017-08-20T09:51:26Z</time>
      </trkpt>
      <trkpt lat="45.95713" lon="4.75997">
        <ele>185</ele>
        <time>2017-08-20T09:51:27Z</time>
      </trkpt>
      <trkpt lat="45.9571" lon="4.7599">
        <ele>185</ele>
        <time>2017-08-20T09:51:28Z</time>
      </trkpt>
      <trkpt lat="45.95706" lon="4.75982">
        <ele>185</ele>
        <time>2017-08-20T09:51:29Z</time>
      </trkpt>
      <trkpt lat="45.95703" lon="4.75975">
        <ele>185</ele>
        <time>2017-08-20T09:51:30Z</time>
      </trkpt>
      <trkpt lat="45.957" lon="4.75968">
        <ele>185</ele>
        <time>2017-08-20T09:51:31Z</time>
      </trkpt>
      <trkpt lat="45.95697" lon="4.75961">
        <ele>185</ele>
        <time>2017-08-20T09:51:32Z</time>
      </trkpt>
      <trkpt lat="45.95694" lon="4.75955">
        <ele>185</ele>
        <time>2017-08-20T09:51:33Z</time>
      </trkpt>
      <trkpt lat="45.95691" lon="4.75948">
        <ele>185</ele>
        <time>2017-08-20T09:51:34Z</time>
      </trkpt>
      <trkpt lat="45.95688" lon="4.75941">
        <ele>185</ele>
        <time>2017-08-20T09:51:35Z</time>
      </trkpt>
      <trkpt lat="45.95686" lon="4.75933">
        <ele>185</ele>
        <time>2017-08-20T09:51:36Z</time>
      </trkpt>
      <trkpt lat="45.95683" lon="4.75926">
        <ele>185</ele>
        <time>2017-08-20T09:51:37Z</time>
      </trkpt>
      <trkpt lat="45.9568" lon="4.75918">
        <ele>185</ele>
        <time>2017-08-20T09:51:38Z</time>
      </trkpt>
      <trkpt lat="45.95676" lon="4.7591">
        <ele>185</ele>
        <time>2017-08-20T09:51:39Z</time>
      </trkpt>
      <trkpt lat="45.95673" lon="4.75902">
        <ele>185</ele>
        <time>2017-08-20T09:51:40Z</time>
      </trkpt>
      <trkpt lat="45.9567" lon="4.75893">
        <ele>186</ele>
        <time>2017-08-20T09:51:41Z</time>
      </trkpt>
      <trkpt lat="45.95667" lon="4.75884">
        <ele>184</ele>
        <time>2017-08-20T09:51:42Z</time>
      </trkpt>
      <trkpt lat="45.95664" lon="4.75875">
        <ele>184</ele>
        <time>2017-08-20T09:51:43Z</time>
      </trkpt>
      <trkpt lat="45.9566" lon="4.75865">
        <ele>184</ele>
        <time>2017-08-20T09:51:44Z</time>
      </trkpt>
      <trkpt lat="45.95657" lon="4.75856">
        <ele>184</ele>
        <time>2017-08-20T09:51:45Z</time>
      </trkpt>
      <trkpt lat="45.95654" lon="4.75845">
        <ele>185</ele>
        <time>2017-08-20T09:51:46Z</time>
      </trkpt>
      <trkpt lat="45.95652" lon="4.75835">
        <ele>185</ele>
        <time>2017-08-20T09:51:47Z</time>
      </trkpt>
      <trkpt lat="45.9565" lon="4.75824">
        <ele>185</ele>
        <time>2017-08-20T09:51:48Z</time>
      </trkpt>
      <trkpt lat="45.95648" lon="4.75814">
        <ele>185</ele>
        <time>2017-08-20T09:51:49Z</time>
      </trkpt>
      <trkpt lat="45.95646" lon="4.75804">
        <ele>185</ele>
        <time>2017-08-20T09:51:50Z</time>
      </trkpt>
      <trkpt lat="45.95644" lon="4.75794">
        <ele>185</ele>
        <time>2017-08-20T09:51:51Z</time>
      </trkpt>
      <trkpt lat="45.95643" lon="4.75785">
        <ele>186</ele>
        <time>2017-08-20T09:51:52Z</time>
      </trkpt>
      <trkpt lat="45.95642" lon="4.75776">
        <ele>186</ele>
        <time>2017-08-20T09:51:53Z</time>
      </trkpt>
      <trkpt lat="45.9564" lon="4.75768">
        <ele>186</ele>
        <time>2017-08-20T09:51:54Z</time>
      </trkpt>
      <trkpt lat="45.95639" lon="4.7576">
        <ele>186</ele>
        <time>2017-08-20T09:51:55Z</time>
      </trkpt>
      <trkpt lat="45.95638" lon="4.75751">
        <ele>186</ele>
        <time>2017-08-20T09:51:56Z</time>
      </trkpt>
      <trkpt lat="45.95637" lon="4.75743">
        <ele>187</ele>
        <time>2017-08-20T09:51:57Z</time>
      </trkpt>
      <trkpt lat="45.95636" lon="4.75735">
        <ele>187</ele>
        <time>2017-08-20T09:51:58Z</time>
      </trkpt>
      <trkpt lat="45.95635" lon="4.75726">
        <ele>187</ele>
        <time>2017-08-20T09:51:59Z</time>
      </trkpt>
      <trkpt lat="45.95634" lon="4.75718">
        <ele>187</ele>
        <time>2017-08-20T09:52:00Z</time>
      </trkpt>
      <trkpt lat="45.95632" lon="4.75708">
        <ele>187</ele>
        <time>2017-08-20T09:52:01Z</time>
      </trkpt>
      <trkpt lat="45.95631" lon="4.75699">
        <ele>187</ele>
        <time>2017-08-20T09:52:02Z</time>
      </trkpt>
      <trkpt lat="45.9563" lon="4.7569">
        <ele>187</ele>
        <time>2017-08-20T09:52:03Z</time>
      </trkpt>
      <trkpt lat="45.95628" lon="4.7568">
        <ele>187</ele>
        <time>2017-08-20T09:52:04Z</time>
      </trkpt>
      <trkpt lat="45.95626" lon="4.7567">
        <ele>187</ele>
        <time>2017-08-20T09:52:05Z</time>
      </trkpt>
      <trkpt lat="45.95624" lon="4.7566">
        <ele>188</ele>
        <time>2017-08-20T09:52:06Z</time>
      </trkpt>
      <trkpt lat="45.95622" lon="4.75651">
        <ele>188</ele>
        <time>2017-08-20T09:52:07Z</time>
      </trkpt>
      <trkpt lat="45.9562" lon="4.75642">
        <ele>188</ele>
        <time>2017-08-20T09:52:08Z</time>
      </trkpt>
      <trkpt lat="45.95618" lon="4.75633">
        <ele>188</ele>
        <time>2017-08-20T09:52:09Z</time>
      </trkpt>
      <trkpt lat="45.95615" lon="4.75624">
        <ele>188</ele>
        <time>2017-08-20T09:52:10Z</time>
      </trkpt>
      <trkpt lat="45.95613" lon="4.75616">
        <ele>188</ele>
        <time>2017-08-20T09:52:11Z</time>
      </trkpt>
      <trkpt lat="45.9561" lon="4.75607">
        <ele>188</ele>
        <time>2017-08-20T09:52:12Z</time>
      </trkpt>
      <trkpt lat="45.95607" lon="4.75599">
        <ele>187</ele>
        <time>2017-08-20T09:52:13Z</time>
      </trkpt>
      <trkpt lat="45.95603" lon="4.75592">
        <ele>187</ele>
        <time>2017-08-20T09:52:14Z</time>
      </trkpt>
      <trkpt lat="45.956" lon="4.75584">
        <ele>187</ele>
        <time>2017-08-20T09:52:15Z</time>
      </trkpt>
      <trkpt lat="45.95596" lon="4.75576">
        <ele>188</ele>
        <time>2017-08-20T09:52:16Z</time>
      </trkpt>
      <trkpt lat="45.95592" lon="4.75569">
        <ele>188</ele>
        <time>2017-08-20T09:52:17Z</time>
      </trkpt>
      <trkpt lat="45.95588" lon="4.75562">
        <ele>188</ele>
        <time>2017-08-20T09:52:18Z</time>
      </trkpt>
      <trkpt lat="45.95584" lon="4.75555">
        <ele>188</ele>
        <time>2017-08-20T09:52:19Z</time>
      </trkpt>
      <trkpt lat="45.9558" lon="4.75548">
        <ele>186</ele>
        <time>2017-08-20T09:52:20Z</time>
      </trkpt>
      <trkpt lat="45.95575" lon="4.75541">
        <ele>186</ele>
        <time>2017-08-20T09:52:21Z</time>
      </trkpt>
      <trkpt lat="45.9557" lon="4.75535">
        <ele>186</ele>
        <time>2017-08-20T09:52:22Z</time>
      </trkpt>
      <trkpt lat="45.95565" lon="4.7553">
        <ele>186</ele>
        <time>2017-08-20T09:52:23Z</time>
      </trkpt>
      <trkpt lat="45.95559" lon="4.75524">
        <ele>186</ele>
        <time>2017-08-20T09:52:24Z</time>
      </trkpt>
      <trkpt lat="45.95554" lon="4.75518">
        <ele>186</ele>
        <time>2017-08-20T09:52:25Z</time>
      </trkpt>
      <trkpt lat="45.95549" lon="4.75511">
        <ele>186</ele>
        <time>2017-08-20T09:52:26Z</time>
      </trkpt>
      <trkpt lat="45.95545" lon="4.75504">
        <ele>186</ele>
        <time>2017-08-20T09:52:27Z</time>
      </trkpt>
      <trkpt lat="45.95542" lon="4.75496">
        <ele>187</ele>
        <time>2017-08-20T09:52:28Z</time>
      </trkpt>
      <trkpt lat="45.95541" lon="4.75488">
        <ele>187</ele>
        <time>2017-08-20T09:52:29Z</time>
      </trkpt>
      <trkpt lat="45.95541" lon="4.7548">
        <ele>187</ele>
        <time>2017-08-20T09:52:30Z</time>
      </trkpt>
      <trkpt lat="45.95541" lon="4.75472">
        <ele>187</ele>
        <time>2017-08-20T09:52:31Z</time>
      </trkpt>
      <trkpt lat="45.95539" lon="4.75464">
        <ele>187</ele>
        <time>2017-08-20T09:52:32Z</time>
      </trkpt>
      <trkpt lat="45.95535" lon="4.75457">
        <ele>187</ele>
        <time>2017-08-20T09:52:33Z</time>
      </trkpt>
      <trkpt lat="45.95531" lon="4.7545">
        <ele>187</ele>
        <time>2017-08-20T09:52:34Z</time>
      </trkpt>
      <trkpt lat="45.95525" lon="4.75444">
        <ele>187</ele>
        <time>2017-08-20T09:52:35Z</time>
      </trkpt>
      <trkpt lat="45.95521" lon="4.75437">
        <ele>187</ele>
        <time>2017-08-20T09:52:36Z</time>
      </trkpt>
      <trkpt lat="45.95517" lon="4.75429">
        <ele>187</ele>
        <time>2017-08-20T09:52:37Z</time>
      </trkpt>
      <trkpt lat="45.95515" lon="4.75421">
        <ele>186</ele>
        <time>2017-08-20T09:52:38Z</time>
      </trkpt>
      <trkpt lat="45.95512" lon="4.75413">
        <ele>187</ele>
        <time>2017-08-20T09:52:39Z</time>
      </trkpt>
      <trkpt lat="45.95509" lon="4.75406">
        <ele>187</ele>
        <time>2017-08-20T09:52:40Z</time>
      </trkpt>
      <trkpt lat="45.95507" lon="4.75398">
        <ele>187</ele>
        <time>2017-08-20T09:52:41Z</time>
      </trkpt>
      <trkpt lat="45.95504" lon="4.75391">
        <ele>188</ele>
        <time>2017-08-20T09:52:42Z</time>
      </trkpt>
      <trkpt lat="45.95501" lon="4.75383">
        <ele>188</ele>
        <time>2017-08-20T09:52:43Z</time>
      </trkpt>
      <trkpt lat="45.95498" lon="4.75375">
        <ele>185</ele>
        <time>2017-08-20T09:52:44Z</time>
      </trkpt>
      <trkpt lat="45.95494" lon="4.75367">
        <ele>186</ele>
        <time>2017-08-20T09:52:45Z</time>
      </trkpt>
      <trkpt lat="45.9549" lon="4.7536">
        <ele>186</ele>
        <time>2017-08-20T09:52:46Z</time>
      </trkpt>
      <trkpt lat="45.95486" lon="4.75352">
        <ele>186</ele>
        <time>2017-08-20T09:52:47Z</time>
      </trkpt>
      <trkpt lat="45.95481" lon="4.75343">
        <ele>186</ele>
        <time>2017-08-20T09:52:48Z</time>
      </trkpt>
      <trkpt lat="45.95477" lon="4.75335">
        <ele>186</ele>
        <time>2017-08-20T09:52:49Z</time>
      </trkpt>
      <trkpt lat="45.95473" lon="4.75327">
        <ele>188</ele>
        <time>2017-08-20T09:52:50Z</time>
      </trkpt>
      <trkpt lat="45.95469" lon="4.75319">
        <ele>188</ele>
        <time>2017-08-20T09:52:51Z</time>
      </trkpt>
      <trkpt lat="45.95465" lon="4.75311">
        <ele>188</ele>
        <time>2017-08-20T09:52:52Z</time>
      </trkpt>
      <trkpt lat="45.95461" lon="4.75303">
        <ele>188</ele>
        <time>2017-08-20T09:52:53Z</time>
      </trkpt>
      <trkpt lat="45.95457" lon="4.75295">
        <ele>188</ele>
        <time>2017-08-20T09:52:54Z</time>
      </trkpt>
      <trkpt lat="45.95451" lon="4.75287">
        <ele>188</ele>
        <time>2017-08-20T09:52:55Z</time>
      </trkpt>
      <trkpt lat="45.95447" lon="4.75279">
        <ele>189</ele>
        <time>2017-08-20T09:52:56Z</time>
      </trkpt>
      <trkpt lat="45.95442" lon="4.75271">
        <ele>189</ele>
        <time>2017-08-20T09:52:57Z</time>
      </trkpt>
      <trkpt lat="45.95438" lon="4.75263">
        <ele>189</ele>
        <time>2017-08-20T09:52:58Z</time>
      </trkpt>
      <trkpt lat="45.95434" lon="4.75256">
        <ele>189</ele>
        <time>2017-08-20T09:52:59Z</time>
      </trkpt>
      <trkpt lat="45.95431" lon="4.75249">
        <ele>190</ele>
        <time>2017-08-20T09:53:00Z</time>
      </trkpt>
      <trkpt lat="45.95428" lon="4.75241">
        <ele>190</ele>
        <time>2017-08-20T09:53:01Z</time>
      </trkpt>
      <trkpt lat="45.95424" lon="4.75234">
        <ele>190</ele>
        <time>2017-08-20T09:53:02Z</time>
      </trkpt>
      <trkpt lat="45.95421" lon="4.75228">
        <ele>191</ele>
        <time>2017-08-20T09:53:03Z</time>
      </trkpt>
      <trkpt lat="45.95418" lon="4.75221">
        <ele>191</ele>
        <time>2017-08-20T09:53:04Z</time>
      </trkpt>
      <trkpt lat="45.95415" lon="4.75215">
        <ele>189</ele>
        <time>2017-08-20T09:53:05Z</time>
      </trkpt>
      <trkpt lat="45.95412" lon="4.7521">
        <ele>189</ele>
        <time>2017-08-20T09:53:06Z</time>
      </trkpt>
      <trkpt lat="45.95408" lon="4.75205">
        <ele>189</ele>
        <time>2017-08-20T09:53:07Z</time>
      </trkpt>
      <trkpt lat="45.95405" lon="4.75199">
        <ele>189</ele>
        <time>2017-08-20T09:53:08Z</time>
      </trkpt>
      <trkpt lat="45.95402" lon="4.75192">
        <ele>189</ele>
        <time>2017-08-20T09:53:09Z</time>
      </trkpt>
      <trkpt lat="45.95398" lon="4.75186">
        <ele>189</ele>
        <time>2017-08-20T09:53:10Z</time>
      </trkpt>
      <trkpt lat="45.95395" lon="4.7518">
        <ele>189</ele>
        <time>2017-08-20T09:53:11Z</time>
      </trkpt>
      <trkpt lat="45.95391" lon="4.75173">
        <ele>189</ele>
        <time>2017-08-20T09:53:12Z</time>
      </trkpt>
      <trkpt lat="45.95387" lon="4.75167">
        <ele>191</ele>
        <time>2017-08-20T09:53:13Z</time>
      </trkpt>
      <trkpt lat="45.95383" lon="4.7516">
        <ele>191</ele>
        <time>2017-08-20T09:53:14Z</time>
      </trkpt>
      <trkpt lat="45.95378" lon="4.75152">
        <ele>191</ele>
        <time>2017-08-20T09:53:15Z</time>
      </trkpt>
      <trkpt lat="45.95374" lon="4.75146">
        <ele>191</ele>
        <time>2017-08-20T09:53:16Z</time>
      </trkpt>
      <trkpt lat="45.9537" lon="4.75139">
        <ele>191</ele>
        <time>2017-08-20T09:53:17Z</time>
      </trkpt>
      <trkpt lat="45.95366" lon="4.75132">
        <ele>191</ele>
        <time>2017-08-20T09:53:18Z</time>
      </trkpt>
      <trkpt lat="45.95362" lon="4.75125">
        <ele>191</ele>
        <time>2017-08-20T09:53:19Z</time>
      </trkpt>
      <trkpt lat="45.95358" lon="4.75118">
        <ele>192</ele>
        <time>2017-08-20T09:53:20Z</time>
      </trkpt>
      <trkpt lat="45.95353" lon="4.75112">
        <ele>192</ele>
        <time>2017-08-20T09:53:21Z</time>
      </trkpt>
      <trkpt lat="45.95349" lon="4.75105">
        <ele>192</ele>
        <time>2017-08-20T09:53:22Z</time>
      </trkpt>
      <trkpt lat="45.95345" lon="4.75099">
        <ele>192</ele>
        <time>2017-08-20T09:53:23Z</time>
      </trkpt>
      <trkpt lat="45.95341" lon="4.75093">
        <ele>192</ele>
        <time>2017-08-20T09:53:24Z</time>
      </trkpt>
      <trkpt lat="45.95338" lon="4.75087">
        <ele>193</ele>
        <time>2017-08-20T09:53:25Z</time>
      </trkpt>
      <trkpt lat="45.95334" lon="4.75081">
        <ele>193</ele>
        <time>2017-08-20T09:53:26Z</time>
      </trkpt>
      <trkpt lat="45.9533" lon="4.75074">
        <ele>192</ele>
        <time>2017-08-20T09:53:27Z</time>
      </trkpt>
      <trkpt lat="45.95327" lon="4.75069">
        <ele>192</ele>
        <time>2017-08-20T09:53:28Z</time>
      </trkpt>
      <trkpt lat="45.95324" lon="4.75063">
        <ele>192</ele>
        <time>2017-08-20T09:53:29Z</time>
      </trkpt>
      <trkpt lat="45.9532" lon="4.75058">
        <ele>192</ele>
        <time>2017-08-20T09:53:30Z</time>
      </trkpt>
      <trkpt lat="45.95316" lon="4.75051">
        <ele>192</ele>
        <time>2017-08-20T09:53:31Z</time>
      </trkpt>
      <trkpt lat="45.95312" lon="4.75045">
        <ele>192</ele>
        <time>2017-08-20T09:53:32Z</time>
      </trkpt>
      <trkpt lat="45.95309" lon="4.75039">
        <ele>192</ele>
        <time>2017-08-20T09:53:33Z</time>
      </trkpt>
      <trkpt lat="45.95305" lon="4.75034">
        <ele>192</ele>
        <time>2017-08-20T09:53:34Z</time>
      </trkpt>
      <trkpt lat="45.95301" lon="4.75028">
        <ele>192</ele>
        <time>2017-08-20T09:53:35Z</time>
      </trkpt>
      <trkpt lat="45.95298" lon="4.75023">
        <ele>192</ele>
        <time>2017-08-20T09:53:36Z</time>
      </trkpt>
      <trkpt lat="45.95294" lon="4.75018">
        <ele>191</ele>
        <time>2017-08-20T09:53:37Z</time>
      </trkpt>
      <trkpt lat="45.95291" lon="4.75013">
        <ele>191</ele>
        <time>2017-08-20T09:53:38Z</time>
      </trkpt>
      <trkpt lat="45.95287" lon="4.75008">
        <ele>191</ele>
        <time>2017-08-20T09:53:39Z</time>
      </trkpt>
      <trkpt lat="45.95284" lon="4.75003">
        <ele>191</ele>
        <time>2017-08-20T09:53:40Z</time>
      </trkpt>
      <trkpt lat="45.95281" lon="4.74997">
        <ele>192</ele>
        <time>2017-08-20T09:53:41Z</time>
      </trkpt>
      <trkpt lat="45.95278" lon="4.74991">
        <ele>192</ele>
        <time>2017-08-20T09:53:42Z</time>
      </trkpt>
      <trkpt lat="45.95274" lon="4.74986">
        <ele>192</ele>
        <time>2017-08-20T09:53:43Z</time>
      </trkpt>
      <trkpt lat="45.95271" lon="4.74981">
        <ele>192</ele>
        <time>2017-08-20T09:53:44Z</time>
      </trkpt>
      <trkpt lat="45.95267" lon="4.74975">
        <ele>192</ele>
        <time>2017-08-20T09:53:45Z</time>
      </trkpt>
      <trkpt lat="45.95263" lon="4.74969">
        <ele>192</ele>
        <time>2017-08-20T09:53:46Z</time>
      </trkpt>
      <trkpt lat="45.95259" lon="4.74964">
        <ele>192</ele>
        <time>2017-08-20T09:53:47Z</time>
      </trkpt>
      <trkpt lat="45.95255" lon="4.74958">
        <ele>192</ele>
        <time>2017-08-20T09:53:48Z</time>
      </trkpt>
      <trkpt lat="45.95251" lon="4.74952">
        <ele>192</ele>
        <time>2017-08-20T09:53:49Z</time>
      </trkpt>
      <trkpt lat="45.95246" lon="4.74945">
        <ele>192</ele>
        <time>2017-08-20T09:53:50Z</time>
      </trkpt>
      <trkpt lat="45.95242" lon="4.74939">
        <ele>192</ele>
        <time>2017-08-20T09:53:51Z</time>
      </trkpt>
      <trkpt lat="45.95237" lon="4.74932">
        <ele>192</ele>
        <time>2017-08-20T09:53:52Z</time>
      </trkpt>
      <trkpt lat="45.95233" lon="4.74926">
        <ele>192</ele>
        <time>2017-08-20T09:53:53Z</time>
      </trkpt>
      <trkpt lat="45.9523" lon="4.74921">
        <ele>192</ele>
        <time>2017-08-20T09:53:54Z</time>
      </trkpt>
      <trkpt lat="45.95226" lon="4.74915">
        <ele>193</ele>
        <time>2017-08-20T09:53:55Z</time>
      </trkpt>
      <trkpt lat="45.95223" lon="4.7491">
        <ele>193</ele>
        <time>2017-08-20T09:53:56Z</time>
      </trkpt>
      <trkpt lat="45.9522" lon="4.74904">
        <ele>193</ele>
        <time>2017-08-20T09:53:57Z</time>
      </trkpt>
      <trkpt lat="45.95217" lon="4.74899">
        <ele>193</ele>
        <time>2017-08-20T09:53:58Z</time>
      </trkpt>
      <trkpt lat="45.95214" lon="4.74893">
        <ele>193</ele>
        <time>2017-08-20T09:53:59Z</time>
      </trkpt>
      <trkpt lat="45.95208" lon="4.74883">
        <ele>194</ele>
        <time>2017-08-20T09:54:01Z</time>
      </trkpt>
      <trkpt lat="45.95205" lon="4.74878">
        <ele>194</ele>
        <time>2017-08-20T09:54:02Z</time>
      </trkpt>
      <trkpt lat="45.95202" lon="4.74873">
        <ele>194</ele>
        <time>2017-08-20T09:54:03Z</time>
      </trkpt>
      <trkpt lat="45.95199" lon="4.74868">
        <ele>194</ele>
        <time>2017-08-20T09:54:04Z</time>
      </trkpt>
      <trkpt lat="45.95195" lon="4.74862">
        <ele>194</ele>
        <time>2017-08-20T09:54:05Z</time>
      </trkpt>
      <trkpt lat="45.95192" lon="4.74857">
        <ele>194</ele>
        <time>2017-08-20T09:54:06Z</time>
      </trkpt>
      <trkpt lat="45.95189" lon="4.74853">
        <ele>194</ele>
        <time>2017-08-20T09:54:07Z</time>
      </trkpt>
      <trkpt lat="45.95186" lon="4.74848">
        <ele>194</ele>
        <time>2017-08-20T09:54:08Z</time>
      </trkpt>
      <trkpt lat="45.95183" lon="4.74843">
        <ele>194</ele>
        <time>2017-08-20T09:54:09Z</time>
      </trkpt>
      <trkpt lat="45.95179" lon="4.74837">
        <ele>194</ele>
        <time>2017-08-20T09:54:10Z</time>
      </trkpt>
      <trkpt lat="45.95176" lon="4.74832">
        <ele>194</ele>
        <time>2017-08-20T09:54:11Z</time>
      </trkpt>
      <trkpt lat="45.95172" lon="4.74826">
        <ele>194</ele>
        <time>2017-08-20T09:54:12Z</time>
      </trkpt>
      <trkpt lat="45.95169" lon="4.7482">
        <ele>194</ele>
        <time>2017-08-20T09:54:13Z</time>
      </trkpt>
      <trkpt lat="45.95165" lon="4.74813">
        <ele>194</ele>
        <time>2017-08-20T09:54:14Z</time>
      </trkpt>
      <trkpt lat="45.9516" lon="4.74807">
        <ele>194</ele>
        <time>2017-08-20T09:54:15Z</time>
      </trkpt>
      <trkpt lat="45.95156" lon="4.748">
        <ele>194</ele>
        <time>2017-08-20T09:54:16Z</time>
      </trkpt>
      <trkpt lat="45.95151" lon="4.74794">
        <ele>194</ele>
        <time>2017-08-20T09:54:17Z</time>
      </trkpt>
      <trkpt lat="45.95147" lon="4.74788">
        <ele>194</ele>
        <time>2017-08-20T09:54:18Z</time>
      </trkpt>
      <trkpt lat="45.95143" lon="4.74782">
        <ele>194</ele>
        <time>2017-08-20T09:54:19Z</time>
      </trkpt>
      <trkpt lat="45.9514" lon="4.74776">
        <ele>194</ele>
        <time>2017-08-20T09:54:20Z</time>
      </trkpt>
      <trkpt lat="45.95136" lon="4.74769">
        <ele>194</ele>
        <time>2017-08-20T09:54:21Z</time>
      </trkpt>
      <trkpt lat="45.95132" lon="4.74763">
        <ele>194</ele>
        <time>2017-08-20T09:54:22Z</time>
      </trkpt>
      <trkpt lat="45.95129" lon="4.74757">
        <ele>194</ele>
        <time>2017-08-20T09:54:23Z</time>
      </trkpt>
      <trkpt lat="45.95125" lon="4.74751">
        <ele>194</ele>
        <time>2017-08-20T09:54:24Z</time>
      </trkpt>
      <trkpt lat="45.95121" lon="4.74745">
        <ele>194</ele>
        <time>2017-08-20T09:54:25Z</time>
      </trkpt>
      <trkpt lat="45.95117" lon="4.74738">
        <ele>194</ele>
        <time>2017-08-20T09:54:26Z</time>
      </trkpt>
      <trkpt lat="45.95114" lon="4.74731">
        <ele>194</ele>
        <time>2017-08-20T09:54:27Z</time>
      </trkpt>
      <trkpt lat="45.95109" lon="4.74724">
        <ele>194</ele>
        <time>2017-08-20T09:54:28Z</time>
      </trkpt>
      <trkpt lat="45.95105" lon="4.74716">
        <ele>194</ele>
        <time>2017-08-20T09:54:29Z</time>
      </trkpt>
      <trkpt lat="45.951" lon="4.74708">
        <ele>194</ele>
        <time>2017-08-20T09:54:30Z</time>
      </trkpt>
      <trkpt lat="45.95095" lon="4.74701">
        <ele>194</ele>
        <time>2017-08-20T09:54:31Z</time>
      </trkpt>
      <trkpt lat="45.9509" lon="4.74694">
        <ele>194</ele>
        <time>2017-08-20T09:54:32Z</time>
      </trkpt>
      <trkpt lat="45.95085" lon="4.74687">
        <ele>195</ele>
        <time>2017-08-20T09:54:33Z</time>
      </trkpt>
      <trkpt lat="45.95081" lon="4.74679">
        <ele>194</ele>
        <time>2017-08-20T09:54:34Z</time>
      </trkpt>
      <trkpt lat="45.95077" lon="4.74672">
        <ele>195</ele>
        <time>2017-08-20T09:54:35Z</time>
      </trkpt>
      <trkpt lat="45.95073" lon="4.74664">
        <ele>195</ele>
        <time>2017-08-20T09:54:36Z</time>
      </trkpt>
      <trkpt lat="45.95069" lon="4.74657">
        <ele>195</ele>
        <time>2017-08-20T09:54:37Z</time>
      </trkpt>
      <trkpt lat="45.95065" lon="4.7465">
        <ele>195</ele>
        <time>2017-08-20T09:54:38Z</time>
      </trkpt>
      <trkpt lat="45.95062" lon="4.74643">
        <ele>194</ele>
        <time>2017-08-20T09:54:39Z</time>
      </trkpt>
      <trkpt lat="45.95058" lon="4.74636">
        <ele>194</ele>
        <time>2017-08-20T09:54:40Z</time>
      </trkpt>
      <trkpt lat="45.95055" lon="4.7463">
        <ele>194</ele>
        <time>2017-08-20T09:54:41Z</time>
      </trkpt>
      <trkpt lat="45.95051" lon="4.74623">
        <ele>194</ele>
        <time>2017-08-20T09:54:42Z</time>
      </trkpt>
      <trkpt lat="45.95047" lon="4.74616">
        <ele>194</ele>
        <time>2017-08-20T09:54:43Z</time>
      </trkpt>
      <trkpt lat="45.95043" lon="4.74608">
        <ele>194</ele>
        <time>2017-08-20T09:54:44Z</time>
      </trkpt>
      <trkpt lat="45.95039" lon="4.746">
        <ele>194</ele>
        <time>2017-08-20T09:54:45Z</time>
      </trkpt>
      <trkpt lat="45.95034" lon="4.74592">
        <ele>194</ele>
        <time>2017-08-20T09:54:46Z</time>
      </trkpt>
      <trkpt lat="45.9503" lon="4.74585">
        <ele>194</ele>
        <time>2017-08-20T09:54:47Z</time>
      </trkpt>
      <trkpt lat="45.95025" lon="4.74577">
        <ele>194</ele>
        <time>2017-08-20T09:54:48Z</time>
      </trkpt>
      <trkpt lat="45.95021" lon="4.74569">
        <ele>194</ele>
        <time>2017-08-20T09:54:49Z</time>
      </trkpt>
      <trkpt lat="45.95017" lon="4.74561">
        <ele>194</ele>
        <time>2017-08-20T09:54:50Z</time>
      </trkpt>
      <trkpt lat="45.95013" lon="4.74553">
        <ele>194</ele>
        <time>2017-08-20T09:54:51Z</time>
      </trkpt>
      <trkpt lat="45.95009" lon="4.74545">
        <ele>194</ele>
        <time>2017-08-20T09:54:52Z</time>
      </trkpt>
      <trkpt lat="45.95004" lon="4.74536">
        <ele>194</ele>
        <time>2017-08-20T09:54:53Z</time>
      </trkpt>
      <trkpt lat="45.94999" lon="4.74529">
        <ele>193</ele>
        <time>2017-08-20T09:54:54Z</time>
      </trkpt>
      <trkpt lat="45.94994" lon="4.7452">
        <ele>193</ele>
        <time>2017-08-20T09:54:55Z</time>
      </trkpt>
      <trkpt lat="45.9499" lon="4.7451">
        <ele>193</ele>
        <time>2017-08-20T09:54:56Z</time>
      </trkpt>
      <trkpt lat="45.94984" lon="4.74501">
        <ele>193</ele>
        <time>2017-08-20T09:54:57Z</time>
      </trkpt>
      <trkpt lat="45.9498" lon="4.74491">
        <ele>193</ele>
        <time>2017-08-20T09:54:58Z</time>
      </trkpt>
      <trkpt lat="45.94975" lon="4.74481">
        <ele>193</ele>
        <time>2017-08-20T09:54:59Z</time>
      </trkpt>
      <trkpt lat="45.94969" lon="4.74471">
        <ele>193</ele>
        <time>2017-08-20T09:55:00Z</time>
      </trkpt>
      <trkpt lat="45.94964" lon="4.74461">
        <ele>193</ele>
        <time>2017-08-20T09:55:01Z</time>
      </trkpt>
      <trkpt lat="45.94959" lon="4.74451">
        <ele>192</ele>
        <time>2017-08-20T09:55:02Z</time>
      </trkpt>
      <trkpt lat="45.94954" lon="4.7444">
        <ele>192</ele>
        <time>2017-08-20T09:55:03Z</time>
      </trkpt>
      <trkpt lat="45.94949" lon="4.7443">
        <ele>192</ele>
        <time>2017-08-20T09:55:04Z</time>
      </trkpt>
      <trkpt lat="45.94944" lon="4.7442">
        <ele>192</ele>
        <time>2017-08-20T09:55:05Z</time>
      </trkpt>
      <trkpt lat="45.94938" lon="4.74409">
        <ele>192</ele>
        <time>2017-08-20T09:55:06Z</time>
      </trkpt>
      <trkpt lat="45.94933" lon="4.74399">
        <ele>192</ele>
        <time>2017-08-20T09:55:07Z</time>
      </trkpt>
      <trkpt lat="45.94927" lon="4.74389">
        <ele>192</ele>
        <time>2017-08-20T09:55:08Z</time>
      </trkpt>
      <trkpt lat="45.94922" lon="4.74378">
        <ele>192</ele>
        <time>2017-08-20T09:55:09Z</time>
      </trkpt>
      <trkpt lat="45.94917" lon="4.74368">
        <ele>191</ele>
        <time>2017-08-20T09:55:10Z</time>
      </trkpt>
      <trkpt lat="45.94911" lon="4.74358">
        <ele>191</ele>
        <time>2017-08-20T09:55:11Z</time>
      </trkpt>
      <trkpt lat="45.94906" lon="4.74348">
        <ele>191</ele>
        <time>2017-08-20T09:55:12Z</time>
      </trkpt>
      <trkpt lat="45.94901" lon="4.74339">
        <ele>191</ele>
        <time>2017-08-20T09:55:13Z</time>
      </trkpt>
      <trkpt lat="45.94896" lon="4.7433">
        <ele>191</ele>
        <time>2017-08-20T09:55:14Z</time>
      </trkpt>
      <trkpt lat="45.94891" lon="4.7432">
        <ele>191</ele>
        <time>2017-08-20T09:55:15Z</time>
      </trkpt>
      <trkpt lat="45.94887" lon="4.74311">
        <ele>191</ele>
        <time>2017-08-20T09:55:16Z</time>
      </trkpt>
      <trkpt lat="45.94882" lon="4.74302">
        <ele>191</ele>
        <time>2017-08-20T09:55:17Z</time>
      </trkpt>
      <trkpt lat="45.94878" lon="4.74294">
        <ele>191</ele>
        <time>2017-08-20T09:55:18Z</time>
      </trkpt>
      <trkpt lat="45.94874" lon="4.74286">
        <ele>191</ele>
        <time>2017-08-20T09:55:19Z</time>
      </trkpt>
      <trkpt lat="45.9487" lon="4.74277">
        <ele>191</ele>
        <time>2017-08-20T09:55:20Z</time>
      </trkpt>
      <trkpt lat="45.94865" lon="4.74269">
        <ele>190</ele>
        <time>2017-08-20T09:55:21Z</time>
      </trkpt>
      <trkpt lat="45.94861" lon="4.74261">
        <ele>190</ele>
        <time>2017-08-20T09:55:22Z</time>
      </trkpt>
      <trkpt lat="45.94857" lon="4.74252">
        <ele>190</ele>
        <time>2017-08-20T09:55:23Z</time>
      </trkpt>
      <trkpt lat="45.94852" lon="4.74244">
        <ele>190</ele>
        <time>2017-08-20T09:55:24Z</time>
      </trkpt>
      <trkpt lat="45.94848" lon="4.74235">
        <ele>190</ele>
        <time>2017-08-20T09:55:25Z</time>
      </trkpt>
      <trkpt lat="45.94844" lon="4.74227">
        <ele>190</ele>
        <time>2017-08-20T09:55:26Z</time>
      </trkpt>
      <trkpt lat="45.94839" lon="4.74218">
        <ele>190</ele>
        <time>2017-08-20T09:55:27Z</time>
      </trkpt>
      <trkpt lat="45.94834" lon="4.7421">
        <ele>190</ele>
        <time>2017-08-20T09:55:28Z</time>
      </trkpt>
      <trkpt lat="45.94829" lon="4.74201">
        <ele>189</ele>
        <time>2017-08-20T09:55:29Z</time>
      </trkpt>
      <trkpt lat="45.94824" lon="4.74193">
        <ele>189</ele>
        <time>2017-08-20T09:55:30Z</time>
      </trkpt>
      <trkpt lat="45.9482" lon="4.74185">
        <ele>189</ele>
        <time>2017-08-20T09:55:31Z</time>
      </trkpt>
      <trkpt lat="45.94815" lon="4.74177">
        <ele>189</ele>
        <time>2017-08-20T09:55:32Z</time>
      </trkpt>
      <trkpt lat="45.94811" lon="4.74169">
        <ele>189</ele>
        <time>2017-08-20T09:55:33Z</time>
      </trkpt>
      <trkpt lat="45.94807" lon="4.74162">
        <ele>189</ele>
        <time>2017-08-20T09:55:34Z</time>
      </trkpt>
      <trkpt lat="45.94802" lon="4.74155">
        <ele>189</ele>
        <time>2017-08-20T09:55:35Z</time>
      </trkpt>
      <trkpt lat="45.94798" lon="4.74148">
        <ele>189</ele>
        <time>2017-08-20T09:55:36Z</time>
      </trkpt>
      <trkpt lat="45.94794" lon="4.7414">
        <ele>189</ele>
        <time>2017-08-20T09:55:37Z</time>
      </trkpt>
      <trkpt lat="45.9479" lon="4.74132">
        <ele>189</ele>
        <time>2017-08-20T09:55:38Z</time>
      </trkpt>
      <trkpt lat="45.94785" lon="4.74124">
        <ele>189</ele>
        <time>2017-08-20T09:55:39Z</time>
      </trkpt>
      <trkpt lat="45.94781" lon="4.74117">
        <ele>189</ele>
        <time>2017-08-20T09:55:40Z</time>
      </trkpt>
      <trkpt lat="45.94775" lon="4.7411">
        <ele>189</ele>
        <time>2017-08-20T09:55:41Z</time>
      </trkpt>
      <trkpt lat="45.9477" lon="4.74103">
        <ele>189</ele>
        <time>2017-08-20T09:55:42Z</time>
      </trkpt>
      <trkpt lat="45.94765" lon="4.74096">
        <ele>189</ele>
        <time>2017-08-20T09:55:43Z</time>
      </trkpt>
      <trkpt lat="45.9476" lon="4.74089">
        <ele>189</ele>
        <time>2017-08-20T09:55:44Z</time>
      </trkpt>
      <trkpt lat="45.94755" lon="4.74082">
        <ele>189</ele>
        <time>2017-08-20T09:55:45Z</time>
      </trkpt>
      <trkpt lat="45.9475" lon="4.74076">
        <ele>189</ele>
        <time>2017-08-20T09:55:46Z</time>
      </trkpt>
      <trkpt lat="45.94744" lon="4.7407">
        <ele>188</ele>
        <time>2017-08-20T09:55:47Z</time>
      </trkpt>
      <trkpt lat="45.94739" lon="4.74063">
        <ele>188</ele>
        <time>2017-08-20T09:55:48Z</time>
      </trkpt>
      <trkpt lat="45.94735" lon="4.74057">
        <ele>188</ele>
        <time>2017-08-20T09:55:49Z</time>
      </trkpt>
      <trkpt lat="45.9473" lon="4.74051">
        <ele>188</ele>
        <time>2017-08-20T09:55:50Z</time>
      </trkpt>
      <trkpt lat="45.94726" lon="4.74045">
        <ele>188</ele>
        <time>2017-08-20T09:55:51Z</time>
      </trkpt>
      <trkpt lat="45.94721" lon="4.74039">
        <ele>187</ele>
        <time>2017-08-20T09:55:52Z</time>
      </trkpt>
      <trkpt lat="45.94718" lon="4.74034">
        <ele>187</ele>
        <time>2017-08-20T09:55:53Z</time>
      </trkpt>
      <trkpt lat="45.94714" lon="4.74028">
        <ele>187</ele>
        <time>2017-08-20T09:55:54Z</time>
      </trkpt>
      <trkpt lat="45.9471" lon="4.74023">
        <ele>187</ele>
        <time>2017-08-20T09:55:55Z</time>
      </trkpt>
      <trkpt lat="45.94706" lon="4.74017">
        <ele>187</ele>
        <time>2017-08-20T09:55:56Z</time>
      </trkpt>
      <trkpt lat="45.94701" lon="4.74012">
        <ele>187</ele>
        <time>2017-08-20T09:55:57Z</time>
      </trkpt>
      <trkpt lat="45.94697" lon="4.74006">
        <ele>187</ele>
        <time>2017-08-20T09:55:58Z</time>
      </trkpt>
      <trkpt lat="45.94693" lon="4.74001">
        <ele>187</ele>
        <time>2017-08-20T09:55:59Z</time>
      </trkpt>
      <trkpt lat="45.94688" lon="4.73995">
        <ele>187</ele>
        <time>2017-08-20T09:56:00Z</time>
      </trkpt>
      <trkpt lat="45.94684" lon="4.7399">
        <ele>187</ele>
        <time>2017-08-20T09:56:01Z</time>
      </trkpt>
      <trkpt lat="45.9468" lon="4.73984">
        <ele>187</ele>
        <time>2017-08-20T09:56:02Z</time>
      </trkpt>
      <trkpt lat="45.94675" lon="4.73977">
        <ele>187</ele>
        <time>2017-08-20T09:56:03Z</time>
      </trkpt>
      <trkpt lat="45.9467" lon="4.73971">
        <ele>187</ele>
        <time>2017-08-20T09:56:04Z</time>
      </trkpt>
      <trkpt lat="45.94666" lon="4.73964">
        <ele>187</ele>
        <time>2017-08-20T09:56:05Z</time>
      </trkpt>
      <trkpt lat="45.94661" lon="4.73958">
        <ele>187</ele>
        <time>2017-08-20T09:56:06Z</time>
      </trkpt>
      <trkpt lat="45.94656" lon="4.73952">
        <ele>187</ele>
        <time>2017-08-20T09:56:07Z</time>
      </trkpt>
      <trkpt lat="45.94651" lon="4.73946">
        <ele>187</ele>
        <time>2017-08-20T09:56:08Z</time>
      </trkpt>
      <trkpt lat="45.94647" lon="4.7394">
        <ele>187</ele>
        <time>2017-08-20T09:56:09Z</time>
      </trkpt>
      <trkpt lat="45.94642" lon="4.73934">
        <ele>187</ele>
        <time>2017-08-20T09:56:10Z</time>
      </trkpt>
      <trkpt lat="45.94637" lon="4.73927">
        <ele>187</ele>
        <time>2017-08-20T09:56:11Z</time>
      </trkpt>
      <trkpt lat="45.94632" lon="4.73921">
        <ele>187</ele>
        <time>2017-08-20T09:56:12Z</time>
      </trkpt>
      <trkpt lat="45.94627" lon="4.73914">
        <ele>187</ele>
        <time>2017-08-20T09:56:13Z</time>
      </trkpt>
      <trkpt lat="45.94622" lon="4.73908">
        <ele>187</ele>
        <time>2017-08-20T09:56:14Z</time>
      </trkpt>
      <trkpt lat="45.94617" lon="4.73902">
        <ele>187</ele>
        <time>2017-08-20T09:56:15Z</time>
      </trkpt>
      <trkpt lat="45.94612" lon="4.73896">
        <ele>187</ele>
        <time>2017-08-20T09:56:16Z</time>
      </trkpt>
      <trkpt lat="45.94607" lon="4.7389">
        <ele>187</ele>
        <time>2017-08-20T09:56:17Z</time>
      </trkpt>
      <trkpt lat="45.94602" lon="4.73884">
        <ele>187</ele>
        <time>2017-08-20T09:56:18Z</time>
      </trkpt>
      <trkpt lat="45.94597" lon="4.73878">
        <ele>187</ele>
        <time>2017-08-20T09:56:19Z</time>
      </trkpt>
      <trkpt lat="45.94592" lon="4.73873">
        <ele>187</ele>
        <time>2017-08-20T09:56:20Z</time>
      </trkpt>
      <trkpt lat="45.94586" lon="4.73867">
        <ele>187</ele>
        <time>2017-08-20T09:56:21Z</time>
      </trkpt>
      <trkpt lat="45.94581" lon="4.73861">
        <ele>186</ele>
        <time>2017-08-20T09:56:22Z</time>
      </trkpt>
      <trkpt lat="45.94576" lon="4.73855">
        <ele>186</ele>
        <time>2017-08-20T09:56:23Z</time>
      </trkpt>
      <trkpt lat="45.94571" lon="4.73849">
        <ele>186</ele>
        <time>2017-08-20T09:56:24Z</time>
      </trkpt>
      <trkpt lat="45.94565" lon="4.73844">
        <ele>186</ele>
        <time>2017-08-20T09:56:25Z</time>
      </trkpt>
      <trkpt lat="45.94559" lon="4.73838">
        <ele>186</ele>
        <time>2017-08-20T09:56:26Z</time>
      </trkpt>
      <trkpt lat="45.94554" lon="4.73833">
        <ele>186</ele>
        <time>2017-08-20T09:56:27Z</time>
      </trkpt>
      <trkpt lat="45.94549" lon="4.73828">
        <ele>186</ele>
        <time>2017-08-20T09:56:28Z</time>
      </trkpt>
      <trkpt lat="45.94543" lon="4.73823">
        <ele>186</ele>
        <time>2017-08-20T09:56:29Z</time>
      </trkpt>
      <trkpt lat="45.94538" lon="4.73818">
        <ele>186</ele>
        <time>2017-08-20T09:56:30Z</time>
      </trkpt>
      <trkpt lat="45.94533" lon="4.73812">
        <ele>186</ele>
        <time>2017-08-20T09:56:31Z</time>
      </trkpt>
      <trkpt lat="45.94528" lon="4.73807">
        <ele>186</ele>
        <time>2017-08-20T09:56:32Z</time>
      </trkpt>
      <trkpt lat="45.94523" lon="4.73801">
        <ele>186</ele>
        <time>2017-08-20T09:56:33Z</time>
      </trkpt>
      <trkpt lat="45.94518" lon="4.73796">
        <ele>186</ele>
        <time>2017-08-20T09:56:34Z</time>
      </trkpt>
      <trkpt lat="45.94513" lon="4.73791">
        <ele>186</ele>
        <time>2017-08-20T09:56:35Z</time>
      </trkpt>
      <trkpt lat="45.94508" lon="4.73785">
        <ele>186</ele>
        <time>2017-08-20T09:56:36Z</time>
      </trkpt>
      <trkpt lat="45.94503" lon="4.7378">
        <ele>186</ele>
        <time>2017-08-20T09:56:37Z</time>
      </trkpt>
      <trkpt lat="45.94498" lon="4.73774">
        <ele>186</ele>
        <time>2017-08-20T09:56:38Z</time>
      </trkpt>
      <trkpt lat="45.94494" lon="4.73768">
        <ele>186</ele>
        <time>2017-08-20T09:56:39Z</time>
      </trkpt>
      <trkpt lat="45.9449" lon="4.73761">
        <ele>186</ele>
        <time>2017-08-20T09:56:40Z</time>
      </trkpt>
      <trkpt lat="45.94488" lon="4.73753">
        <ele>186</ele>
        <time>2017-08-20T09:56:41Z</time>
      </trkpt>
      <trkpt lat="45.94488" lon="4.73744">
        <ele>186</ele>
        <time>2017-08-20T09:56:42Z</time>
      </trkpt>
      <trkpt lat="45.94488" lon="4.73736">
        <ele>186</ele>
        <time>2017-08-20T09:56:43Z</time>
      </trkpt>
      <trkpt lat="45.94489" lon="4.73727">
        <ele>186</ele>
        <time>2017-08-20T09:56:44Z</time>
      </trkpt>
      <trkpt lat="45.9449" lon="4.73719">
        <ele>186</ele>
        <time>2017-08-20T09:56:45Z</time>
      </trkpt>
      <trkpt lat="45.94491" lon="4.7371">
        <ele>186</ele>
        <time>2017-08-20T09:56:46Z</time>
      </trkpt>
      <trkpt lat="45.94492" lon="4.73701">
        <ele>186</ele>
        <time>2017-08-20T09:56:47Z</time>
      </trkpt>
      <trkpt lat="45.94494" lon="4.73691">
        <ele>186</ele>
        <time>2017-08-20T09:56:48Z</time>
      </trkpt>
      <trkpt lat="45.94496" lon="4.73682">
        <ele>185</ele>
        <time>2017-08-20T09:56:49Z</time>
      </trkpt>
      <trkpt lat="45.94497" lon="4.73671">
        <ele>185</ele>
        <time>2017-08-20T09:56:50Z</time>
      </trkpt>
      <trkpt lat="45.94499" lon="4.73661">
        <ele>185</ele>
        <time>2017-08-20T09:56:51Z</time>
      </trkpt>
      <trkpt lat="45.94501" lon="4.73652">
        <ele>184</ele>
        <time>2017-08-20T09:56:52Z</time>
      </trkpt>
      <trkpt lat="45.94502" lon="4.73643">
        <ele>184</ele>
        <time>2017-08-20T09:56:53Z</time>
      </trkpt>
      <trkpt lat="45.94503" lon="4.73633">
        <ele>184</ele>
        <time>2017-08-20T09:56:54Z</time>
      </trkpt>
      <trkpt lat="45.94504" lon="4.73623">
        <ele>184</ele>
        <time>2017-08-20T09:56:55Z</time>
      </trkpt>
      <trkpt lat="45.94504" lon="4.73612">
        <ele>184</ele>
        <time>2017-08-20T09:56:56Z</time>
      </trkpt>
      <trkpt lat="45.94505" lon="4.73602">
        <ele>184</ele>
        <time>2017-08-20T09:56:57Z</time>
      </trkpt>
      <trkpt lat="45.94505" lon="4.73592">
        <ele>184</ele>
        <time>2017-08-20T09:56:58Z</time>
      </trkpt>
      <trkpt lat="45.94506" lon="4.73581">
        <ele>184</ele>
        <time>2017-08-20T09:56:59Z</time>
      </trkpt>
      <trkpt lat="45.94507" lon="4.73571">
        <ele>184</ele>
        <time>2017-08-20T09:57:00Z</time>
      </trkpt>
      <trkpt lat="45.94507" lon="4.73561">
        <ele>184</ele>
        <time>2017-08-20T09:57:01Z</time>
      </trkpt>
      <trkpt lat="45.94507" lon="4.73551">
        <ele>183</ele>
        <time>2017-08-20T09:57:02Z</time>
      </trkpt>
      <trkpt lat="45.94508" lon="4.7354">
        <ele>183</ele>
        <time>2017-08-20T09:57:03Z</time>
      </trkpt>
      <trkpt lat="45.94508" lon="4.7353">
        <ele>183</ele>
        <time>2017-08-20T09:57:04Z</time>
      </trkpt>
      <trkpt lat="45.94508" lon="4.73519">
        <ele>183</ele>
        <time>2017-08-20T09:57:05Z</time>
      </trkpt>
      <trkpt lat="45.94508" lon="4.73509">
        <ele>183</ele>
        <time>2017-08-20T09:57:06Z</time>
      </trkpt>
      <trkpt lat="45.94507" lon="4.73498">
        <ele>182</ele>
        <time>2017-08-20T09:57:07Z</time>
      </trkpt>
      <trkpt lat="45.94507" lon="4.73487">
        <ele>182</ele>
        <time>2017-08-20T09:57:08Z</time>
      </trkpt>
      <trkpt lat="45.94507" lon="4.73476">
        <ele>182</ele>
        <time>2017-08-20T09:57:09Z</time>
      </trkpt>
      <trkpt lat="45.94507" lon="4.73466">
        <ele>181</ele>
        <time>2017-08-20T09:57:10Z</time>
      </trkpt>
      <trkpt lat="45.94508" lon="4.73455">
        <ele>181</ele>
        <time>2017-08-20T09:57:11Z</time>
      </trkpt>
      <trkpt lat="45.94507" lon="4.73443">
        <ele>181</ele>
        <time>2017-08-20T09:57:12Z</time>
      </trkpt>
      <trkpt lat="45.94507" lon="4.73432">
        <ele>181</ele>
        <time>2017-08-20T09:57:13Z</time>
      </trkpt>
      <trkpt lat="45.94505" lon="4.7342">
        <ele>180</ele>
        <time>2017-08-20T09:57:14Z</time>
      </trkpt>
      <trkpt lat="45.94504" lon="4.73409">
        <ele>179</ele>
        <time>2017-08-20T09:57:15Z</time>
      </trkpt>
      <trkpt lat="45.94503" lon="4.73397">
        <ele>179</ele>
        <time>2017-08-20T09:57:16Z</time>
      </trkpt>
      <trkpt lat="45.94503" lon="4.73385">
        <ele>179</ele>
        <time>2017-08-20T09:57:17Z</time>
      </trkpt>
      <trkpt lat="45.94502" lon="4.73374">
        <ele>178</ele>
        <time>2017-08-20T09:57:18Z</time>
      </trkpt>
      <trkpt lat="45.94501" lon="4.73362">
        <ele>178</ele>
        <time>2017-08-20T09:57:19Z</time>
      </trkpt>
      <trkpt lat="45.94499" lon="4.7335">
        <ele>178</ele>
        <time>2017-08-20T09:57:20Z</time>
      </trkpt>
      <trkpt lat="45.94498" lon="4.73339">
        <ele>177</ele>
        <time>2017-08-20T09:57:21Z</time>
      </trkpt>
      <trkpt lat="45.94498" lon="4.73327">
        <ele>177</ele>
        <time>2017-08-20T09:57:22Z</time>
      </trkpt>
      <trkpt lat="45.94497" lon="4.73315">
        <ele>177</ele>
        <time>2017-08-20T09:57:23Z</time>
      </trkpt>
      <trkpt lat="45.94495" lon="4.73304">
        <ele>177</ele>
        <time>2017-08-20T09:57:24Z</time>
      </trkpt>
      <trkpt lat="45.94494" lon="4.73292">
        <ele>177</ele>
        <time>2017-08-20T09:57:25Z</time>
      </trkpt>
      <trkpt lat="45.94492" lon="4.7328">
        <ele>177</ele>
        <time>2017-08-20T09:57:26Z</time>
      </trkpt>
      <trkpt lat="45.94491" lon="4.73268">
        <ele>177</ele>
        <time>2017-08-20T09:57:27Z</time>
      </trkpt>
      <trkpt lat="45.9449" lon="4.73256">
        <ele>176</ele>
        <time>2017-08-20T09:57:28Z</time>
      </trkpt>
      <trkpt lat="45.94489" lon="4.73244">
        <ele>175</ele>
        <time>2017-08-20T09:57:29Z</time>
      </trkpt>
      <trkpt lat="45.94488" lon="4.73233">
        <ele>175</ele>
        <time>2017-08-20T09:57:30Z</time>
      </trkpt>
      <trkpt lat="45.94487" lon="4.73222">
        <ele>175</ele>
        <time>2017-08-20T09:57:31Z</time>
      </trkpt>
      <trkpt lat="45.94486" lon="4.7321">
        <ele>175</ele>
        <time>2017-08-20T09:57:32Z</time>
      </trkpt>
      <trkpt lat="45.94486" lon="4.73198">
        <ele>174</ele>
        <time>2017-08-20T09:57:33Z</time>
      </trkpt>
      <trkpt lat="45.94485" lon="4.73186">
        <ele>174</ele>
        <time>2017-08-20T09:57:34Z</time>
      </trkpt>
      <trkpt lat="45.94485" lon="4.73175">
        <ele>174</ele>
        <time>2017-08-20T09:57:35Z</time>
      </trkpt>
      <trkpt lat="45.94483" lon="4.73164">
        <ele>173</ele>
        <time>2017-08-20T09:57:36Z</time>
      </trkpt>
      <trkpt lat="45.94482" lon="4.73153">
        <ele>173</ele>
        <time>2017-08-20T09:57:37Z</time>
      </trkpt>
      <trkpt lat="45.94481" lon="4.73142">
        <ele>172</ele>
        <time>2017-08-20T09:57:38Z</time>
      </trkpt>
      <trkpt lat="45.9448" lon="4.73132">
        <ele>172</ele>
        <time>2017-08-20T09:57:39Z</time>
      </trkpt>
      <trkpt lat="45.94479" lon="4.73122">
        <ele>172</ele>
        <time>2017-08-20T09:57:40Z</time>
      </trkpt>
      <trkpt lat="45.94479" lon="4.73113">
        <ele>172</ele>
        <time>2017-08-20T09:57:41Z</time>
      </trkpt>
      <trkpt lat="45.94478" lon="4.73103">
        <ele>172</ele>
        <time>2017-08-20T09:57:42Z</time>
      </trkpt>
      <trkpt lat="45.94476" lon="4.73094">
        <ele>172</ele>
        <time>2017-08-20T09:57:43Z</time>
      </trkpt>
      <trkpt lat="45.94474" lon="4.73085">
        <ele>172</ele>
        <time>2017-08-20T09:57:44Z</time>
      </trkpt>
      <trkpt lat="45.94472" lon="4.73076">
        <ele>170</ele>
        <time>2017-08-20T09:57:45Z</time>
      </trkpt>
      <trkpt lat="45.9447" lon="4.73067">
        <ele>170</ele>
        <time>2017-08-20T09:57:46Z</time>
      </trkpt>
      <trkpt lat="45.94468" lon="4.73057">
        <ele>170</ele>
        <time>2017-08-20T09:57:47Z</time>
      </trkpt>
      <trkpt lat="45.94466" lon="4.73048">
        <ele>170</ele>
        <time>2017-08-20T09:57:48Z</time>
      </trkpt>
      <trkpt lat="45.94464" lon="4.73038">
        <ele>170</ele>
        <time>2017-08-20T09:57:49Z</time>
      </trkpt>
      <trkpt lat="45.94463" lon="4.73029">
        <ele>169</ele>
        <time>2017-08-20T09:57:50Z</time>
      </trkpt>
      <trkpt lat="45.94462" lon="4.7302">
        <ele>169</ele>
        <time>2017-08-20T09:57:51Z</time>
      </trkpt>
      <trkpt lat="45.9446" lon="4.73011">
        <ele>169</ele>
        <time>2017-08-20T09:57:52Z</time>
      </trkpt>
      <trkpt lat="45.94459" lon="4.73001">
        <ele>169</ele>
        <time>2017-08-20T09:57:53Z</time>
      </trkpt>
      <trkpt lat="45.94458" lon="4.72992">
        <ele>168</ele>
        <time>2017-08-20T09:57:54Z</time>
      </trkpt>
      <trkpt lat="45.94456" lon="4.72983">
        <ele>168</ele>
        <time>2017-08-20T09:57:55Z</time>
      </trkpt>
      <trkpt lat="45.94455" lon="4.72974">
        <ele>167</ele>
        <time>2017-08-20T09:57:56Z</time>
      </trkpt>
      <trkpt lat="45.94453" lon="4.72965">
        <ele>167</ele>
        <time>2017-08-20T09:57:57Z</time>
      </trkpt>
      <trkpt lat="45.94451" lon="4.72956">
        <ele>167</ele>
        <time>2017-08-20T09:57:58Z</time>
      </trkpt>
      <trkpt lat="45.9445" lon="4.72947">
        <ele>167</ele>
        <time>2017-08-20T09:57:59Z</time>
      </trkpt>
      <trkpt lat="45.94449" lon="4.72938">
        <ele>167</ele>
        <time>2017-08-20T09:58:00Z</time>
      </trkpt>
      <trkpt lat="45.94447" lon="4.72929">
        <ele>167</ele>
        <time>2017-08-20T09:58:01Z</time>
      </trkpt>
      <trkpt lat="45.94444" lon="4.7292">
        <ele>167</ele>
        <time>2017-08-20T09:58:02Z</time>
      </trkpt>
      <trkpt lat="45.94442" lon="4.72911">
        <ele>166</ele>
        <time>2017-08-20T09:58:03Z</time>
      </trkpt>
      <trkpt lat="45.94441" lon="4.72902">
        <ele>166</ele>
        <time>2017-08-20T09:58:04Z</time>
      </trkpt>
      <trkpt lat="45.94439" lon="4.72893">
        <ele>166</ele>
        <time>2017-08-20T09:58:05Z</time>
      </trkpt>
      <trkpt lat="45.94439" lon="4.72883">
        <ele>166</ele>
        <time>2017-08-20T09:58:06Z</time>
      </trkpt>
      <trkpt lat="45.94437" lon="4.72874">
        <ele>166</ele>
        <time>2017-08-20T09:58:07Z</time>
      </trkpt>
      <trkpt lat="45.94436" lon="4.72864">
        <ele>166</ele>
        <time>2017-08-20T09:58:08Z</time>
      </trkpt>
      <trkpt lat="45.94435" lon="4.72854">
        <ele>166</ele>
        <time>2017-08-20T09:58:09Z</time>
      </trkpt>
      <trkpt lat="45.94434" lon="4.72844">
        <ele>166</ele>
        <time>2017-08-20T09:58:10Z</time>
      </trkpt>
      <trkpt lat="45.94433" lon="4.72834">
        <ele>166</ele>
        <time>2017-08-20T09:58:11Z</time>
      </trkpt>
      <trkpt lat="45.94431" lon="4.72824">
        <ele>167</ele>
        <time>2017-08-20T09:58:12Z</time>
      </trkpt>
      <trkpt lat="45.9443" lon="4.72813">
        <ele>167</ele>
        <time>2017-08-20T09:58:13Z</time>
      </trkpt>
      <trkpt lat="45.94428" lon="4.72803">
        <ele>167</ele>
        <time>2017-08-20T09:58:14Z</time>
      </trkpt>
      <trkpt lat="45.94427" lon="4.72792">
        <ele>168</ele>
        <time>2017-08-20T09:58:15Z</time>
      </trkpt>
      <trkpt lat="45.94426" lon="4.7278">
        <ele>168</ele>
        <time>2017-08-20T09:58:16Z</time>
      </trkpt>
      <trkpt lat="45.94425" lon="4.72769">
        <ele>169</ele>
        <time>2017-08-20T09:58:17Z</time>
      </trkpt>
      <trkpt lat="45.94424" lon="4.72758">
        <ele>170</ele>
        <time>2017-08-20T09:58:18Z</time>
      </trkpt>
      <trkpt lat="45.94422" lon="4.72747">
        <ele>171</ele>
        <time>2017-08-20T09:58:19Z</time>
      </trkpt>
      <trkpt lat="45.94421" lon="4.72736">
        <ele>171</ele>
        <time>2017-08-20T09:58:20Z</time>
      </trkpt>
      <trkpt lat="45.9442" lon="4.72725">
        <ele>171</ele>
        <time>2017-08-20T09:58:21Z</time>
      </trkpt>
      <trkpt lat="45.94419" lon="4.72715">
        <ele>172</ele>
        <time>2017-08-20T09:58:22Z</time>
      </trkpt>
      <trkpt lat="45.94418" lon="4.72704">
        <ele>172</ele>
        <time>2017-08-20T09:58:23Z</time>
      </trkpt>
      <trkpt lat="45.94417" lon="4.72694">
        <ele>173</ele>
        <time>2017-08-20T09:58:24Z</time>
      </trkpt>
      <trkpt lat="45.94416" lon="4.72684">
        <ele>173</ele>
        <time>2017-08-20T09:58:25Z</time>
      </trkpt>
      <trkpt lat="45.94415" lon="4.72673">
        <ele>174</ele>
        <time>2017-08-20T09:58:26Z</time>
      </trkpt>
      <trkpt lat="45.94414" lon="4.72663">
        <ele>174</ele>
        <time>2017-08-20T09:58:27Z</time>
      </trkpt>
      <trkpt lat="45.94413" lon="4.72653">
        <ele>174</ele>
        <time>2017-08-20T09:58:28Z</time>
      </trkpt>
      <trkpt lat="45.94412" lon="4.72643">
        <ele>174</ele>
        <time>2017-08-20T09:58:29Z</time>
      </trkpt>
      <trkpt lat="45.94411" lon="4.72633">
        <ele>174</ele>
        <time>2017-08-20T09:58:30Z</time>
      </trkpt>
      <trkpt lat="45.94409" lon="4.72624">
        <ele>173</ele>
        <time>2017-08-20T09:58:31Z</time>
      </trkpt>
      <trkpt lat="45.94408" lon="4.72615">
        <ele>173</ele>
        <time>2017-08-20T09:58:32Z</time>
      </trkpt>
      <trkpt lat="45.94406" lon="4.72607">
        <ele>173</ele>
        <time>2017-08-20T09:58:33Z</time>
      </trkpt>
      <trkpt lat="45.94404" lon="4.72598">
        <ele>173</ele>
        <time>2017-08-20T09:58:34Z</time>
      </trkpt>
      <trkpt lat="45.94403" lon="4.7259">
        <ele>173</ele>
        <time>2017-08-20T09:58:35Z</time>
      </trkpt>
      <trkpt lat="45.94401" lon="4.72581">
        <ele>173</ele>
        <time>2017-08-20T09:58:36Z</time>
      </trkpt>
      <trkpt lat="45.944" lon="4.72573">
        <ele>173</ele>
        <time>2017-08-20T09:58:37Z</time>
      </trkpt>
      <trkpt lat="45.94399" lon="4.72565">
        <ele>173</ele>
        <time>2017-08-20T09:58:38Z</time>
      </trkpt>
      <trkpt lat="45.94398" lon="4.72558">
        <ele>173</ele>
        <time>2017-08-20T09:58:39Z</time>
      </trkpt>
      <trkpt lat="45.94396" lon="4.7255">
        <ele>173</ele>
        <time>2017-08-20T09:58:40Z</time>
      </trkpt>
      <trkpt lat="45.94394" lon="4.72542">
        <ele>174</ele>
        <time>2017-08-20T09:58:41Z</time>
      </trkpt>
      <trkpt lat="45.94392" lon="4.72533">
        <ele>174</ele>
        <time>2017-08-20T09:58:42Z</time>
      </trkpt>
      <trkpt lat="45.9439" lon="4.72523">
        <ele>174</ele>
        <time>2017-08-20T09:58:43Z</time>
      </trkpt>
      <trkpt lat="45.94388" lon="4.72514">
        <ele>174</ele>
        <time>2017-08-20T09:58:44Z</time>
      </trkpt>
      <trkpt lat="45.94385" lon="4.72505">
        <ele>174</ele>
        <time>2017-08-20T09:58:45Z</time>
      </trkpt>
      <trkpt lat="45.94382" lon="4.72496">
        <ele>173</ele>
        <time>2017-08-20T09:58:46Z</time>
      </trkpt>
      <trkpt lat="45.94379" lon="4.72487">
        <ele>173</ele>
        <time>2017-08-20T09:58:47Z</time>
      </trkpt>
      <trkpt lat="45.94376" lon="4.72478">
        <ele>173</ele>
        <time>2017-08-20T09:58:48Z</time>
      </trkpt>
      <trkpt lat="45.94372" lon="4.72468">
        <ele>173</ele>
        <time>2017-08-20T09:58:49Z</time>
      </trkpt>
      <trkpt lat="45.94369" lon="4.72459">
        <ele>173</ele>
        <time>2017-08-20T09:58:50Z</time>
      </trkpt>
      <trkpt lat="45.94367" lon="4.72451">
        <ele>173</ele>
        <time>2017-08-20T09:58:51Z</time>
      </trkpt>
      <trkpt lat="45.94364" lon="4.72442">
        <ele>173</ele>
        <time>2017-08-20T09:58:52Z</time>
      </trkpt>
      <trkpt lat="45.9436" lon="4.72434">
        <ele>173</ele>
        <time>2017-08-20T09:58:53Z</time>
      </trkpt>
      <trkpt lat="45.94356" lon="4.72426">
        <ele>173</ele>
        <time>2017-08-20T09:58:54Z</time>
      </trkpt>
      <trkpt lat="45.94352" lon="4.72419">
        <ele>173</ele>
        <time>2017-08-20T09:58:55Z</time>
      </trkpt>
      <trkpt lat="45.94348" lon="4.72411">
        <ele>173</ele>
        <time>2017-08-20T09:58:56Z</time>
      </trkpt>
      <trkpt lat="45.94345" lon="4.72405">
        <ele>173</ele>
        <time>2017-08-20T09:58:57Z</time>
      </trkpt>
      <trkpt lat="45.9434" lon="4.72397">
        <ele>172</ele>
        <time>2017-08-20T09:58:58Z</time>
      </trkpt>
      <trkpt lat="45.94337" lon="4.72391">
        <ele>172</ele>
        <time>2017-08-20T09:58:59Z</time>
      </trkpt>
      <trkpt lat="45.94334" lon="4.72384">
        <ele>172</ele>
        <time>2017-08-20T09:59:00Z</time>
      </trkpt>
      <trkpt lat="45.9433" lon="4.72378">
        <ele>172</ele>
        <time>2017-08-20T09:59:01Z</time>
      </trkpt>
      <trkpt lat="45.94327" lon="4.72372">
        <ele>172</ele>
        <time>2017-08-20T09:59:02Z</time>
      </trkpt>
      <trkpt lat="45.94325" lon="4.72365">
        <ele>172</ele>
        <time>2017-08-20T09:59:03Z</time>
      </trkpt>
      <trkpt lat="45.94322" lon="4.72356">
        <ele>172</ele>
        <time>2017-08-20T09:59:04Z</time>
      </trkpt>
      <trkpt lat="45.94318" lon="4.72349">
        <ele>172</ele>
        <time>2017-08-20T09:59:05Z</time>
      </trkpt>
      <trkpt lat="45.94317" lon="4.72342">
        <ele>172</ele>
        <time>2017-08-20T09:59:06Z</time>
      </trkpt>
      <trkpt lat="45.94314" lon="4.72333">
        <ele>172</ele>
        <time>2017-08-20T09:59:07Z</time>
      </trkpt>
      <trkpt lat="45.94311" lon="4.72325">
        <ele>172</ele>
        <time>2017-08-20T09:59:08Z</time>
      </trkpt>
      <trkpt lat="45.94306" lon="4.72318">
        <ele>171</ele>
        <time>2017-08-20T09:59:09Z</time>
      </trkpt>
      <trkpt lat="45.94303" lon="4.72311">
        <ele>171</ele>
        <time>2017-08-20T09:59:10Z</time>
      </trkpt>
      <trkpt lat="45.943" lon="4.72303">
        <ele>171</ele>
        <time>2017-08-20T09:59:11Z</time>
      </trkpt>
      <trkpt lat="45.94297" lon="4.72296">
        <ele>171</ele>
        <time>2017-08-20T09:59:12Z</time>
      </trkpt>
      <trkpt lat="45.94293" lon="4.72289">
        <ele>171</ele>
        <time>2017-08-20T09:59:13Z</time>
      </trkpt>
      <trkpt lat="45.9429" lon="4.72284">
        <ele>171</ele>
        <time>2017-08-20T09:59:14Z</time>
      </trkpt>
      <trkpt lat="45.94286" lon="4.72279">
        <ele>171</ele>
        <time>2017-08-20T09:59:15Z</time>
      </trkpt>
      <trkpt lat="45.94281" lon="4.72276">
        <ele>171</ele>
        <time>2017-08-20T09:59:16Z</time>
      </trkpt>
      <trkpt lat="45.94275" lon="4.72274">
        <ele>171</ele>
        <time>2017-08-20T09:59:17Z</time>
      </trkpt>
      <trkpt lat="45.94268" lon="4.72274">
        <ele>171</ele>
        <time>2017-08-20T09:59:18Z</time>
      </trkpt>
      <trkpt lat="45.94262" lon="4.72276">
        <ele>171</ele>
        <time>2017-08-20T09:59:19Z</time>
      </trkpt>
      <trkpt lat="45.94256" lon="4.72278">
        <ele>171</ele>
        <time>2017-08-20T09:59:20Z</time>
      </trkpt>
      <trkpt lat="45.94249" lon="4.7228">
        <ele>171</ele>
        <time>2017-08-20T09:59:21Z</time>
      </trkpt>
      <trkpt lat="45.94242" lon="4.72281">
        <ele>171</ele>
        <time>2017-08-20T09:59:22Z</time>
      </trkpt>
      <trkpt lat="45.94235" lon="4.72283">
        <ele>171</ele>
        <time>2017-08-20T09:59:23Z</time>
      </trkpt>
      <trkpt lat="45.94228" lon="4.72285">
        <ele>171</ele>
        <time>2017-08-20T09:59:24Z</time>
      </trkpt>
      <trkpt lat="45.94221" lon="4.72286">
        <ele>171</ele>
        <time>2017-08-20T09:59:25Z</time>
      </trkpt>
      <trkpt lat="45.94215" lon="4.72287">
        <ele>171</ele>
        <time>2017-08-20T09:59:26Z</time>
      </trkpt>
      <trkpt lat="45.94208" lon="4.72287">
        <ele>171</ele>
        <time>2017-08-20T09:59:27Z</time>
      </trkpt>
      <trkpt lat="45.94202" lon="4.72287">
        <ele>171</ele>
        <time>2017-08-20T09:59:28Z</time>
      </trkpt>
      <trkpt lat="45.94195" lon="4.72287">
        <ele>171</ele>
        <time>2017-08-20T09:59:29Z</time>
      </trkpt>
      <trkpt lat="45.94189" lon="4.72287">
        <ele>171</ele>
        <time>2017-08-20T09:59:30Z</time>
      </trkpt>
      <trkpt lat="45.94183" lon="4.72287">
        <ele>171</ele>
        <time>2017-08-20T09:59:31Z</time>
      </trkpt>
      <trkpt lat="45.94178" lon="4.72286">
        <ele>171</ele>
        <time>2017-08-20T09:59:32Z</time>
      </trkpt>
      <trkpt lat="45.94172" lon="4.72285">
        <ele>171</ele>
        <time>2017-08-20T09:59:33Z</time>
      </trkpt>
      <trkpt lat="45.94165" lon="4.72284">
        <ele>171</ele>
        <time>2017-08-20T09:59:34Z</time>
      </trkpt>
      <trkpt lat="45.94158" lon="4.72282">
        <ele>171</ele>
        <time>2017-08-20T09:59:35Z</time>
      </trkpt>
      <trkpt lat="45.94151" lon="4.7228">
        <ele>171</ele>
        <time>2017-08-20T09:59:36Z</time>
      </trkpt>
      <trkpt lat="45.94145" lon="4.72278">
        <ele>171</ele>
        <time>2017-08-20T09:59:37Z</time>
      </trkpt>
      <trkpt lat="45.94139" lon="4.72275">
        <ele>171</ele>
        <time>2017-08-20T09:59:38Z</time>
      </trkpt>
      <trkpt lat="45.94134" lon="4.72272">
        <ele>171</ele>
        <time>2017-08-20T09:59:39Z</time>
      </trkpt>
      <trkpt lat="45.94129" lon="4.7227">
        <ele>171</ele>
        <time>2017-08-20T09:59:40Z</time>
      </trkpt>
      <trkpt lat="45.94124" lon="4.72268">
        <ele>171</ele>
        <time>2017-08-20T09:59:41Z</time>
      </trkpt>
      <trkpt lat="45.94119" lon="4.72265">
        <ele>171</ele>
        <time>2017-08-20T09:59:42Z</time>
      </trkpt>
      <trkpt lat="45.94114" lon="4.72263">
        <ele>171</ele>
        <time>2017-08-20T09:59:43Z</time>
      </trkpt>
      <trkpt lat="45.94109" lon="4.72263">
        <ele>171</ele>
        <time>2017-08-20T09:59:44Z</time>
      </trkpt>
      <trkpt lat="45.94104" lon="4.72262">
        <ele>171</ele>
        <time>2017-08-20T09:59:45Z</time>
      </trkpt>
      <trkpt lat="45.94099" lon="4.72262">
        <ele>171</ele>
        <time>2017-08-20T09:59:46Z</time>
      </trkpt>
      <trkpt lat="45.94093" lon="4.72262">
        <ele>171</ele>
        <time>2017-08-20T09:59:47Z</time>
      </trkpt>
      <trkpt lat="45.94087" lon="4.72263">
        <ele>171</ele>
        <time>2017-08-20T09:59:48Z</time>
      </trkpt>
      <trkpt lat="45.94081" lon="4.72266">
        <ele>171</ele>
        <time>2017-08-20T09:59:49Z</time>
      </trkpt>
      <trkpt lat="45.94076" lon="4.7227">
        <ele>171</ele>
        <time>2017-08-20T09:59:50Z</time>
      </trkpt>
      <trkpt lat="45.9407" lon="4.72275">
        <ele>171</ele>
        <time>2017-08-20T09:59:51Z</time>
      </trkpt>
      <trkpt lat="45.94064" lon="4.7228">
        <ele>171</ele>
        <time>2017-08-20T09:59:52Z</time>
      </trkpt>
      <trkpt lat="45.94058" lon="4.72286">
        <ele>171</ele>
        <time>2017-08-20T09:59:53Z</time>
      </trkpt>
      <trkpt lat="45.94052" lon="4.72292">
        <ele>171</ele>
        <time>2017-08-20T09:59:54Z</time>
      </trkpt>
      <trkpt lat="45.94047" lon="4.72298">
        <ele>171</ele>
        <time>2017-08-20T09:59:55Z</time>
      </trkpt>
      <trkpt lat="45.94042" lon="4.72304">
        <ele>171</ele>
        <time>2017-08-20T09:59:56Z</time>
      </trkpt>
      <trkpt lat="45.94037" lon="4.7231">
        <ele>171</ele>
        <time>2017-08-20T09:59:57Z</time>
      </trkpt>
      <trkpt lat="45.94032" lon="4.72316">
        <ele>171</ele>
        <time>2017-08-20T09:59:58Z</time>
      </trkpt>
      <trkpt lat="45.94027" lon="4.72322">
        <ele>171</ele>
        <time>2017-08-20T09:59:59Z</time>
      </trkpt>
      <trkpt lat="45.94022" lon="4.72328">
        <ele>171</ele>
        <time>2017-08-20T10:00:00Z</time>
      </trkpt>
      <trkpt lat="45.94017" lon="4.72334">
        <ele>171</ele>
        <time>2017-08-20T10:00:01Z</time>
      </trkpt>
      <trkpt lat="45.94012" lon="4.7234">
        <ele>171</ele>
        <time>2017-08-20T10:00:02Z</time>
      </trkpt>
      <trkpt lat="45.94007" lon="4.72346">
        <ele>171</ele>
        <time>2017-08-20T10:00:03Z</time>
      </trkpt>
      <trkpt lat="45.94003" lon="4.72351">
        <ele>171</ele>
        <time>2017-08-20T10:00:04Z</time>
      </trkpt>
      <trkpt lat="45.93998" lon="4.72357">
        <ele>171</ele>
        <time>2017-08-20T10:00:05Z</time>
      </trkpt>
      <trkpt lat="45.93994" lon="4.72363">
        <ele>171</ele>
        <time>2017-08-20T10:00:06Z</time>
      </trkpt>
      <trkpt lat="45.93989" lon="4.72369">
        <ele>171</ele>
        <time>2017-08-20T10:00:07Z</time>
      </trkpt>
      <trkpt lat="45.93984" lon="4.72374">
        <ele>171</ele>
        <time>2017-08-20T10:00:08Z</time>
      </trkpt>
      <trkpt lat="45.9398" lon="4.7238">
        <ele>171</ele>
        <time>2017-08-20T10:00:09Z</time>
      </trkpt>
      <trkpt lat="45.93975" lon="4.72385">
        <ele>171</ele>
        <time>2017-08-20T10:00:10Z</time>
      </trkpt>
      <trkpt lat="45.93971" lon="4.72391">
        <ele>171</ele>
        <time>2017-08-20T10:00:11Z</time>
      </trkpt>
      <trkpt lat="45.93967" lon="4.72396">
        <ele>171</ele>
        <time>2017-08-20T10:00:12Z</time>
      </trkpt>
      <trkpt lat="45.93962" lon="4.72402">
        <ele>171</ele>
        <time>2017-08-20T10:00:13Z</time>
      </trkpt>
      <trkpt lat="45.93958" lon="4.72409">
        <ele>171</ele>
        <time>2017-08-20T10:00:14Z</time>
      </trkpt>
      <trkpt lat="45.93953" lon="4.72415">
        <ele>171</ele>
        <time>2017-08-20T10:00:15Z</time>
      </trkpt>
      <trkpt lat="45.93948" lon="4.72421">
        <ele>171</ele>
        <time>2017-08-20T10:00:16Z</time>
      </trkpt>
      <trkpt lat="45.93943" lon="4.72427">
        <ele>171</ele>
        <time>2017-08-20T10:00:17Z</time>
      </trkpt>
      <trkpt lat="45.93938" lon="4.72433">
        <ele>171</ele>
        <time>2017-08-20T10:00:18Z</time>
      </trkpt>
      <trkpt lat="45.93933" lon="4.7244">
        <ele>171</ele>
        <time>2017-08-20T10:00:19Z</time>
      </trkpt>
      <trkpt lat="45.93928" lon="4.72446">
        <ele>171</ele>
        <time>2017-08-20T10:00:20Z</time>
      </trkpt>
      <trkpt lat="45.93923" lon="4.72452">
        <ele>171</ele>
        <time>2017-08-20T10:00:21Z</time>
      </trkpt>
      <trkpt lat="45.93919" lon="4.72458">
        <ele>171</ele>
        <time>2017-08-20T10:00:22Z</time>
      </trkpt>
      <trkpt lat="45.93915" lon="4.72463">
        <ele>172</ele>
        <time>2017-08-20T10:00:23Z</time>
      </trkpt>
      <trkpt lat="45.93911" lon="4.72468">
        <ele>172</ele>
        <time>2017-08-20T10:00:24Z</time>
      </trkpt>
      <trkpt lat="45.93907" lon="4.72473">
        <ele>172</ele>
        <time>2017-08-20T10:00:25Z</time>
      </trkpt>
      <trkpt lat="45.93903" lon="4.72478">
        <ele>172</ele>
        <time>2017-08-20T10:00:26Z</time>
      </trkpt>
      <trkpt lat="45.93899" lon="4.72483">
        <ele>172</ele>
        <time>2017-08-20T10:00:27Z</time>
      </trkpt>
      <trkpt lat="45.93895" lon="4.72488">
        <ele>172</ele>
        <time>2017-08-20T10:00:28Z</time>
      </trkpt>
      <trkpt lat="45.93891" lon="4.72494">
        <ele>172</ele>
        <time>2017-08-20T10:00:29Z</time>
      </trkpt>
      <trkpt lat="45.93886" lon="4.72499">
        <ele>172</ele>
        <time>2017-08-20T10:00:30Z</time>
      </trkpt>
      <trkpt lat="45.93882" lon="4.72504">
        <ele>173</ele>
        <time>2017-08-20T10:00:31Z</time>
      </trkpt>
      <trkpt lat="45.93877" lon="4.7251">
        <ele>173</ele>
        <time>2017-08-20T10:00:32Z</time>
      </trkpt>
      <trkpt lat="45.93872" lon="4.72514">
        <ele>173</ele>
        <time>2017-08-20T10:00:33Z</time>
      </trkpt>
      <trkpt lat="45.93867" lon="4.72516">
        <ele>173</ele>
        <time>2017-08-20T10:00:34Z</time>
      </trkpt>
      <trkpt lat="45.93861" lon="4.72516">
        <ele>173</ele>
        <time>2017-08-20T10:00:35Z</time>
      </trkpt>
      <trkpt lat="45.93857" lon="4.72513">
        <ele>173</ele>
        <time>2017-08-20T10:00:36Z</time>
      </trkpt>
      <trkpt lat="45.93853" lon="4.7251">
        <ele>173</ele>
        <time>2017-08-20T10:00:37Z</time>
      </trkpt>
      <trkpt lat="45.93849" lon="4.72506">
        <ele>174</ele>
        <time>2017-08-20T10:00:38Z</time>
      </trkpt>
      <trkpt lat="45.93845" lon="4.72502">
        <ele>174</ele>
        <time>2017-08-20T10:00:39Z</time>
      </trkpt>
      <trkpt lat="45.93841" lon="4.72498">
        <ele>174</ele>
        <time>2017-08-20T10:00:40Z</time>
      </trkpt>
      <trkpt lat="45.93836" lon="4.72492">
        <ele>173</ele>
        <time>2017-08-20T10:00:41Z</time>
      </trkpt>
      <trkpt lat="45.9383" lon="4.72487">
        <ele>173</ele>
        <time>2017-08-20T10:00:42Z</time>
      </trkpt>
      <trkpt lat="45.93827" lon="4.7248">
        <ele>173</ele>
        <time>2017-08-20T10:00:43Z</time>
      </trkpt>
      <trkpt lat="45.93822" lon="4.72473">
        <ele>172</ele>
        <time>2017-08-20T10:00:44Z</time>
      </trkpt>
      <trkpt lat="45.93816" lon="4.72469">
        <ele>172</ele>
        <time>2017-08-20T10:00:45Z</time>
      </trkpt>
      <trkpt lat="45.93811" lon="4.72464">
        <ele>172</ele>
        <time>2017-08-20T10:00:46Z</time>
      </trkpt>
      <trkpt lat="45.93804" lon="4.72461">
        <ele>172</ele>
        <time>2017-08-20T10:00:47Z</time>
      </trkpt>
      <trkpt lat="45.93799" lon="4.72456">
        <ele>172</ele>
        <time>2017-08-20T10:00:48Z</time>
      </trkpt>
      <trkpt lat="45.93796" lon="4.72453">
        <ele>172</ele>
        <time>2017-08-20T10:00:49Z</time>
      </trkpt>
      <trkpt lat="45.93791" lon="4.72448">
        <ele>172</ele>
        <time>2017-08-20T10:00:50Z</time>
      </trkpt>
      <trkpt lat="45.93788" lon="4.72444">
        <ele>172</ele>
        <time>2017-08-20T10:00:51Z</time>
      </trkpt>
      <trkpt lat="45.93784" lon="4.7244">
        <ele>172</ele>
        <time>2017-08-20T10:00:52Z</time>
      </trkpt>
      <trkpt lat="45.9378" lon="4.72436">
        <ele>172</ele>
        <time>2017-08-20T10:00:53Z</time>
      </trkpt>
      <trkpt lat="45.93777" lon="4.72431">
        <ele>171</ele>
        <time>2017-08-20T10:00:54Z</time>
      </trkpt>
      <trkpt lat="45.93773" lon="4.72426">
        <ele>171</ele>
        <time>2017-08-20T10:00:55Z</time>
      </trkpt>
      <trkpt lat="45.93769" lon="4.72422">
        <ele>171</ele>
        <time>2017-08-20T10:00:56Z</time>
      </trkpt>
      <trkpt lat="45.93765" lon="4.72417">
        <ele>171</ele>
        <time>2017-08-20T10:00:57Z</time>
      </trkpt>
      <trkpt lat="45.93761" lon="4.72412">
        <ele>171</ele>
        <time>2017-08-20T10:00:58Z</time>
      </trkpt>
      <trkpt lat="45.93757" lon="4.72407">
        <ele>171</ele>
        <time>2017-08-20T10:00:59Z</time>
      </trkpt>
      <trkpt lat="45.93752" lon="4.72402">
        <ele>171</ele>
        <time>2017-08-20T10:01:00Z</time>
      </trkpt>
      <trkpt lat="45.93747" lon="4.72397">
        <ele>171</ele>
        <time>2017-08-20T10:01:01Z</time>
      </trkpt>
      <trkpt lat="45.93743" lon="4.72393">
        <ele>171</ele>
        <time>2017-08-20T10:01:02Z</time>
      </trkpt>
      <trkpt lat="45.93739" lon="4.72388">
        <ele>171</ele>
        <time>2017-08-20T10:01:03Z</time>
      </trkpt>
      <trkpt lat="45.93735" lon="4.72384">
        <ele>171</ele>
        <time>2017-08-20T10:01:04Z</time>
      </trkpt>
      <trkpt lat="45.93731" lon="4.72379">
        <ele>171</ele>
        <time>2017-08-20T10:01:05Z</time>
      </trkpt>
      <trkpt lat="45.93728" lon="4.72375">
        <ele>172</ele>
        <time>2017-08-20T10:01:06Z</time>
      </trkpt>
      <trkpt lat="45.93723" lon="4.7237">
        <ele>172</ele>
        <time>2017-08-20T10:01:07Z</time>
      </trkpt>
      <trkpt lat="45.93717" lon="4.72365">
        <ele>172</ele>
        <time>2017-08-20T10:01:08Z</time>
      </trkpt>
      <trkpt lat="45.93713" lon="4.72362">
        <ele>172</ele>
        <time>2017-08-20T10:01:09Z</time>
      </trkpt>
      <trkpt lat="45.93708" lon="4.72359">
        <ele>171</ele>
        <time>2017-08-20T10:01:10Z</time>
      </trkpt>
      <trkpt lat="45.93704" lon="4.72355">
        <ele>171</ele>
        <time>2017-08-20T10:01:11Z</time>
      </trkpt>
      <trkpt lat="45.93699" lon="4.72351">
        <ele>171</ele>
        <time>2017-08-20T10:01:12Z</time>
      </trkpt>
      <trkpt lat="45.93695" lon="4.72347">
        <ele>171</ele>
        <time>2017-08-20T10:01:13Z</time>
      </trkpt>
      <trkpt lat="45.93691" lon="4.72341">
        <ele>171</ele>
        <time>2017-08-20T10:01:14Z</time>
      </trkpt>
      <trkpt lat="45.93688" lon="4.72336">
        <ele>171</ele>
        <time>2017-08-20T10:01:15Z</time>
      </trkpt>
      <trkpt lat="45.93685" lon="4.72332">
        <ele>172</ele>
        <time>2017-08-20T10:01:16Z</time>
      </trkpt>
      <trkpt lat="45.93682" lon="4.72325">
        <ele>171</ele>
        <time>2017-08-20T10:01:17Z</time>
      </trkpt>
      <trkpt lat="45.93679" lon="4.72321">
        <ele>172</ele>
        <time>2017-08-20T10:01:18Z</time>
      </trkpt>
      <trkpt lat="45.93676" lon="4.72316">
        <ele>172</ele>
        <time>2017-08-20T10:01:19Z</time>
      </trkpt>
      <trkpt lat="45.93673" lon="4.72312">
        <ele>172</ele>
        <time>2017-08-20T10:01:20Z</time>
      </trkpt>
      <trkpt lat="45.93668" lon="4.72308">
        <ele>172</ele>
        <time>2017-08-20T10:01:21Z</time>
      </trkpt>
      <trkpt lat="45.93664" lon="4.72304">
        <ele>172</ele>
        <time>2017-08-20T10:01:22Z</time>
      </trkpt>
      <trkpt lat="45.93659" lon="4.723">
        <ele>172</ele>
        <time>2017-08-20T10:01:23Z</time>
      </trkpt>
      <trkpt lat="45.93655" lon="4.72295">
        <ele>172</ele>
        <time>2017-08-20T10:01:24Z</time>
      </trkpt>
      <trkpt lat="45.9365" lon="4.7229">
        <ele>172</ele>
        <time>2017-08-20T10:01:25Z</time>
      </trkpt>
      <trkpt lat="45.93645" lon="4.72285">
        <ele>172</ele>
        <time>2017-08-20T10:01:26Z</time>
      </trkpt>
      <trkpt lat="45.9364" lon="4.7228">
        <ele>172</ele>
        <time>2017-08-20T10:01:27Z</time>
      </trkpt>
      <trkpt lat="45.93635" lon="4.72276">
        <ele>172</ele>
        <time>2017-08-20T10:01:28Z</time>
      </trkpt>
      <trkpt lat="45.93631" lon="4.72272">
        <ele>172</ele>
        <time>2017-08-20T10:01:29Z</time>
      </trkpt>
      <trkpt lat="45.93627" lon="4.72268">
        <ele>172</ele>
        <time>2017-08-20T10:01:30Z</time>
      </trkpt>
      <trkpt lat="45.93622" lon="4.72264">
        <ele>172</ele>
        <time>2017-08-20T10:01:31Z</time>
      </trkpt>
      <trkpt lat="45.93617" lon="4.72261">
        <ele>172</ele>
        <time>2017-08-20T10:01:32Z</time>
      </trkpt>
      <trkpt lat="45.93613" lon="4.72257">
        <ele>172</ele>
        <time>2017-08-20T10:01:33Z</time>
      </trkpt>
      <trkpt lat="45.93609" lon="4.72253">
        <ele>173</ele>
        <time>2017-08-20T10:01:34Z</time>
      </trkpt>
      <trkpt lat="45.93601" lon="4.72247">
        <ele>173</ele>
        <time>2017-08-20T10:01:36Z</time>
      </trkpt>
      <trkpt lat="45.93598" lon="4.72244">
        <ele>173</ele>
        <time>2017-08-20T10:01:37Z</time>
      </trkpt>
      <trkpt lat="45.93594" lon="4.72241">
        <ele>173</ele>
        <time>2017-08-20T10:01:38Z</time>
      </trkpt>
      <trkpt lat="45.93592" lon="4.72233">
        <ele>173</ele>
        <time>2017-08-20T10:01:39Z</time>
      </trkpt>
      <trkpt lat="45.93587" lon="4.72229">
        <ele>173</ele>
        <time>2017-08-20T10:01:40Z</time>
      </trkpt>
      <trkpt lat="45.93583" lon="4.72226">
        <ele>173</ele>
        <time>2017-08-20T10:01:41Z</time>
      </trkpt>
      <trkpt lat="45.93576" lon="4.72221">
        <ele>173</ele>
        <time>2017-08-20T10:01:43Z</time>
      </trkpt>
      <trkpt lat="45.93574" lon="4.72219">
        <ele>173</ele>
        <time>2017-08-20T10:01:44Z</time>
      </trkpt>
      <trkpt lat="45.93567" lon="4.72217">
        <ele>173</ele>
        <time>2017-08-20T10:01:47Z</time>
      </trkpt>
      <trkpt lat="45.93565" lon="4.72216">
        <ele>173</ele>
        <time>2017-08-20T10:01:48Z</time>
      </trkpt>
      <trkpt lat="45.93563" lon="4.72215">
        <ele>173</ele>
        <time>2017-08-20T10:01:49Z</time>
      </trkpt>
      <trkpt lat="45.93562" lon="4.72215">
        <ele>173</ele>
        <time>2017-08-20T10:01:50Z</time>
      </trkpt>
      <trkpt lat="45.9356" lon="4.72214">
        <ele>173</ele>
        <time>2017-08-20T10:01:55Z</time>
      </trkpt>
      <trkpt lat="45.93558" lon="4.72216">
        <ele>173</ele>
        <time>2017-08-20T10:01:56Z</time>
      </trkpt>
      <trkpt lat="45.93552" lon="4.72224">
        <ele>173</ele>
        <time>2017-08-20T10:01:59Z</time>
      </trkpt>
      <trkpt lat="45.9355" lon="4.72227">
        <ele>172</ele>
        <time>2017-08-20T10:02:00Z</time>
      </trkpt>
      <trkpt lat="45.93545" lon="4.72234">
        <ele>172</ele>
        <time>2017-08-20T10:02:02Z</time>
      </trkpt>
      <trkpt lat="45.93542" lon="4.72238">
        <ele>172</ele>
        <time>2017-08-20T10:02:03Z</time>
      </trkpt>
      <trkpt lat="45.93538" lon="4.72247">
        <ele>172</ele>
        <time>2017-08-20T10:02:05Z</time>
      </trkpt>
      <trkpt lat="45.93535" lon="4.72251">
        <ele>172</ele>
        <time>2017-08-20T10:02:06Z</time>
      </trkpt>
      <trkpt lat="45.93531" lon="4.72261">
        <ele>172</ele>
        <time>2017-08-20T10:02:08Z</time>
      </trkpt>
      <trkpt lat="45.93528" lon="4.72265">
        <ele>172</ele>
        <time>2017-08-20T10:02:09Z</time>
      </trkpt>
      <trkpt lat="45.93525" lon="4.72272">
        <ele>172</ele>
        <time>2017-08-20T10:02:10Z</time>
      </trkpt>
      <trkpt lat="45.93521" lon="4.72278">
        <ele>172</ele>
        <time>2017-08-20T10:02:11Z</time>
      </trkpt>
      <trkpt lat="45.93518" lon="4.72284">
        <ele>172</ele>
        <time>2017-08-20T10:02:12Z</time>
      </trkpt>
      <trkpt lat="45.93515" lon="4.72291">
        <ele>172</ele>
        <time>2017-08-20T10:02:13Z</time>
      </trkpt>
      <trkpt lat="45.93511" lon="4.72297">
        <ele>172</ele>
        <time>2017-08-20T10:02:14Z</time>
      </trkpt>
      <trkpt lat="45.93507" lon="4.72303">
        <ele>172</ele>
        <time>2017-08-20T10:02:15Z</time>
      </trkpt>
      <trkpt lat="45.93503" lon="4.72309">
        <ele>173</ele>
        <time>2017-08-20T10:02:16Z</time>
      </trkpt>
      <trkpt lat="45.93498" lon="4.72315">
        <ele>173</ele>
        <time>2017-08-20T10:02:17Z</time>
      </trkpt>
      <trkpt lat="45.93494" lon="4.72321">
        <ele>173</ele>
        <time>2017-08-20T10:02:18Z</time>
      </trkpt>
      <trkpt lat="45.93489" lon="4.72328">
        <ele>173</ele>
        <time>2017-08-20T10:02:19Z</time>
      </trkpt>
      <trkpt lat="45.93485" lon="4.72334">
        <ele>173</ele>
        <time>2017-08-20T10:02:20Z</time>
      </trkpt>
      <trkpt lat="45.93481" lon="4.7234">
        <ele>173</ele>
        <time>2017-08-20T10:02:21Z</time>
      </trkpt>
      <trkpt lat="45.93476" lon="4.72346">
        <ele>173</ele>
        <time>2017-08-20T10:02:22Z</time>
      </trkpt>
      <trkpt lat="45.93472" lon="4.72351">
        <ele>173</ele>
        <time>2017-08-20T10:02:23Z</time>
      </trkpt>
      <trkpt lat="45.93467" lon="4.72357">
        <ele>173</ele>
        <time>2017-08-20T10:02:24Z</time>
      </trkpt>
      <trkpt lat="45.93463" lon="4.72363">
        <ele>173</ele>
        <time>2017-08-20T10:02:25Z</time>
      </trkpt>
      <trkpt lat="45.93459" lon="4.72369">
        <ele>173</ele>
        <time>2017-08-20T10:02:26Z</time>
      </trkpt>
      <trkpt lat="45.93454" lon="4.72374">
        <ele>173</ele>
        <time>2017-08-20T10:02:27Z</time>
      </trkpt>
      <trkpt lat="45.93449" lon="4.72379">
        <ele>173</ele>
        <time>2017-08-20T10:02:28Z</time>
      </trkpt>
      <trkpt lat="45.93445" lon="4.72384">
        <ele>173</ele>
        <time>2017-08-20T10:02:29Z</time>
      </trkpt>
      <trkpt lat="45.9344" lon="4.72389">
        <ele>173</ele>
        <time>2017-08-20T10:02:30Z</time>
      </trkpt>
      <trkpt lat="45.93436" lon="4.72394">
        <ele>173</ele>
        <time>2017-08-20T10:02:31Z</time>
      </trkpt>
      <trkpt lat="45.93432" lon="4.72399">
        <ele>174</ele>
        <time>2017-08-20T10:02:32Z</time>
      </trkpt>
      <trkpt lat="45.93427" lon="4.72403">
        <ele>174</ele>
        <time>2017-08-20T10:02:33Z</time>
      </trkpt>
      <trkpt lat="45.93422" lon="4.72405">
        <ele>174</ele>
        <time>2017-08-20T10:02:34Z</time>
      </trkpt>
      <trkpt lat="45.93417" lon="4.72406">
        <ele>174</ele>
        <time>2017-08-20T10:02:35Z</time>
      </trkpt>
      <trkpt lat="45.93412" lon="4.72408">
        <ele>174</ele>
        <time>2017-08-20T10:02:36Z</time>
      </trkpt>
      <trkpt lat="45.93408" lon="4.72408">
        <ele>174</ele>
        <time>2017-08-20T10:02:37Z</time>
      </trkpt>
      <trkpt lat="45.93401" lon="4.72406">
        <ele>174</ele>
        <time>2017-08-20T10:02:39Z</time>
      </trkpt>
      <trkpt lat="45.93396" lon="4.72405">
        <ele>174</ele>
        <time>2017-08-20T10:02:40Z</time>
      </trkpt>
      <trkpt lat="45.93391" lon="4.72405">
        <ele>174</ele>
        <time>2017-08-20T10:02:41Z</time>
      </trkpt>
      <trkpt lat="45.93387" lon="4.72408">
        <ele>174</ele>
        <time>2017-08-20T10:02:42Z</time>
      </trkpt>
      <trkpt lat="45.93383" lon="4.72417">
        <ele>174</ele>
        <time>2017-08-20T10:02:44Z</time>
      </trkpt>
      <trkpt lat="45.93385" lon="4.72425">
        <ele>173</ele>
        <time>2017-08-20T10:02:45Z</time>
      </trkpt>
      <trkpt lat="45.93387" lon="4.72432">
        <ele>173</ele>
        <time>2017-08-20T10:02:46Z</time>
      </trkpt>
      <trkpt lat="45.93389" lon="4.72441">
        <ele>173</ele>
        <time>2017-08-20T10:02:47Z</time>
      </trkpt>
      <trkpt lat="45.93389" lon="4.72449">
        <ele>173</ele>
        <time>2017-08-20T10:02:48Z</time>
      </trkpt>
      <trkpt lat="45.93388" lon="4.72457">
        <ele>173</ele>
        <time>2017-08-20T10:02:49Z</time>
      </trkpt>
      <trkpt lat="45.93386" lon="4.72464">
        <ele>173</ele>
        <time>2017-08-20T10:02:50Z</time>
      </trkpt>
      <trkpt lat="45.93381" lon="4.72469">
        <ele>173</ele>
        <time>2017-08-20T10:02:51Z</time>
      </trkpt>
      <trkpt lat="45.93377" lon="4.72474">
        <ele>173</ele>
        <time>2017-08-20T10:02:52Z</time>
      </trkpt>
      <trkpt lat="45.93373" lon="4.72479">
        <ele>173</ele>
        <time>2017-08-20T10:02:53Z</time>
      </trkpt>
      <trkpt lat="45.93369" lon="4.72484">
        <ele>173</ele>
        <time>2017-08-20T10:02:54Z</time>
      </trkpt>
      <trkpt lat="45.93365" lon="4.72488">
        <ele>173</ele>
        <time>2017-08-20T10:02:55Z</time>
      </trkpt>
      <trkpt lat="45.93361" lon="4.72493">
        <ele>173</ele>
        <time>2017-08-20T10:02:56Z</time>
      </trkpt>
      <trkpt lat="45.93357" lon="4.72497">
        <ele>173</ele>
        <time>2017-08-20T10:02:57Z</time>
      </trkpt>
      <trkpt lat="45.93353" lon="4.72502">
        <ele>172</ele>
        <time>2017-08-20T10:02:58Z</time>
      </trkpt>
      <trkpt lat="45.93348" lon="4.72507">
        <ele>172</ele>
        <time>2017-08-20T10:02:59Z</time>
      </trkpt>
      <trkpt lat="45.93343" lon="4.72513">
        <ele>172</ele>
        <time>2017-08-20T10:03:00Z</time>
      </trkpt>
      <trkpt lat="45.93339" lon="4.72519">
        <ele>172</ele>
        <time>2017-08-20T10:03:01Z</time>
      </trkpt>
      <trkpt lat="45.93334" lon="4.72526">
        <ele>172</ele>
        <time>2017-08-20T10:03:02Z</time>
      </trkpt>
      <trkpt lat="45.93329" lon="4.72532">
        <ele>172</ele>
        <time>2017-08-20T10:03:03Z</time>
      </trkpt>
      <trkpt lat="45.93323" lon="4.72539">
        <ele>172</ele>
        <time>2017-08-20T10:03:04Z</time>
      </trkpt>
      <trkpt lat="45.93317" lon="4.72545">
        <ele>172</ele>
        <time>2017-08-20T10:03:05Z</time>
      </trkpt>
      <trkpt lat="45.93313" lon="4.72552">
        <ele>172</ele>
        <time>2017-08-20T10:03:06Z</time>
      </trkpt>
      <trkpt lat="45.93307" lon="4.72557">
        <ele>172</ele>
        <time>2017-08-20T10:03:07Z</time>
      </trkpt>
      <trkpt lat="45.93303" lon="4.72563">
        <ele>172</ele>
        <time>2017-08-20T10:03:08Z</time>
      </trkpt>
      <trkpt lat="45.93298" lon="4.72569">
        <ele>172</ele>
        <time>2017-08-20T10:03:09Z</time>
      </trkpt>
      <trkpt lat="45.93293" lon="4.72574">
        <ele>171</ele>
        <time>2017-08-20T10:03:10Z</time>
      </trkpt>
      <trkpt lat="45.93289" lon="4.72579">
        <ele>171</ele>
        <time>2017-08-20T10:03:11Z</time>
      </trkpt>
      <trkpt lat="45.93284" lon="4.72586">
        <ele>170</ele>
        <time>2017-08-20T10:03:12Z</time>
      </trkpt>
      <trkpt lat="45.9328" lon="4.72591">
        <ele>170</ele>
        <time>2017-08-20T10:03:13Z</time>
      </trkpt>
      <trkpt lat="45.93275" lon="4.72597">
        <ele>170</ele>
        <time>2017-08-20T10:03:14Z</time>
      </trkpt>
      <trkpt lat="45.93271" lon="4.72602">
        <ele>170</ele>
        <time>2017-08-20T10:03:15Z</time>
      </trkpt>
      <trkpt lat="45.93266" lon="4.72608">
        <ele>170</ele>
        <time>2017-08-20T10:03:16Z</time>
      </trkpt>
      <trkpt lat="45.9326" lon="4.72613">
        <ele>170</ele>
        <time>2017-08-20T10:03:17Z</time>
      </trkpt>
      <trkpt lat="45.93255" lon="4.72619">
        <ele>170</ele>
        <time>2017-08-20T10:03:18Z</time>
      </trkpt>
      <trkpt lat="45.9325" lon="4.72624">
        <ele>170</ele>
        <time>2017-08-20T10:03:19Z</time>
      </trkpt>
      <trkpt lat="45.93244" lon="4.72631">
        <ele>170</ele>
        <time>2017-08-20T10:03:20Z</time>
      </trkpt>
      <trkpt lat="45.93239" lon="4.72636">
        <ele>170</ele>
        <time>2017-08-20T10:03:21Z</time>
      </trkpt>
      <trkpt lat="45.93234" lon="4.72642">
        <ele>170</ele>
        <time>2017-08-20T10:03:22Z</time>
      </trkpt>
      <trkpt lat="45.93229" lon="4.72648">
        <ele>170</ele>
        <time>2017-08-20T10:03:23Z</time>
      </trkpt>
      <trkpt lat="45.93225" lon="4.72653">
        <ele>170</ele>
        <time>2017-08-20T10:03:24Z</time>
      </trkpt>
      <trkpt lat="45.93221" lon="4.72658">
        <ele>170</ele>
        <time>2017-08-20T10:03:25Z</time>
      </trkpt>
      <trkpt lat="45.93217" lon="4.72663">
        <ele>170</ele>
        <time>2017-08-20T10:03:26Z</time>
      </trkpt>
      <trkpt lat="45.93214" lon="4.72667">
        <ele>169</ele>
        <time>2017-08-20T10:03:27Z</time>
      </trkpt>
      <trkpt lat="45.9321" lon="4.72671">
        <ele>169</ele>
        <time>2017-08-20T10:03:28Z</time>
      </trkpt>
      <trkpt lat="45.93205" lon="4.72676">
        <ele>169</ele>
        <time>2017-08-20T10:03:29Z</time>
      </trkpt>
      <trkpt lat="45.93201" lon="4.72681">
        <ele>169</ele>
        <time>2017-08-20T10:03:30Z</time>
      </trkpt>
      <trkpt lat="45.93197" lon="4.72686">
        <ele>169</ele>
        <time>2017-08-20T10:03:31Z</time>
      </trkpt>
      <trkpt lat="45.93192" lon="4.72691">
        <ele>169</ele>
        <time>2017-08-20T10:03:32Z</time>
      </trkpt>
      <trkpt lat="45.93187" lon="4.72697">
        <ele>169</ele>
        <time>2017-08-20T10:03:33Z</time>
      </trkpt>
      <trkpt lat="45.93182" lon="4.72703">
        <ele>169</ele>
        <time>2017-08-20T10:03:34Z</time>
      </trkpt>
      <trkpt lat="45.93176" lon="4.72708">
        <ele>169</ele>
        <time>2017-08-20T10:03:35Z</time>
      </trkpt>
      <trkpt lat="45.93172" lon="4.72715">
        <ele>170</ele>
        <time>2017-08-20T10:03:36Z</time>
      </trkpt>
      <trkpt lat="45.93166" lon="4.72721">
        <ele>170</ele>
        <time>2017-08-20T10:03:37Z</time>
      </trkpt>
      <trkpt lat="45.93161" lon="4.72727">
        <ele>170</ele>
        <time>2017-08-20T10:03:38Z</time>
      </trkpt>
      <trkpt lat="45.93155" lon="4.72732">
        <ele>170</ele>
        <time>2017-08-20T10:03:39Z</time>
      </trkpt>
      <trkpt lat="45.9315" lon="4.72739">
        <ele>170</ele>
        <time>2017-08-20T10:03:40Z</time>
      </trkpt>
      <trkpt lat="45.93144" lon="4.72745">
        <ele>170</ele>
        <time>2017-08-20T10:03:41Z</time>
      </trkpt>
      <trkpt lat="45.93139" lon="4.72752">
        <ele>171</ele>
        <time>2017-08-20T10:03:42Z</time>
      </trkpt>
      <trkpt lat="45.93133" lon="4.72759">
        <ele>171</ele>
        <time>2017-08-20T10:03:43Z</time>
      </trkpt>
      <trkpt lat="45.93127" lon="4.72766">
        <ele>171</ele>
        <time>2017-08-20T10:03:44Z</time>
      </trkpt>
      <trkpt lat="45.93121" lon="4.72773">
        <ele>171</ele>
        <time>2017-08-20T10:03:45Z</time>
      </trkpt>
      <trkpt lat="45.93116" lon="4.7278">
        <ele>171</ele>
        <time>2017-08-20T10:03:46Z</time>
      </trkpt>
      <trkpt lat="45.9311" lon="4.72787">
        <ele>171</ele>
        <time>2017-08-20T10:03:47Z</time>
      </trkpt>
      <trkpt lat="45.93105" lon="4.72793">
        <ele>171</ele>
        <time>2017-08-20T10:03:48Z</time>
      </trkpt>
      <trkpt lat="45.93099" lon="4.728">
        <ele>171</ele>
        <time>2017-08-20T10:03:49Z</time>
      </trkpt>
      <trkpt lat="45.93094" lon="4.72805">
        <ele>172</ele>
        <time>2017-08-20T10:03:50Z</time>
      </trkpt>
      <trkpt lat="45.93089" lon="4.72811">
        <ele>172</ele>
        <time>2017-08-20T10:03:51Z</time>
      </trkpt>
      <trkpt lat="45.93084" lon="4.72816">
        <ele>172</ele>
        <time>2017-08-20T10:03:52Z</time>
      </trkpt>
      <trkpt lat="45.93079" lon="4.72821">
        <ele>173</ele>
        <time>2017-08-20T10:03:53Z</time>
      </trkpt>
      <trkpt lat="45.93074" lon="4.72825">
        <ele>173</ele>
        <time>2017-08-20T10:03:54Z</time>
      </trkpt>
      <trkpt lat="45.93069" lon="4.72829">
        <ele>173</ele>
        <time>2017-08-20T10:03:55Z</time>
      </trkpt>
      <trkpt lat="45.93063" lon="4.72833">
        <ele>173</ele>
        <time>2017-08-20T10:03:56Z</time>
      </trkpt>
      <trkpt lat="45.93058" lon="4.72836">
        <ele>173</ele>
        <time>2017-08-20T10:03:57Z</time>
      </trkpt>
      <trkpt lat="45.93052" lon="4.7284">
        <ele>172</ele>
        <time>2017-08-20T10:03:58Z</time>
      </trkpt>
      <trkpt lat="45.93048" lon="4.72849">
        <ele>172</ele>
        <time>2017-08-20T10:03:59Z</time>
      </trkpt>
      <trkpt lat="45.93046" lon="4.72856">
        <ele>172</ele>
        <time>2017-08-20T10:04:00Z</time>
      </trkpt>
      <trkpt lat="45.93041" lon="4.72858">
        <ele>172</ele>
        <time>2017-08-20T10:04:01Z</time>
      </trkpt>
      <trkpt lat="45.93038" lon="4.72862">
        <ele>172</ele>
        <time>2017-08-20T10:04:02Z</time>
      </trkpt>
      <trkpt lat="45.93032" lon="4.72867">
        <ele>172</ele>
        <time>2017-08-20T10:04:03Z</time>
      </trkpt>
      <trkpt lat="45.93027" lon="4.72873">
        <ele>172</ele>
        <time>2017-08-20T10:04:04Z</time>
      </trkpt>
      <trkpt lat="45.93023" lon="4.72879">
        <ele>172</ele>
        <time>2017-08-20T10:04:05Z</time>
      </trkpt>
      <trkpt lat="45.93019" lon="4.72885">
        <ele>172</ele>
        <time>2017-08-20T10:04:06Z</time>
      </trkpt>
      <trkpt lat="45.93015" lon="4.7289">
        <ele>172</ele>
        <time>2017-08-20T10:04:07Z</time>
      </trkpt>
      <trkpt lat="45.93011" lon="4.72896">
        <ele>172</ele>
        <time>2017-08-20T10:04:08Z</time>
      </trkpt>
      <trkpt lat="45.93007" lon="4.72901">
        <ele>172</ele>
        <time>2017-08-20T10:04:09Z</time>
      </trkpt>
      <trkpt lat="45.93004" lon="4.72905">
        <ele>171</ele>
        <time>2017-08-20T10:04:10Z</time>
      </trkpt>
      <trkpt lat="45.93" lon="4.7291">
        <ele>171</ele>
        <time>2017-08-20T10:04:11Z</time>
      </trkpt>
      <trkpt lat="45.92996" lon="4.72916">
        <ele>171</ele>
        <time>2017-08-20T10:04:12Z</time>
      </trkpt>
      <trkpt lat="45.92992" lon="4.72921">
        <ele>171</ele>
        <time>2017-08-20T10:04:13Z</time>
      </trkpt>
      <trkpt lat="45.92989" lon="4.72927">
        <ele>171</ele>
        <time>2017-08-20T10:04:14Z</time>
      </trkpt>
      <trkpt lat="45.92985" lon="4.72933">
        <ele>171</ele>
        <time>2017-08-20T10:04:15Z</time>
      </trkpt>
      <trkpt lat="45.9298" lon="4.72938">
        <ele>171</ele>
        <time>2017-08-20T10:04:16Z</time>
      </trkpt>
      <trkpt lat="45.92976" lon="4.72944">
        <ele>171</ele>
        <time>2017-08-20T10:04:17Z</time>
      </trkpt>
      <trkpt lat="45.92972" lon="4.72948">
        <ele>171</ele>
        <time>2017-08-20T10:04:18Z</time>
      </trkpt>
      <trkpt lat="45.92968" lon="4.72952">
        <ele>171</ele>
        <time>2017-08-20T10:04:19Z</time>
      </trkpt>
      <trkpt lat="45.92964" lon="4.72957">
        <ele>171</ele>
        <time>2017-08-20T10:04:20Z</time>
      </trkpt>
      <trkpt lat="45.92961" lon="4.72962">
        <ele>171</ele>
        <time>2017-08-20T10:04:21Z</time>
      </trkpt>
      <trkpt lat="45.92957" lon="4.72966">
        <ele>171</ele>
        <time>2017-08-20T10:04:22Z</time>
      </trkpt>
      <trkpt lat="45.92953" lon="4.72971">
        <ele>171</ele>
        <time>2017-08-20T10:04:23Z</time>
      </trkpt>
      <trkpt lat="45.92949" lon="4.72976">
        <ele>171</ele>
        <time>2017-08-20T10:04:24Z</time>
      </trkpt>
      <trkpt lat="45.92944" lon="4.7298">
        <ele>171</ele>
        <time>2017-08-20T10:04:25Z</time>
      </trkpt>
      <trkpt lat="45.9294" lon="4.72985">
        <ele>171</ele>
        <time>2017-08-20T10:04:26Z</time>
      </trkpt>
      <trkpt lat="45.92935" lon="4.7299">
        <ele>172</ele>
        <time>2017-08-20T10:04:27Z</time>
      </trkpt>
      <trkpt lat="45.9293" lon="4.72995">
        <ele>172</ele>
        <time>2017-08-20T10:04:28Z</time>
      </trkpt>
      <trkpt lat="45.92926" lon="4.73">
        <ele>172</ele>
        <time>2017-08-20T10:04:29Z</time>
      </trkpt>
      <trkpt lat="45.92922" lon="4.73004">
        <ele>172</ele>
        <time>2017-08-20T10:04:30Z</time>
      </trkpt>
      <trkpt lat="45.92918" lon="4.73009">
        <ele>172</ele>
        <time>2017-08-20T10:04:31Z</time>
      </trkpt>
      <trkpt lat="45.92914" lon="4.73014">
        <ele>172</ele>
        <time>2017-08-20T10:04:32Z</time>
      </trkpt>
      <trkpt lat="45.9291" lon="4.73018">
        <ele>172</ele>
        <time>2017-08-20T10:04:33Z</time>
      </trkpt>
      <trkpt lat="45.92907" lon="4.73023">
        <ele>172</ele>
        <time>2017-08-20T10:04:34Z</time>
      </trkpt>
      <trkpt lat="45.92903" lon="4.73028">
        <ele>172</ele>
        <time>2017-08-20T10:04:35Z</time>
      </trkpt>
      <trkpt lat="45.929" lon="4.73033">
        <ele>172</ele>
        <time>2017-08-20T10:04:36Z</time>
      </trkpt>
      <trkpt lat="45.92896" lon="4.73039">
        <ele>172</ele>
        <time>2017-08-20T10:04:37Z</time>
      </trkpt>
      <trkpt lat="45.92892" lon="4.73045">
        <ele>172</ele>
        <time>2017-08-20T10:04:38Z</time>
      </trkpt>
      <trkpt lat="45.92888" lon="4.73051">
        <ele>172</ele>
        <time>2017-08-20T10:04:39Z</time>
      </trkpt>
      <trkpt lat="45.92885" lon="4.73057">
        <ele>172</ele>
        <time>2017-08-20T10:04:40Z</time>
      </trkpt>
      <trkpt lat="45.92881" lon="4.73065">
        <ele>172</ele>
        <time>2017-08-20T10:04:41Z</time>
      </trkpt>
      <trkpt lat="45.92877" lon="4.73072">
        <ele>172</ele>
        <time>2017-08-20T10:04:42Z</time>
      </trkpt>
      <trkpt lat="45.92874" lon="4.73079">
        <ele>172</ele>
        <time>2017-08-20T10:04:43Z</time>
      </trkpt>
      <trkpt lat="45.92872" lon="4.73087">
        <ele>172</ele>
        <time>2017-08-20T10:04:44Z</time>
      </trkpt>
      <trkpt lat="45.92869" lon="4.73094">
        <ele>172</ele>
        <time>2017-08-20T10:04:45Z</time>
      </trkpt>
      <trkpt lat="45.92867" lon="4.73102">
        <ele>172</ele>
        <time>2017-08-20T10:04:46Z</time>
      </trkpt>
      <trkpt lat="45.92866" lon="4.73111">
        <ele>171</ele>
        <time>2017-08-20T10:04:47Z</time>
      </trkpt>
      <trkpt lat="45.92864" lon="4.73118">
        <ele>171</ele>
        <time>2017-08-20T10:04:48Z</time>
      </trkpt>
      <trkpt lat="45.92862" lon="4.73126">
        <ele>171</ele>
        <time>2017-08-20T10:04:49Z</time>
      </trkpt>
      <trkpt lat="45.9286" lon="4.73133">
        <ele>171</ele>
        <time>2017-08-20T10:04:50Z</time>
      </trkpt>
      <trkpt lat="45.92859" lon="4.73141">
        <ele>171</ele>
        <time>2017-08-20T10:04:51Z</time>
      </trkpt>
      <trkpt lat="45.92858" lon="4.73149">
        <ele>171</ele>
        <time>2017-08-20T10:04:52Z</time>
      </trkpt>
      <trkpt lat="45.92856" lon="4.73156">
        <ele>171</ele>
        <time>2017-08-20T10:04:53Z</time>
      </trkpt>
      <trkpt lat="45.92856" lon="4.73164">
        <ele>171</ele>
        <time>2017-08-20T10:04:54Z</time>
      </trkpt>
      <trkpt lat="45.92855" lon="4.7317">
        <ele>171</ele>
        <time>2017-08-20T10:04:55Z</time>
      </trkpt>
      <trkpt lat="45.92854" lon="4.73177">
        <ele>171</ele>
        <time>2017-08-20T10:04:56Z</time>
      </trkpt>
      <trkpt lat="45.92853" lon="4.73183">
        <ele>171</ele>
        <time>2017-08-20T10:04:57Z</time>
      </trkpt>
      <trkpt lat="45.92852" lon="4.7319">
        <ele>171</ele>
        <time>2017-08-20T10:04:58Z</time>
      </trkpt>
      <trkpt lat="45.92851" lon="4.73198">
        <ele>171</ele>
        <time>2017-08-20T10:04:59Z</time>
      </trkpt>
      <trkpt lat="45.9285" lon="4.73206">
        <ele>171</ele>
        <time>2017-08-20T10:05:00Z</time>
      </trkpt>
      <trkpt lat="45.92849" lon="4.73214">
        <ele>171</ele>
        <time>2017-08-20T10:05:01Z</time>
      </trkpt>
      <trkpt lat="45.92849" lon="4.73223">
        <ele>171</ele>
        <time>2017-08-20T10:05:02Z</time>
      </trkpt>
      <trkpt lat="45.92848" lon="4.73231">
        <ele>171</ele>
        <time>2017-08-20T10:05:03Z</time>
      </trkpt>
      <trkpt lat="45.92847" lon="4.7324">
        <ele>170</ele>
        <time>2017-08-20T10:05:04Z</time>
      </trkpt>
      <trkpt lat="45.92846" lon="4.7325">
        <ele>170</ele>
        <time>2017-08-20T10:05:05Z</time>
      </trkpt>
      <trkpt lat="45.92845" lon="4.73259">
        <ele>171</ele>
        <time>2017-08-20T10:05:06Z</time>
      </trkpt>
      <trkpt lat="45.92844" lon="4.73269">
        <ele>171</ele>
        <time>2017-08-20T10:05:07Z</time>
      </trkpt>
      <trkpt lat="45.92843" lon="4.73279">
        <ele>171</ele>
        <time>2017-08-20T10:05:08Z</time>
      </trkpt>
      <trkpt lat="45.92842" lon="4.73289">
        <ele>171</ele>
        <time>2017-08-20T10:05:09Z</time>
      </trkpt>
      <trkpt lat="45.9284" lon="4.73299">
        <ele>171</ele>
        <time>2017-08-20T10:05:10Z</time>
      </trkpt>
      <trkpt lat="45.92839" lon="4.73309">
        <ele>171</ele>
        <time>2017-08-20T10:05:11Z</time>
      </trkpt>
      <trkpt lat="45.92838" lon="4.7332">
        <ele>171</ele>
        <time>2017-08-20T10:05:12Z</time>
      </trkpt>
      <trkpt lat="45.92838" lon="4.7333">
        <ele>171</ele>
        <time>2017-08-20T10:05:13Z</time>
      </trkpt>
      <trkpt lat="45.92837" lon="4.7334">
        <ele>171</ele>
        <time>2017-08-20T10:05:14Z</time>
      </trkpt>
      <trkpt lat="45.92836" lon="4.73349">
        <ele>171</ele>
        <time>2017-08-20T10:05:15Z</time>
      </trkpt>
      <trkpt lat="45.92835" lon="4.73358">
        <ele>171</ele>
        <time>2017-08-20T10:05:16Z</time>
      </trkpt>
      <trkpt lat="45.92834" lon="4.73367">
        <ele>171</ele>
        <time>2017-08-20T10:05:17Z</time>
      </trkpt>
      <trkpt lat="45.92833" lon="4.73376">
        <ele>171</ele>
        <time>2017-08-20T10:05:18Z</time>
      </trkpt>
      <trkpt lat="45.92833" lon="4.73384">
        <ele>171</ele>
        <time>2017-08-20T10:05:19Z</time>
      </trkpt>
      <trkpt lat="45.92832" lon="4.73392">
        <ele>172</ele>
        <time>2017-08-20T10:05:20Z</time>
      </trkpt>
      <trkpt lat="45.92831" lon="4.73401">
        <ele>172</ele>
        <time>2017-08-20T10:05:21Z</time>
      </trkpt>
      <trkpt lat="45.92829" lon="4.7341">
        <ele>172</ele>
        <time>2017-08-20T10:05:22Z</time>
      </trkpt>
      <trkpt lat="45.92829" lon="4.73419">
        <ele>172</ele>
        <time>2017-08-20T10:05:23Z</time>
      </trkpt>
      <trkpt lat="45.92828" lon="4.73428">
        <ele>172</ele>
        <time>2017-08-20T10:05:24Z</time>
      </trkpt>
      <trkpt lat="45.92826" lon="4.73437">
        <ele>172</ele>
        <time>2017-08-20T10:05:25Z</time>
      </trkpt>
      <trkpt lat="45.92825" lon="4.73446">
        <ele>172</ele>
        <time>2017-08-20T10:05:26Z</time>
      </trkpt>
      <trkpt lat="45.92823" lon="4.73455">
        <ele>171</ele>
        <time>2017-08-20T10:05:27Z</time>
      </trkpt>
      <trkpt lat="45.92822" lon="4.73464">
        <ele>171</ele>
        <time>2017-08-20T10:05:28Z</time>
      </trkpt>
      <trkpt lat="45.92821" lon="4.73473">
        <ele>171</ele>
        <time>2017-08-20T10:05:29Z</time>
      </trkpt>
      <trkpt lat="45.92819" lon="4.73481">
        <ele>172</ele>
        <time>2017-08-20T10:05:30Z</time>
      </trkpt>
      <trkpt lat="45.92818" lon="4.7349">
        <ele>172</ele>
        <time>2017-08-20T10:05:31Z</time>
      </trkpt>
      <trkpt lat="45.92818" lon="4.73498">
        <ele>172</ele>
        <time>2017-08-20T10:05:32Z</time>
      </trkpt>
      <trkpt lat="45.92817" lon="4.73506">
        <ele>172</ele>
        <time>2017-08-20T10:05:33Z</time>
      </trkpt>
      <trkpt lat="45.92816" lon="4.73514">
        <ele>172</ele>
        <time>2017-08-20T10:05:34Z</time>
      </trkpt>
      <trkpt lat="45.92815" lon="4.73523">
        <ele>172</ele>
        <time>2017-08-20T10:05:35Z</time>
      </trkpt>
      <trkpt lat="45.92813" lon="4.73531">
        <ele>172</ele>
        <time>2017-08-20T10:05:36Z</time>
      </trkpt>
      <trkpt lat="45.92812" lon="4.73539">
        <ele>172</ele>
        <time>2017-08-20T10:05:37Z</time>
      </trkpt>
      <trkpt lat="45.92811" lon="4.73548">
        <ele>171</ele>
        <time>2017-08-20T10:05:38Z</time>
      </trkpt>
      <trkpt lat="45.9281" lon="4.73556">
        <ele>171</ele>
        <time>2017-08-20T10:05:39Z</time>
      </trkpt>
      <trkpt lat="45.9281" lon="4.73564">
        <ele>171</ele>
        <time>2017-08-20T10:05:40Z</time>
      </trkpt>
      <trkpt lat="45.92809" lon="4.73573">
        <ele>171</ele>
        <time>2017-08-20T10:05:41Z</time>
      </trkpt>
      <trkpt lat="45.92808" lon="4.7358">
        <ele>171</ele>
        <time>2017-08-20T10:05:42Z</time>
      </trkpt>
      <trkpt lat="45.92807" lon="4.73588">
        <ele>172</ele>
        <time>2017-08-20T10:05:43Z</time>
      </trkpt>
      <trkpt lat="45.92807" lon="4.73596">
        <ele>172</ele>
        <time>2017-08-20T10:05:44Z</time>
      </trkpt>
      <trkpt lat="45.92807" lon="4.73603">
        <ele>172</ele>
        <time>2017-08-20T10:05:45Z</time>
      </trkpt>
      <trkpt lat="45.92807" lon="4.73611">
        <ele>172</ele>
        <time>2017-08-20T10:05:46Z</time>
      </trkpt>
      <trkpt lat="45.92806" lon="4.73617">
        <ele>172</ele>
        <time>2017-08-20T10:05:47Z</time>
      </trkpt>
      <trkpt lat="45.92805" lon="4.73623">
        <ele>172</ele>
        <time>2017-08-20T10:05:48Z</time>
      </trkpt>
      <trkpt lat="45.92802" lon="4.73629">
        <ele>172</ele>
        <time>2017-08-20T10:05:49Z</time>
      </trkpt>
      <trkpt lat="45.92799" lon="4.73635">
        <ele>172</ele>
        <time>2017-08-20T10:05:50Z</time>
      </trkpt>
      <trkpt lat="45.92797" lon="4.7364">
        <ele>172</ele>
        <time>2017-08-20T10:05:51Z</time>
      </trkpt>
      <trkpt lat="45.92794" lon="4.73646">
        <ele>172</ele>
        <time>2017-08-20T10:05:52Z</time>
      </trkpt>
      <trkpt lat="45.92791" lon="4.73651">
        <ele>172</ele>
        <time>2017-08-20T10:05:53Z</time>
      </trkpt>
      <trkpt lat="45.92787" lon="4.73661">
        <ele>172</ele>
        <time>2017-08-20T10:05:55Z</time>
      </trkpt>
      <trkpt lat="45.92785" lon="4.73667">
        <ele>172</ele>
        <time>2017-08-20T10:05:56Z</time>
      </trkpt>
      <trkpt lat="45.92783" lon="4.73673">
        <ele>172</ele>
        <time>2017-08-20T10:05:57Z</time>
      </trkpt>
      <trkpt lat="45.92781" lon="4.7368">
        <ele>172</ele>
        <time>2017-08-20T10:05:58Z</time>
      </trkpt>
      <trkpt lat="45.92779" lon="4.73687">
        <ele>172</ele>
        <time>2017-08-20T10:05:59Z</time>
      </trkpt>
      <trkpt lat="45.92777" lon="4.73693">
        <ele>172</ele>
        <time>2017-08-20T10:06:00Z</time>
      </trkpt>
      <trkpt lat="45.92776" lon="4.73701">
        <ele>172</ele>
        <time>2017-08-20T10:06:01Z</time>
      </trkpt>
      <trkpt lat="45.92776" lon="4.73708">
        <ele>172</ele>
        <time>2017-08-20T10:06:02Z</time>
      </trkpt>
      <trkpt lat="45.92773" lon="4.7372">
        <ele>172</ele>
        <time>2017-08-20T10:06:04Z</time>
      </trkpt>
      <trkpt lat="45.92771" lon="4.73725">
        <ele>172</ele>
        <time>2017-08-20T10:06:05Z</time>
      </trkpt>
      <trkpt lat="45.92766" lon="4.73728">
        <ele>172</ele>
        <time>2017-08-20T10:06:07Z</time>
      </trkpt>
      <trkpt lat="45.92762" lon="4.73727">
        <ele>172</ele>
        <time>2017-08-20T10:06:08Z</time>
      </trkpt>
      <trkpt lat="45.92758" lon="4.73725">
        <ele>172</ele>
        <time>2017-08-20T10:06:09Z</time>
      </trkpt>
      <trkpt lat="45.92753" lon="4.73723">
        <ele>172</ele>
        <time>2017-08-20T10:06:10Z</time>
      </trkpt>
      <trkpt lat="45.92748" lon="4.73721">
        <ele>173</ele>
        <time>2017-08-20T10:06:11Z</time>
      </trkpt>
      <trkpt lat="45.92743" lon="4.73719">
        <ele>173</ele>
        <time>2017-08-20T10:06:12Z</time>
      </trkpt>
      <trkpt lat="45.92736" lon="4.73717">
        <ele>173</ele>
        <time>2017-08-20T10:06:13Z</time>
      </trkpt>
      <trkpt lat="45.9273" lon="4.73716">
        <ele>173</ele>
        <time>2017-08-20T10:06:14Z</time>
      </trkpt>
      <trkpt lat="45.92723" lon="4.73714">
        <ele>173</ele>
        <time>2017-08-20T10:06:15Z</time>
      </trkpt>
      <trkpt lat="45.92717" lon="4.73712">
        <ele>173</ele>
        <time>2017-08-20T10:06:16Z</time>
      </trkpt>
      <trkpt lat="45.9271" lon="4.7371">
        <ele>173</ele>
        <time>2017-08-20T10:06:17Z</time>
      </trkpt>
      <trkpt lat="45.92705" lon="4.73709">
        <ele>173</ele>
        <time>2017-08-20T10:06:18Z</time>
      </trkpt>
      <trkpt lat="45.92699" lon="4.73707">
        <ele>173</ele>
        <time>2017-08-20T10:06:19Z</time>
      </trkpt>
      <trkpt lat="45.92693" lon="4.73705">
        <ele>173</ele>
        <time>2017-08-20T10:06:20Z</time>
      </trkpt>
      <trkpt lat="45.92687" lon="4.73704">
        <ele>173</ele>
        <time>2017-08-20T10:06:21Z</time>
      </trkpt>
      <trkpt lat="45.92682" lon="4.73703">
        <ele>173</ele>
        <time>2017-08-20T10:06:22Z</time>
      </trkpt>
      <trkpt lat="45.92676" lon="4.73703">
        <ele>173</ele>
        <time>2017-08-20T10:06:23Z</time>
      </trkpt>
      <trkpt lat="45.92671" lon="4.73702">
        <ele>174</ele>
        <time>2017-08-20T10:06:24Z</time>
      </trkpt>
      <trkpt lat="45.92666" lon="4.737">
        <ele>173</ele>
        <time>2017-08-20T10:06:25Z</time>
      </trkpt>
      <trkpt lat="45.92662" lon="4.73697">
        <ele>173</ele>
        <time>2017-08-20T10:06:26Z</time>
      </trkpt>
      <trkpt lat="45.92658" lon="4.73693">
        <ele>173</ele>
        <time>2017-08-20T10:06:27Z</time>
      </trkpt>
      <trkpt lat="45.92654" lon="4.7369">
        <ele>173</ele>
        <time>2017-08-20T10:06:28Z</time>
      </trkpt>
      <trkpt lat="45.92647" lon="4.73681">
        <ele>173</ele>
        <time>2017-08-20T10:06:30Z</time>
      </trkpt>
      <trkpt lat="45.92645" lon="4.73676">
        <ele>173</ele>
        <time>2017-08-20T10:06:31Z</time>
      </trkpt>
      <trkpt lat="45.92639" lon="4.73667">
        <ele>173</ele>
        <time>2017-08-20T10:06:33Z</time>
      </trkpt>
      <trkpt lat="45.92636" lon="4.73661">
        <ele>173</ele>
        <time>2017-08-20T10:06:34Z</time>
      </trkpt>
      <trkpt lat="45.92633" lon="4.73655">
        <ele>173</ele>
        <time>2017-08-20T10:06:35Z</time>
      </trkpt>
      <trkpt lat="45.9263" lon="4.73648">
        <ele>173</ele>
        <time>2017-08-20T10:06:36Z</time>
      </trkpt>
      <trkpt lat="45.92627" lon="4.7364">
        <ele>173</ele>
        <time>2017-08-20T10:06:37Z</time>
      </trkpt>
      <trkpt lat="45.92624" lon="4.73634">
        <ele>173</ele>
        <time>2017-08-20T10:06:38Z</time>
      </trkpt>
      <trkpt lat="45.9262" lon="4.73629">
        <ele>173</ele>
        <time>2017-08-20T10:06:39Z</time>
      </trkpt>
      <trkpt lat="45.92615" lon="4.73625">
        <ele>173</ele>
        <time>2017-08-20T10:06:40Z</time>
      </trkpt>
      <trkpt lat="45.92609" lon="4.73622">
        <ele>173</ele>
        <time>2017-08-20T10:06:41Z</time>
      </trkpt>
      <trkpt lat="45.92605" lon="4.73621">
        <ele>173</ele>
        <time>2017-08-20T10:06:42Z</time>
      </trkpt>
      <trkpt lat="45.92599" lon="4.7362">
        <ele>173</ele>
        <time>2017-08-20T10:06:43Z</time>
      </trkpt>
      <trkpt lat="45.92593" lon="4.73621">
        <ele>173</ele>
        <time>2017-08-20T10:06:44Z</time>
      </trkpt>
      <trkpt lat="45.92588" lon="4.73621">
        <ele>173</ele>
        <time>2017-08-20T10:06:45Z</time>
      </trkpt>
      <trkpt lat="45.92584" lon="4.73622">
        <ele>173</ele>
        <time>2017-08-20T10:06:46Z</time>
      </trkpt>
      <trkpt lat="45.92578" lon="4.73623">
        <ele>173</ele>
        <time>2017-08-20T10:06:47Z</time>
      </trkpt>
      <trkpt lat="45.92573" lon="4.73624">
        <ele>173</ele>
        <time>2017-08-20T10:06:48Z</time>
      </trkpt>
      <trkpt lat="45.92567" lon="4.73626">
        <ele>173</ele>
        <time>2017-08-20T10:06:49Z</time>
      </trkpt>
      <trkpt lat="45.92561" lon="4.73628">
        <ele>173</ele>
        <time>2017-08-20T10:06:50Z</time>
      </trkpt>
      <trkpt lat="45.92552" lon="4.73629">
        <ele>173</ele>
        <time>2017-08-20T10:06:51Z</time>
      </trkpt>
      <trkpt lat="45.92544" lon="4.7363">
        <ele>173</ele>
        <time>2017-08-20T10:06:52Z</time>
      </trkpt>
      <trkpt lat="45.92538" lon="4.73631">
        <ele>173</ele>
        <time>2017-08-20T10:06:53Z</time>
      </trkpt>
      <trkpt lat="45.92532" lon="4.73633">
        <ele>173</ele>
        <time>2017-08-20T10:06:54Z</time>
      </trkpt>
      <trkpt lat="45.92527" lon="4.73635">
        <ele>173</ele>
        <time>2017-08-20T10:06:55Z</time>
      </trkpt>
      <trkpt lat="45.92521" lon="4.73636">
        <ele>173</ele>
        <time>2017-08-20T10:06:56Z</time>
      </trkpt>
      <trkpt lat="45.92515" lon="4.73636">
        <ele>173</ele>
        <time>2017-08-20T10:06:57Z</time>
      </trkpt>
      <trkpt lat="45.92511" lon="4.73637">
        <ele>174</ele>
        <time>2017-08-20T10:06:58Z</time>
      </trkpt>
      <trkpt lat="45.92506" lon="4.73638">
        <ele>174</ele>
        <time>2017-08-20T10:06:59Z</time>
      </trkpt>
      <trkpt lat="45.92501" lon="4.73639">
        <ele>174</ele>
        <time>2017-08-20T10:07:00Z</time>
      </trkpt>
      <trkpt lat="45.92497" lon="4.73639">
        <ele>174</ele>
        <time>2017-08-20T10:07:01Z</time>
      </trkpt>
      <trkpt lat="45.92492" lon="4.7364">
        <ele>174</ele>
        <time>2017-08-20T10:07:02Z</time>
      </trkpt>
      <trkpt lat="45.92488" lon="4.73641">
        <ele>174</ele>
        <time>2017-08-20T10:07:03Z</time>
      </trkpt>
      <trkpt lat="45.92483" lon="4.73641">
        <ele>174</ele>
        <time>2017-08-20T10:07:04Z</time>
      </trkpt>
      <trkpt lat="45.92475" lon="4.73641">
        <ele>174</ele>
        <time>2017-08-20T10:07:06Z</time>
      </trkpt>
      <trkpt lat="45.92472" lon="4.73641">
        <ele>174</ele>
        <time>2017-08-20T10:07:07Z</time>
      </trkpt>
      <trkpt lat="45.92466" lon="4.73646">
        <ele>174</ele>
        <time>2017-08-20T10:07:09Z</time>
      </trkpt>
      <trkpt lat="45.92464" lon="4.7365">
        <ele>174</ele>
        <time>2017-08-20T10:07:10Z</time>
      </trkpt>
      <trkpt lat="45.92463" lon="4.73659">
        <ele>174</ele>
        <time>2017-08-20T10:07:12Z</time>
      </trkpt>
      <trkpt lat="45.92462" lon="4.73663">
        <ele>174</ele>
        <time>2017-08-20T10:07:13Z</time>
      </trkpt>
      <trkpt lat="45.92461" lon="4.73674">
        <ele>174</ele>
        <time>2017-08-20T10:07:15Z</time>
      </trkpt>
      <trkpt lat="45.92461" lon="4.7368">
        <ele>174</ele>
        <time>2017-08-20T10:07:16Z</time>
      </trkpt>
      <trkpt lat="45.92459" lon="4.7369">
        <ele>174</ele>
        <time>2017-08-20T10:07:18Z</time>
      </trkpt>
      <trkpt lat="45.92459" lon="4.73695">
        <ele>174</ele>
        <time>2017-08-20T10:07:19Z</time>
      </trkpt>
      <trkpt lat="45.92458" lon="4.73706">
        <ele>174</ele>
        <time>2017-08-20T10:07:22Z</time>
      </trkpt>
      <trkpt lat="45.92459" lon="4.73706">
        <ele>174</ele>
        <time>2017-08-20T10:07:23Z</time>
      </trkpt>
      <trkpt lat="45.92461" lon="4.73706">
        <ele>174</ele>
        <time>2017-08-20T10:07:49.477Z</time>
      </trkpt>
    </trkseg>
  </trk>
</gpx>